GFSSW_prec_precacc_009.txt.gz
Total_Precipitation_Accumulation
0.00 0.00 0.00 0.00 0.01 0.01 0.00 0.00 0.00 0.01 0.02 0.03 0.02 0.01 0.00 0.00 0.00 0.02 0.02 0.00 0.00 0.00 0.00 0.00 0.00 0.00 0.00 0.00 0.00 0.00 0.00 0.00 0.00 0.00 0.00 0.00 0.00 0.00 0.00 0.00 0.00 0.00 0.00 0.00 0.00
0.00 0.00 0.00 0.00 0.01 0.01 0.02 0.01 0.01 0.01 0.00 0.01 0.02 0.02 0.01 0.01 0.01 0.01 0.00 0.00 0.00 0.00 0.00 0.00 0.00 0.00 0.00 0.00 0.00 0.00 0.00 0.00 0.00 0.00 0.00 0.00 0.00 0.00 0.00 0.00 0.00 0.00 0.00 0.00 0.00
0.00 0.01 0.02 0.03 0.02 0.01 0.02 0.03 0.03 0.03 0.03 0.01 0.01 0.02 0.02 0.04 0.02 0.00 0.00 0.00 0.00 0.00 0.01 0.00 0.00 0.00 0.00 0.00 0.00 0.00 0.00 0.00 0.00 0.00 0.00 0.00 0.00 0.00 0.00 0.00 0.00 0.00 0.00 0.00 0.00
0.02 0.02 0.05 0.06 0.04 0.06 0.09 0.07 0.04 0.03 0.02 0.02 0.02 0.02 0.04 0.08 0.01 0.00 0.00 0.00 0.00 0.01 0.03 0.01 0.00 0.00 0.00 0.00 0.00 0.00 0.00 0.00 0.00 0.00 0.00 0.00 0.00 0.00 0.00 0.00 0.00 0.00 0.00 0.00 0.00
0.03 0.02 0.01 0.02 0.03 0.01 0.01 0.05 0.05 0.05 0.06 0.06 0.05 0.05 0.12 0.08 0.01 0.00 0.00 0.00 0.00 0.04 0.04 0.01 0.00 0.00 0.00 0.00 0.00 0.00 0.00 0.00 0.00 0.00 0.00 0.00 0.00 0.00 0.00 0.00 0.00 0.00 0.00 0.00 0.00
0.01 0.01 0.00 0.00 0.00 0.00 0.00 0.02 0.05 0.06 0.08 0.04 0.07 0.18 0.12 0.02 0.00 0.00 0.01 0.00 0.00 0.02 0.06 0.01 0.00 0.00 0.00 0.00 0.00 0.00 0.00 0.00 0.00 0.00 0.00 0.00 0.00 0.00 0.00 0.00 0.00 0.00 0.00 0.00 0.00
0.04 0.02 0.00 0.00 0.00 0.00 0.00 0.00 0.01 0.06 0.15 0.15 0.08 0.20 0.09 0.01 0.00 0.00 0.03 0.01 0.00 0.02 0.06 0.00 0.00 0.00 0.00 0.00 0.00 0.00 0.00 0.00 0.00 0.00 0.00 0.00 0.00 0.00 0.00 0.00 0.00 0.00 0.00 0.00 0.00
0.04 0.01 0.00 0.01 0.02 0.02 0.04 0.03 0.02 0.05 0.07 0.14 0.23 0.34 0.05 0.01 0.01 0.00 0.03 0.07 0.01 0.04 0.17 0.10 0.03 0.00 0.00 0.00 0.00 0.00 0.00 0.00 0.00 0.00 0.00 0.00 0.00 0.00 0.00 0.00 0.00 0.00 0.00 0.00 0.00
0.04 0.04 0.09 0.16 0.02 0.00 0.02 0.06 0.13 0.22 0.18 0.19 0.29 0.21 0.01 0.04 0.06 0.00 0.03 0.09 0.01 0.03 0.16 0.17 0.05 0.00 0.00 0.00 0.00 0.00 0.00 0.00 0.00 0.00 0.00 0.00 0.00 0.00 0.00 0.00 0.00 0.00 0.00 0.00 0.00
0.05 0.08 0.17 0.31 0.17 0.06 0.04 0.19 0.39 0.79 0.35 0.30 0.21 0.17 0.01 0.03 0.04 0.04 0.07 0.15 0.02 0.04 0.25 0.34 0.21 0.02 0.01 0.00 0.00 0.00 0.00 0.00 0.00 0.00 0.00 0.00 0.00 0.00 0.00 0.00 0.00 0.00 0.00 0.00 0.00
0.08 0.06 0.08 0.15 0.23 0.12 0.16 0.57 0.52 0.55 0.15 0.05 0.07 0.06 0.02 0.05 0.12 0.17 0.13 0.19 0.08 0.06 0.20 0.30 0.28 0.10 0.01 0.00 0.00 0.00 0.00 0.00 0.00 0.00 0.00 0.00 0.00 0.00 0.00 0.00 0.00 0.00 0.00 0.00 0.00
0.04 0.03 0.05 0.07 0.20 0.32 0.42 0.59 0.24 0.13 0.14 0.18 0.01 0.05 0.15 0.26 0.26 0.46 0.22 0.22 0.08 0.03 0.08 0.20 0.18 0.04 0.00 0.00 0.00 0.00 0.00 0.00 0.00 0.00 0.00 0.00 0.00 0.00 0.00 0.00 0.00 0.00 0.00 0.00 0.00
0.07 0.06 0.07 0.07 0.11 0.34 0.31 0.58 0.31 0.21 0.57 0.32 0.04 0.11 0.21 0.57 0.33 0.62 0.30 0.24 0.06 0.04 0.06 0.06 0.05 0.02 0.00 0.00 0.00 0.00 0.00 0.00 0.00 0.00 0.00 0.00 0.00 0.00 0.00 0.00 0.00 0.00 0.00 0.00 0.00
0.13 0.17 0.17 0.15 0.29 0.22 0.43 0.39 0.27 0.25 0.30 0.33 0.23 0.27 0.38 0.81 0.45 0.49 0.38 0.28 0.15 0.07 0.08 0.04 0.00 0.01 0.02 0.00 0.00 0.00 0.00 0.00 0.00 0.00 0.00 0.00 0.00 0.00 0.00 0.00 0.00 0.00 0.00 0.00 0.00
0.08 0.18 0.22 0.36 0.62 0.52 0.69 0.50 0.47 0.47 0.35 0.49 0.49 0.48 0.62 0.73 0.44 0.45 0.43 0.35 0.12 0.08 0.05 0.03 0.01 0.00 0.02 0.00 0.00 0.00 0.00 0.00 0.00 0.00 0.00 0.00 0.00 0.00 0.00 0.00 0.00 0.00 0.00 0.00 0.00
0.02 0.16 0.38 0.70 0.96 0.74 0.70 0.46 0.58 0.53 0.38 0.47 0.53 0.69 0.52 0.55 0.32 0.39 0.51 0.29 0.11 0.05 0.02 0.01 0.00 0.00 0.00 0.00 0.00 0.00 0.00 0.00 0.00 0.00 0.00 0.00 0.00 0.00 0.00 0.00 0.00 0.00 0.00 0.00 0.00
0.00 0.03 0.17 0.27 0.59 0.72 0.59 0.58 0.54 0.24 0.26 0.38 0.55 0.45 0.42 0.44 0.27 0.28 0.57 0.40 0.10 0.06 0.04 0.02 0.00 0.00 0.00 0.00 0.00 0.00 0.00 0.00 0.00 0.00 0.00 0.00 0.00 0.00 0.00 0.00 0.00 0.00 0.00 0.00 0.00
0.00 0.01 0.01 0.03 0.52 0.69 0.66 0.59 0.32 0.13 0.16 0.28 0.37 0.40 0.42 0.31 0.19 0.24 0.35 0.20 0.02 0.00 0.01 0.01 0.00 0.00 0.00 0.00 0.00 0.00 0.00 0.00 0.00 0.00 0.00 0.00 0.00 0.00 0.00 0.00 0.00 0.00 0.00 0.00 0.00
0.00 0.00 0.00 0.00 0.30 0.67 0.59 0.39 0.17 0.07 0.09 0.26 0.39 0.46 0.39 0.14 0.14 0.23 0.27 0.08 0.01 0.00 0.00 0.00 0.00 0.00 0.00 0.00 0.00 0.00 0.00 0.00 0.00 0.00 0.00 0.00 0.00 0.00 0.00 0.00 0.00 0.00 0.00 0.00 0.00
0.00 0.00 0.00 0.00 0.14 0.46 0.42 0.27 0.19 0.13 0.13 0.12 0.22 0.28 0.15 0.03 0.08 0.16 0.18 0.05 0.00 0.00 0.00 0.00 0.00 0.00 0.00 0.00 0.00 0.00 0.00 0.00 0.00 0.00 0.00 0.00 0.00 0.00 0.00 0.00 0.00 0.00 0.00 0.00 0.00
0.00 0.00 0.00 0.00 0.03 0.28 0.30 0.24 0.20 0.13 0.12 0.16 0.06 0.04 0.01 0.01 0.02 0.05 0.05 0.02 0.00 0.00 0.00 0.00 0.00 0.00 0.00 0.00 0.00 0.00 0.00 0.00 0.00 0.00 0.00 0.00 0.00 0.00 0.00 0.00 0.00 0.00 0.00 0.00 0.00
0.00 0.00 0.00 0.00 0.01 0.10 0.27 0.20 0.17 0.18 0.16 0.07 0.03 0.01 0.02 0.01 0.01 0.01 0.01 0.00 0.00 0.00 0.00 0.00 0.00 0.00 0.00 0.00 0.00 0.00 0.00 0.00 0.00 0.00 0.00 0.00 0.00 0.00 0.00 0.00 0.00 0.00 0.00 0.00 0.00
0.00 0.00 0.00 0.00 0.00 0.02 0.10 0.21 0.24 0.24 0.08 0.03 0.04 0.03 0.01 0.01 0.01 0.00 0.00 0.00 0.00 0.00 0.00 0.00 0.00 0.00 0.00 0.00 0.00 0.00 0.00 0.00 0.00 0.00 0.00 0.00 0.00 0.00 0.00 0.00 0.00 0.00 0.00 0.00 0.00
0.00 0.00 0.00 0.00 0.00 0.00 0.01 0.11 0.20 0.13 0.04 0.02 0.02 0.02 0.01 0.00 0.00 0.00 0.00 0.00 0.00 0.00 0.00 0.00 0.00 0.00 0.00 0.00 0.00 0.00 0.00 0.00 0.00 0.00 0.00 0.00 0.00 0.00 0.00 0.00 0.00 0.00 0.00 0.00 0.00
0.00 0.00 0.00 0.00 0.00 0.00 0.00 0.01 0.06 0.07 0.05 0.03 0.03 0.02 0.01 0.00 0.00 0.00 0.00 0.00 0.00 0.00 0.00 0.00 0.00 0.00 0.00 0.00 0.00 0.00 0.00 0.00 0.00 0.00 0.00 0.00 0.00 0.00 0.00 0.00 0.00 0.00 0.00 0.00 0.00
0.00 0.00 0.00 0.00 0.00 0.00 0.00 0.00 0.00 0.01 0.01 0.03 0.01 0.01 0.01 0.00 0.00 0.00 0.00 0.00 0.00 0.00 0.00 0.00 0.00 0.00 0.00 0.00 0.00 0.00 0.00 0.00 0.00 0.00 0.00 0.00 0.00 0.00 0.00 0.00 0.00 0.00 0.00 0.00 0.00
0.00 0.00 0.00 0.00 0.00 0.00 0.00 0.00 0.00 0.00 0.00 0.01 0.00 0.01 0.01 0.00 0.00 0.00 0.00 0.00 0.00 0.00 0.00 0.00 0.00 0.00 0.00 0.00 0.00 0.00 0.00 0.00 0.00 0.00 0.00 0.00 0.00 0.00 0.00 0.00 0.00 0.00 0.00 0.00 0.00

GFSSW_prec_precacc_015.txt.gz
Total_Precipitation_Accumulation
0.00 0.00 0.00 0.00 0.01 0.01 0.00 0.00 0.01 0.02 0.05 0.07 0.06 0.06 0.05 0.02 0.01 0.02 0.02 0.00 0.00 0.00 0.00 0.00 0.00 0.00 0.00 0.00 0.00 0.00 0.00 0.00 0.00 0.00 0.00 0.00 0.00 0.00 0.00 0.00 0.00 0.00 0.00 0.00 0.00
0.00 0.00 0.00 0.00 0.01 0.01 0.02 0.01 0.01 0.01 0.01 0.02 0.05 0.07 0.07 0.04 0.01 0.01 0.00 0.00 0.00 0.00 0.00 0.00 0.00 0.00 0.00 0.00 0.00 0.00 0.00 0.00 0.00 0.00 0.00 0.00 0.00 0.00 0.00 0.00 0.00 0.00 0.00 0.00 0.00
0.00 0.01 0.02 0.03 0.02 0.01 0.02 0.03 0.04 0.04 0.03 0.02 0.02 0.05 0.09 0.06 0.03 0.00 0.00 0.00 0.00 0.00 0.01 0.00 0.00 0.00 0.00 0.00 0.00 0.00 0.00 0.00 0.00 0.00 0.00 0.00 0.00 0.00 0.00 0.00 0.00 0.00 0.00 0.00 0.00
0.02 0.02 0.05 0.06 0.04 0.06 0.09 0.07 0.05 0.03 0.03 0.05 0.06 0.09 0.14 0.13 0.02 0.00 0.00 0.00 0.00 0.01 0.04 0.02 0.00 0.00 0.00 0.00 0.00 0.00 0.00 0.00 0.00 0.00 0.00 0.00 0.00 0.00 0.00 0.00 0.00 0.00 0.00 0.00 0.00
0.03 0.02 0.01 0.02 0.03 0.01 0.01 0.05 0.06 0.06 0.07 0.10 0.14 0.16 0.20 0.12 0.02 0.00 0.00 0.00 0.00 0.04 0.05 0.03 0.01 0.00 0.00 0.00 0.00 0.00 0.00 0.00 0.00 0.00 0.00 0.00 0.00 0.00 0.00 0.00 0.00 0.00 0.00 0.00 0.00
0.01 0.01 0.00 0.00 0.00 0.00 0.00 0.02 0.05 0.07 0.11 0.08 0.15 0.32 0.16 0.03 0.00 0.00 0.01 0.00 0.00 0.02 0.07 0.06 0.01 0.00 0.00 0.00 0.00 0.00 0.00 0.00 0.00 0.00 0.00 0.00 0.00 0.00 0.00 0.00 0.00 0.00 0.00 0.00 0.00
0.05 0.02 0.01 0.00 0.00 0.00 0.00 0.00 0.01 0.07 0.19 0.19 0.20 0.29 0.11 0.01 0.00 0.00 0.03 0.01 0.00 0.02 0.07 0.01 0.02 0.00 0.00 0.00 0.00 0.00 0.00 0.00 0.00 0.00 0.00 0.00 0.00 0.00 0.00 0.00 0.00 0.00 0.00 0.00 0.00
0.07 0.04 0.01 0.03 0.03 0.02 0.04 0.03 0.02 0.05 0.10 0.22 0.46 0.46 0.06 0.01 0.01 0.00 0.03 0.07 0.01 0.04 0.21 0.21 0.12 0.01 0.00 0.00 0.00 0.00 0.00 0.00 0.00 0.00 0.00 0.00 0.00 0.00 0.00 0.00 0.00 0.00 0.00 0.00 0.00
0.05 0.04 0.10 0.18 0.06 0.04 0.03 0.09 0.16 0.25 0.22 0.39 0.49 0.30 0.03 0.04 0.06 0.00 0.03 0.09 0.01 0.04 0.18 0.35 0.24 0.05 0.00 0.00 0.00 0.00 0.00 0.00 0.00 0.00 0.00 0.00 0.00 0.00 0.00 0.00 0.00 0.00 0.00 0.00 0.00
0.05 0.09 0.18 0.32 0.23 0.12 0.10 0.24 0.44 0.87 0.44 0.45 0.36 0.28 0.02 0.03 0.04 0.04 0.07 0.15 0.05 0.06 0.30 0.53 0.35 0.07 0.02 0.02 0.02 0.00 0.00 0.00 0.00 0.00 0.00 0.00 0.00 0.00 0.00 0.00 0.00 0.00 0.00 0.00 0.00
0.08 0.07 0.10 0.20 0.28 0.26 0.33 0.61 0.54 0.58 0.18 0.06 0.08 0.07 0.03 0.06 0.13 0.17 0.13 0.20 0.11 0.10 0.27 0.57 0.41 0.16 0.01 0.00 0.00 0.00 0.00 0.00 0.00 0.00 0.00 0.00 0.00 0.00 0.00 0.00 0.00 0.00 0.00 0.00 0.00
0.06 0.08 0.16 0.20 0.31 0.55 0.78 0.61 0.24 0.14 0.15 0.18 0.02 0.06 0.18 0.31 0.29 0.47 0.22 0.23 0.13 0.06 0.16 0.62 0.32 0.06 0.00 0.00 0.00 0.00 0.00 0.00 0.00 0.00 0.00 0.00 0.00 0.00 0.00 0.00 0.00 0.00 0.00 0.00 0.00
0.09 0.15 0.28 0.35 0.38 0.56 0.56 0.67 0.39 0.30 0.66 0.33 0.04 0.11 0.24 0.61 0.37 0.67 0.30 0.27 0.10 0.05 0.10 0.35 0.23 0.03 0.01 0.00 0.00 0.00 0.00 0.00 0.00 0.00 0.00 0.00 0.00 0.00 0.00 0.00 0.00 0.00 0.00 0.00 0.00
0.14 0.27 0.44 0.55 0.68 0.45 0.63 0.57 0.48 0.53 0.58 0.39 0.24 0.27 0.40 0.87 0.48 0.56 0.39 0.33 0.20 0.08 0.09 0.22 0.26 0.04 0.03 0.01 0.00 0.00 0.00 0.00 0.00 0.00 0.00 0.00 0.00 0.00 0.00 0.00 0.00 0.00 0.00 0.00 0.00
0.09 0.22 0.51 0.90 1.06 0.76 0.86 0.81 0.82 0.83 0.60 0.50 0.50 0.50 0.65 0.76 0.49 0.50 0.46 0.41 0.15 0.08 0.08 0.18 0.25 0.09 0.06 0.02 0.00 0.00 0.00 0.00 0.00 0.00 0.00 0.00 0.00 0.00 0.00 0.00 0.00 0.00 0.00 0.00 0.00
0.02 0.16 0.55 1.28 1.44 1.06 1.00 0.84 0.92 0.92 0.69 0.50 0.57 0.72 0.54 0.56 0.40 0.49 0.60 0.39 0.25 0.06 0.03 0.11 0.10 0.13 0.04 0.00 0.00 0.00 0.00 0.00 0.00 0.00 0.00 0.00 0.00 0.00 0.00 0.00 0.00 0.00 0.00 0.00 0.00
0.00 0.03 0.20 0.62 1.11 1.19 0.96 0.91 0.84 0.47 0.49 0.46 0.57 0.46 0.42 0.45 0.35 0.37 0.71 0.60 0.61 0.09 0.07 0.15 0.05 0.13 0.04 0.03 0.02 0.02 0.02 0.02 0.00 0.00 0.00 0.00 0.00 0.00 0.00 0.00 0.00 0.00 0.00 0.00 0.00
0.00 0.02 0.03 0.11 1.05 1.25 1.15 0.92 0.51 0.24 0.35 0.48 0.39 0.42 0.43 0.36 0.27 0.31 0.49 0.42 0.28 0.00 0.01 0.07 0.06 0.05 0.03 0.04 0.05 0.03 0.01 0.00 0.00 0.00 0.00 0.00 0.00 0.00 0.00 0.00 0.00 0.00 0.00 0.00 0.00
0.01 0.01 0.02 0.01 0.78 1.21 1.12 0.70 0.29 0.25 0.37 0.47 0.46 0.50 0.41 0.23 0.23 0.32 0.46 0.22 0.15 0.00 0.00 0.01 0.00 0.00 0.00 0.00 0.04 0.03 0.01 0.00 0.00 0.00 0.00 0.00 0.00 0.00 0.00 0.00 0.00 0.00 0.00 0.00 0.00
0.00 0.00 0.00 0.04 0.55 1.04 1.04 0.59 0.42 0.50 0.31 0.18 0.27 0.36 0.17 0.12 0.20 0.25 0.38 0.15 0.08 0.01 0.00 0.00 0.00 0.00 0.00 0.00 0.00 0.01 0.00 0.00 0.00 0.00 0.00 0.00 0.00 0.00 0.00 0.00 0.00 0.00 0.00 0.00 0.00
0.00 0.00 0.01 0.16 0.47 0.88 0.77 0.64 0.47 0.29 0.19 0.20 0.08 0.08 0.01 0.06 0.13 0.12 0.20 0.10 0.03 0.01 0.00 0.00 0.00 0.00 0.00 0.00 0.00 0.00 0.01 0.00 0.00 0.00 0.00 0.00 0.00 0.00 0.00 0.00 0.00 0.00 0.00 0.00 0.00
0.00 0.00 0.04 0.20 0.41 0.48 0.66 0.67 0.46 0.22 0.21 0.18 0.06 0.02 0.02 0.03 0.09 0.09 0.07 0.02 0.00 0.00 0.00 0.00 0.00 0.00 0.00 0.00 0.00 0.00 0.00 0.00 0.00 0.00 0.00 0.00 0.00 0.00 0.00 0.00 0.00 0.00 0.00 0.00 0.00
0.00 0.02 0.08 0.16 0.22 0.36 0.42 0.42 0.37 0.32 0.20 0.15 0.05 0.03 0.01 0.01 0.06 0.06 0.03 0.00 0.00 0.00 0.00 0.00 0.00 0.00 0.00 0.00 0.00 0.00 0.00 0.00 0.00 0.00 0.00 0.00 0.00 0.00 0.00 0.00 0.00 0.00 0.00 0.00 0.00
0.00 0.01 0.04 0.06 0.08 0.25 0.30 0.33 0.37 0.29 0.14 0.10 0.03 0.02 0.01 0.01 0.02 0.02 0.02 0.00 0.00 0.00 0.00 0.00 0.00 0.00 0.00 0.00 0.00 0.00 0.00 0.00 0.00 0.00 0.00 0.00 0.00 0.00 0.00 0.00 0.00 0.00 0.00 0.00 0.00
0.00 0.00 0.00 0.00 0.01 0.08 0.16 0.26 0.25 0.26 0.11 0.07 0.05 0.02 0.01 0.00 0.00 0.00 0.00 0.00 0.00 0.00 0.00 0.00 0.00 0.00 0.00 0.00 0.00 0.00 0.00 0.00 0.00 0.00 0.00 0.00 0.00 0.00 0.00 0.00 0.00 0.00 0.00 0.00 0.00
0.00 0.00 0.00 0.00 0.00 0.01 0.07 0.15 0.18 0.12 0.05 0.05 0.01 0.01 0.01 0.01 0.00 0.00 0.00 0.00 0.00 0.00 0.00 0.00 0.00 0.00 0.00 0.00 0.00 0.00 0.00 0.00 0.00 0.00 0.00 0.00 0.00 0.00 0.00 0.00 0.00 0.00 0.00 0.00 0.00
0.00 0.00 0.00 0.00 0.00 0.00 0.00 0.04 0.11 0.07 0.07 0.01 0.00 0.01 0.03 0.01 0.00 0.00 0.00 0.00 0.00 0.00 0.00 0.00 0.00 0.00 0.00 0.00 0.00 0.00 0.00 0.00 0.00 0.00 0.00 0.00 0.00 0.00 0.00 0.00 0.00 0.00 0.00 0.00 0.00

GFSSW_prec_precacc_018.txt.gz
Total_Precipitation_Accumulation
0.00 0.00 0.00 0.00 0.01 0.01 0.00 0.00 0.01 0.02 0.06 0.09 0.08 0.09 0.06 0.04 0.02 0.02 0.02 0.00 0.00 0.00 0.00 0.00 0.00 0.00 0.00 0.00 0.00 0.00 0.00 0.00 0.00 0.00 0.00 0.00 0.00 0.00 0.00 0.00 0.00 0.00 0.00 0.00 0.00
0.00 0.00 0.00 0.00 0.01 0.01 0.02 0.01 0.01 0.01 0.01 0.02 0.05 0.08 0.08 0.05 0.02 0.02 0.00 0.00 0.00 0.00 0.00 0.00 0.00 0.00 0.00 0.00 0.00 0.00 0.00 0.00 0.00 0.00 0.00 0.00 0.00 0.00 0.00 0.00 0.00 0.00 0.00 0.00 0.00
0.00 0.01 0.02 0.03 0.02 0.01 0.02 0.03 0.04 0.04 0.03 0.02 0.02 0.05 0.10 0.06 0.03 0.00 0.00 0.00 0.00 0.00 0.01 0.01 0.00 0.00 0.00 0.00 0.00 0.00 0.00 0.00 0.00 0.00 0.00 0.00 0.00 0.00 0.00 0.00 0.00 0.00 0.00 0.00 0.00
0.02 0.02 0.05 0.06 0.04 0.06 0.09 0.07 0.05 0.04 0.03 0.05 0.06 0.09 0.15 0.13 0.02 0.00 0.00 0.00 0.00 0.01 0.04 0.02 0.01 0.01 0.01 0.00 0.00 0.00 0.00 0.00 0.00 0.00 0.00 0.00 0.00 0.00 0.00 0.00 0.00 0.00 0.00 0.00 0.00
0.03 0.02 0.01 0.02 0.03 0.01 0.01 0.05 0.06 0.06 0.07 0.10 0.14 0.17 0.21 0.13 0.02 0.00 0.00 0.00 0.00 0.04 0.05 0.04 0.03 0.02 0.02 0.00 0.00 0.00 0.00 0.00 0.00 0.00 0.00 0.00 0.00 0.00 0.00 0.00 0.00 0.00 0.00 0.00 0.00
0.01 0.01 0.00 0.00 0.00 0.00 0.00 0.02 0.05 0.07 0.12 0.08 0.16 0.33 0.17 0.04 0.00 0.00 0.01 0.00 0.00 0.02 0.07 0.06 0.03 0.01 0.01 0.01 0.00 0.00 0.00 0.00 0.00 0.00 0.00 0.00 0.00 0.00 0.00 0.00 0.00 0.00 0.00 0.00 0.00
0.05 0.02 0.01 0.00 0.00 0.00 0.00 0.00 0.01 0.07 0.19 0.21 0.24 0.30 0.12 0.01 0.00 0.00 0.03 0.01 0.00 0.02 0.07 0.02 0.04 0.03 0.00 0.01 0.00 0.00 0.00 0.00 0.00 0.00 0.00 0.00 0.00 0.00 0.00 0.00 0.00 0.00 0.00 0.00 0.00
0.07 0.04 0.01 0.03 0.03 0.03 0.05 0.04 0.04 0.06 0.10 0.23 0.50 0.47 0.07 0.01 0.01 0.00 0.03 0.07 0.01 0.04 0.21 0.21 0.16 0.08 0.01 0.00 0.00 0.00 0.01 0.00 0.00 0.00 0.00 0.00 0.00 0.00 0.00 0.00 0.00 0.00 0.00 0.00 0.00
0.05 0.05 0.10 0.18 0.06 0.06 0.07 0.11 0.17 0.28 0.24 0.40 0.50 0.31 0.03 0.04 0.06 0.00 0.03 0.09 0.01 0.04 0.19 0.35 0.26 0.12 0.03 0.01 0.01 0.01 0.01 0.00 0.00 0.00 0.00 0.00 0.00 0.00 0.00 0.00 0.00 0.00 0.00 0.00 0.00
0.05 0.09 0.18 0.32 0.23 0.13 0.14 0.31 0.46 0.88 0.46 0.46 0.37 0.29 0.02 0.03 0.04 0.04 0.07 0.15 0.06 0.12 0.35 0.54 0.41 0.21 0.09 0.04 0.03 0.00 0.00 0.00 0.00 0.00 0.00 0.00 0.00 0.00 0.00 0.00 0.00 0.00 0.00 0.00 0.00
0.08 0.07 0.11 0.20 0.28 0.27 0.43 0.72 0.55 0.59 0.19 0.06 0.08 0.07 0.03 0.07 0.13 0.17 0.13 0.20 0.12 0.21 0.36 0.59 0.50 0.31 0.12 0.01 0.00 0.00 0.00 0.00 0.00 0.00 0.00 0.00 0.00 0.00 0.00 0.00 0.00 0.00 0.00 0.00 0.00
0.06 0.08 0.16 0.21 0.33 0.58 0.88 0.65 0.25 0.14 0.15 0.18 0.02 0.06 0.18 0.31 0.32 0.50 0.22 0.23 0.14 0.20 0.28 0.65 0.38 0.14 0.03 0.01 0.00 0.00 0.00 0.00 0.00 0.00 0.00 0.00 0.00 0.00 0.00 0.00 0.00 0.00 0.00 0.00 0.00
0.09 0.15 0.28 0.35 0.41 0.63 0.61 0.70 0.41 0.32 0.79 0.37 0.04 0.11 0.24 0.62 0.39 0.77 0.30 0.27 0.11 0.18 0.26 0.39 0.29 0.13 0.03 0.01 0.01 0.00 0.00 0.00 0.00 0.00 0.00 0.00 0.00 0.00 0.00 0.00 0.00 0.00 0.00 0.00 0.00
0.14 0.27 0.44 0.56 0.72 0.50 0.73 0.66 0.55 0.63 0.81 0.41 0.25 0.27 0.41 0.92 0.49 0.58 0.39 0.34 0.27 0.17 0.17 0.25 0.37 0.13 0.09 0.01 0.01 0.01 0.00 0.00 0.00 0.00 0.00 0.00 0.00 0.00 0.00 0.00 0.00 0.00 0.00 0.00 0.00
0.09 0.22 0.51 0.91 1.08 0.81 0.95 0.97 0.99 1.04 0.75 0.51 0.51 0.50 0.65 0.77 0.52 0.51 0.46 0.42 0.28 0.12 0.21 0.29 0.45 0.14 0.08 0.02 0.00 0.00 0.00 0.00 0.00 0.00 0.00 0.00 0.00 0.00 0.00 0.00 0.00 0.00 0.00 0.00 0.00
0.02 0.16 0.55 1.29 1.46 1.12 1.10 1.03 1.17 1.13 0.76 0.53 0.61 0.75 0.56 0.56 0.43 0.57 0.62 0.41 0.44 0.09 0.05 0.16 0.34 0.20 0.05 0.00 0.00 0.00 0.00 0.00 0.00 0.00 0.00 0.00 0.00 0.00 0.00 0.00 0.00 0.00 0.00 0.00 0.00
0.00 0.03 0.21 0.63 1.13 1.26 1.19 1.09 1.06 0.60 0.52 0.54 0.63 0.47 0.42 0.45 0.39 0.41 0.71 0.63 1.00 0.19 0.18 0.31 0.39 0.37 0.05 0.04 0.02 0.02 0.03 0.03 0.01 0.00 0.00 0.00 0.00 0.00 0.00 0.00 0.00 0.00 0.00 0.00 0.00
0.01 0.03 0.04 0.11 1.07 1.32 1.39 1.13 0.63 0.26 0.38 0.54 0.40 0.42 0.43 0.37 0.29 0.34 0.49 0.45 0.44 0.01 0.09 0.27 0.27 0.38 0.09 0.04 0.06 0.04 0.02 0.01 0.00 0.00 0.00 0.00 0.00 0.00 0.00 0.00 0.00 0.00 0.00 0.00 0.00
0.04 0.02 0.03 0.02 0.81 1.34 1.36 0.87 0.33 0.30 0.46 0.55 0.47 0.51 0.42 0.24 0.24 0.35 0.47 0.24 0.19 0.01 0.09 0.05 0.10 0.18 0.09 0.01 0.05 0.07 0.02 0.00 0.00 0.00 0.00 0.00 0.00 0.00 0.00 0.00 0.00 0.00 0.00 0.00 0.00
0.02 0.00 0.00 0.04 0.59 1.28 1.29 0.69 0.45 0.59 0.47 0.30 0.28 0.36 0.17 0.12 0.22 0.27 0.39 0.16 0.08 0.01 0.01 0.00 0.03 0.09 0.13 0.07 0.03 0.03 0.01 0.00 0.00 0.00 0.00 0.00 0.00 0.00 0.00 0.00 0.00 0.00 0.00 0.00 0.00
0.01 0.00 0.01 0.20 0.61 1.07 0.93 0.72 0.53 0.36 0.34 0.29 0.08 0.08 0.01 0.06 0.14 0.15 0.20 0.11 0.03 0.01 0.00 0.00 0.00 0.01 0.05 0.07 0.01 0.02 0.02 0.02 0.00 0.00 0.00 0.00 0.00 0.00 0.00 0.00 0.00 0.00 0.00 0.00 0.00
0.00 0.00 0.05 0.27 0.53 0.55 0.74 0.75 0.53 0.28 0.27 0.23 0.06 0.02 0.02 0.03 0.10 0.12 0.07 0.02 0.00 0.00 0.00 0.00 0.00 0.00 0.01 0.00 0.00 0.00 0.00 0.00 0.00 0.00 0.00 0.00 0.00 0.00 0.00 0.00 0.00 0.00 0.00 0.00 0.00
0.00 0.04 0.16 0.23 0.28 0.39 0.49 0.51 0.45 0.38 0.23 0.28 0.08 0.04 0.01 0.01 0.07 0.06 0.03 0.00 0.00 0.00 0.00 0.00 0.00 0.00 0.00 0.00 0.00 0.00 0.00 0.00 0.00 0.00 0.00 0.00 0.00 0.00 0.00 0.00 0.00 0.00 0.00 0.00 0.00
0.00 0.03 0.11 0.12 0.13 0.39 0.50 0.50 0.46 0.34 0.20 0.26 0.06 0.03 0.01 0.01 0.02 0.03 0.02 0.00 0.00 0.00 0.00 0.00 0.00 0.00 0.00 0.00 0.00 0.00 0.00 0.00 0.00 0.00 0.00 0.00 0.00 0.00 0.00 0.00 0.00 0.00 0.00 0.00 0.00
0.00 0.00 0.00 0.01 0.03 0.16 0.37 0.51 0.43 0.39 0.20 0.29 0.09 0.02 0.01 0.01 0.01 0.01 0.00 0.00 0.00 0.00 0.00 0.00 0.00 0.00 0.00 0.00 0.00 0.00 0.00 0.00 0.00 0.00 0.00 0.00 0.00 0.00 0.00 0.00 0.00 0.00 0.00 0.00 0.00
0.00 0.00 0.00 0.00 0.00 0.04 0.21 0.29 0.30 0.24 0.16 0.10 0.04 0.01 0.01 0.01 0.00 0.00 0.00 0.00 0.00 0.00 0.00 0.00 0.00 0.00 0.00 0.00 0.00 0.00 0.00 0.00 0.00 0.00 0.00 0.00 0.00 0.00 0.00 0.00 0.00 0.00 0.00 0.00 0.00
0.00 0.00 0.00 0.00 0.00 0.04 0.06 0.16 0.23 0.20 0.12 0.01 0.01 0.01 0.04 0.01 0.00 0.00 0.00 0.00 0.00 0.00 0.00 0.00 0.00 0.00 0.00 0.00 0.00 0.00 0.00 0.00 0.00 0.00 0.00 0.00 0.00 0.00 0.00 0.00 0.00 0.00 0.00 0.00 0.00

GFSSW_prec_precacc_021.txt.gz
Total_Precipitation_Accumulation
0.00 0.00 0.00 0.00 0.01 0.01 0.00 0.00 0.01 0.02 0.06 0.09 0.09 0.11 0.08 0.07 0.03 0.02 0.02 0.00 0.00 0.00 0.00 0.00 0.00 0.00 0.00 0.00 0.00 0.00 0.00 0.00 0.00 0.00 0.00 0.00 0.00 0.00 0.00 0.00 0.00 0.00 0.00 0.00 0.00
0.00 0.00 0.00 0.00 0.01 0.01 0.02 0.01 0.01 0.01 0.01 0.02 0.05 0.08 0.09 0.06 0.03 0.04 0.00 0.00 0.00 0.00 0.00 0.00 0.00 0.01 0.01 0.00 0.00 0.00 0.00 0.00 0.00 0.00 0.00 0.00 0.00 0.00 0.00 0.00 0.00 0.00 0.00 0.00 0.00
0.00 0.01 0.02 0.03 0.02 0.01 0.02 0.03 0.04 0.04 0.03 0.02 0.02 0.05 0.11 0.07 0.04 0.01 0.00 0.00 0.00 0.00 0.01 0.01 0.01 0.03 0.04 0.01 0.00 0.00 0.00 0.00 0.00 0.00 0.00 0.00 0.00 0.00 0.00 0.00 0.00 0.00 0.00 0.00 0.00
0.02 0.02 0.05 0.06 0.04 0.06 0.09 0.07 0.05 0.04 0.03 0.05 0.06 0.11 0.16 0.14 0.02 0.00 0.00 0.00 0.00 0.01 0.04 0.02 0.01 0.02 0.03 0.02 0.00 0.00 0.00 0.00 0.00 0.00 0.00 0.00 0.00 0.00 0.00 0.00 0.00 0.00 0.00 0.00 0.00
0.03 0.02 0.01 0.02 0.03 0.01 0.01 0.05 0.06 0.06 0.07 0.10 0.15 0.19 0.21 0.13 0.02 0.00 0.00 0.00 0.00 0.04 0.05 0.04 0.03 0.02 0.03 0.01 0.01 0.00 0.00 0.00 0.00 0.00 0.00 0.00 0.00 0.00 0.00 0.00 0.00 0.00 0.00 0.00 0.00
0.01 0.01 0.00 0.00 0.00 0.00 0.00 0.02 0.05 0.07 0.12 0.09 0.17 0.34 0.17 0.04 0.00 0.00 0.01 0.00 0.00 0.02 0.07 0.06 0.03 0.01 0.02 0.01 0.01 0.00 0.00 0.00 0.00 0.00 0.00 0.00 0.00 0.00 0.00 0.00 0.00 0.00 0.00 0.00 0.00
0.05 0.03 0.01 0.00 0.00 0.00 0.00 0.00 0.01 0.07 0.19 0.21 0.26 0.31 0.13 0.01 0.00 0.00 0.03 0.01 0.00 0.02 0.07 0.02 0.04 0.06 0.02 0.03 0.00 0.00 0.00 0.00 0.00 0.00 0.00 0.00 0.00 0.00 0.00 0.00 0.00 0.00 0.00 0.00 0.00
0.07 0.04 0.02 0.03 0.03 0.03 0.05 0.04 0.04 0.06 0.10 0.23 0.52 0.50 0.08 0.01 0.01 0.00 0.03 0.07 0.01 0.04 0.21 0.21 0.16 0.10 0.07 0.04 0.02 0.03 0.03 0.01 0.00 0.00 0.00 0.00 0.00 0.00 0.00 0.00 0.00 0.00 0.00 0.00 0.00
0.05 0.05 0.11 0.18 0.06 0.06 0.07 0.12 0.18 0.29 0.25 0.40 0.50 0.34 0.03 0.04 0.06 0.00 0.03 0.09 0.01 0.04 0.19 0.35 0.27 0.17 0.08 0.08 0.06 0.04 0.02 0.01 0.00 0.00 0.00 0.00 0.00 0.00 0.00 0.00 0.00 0.00 0.00 0.00 0.00
0.05 0.09 0.18 0.33 0.23 0.13 0.14 0.34 0.49 0.90 0.49 0.47 0.38 0.30 0.02 0.03 0.04 0.04 0.07 0.15 0.06 0.13 0.37 0.57 0.44 0.26 0.15 0.11 0.05 0.01 0.01 0.00 0.00 0.00 0.00 0.00 0.00 0.00 0.00 0.00 0.00 0.00 0.00 0.00 0.00
0.08 0.07 0.11 0.20 0.28 0.27 0.45 0.74 0.57 0.60 0.21 0.07 0.08 0.07 0.03 0.07 0.13 0.17 0.13 0.20 0.12 0.25 0.41 0.62 0.54 0.34 0.16 0.06 0.01 0.00 0.00 0.00 0.00 0.00 0.00 0.00 0.00 0.00 0.00 0.00 0.00 0.00 0.00 0.00 0.00
0.06 0.08 0.17 0.22 0.34 0.59 0.92 0.67 0.25 0.15 0.16 0.18 0.02 0.06 0.18 0.31 0.33 0.50 0.22 0.23 0.14 0.21 0.32 0.75 0.43 0.14 0.10 0.05 0.03 0.01 0.00 0.00 0.00 0.00 0.00 0.00 0.00 0.00 0.00 0.00 0.00 0.00 0.00 0.00 0.00
0.09 0.15 0.28 0.36 0.42 0.65 0.64 0.71 0.42 0.33 0.89 0.43 0.04 0.13 0.25 0.64 0.40 0.81 0.31 0.28 0.11 0.19 0.36 0.59 0.34 0.14 0.12 0.18 0.05 0.02 0.00 0.00 0.00 0.00 0.00 0.00 0.00 0.00 0.00 0.00 0.00 0.00 0.00 0.00 0.00
0.14 0.27 0.44 0.57 0.73 0.51 0.76 0.71 0.62 0.72 1.13 0.47 0.25 0.28 0.43 0.99 0.53 0.58 0.40 0.36 0.29 0.20 0.28 0.39 0.41 0.17 0.17 0.27 0.08 0.02 0.00 0.00 0.00 0.00 0.01 0.00 0.00 0.00 0.00 0.00 0.00 0.00 0.00 0.00 0.00
0.09 0.22 0.51 0.92 1.09 0.83 0.96 1.03 1.13 1.29 1.00 0.52 0.51 0.51 0.66 0.80 0.55 0.52 0.47 0.44 0.32 0.21 0.41 0.48 0.48 0.21 0.27 0.20 0.07 0.01 0.00 0.00 0.00 0.00 0.00 0.00 0.00 0.00 0.00 0.00 0.00 0.00 0.00 0.00 0.00
0.03 0.17 0.56 1.30 1.47 1.14 1.11 1.10 1.31 1.37 0.85 0.54 0.64 0.79 0.58 0.57 0.43 0.61 0.63 0.45 0.49 0.29 0.17 0.18 0.38 0.25 0.19 0.09 0.05 0.01 0.01 0.01 0.00 0.00 0.00 0.00 0.00 0.00 0.00 0.00 0.00 0.00 0.00 0.00 0.00
0.02 0.04 0.21 0.63 1.15 1.28 1.23 1.22 1.26 0.72 0.54 0.60 0.70 0.52 0.43 0.46 0.39 0.46 0.76 0.70 1.14 0.44 0.41 0.42 0.60 0.47 0.17 0.19 0.12 0.05 0.05 0.06 0.03 0.01 0.00 0.00 0.00 0.00 0.00 0.00 0.00 0.00 0.00 0.00 0.00
0.03 0.06 0.05 0.11 1.09 1.36 1.46 1.32 0.77 0.27 0.42 0.64 0.47 0.44 0.44 0.37 0.29 0.37 0.58 0.50 0.50 0.15 0.28 0.40 0.58 0.59 0.23 0.32 0.18 0.06 0.03 0.02 0.01 0.00 0.00 0.00 0.00 0.00 0.00 0.00 0.00 0.00 0.00 0.00 0.00
0.08 0.05 0.06 0.02 0.84 1.39 1.47 1.05 0.38 0.34 0.52 0.63 0.57 0.53 0.42 0.24 0.24 0.37 0.53 0.25 0.20 0.10 0.30 0.11 0.46 0.46 0.16 0.16 0.06 0.08 0.02 0.00 0.00 0.00 0.00 0.00 0.00 0.00 0.00 0.00 0.00 0.00 0.00 0.00 0.00
0.05 0.06 0.03 0.05 0.62 1.35 1.49 0.81 0.50 0.65 0.56 0.43 0.37 0.37 0.17 0.12 0.22 0.28 0.40 0.16 0.08 0.03 0.15 0.08 0.45 0.49 0.22 0.13 0.04 0.03 0.01 0.00 0.00 0.00 0.00 0.00 0.00 0.00 0.00 0.00 0.00 0.00 0.00 0.00 0.00
0.03 0.05 0.02 0.20 0.66 1.23 1.08 0.82 0.58 0.42 0.41 0.37 0.11 0.08 0.01 0.06 0.14 0.16 0.20 0.11 0.03 0.02 0.08 0.11 0.32 0.43 0.24 0.17 0.05 0.02 0.03 0.02 0.00 0.00 0.00 0.00 0.00 0.00 0.00 0.00 0.00 0.00 0.00 0.00 0.00
0.03 0.03 0.06 0.29 0.59 0.61 0.82 0.85 0.57 0.34 0.37 0.30 0.07 0.02 0.02 0.03 0.10 0.12 0.07 0.02 0.00 0.01 0.02 0.04 0.09 0.27 0.18 0.04 0.00 0.00 0.00 0.00 0.00 0.00 0.00 0.00 0.00 0.00 0.00 0.00 0.00 0.00 0.00 0.00 0.00
0.02 0.06 0.25 0.27 0.31 0.41 0.56 0.58 0.52 0.41 0.30 0.32 0.09 0.04 0.01 0.01 0.07 0.06 0.03 0.00 0.00 0.00 0.00 0.01 0.01 0.11 0.17 0.10 0.02 0.01 0.00 0.00 0.00 0.00 0.00 0.00 0.00 0.00 0.00 0.00 0.00 0.00 0.00 0.00 0.00
0.02 0.06 0.20 0.22 0.14 0.42 0.56 0.56 0.56 0.37 0.23 0.31 0.09 0.04 0.01 0.01 0.02 0.03 0.02 0.00 0.00 0.00 0.00 0.00 0.00 0.00 0.02 0.03 0.01 0.00 0.00 0.00 0.00 0.00 0.00 0.00 0.00 0.00 0.00 0.00 0.00 0.00 0.00 0.00 0.00
0.02 0.01 0.01 0.04 0.03 0.17 0.44 0.61 0.58 0.54 0.24 0.39 0.24 0.03 0.01 0.01 0.02 0.01 0.00 0.00 0.00 0.00 0.00 0.00 0.00 0.00 0.00 0.00 0.00 0.00 0.00 0.00 0.00 0.00 0.00 0.00 0.00 0.00 0.00 0.00 0.00 0.00 0.00 0.00 0.00
0.02 0.00 0.00 0.00 0.00 0.05 0.30 0.38 0.39 0.35 0.24 0.20 0.13 0.01 0.01 0.01 0.00 0.00 0.00 0.00 0.00 0.00 0.00 0.00 0.00 0.00 0.00 0.00 0.00 0.00 0.00 0.00 0.00 0.00 0.00 0.00 0.00 0.00 0.00 0.00 0.00 0.00 0.00 0.00 0.00
0.01 0.00 0.00 0.00 0.00 0.05 0.10 0.29 0.40 0.29 0.17 0.03 0.02 0.01 0.04 0.01 0.00 0.00 0.00 0.00 0.00 0.00 0.00 0.00 0.00 0.00 0.00 0.00 0.00 0.00 0.00 0.00 0.00 0.00 0.00 0.00 0.00 0.00 0.00 0.00 0.00 0.00 0.00 0.00 0.00

GFSSW_prec_precacc_027.txt.gz
Total_Precipitation_Accumulation
0.00 0.00 0.00 0.00 0.01 0.01 0.00 0.00 0.01 0.02 0.06 0.09 0.12 0.12 0.09 0.09 0.04 0.03 0.02 0.00 0.00 0.00 0.00 0.00 0.00 0.00 0.00 0.00 0.00 0.00 0.00 0.00 0.00 0.00 0.00 0.00 0.00 0.00 0.00 0.00 0.00 0.00 0.00 0.00 0.00
0.00 0.00 0.00 0.00 0.01 0.01 0.02 0.01 0.01 0.01 0.01 0.02 0.05 0.08 0.09 0.06 0.03 0.05 0.00 0.00 0.00 0.00 0.00 0.00 0.00 0.01 0.01 0.00 0.00 0.00 0.00 0.00 0.00 0.00 0.00 0.00 0.00 0.00 0.00 0.00 0.00 0.00 0.00 0.00 0.00
0.00 0.01 0.02 0.03 0.02 0.01 0.02 0.03 0.04 0.04 0.03 0.02 0.02 0.05 0.11 0.07 0.04 0.01 0.00 0.00 0.00 0.01 0.01 0.01 0.01 0.03 0.04 0.01 0.00 0.00 0.00 0.00 0.00 0.00 0.00 0.00 0.00 0.00 0.00 0.00 0.00 0.00 0.00 0.00 0.00
0.02 0.02 0.05 0.06 0.04 0.06 0.09 0.07 0.05 0.04 0.03 0.05 0.06 0.11 0.16 0.14 0.02 0.00 0.00 0.00 0.00 0.01 0.04 0.02 0.01 0.02 0.03 0.02 0.00 0.00 0.00 0.00 0.00 0.00 0.00 0.00 0.00 0.00 0.00 0.00 0.00 0.00 0.00 0.00 0.00
0.03 0.02 0.01 0.02 0.03 0.01 0.01 0.05 0.06 0.06 0.07 0.10 0.15 0.19 0.21 0.13 0.02 0.00 0.00 0.00 0.00 0.04 0.05 0.04 0.03 0.02 0.03 0.01 0.01 0.00 0.00 0.00 0.00 0.00 0.00 0.00 0.00 0.00 0.00 0.00 0.00 0.00 0.00 0.00 0.00
0.01 0.01 0.00 0.00 0.00 0.00 0.00 0.02 0.05 0.07 0.12 0.09 0.19 0.36 0.18 0.04 0.00 0.00 0.01 0.00 0.00 0.02 0.07 0.06 0.03 0.01 0.02 0.01 0.01 0.00 0.00 0.00 0.00 0.00 0.00 0.00 0.00 0.00 0.00 0.00 0.00 0.00 0.00 0.00 0.00
0.05 0.03 0.01 0.00 0.00 0.01 0.01 0.00 0.02 0.07 0.19 0.21 0.28 0.33 0.14 0.01 0.00 0.00 0.03 0.01 0.00 0.02 0.07 0.02 0.04 0.06 0.02 0.04 0.00 0.00 0.01 0.00 0.00 0.00 0.00 0.00 0.00 0.00 0.00 0.00 0.00 0.00 0.00 0.00 0.00
0.07 0.04 0.02 0.03 0.03 0.03 0.05 0.04 0.04 0.07 0.10 0.23 0.52 0.51 0.10 0.01 0.01 0.00 0.03 0.07 0.01 0.04 0.21 0.21 0.16 0.10 0.08 0.05 0.03 0.04 0.06 0.02 0.00 0.00 0.00 0.00 0.00 0.00 0.00 0.00 0.00 0.00 0.00 0.00 0.00
0.05 0.05 0.11 0.19 0.07 0.06 0.07 0.12 0.20 0.31 0.27 0.41 0.50 0.34 0.04 0.04 0.06 0.00 0.03 0.09 0.01 0.04 0.19 0.35 0.27 0.18 0.09 0.11 0.11 0.07 0.03 0.01 0.00 0.00 0.00 0.00 0.00 0.00 0.00 0.00 0.00 0.00 0.00 0.00 0.00
0.09 0.10 0.19 0.33 0.24 0.13 0.14 0.35 0.51 0.93 0.52 0.49 0.39 0.31 0.02 0.03 0.04 0.04 0.07 0.15 0.06 0.13 0.38 0.57 0.44 0.28 0.17 0.14 0.08 0.02 0.01 0.01 0.00 0.00 0.00 0.00 0.00 0.00 0.00 0.00 0.00 0.00 0.00 0.00 0.00
0.11 0.10 0.12 0.21 0.30 0.28 0.45 0.74 0.57 0.61 0.23 0.07 0.08 0.07 0.03 0.07 0.13 0.17 0.13 0.20 0.12 0.25 0.41 0.63 0.57 0.35 0.16 0.06 0.01 0.01 0.02 0.02 0.00 0.00 0.00 0.00 0.00 0.00 0.00 0.00 0.00 0.00 0.00 0.00 0.00
0.09 0.10 0.17 0.23 0.36 0.62 0.93 0.68 0.25 0.15 0.16 0.18 0.02 0.06 0.18 0.31 0.33 0.50 0.22 0.23 0.14 0.21 0.33 0.79 0.45 0.14 0.10 0.05 0.05 0.03 0.04 0.02 0.01 0.00 0.01 0.00 0.00 0.00 0.00 0.00 0.00 0.00 0.00 0.00 0.00
0.13 0.17 0.29 0.37 0.44 0.69 0.66 0.71 0.42 0.34 0.98 0.48 0.04 0.13 0.25 0.65 0.41 0.81 0.31 0.28 0.11 0.20 0.37 0.61 0.35 0.15 0.12 0.19 0.12 0.11 0.04 0.03 0.01 0.01 0.01 0.01 0.00 0.00 0.00 0.00 0.00 0.00 0.00 0.00 0.00
0.19 0.31 0.47 0.58 0.73 0.51 0.77 0.71 0.65 0.84 1.48 0.53 0.25 0.28 0.44 1.02 0.57 0.58 0.40 0.39 0.33 0.22 0.32 0.46 0.44 0.24 0.22 0.29 0.10 0.16 0.04 0.02 0.04 0.05 0.03 0.01 0.01 0.00 0.00 0.00 0.00 0.00 0.00 0.00 0.00
0.15 0.28 0.53 0.92 1.10 0.85 0.97 1.04 1.16 1.45 1.19 0.53 0.51 0.51 0.66 0.83 0.57 0.53 0.47 0.50 0.45 0.27 0.52 0.62 0.49 0.24 0.32 0.22 0.15 0.08 0.06 0.02 0.06 0.16 0.08 0.04 0.02 0.00 0.00 0.00 0.00 0.00 0.00 0.00 0.00
0.09 0.22 0.59 1.30 1.47 1.14 1.11 1.11 1.35 1.49 0.93 0.55 0.65 0.80 0.59 0.59 0.45 0.64 0.64 0.50 0.58 0.43 0.38 0.26 0.41 0.33 0.21 0.13 0.22 0.10 0.14 0.19 0.12 0.18 0.35 0.06 0.04 0.01 0.00 0.00 0.00 0.00 0.00 0.00 0.00
0.10 0.09 0.25 0.63 1.16 1.29 1.24 1.25 1.32 0.78 0.56 0.65 0.72 0.54 0.44 0.47 0.41 0.49 0.82 0.74 1.19 0.49 0.50 0.49 0.67 0.58 0.26 0.33 0.42 0.38 0.38 0.62 0.57 0.28 0.26 0.10 0.04 0.01 0.00 0.00 0.00 0.00 0.00 0.00 0.00
0.14 0.14 0.11 0.12 1.11 1.36 1.47 1.38 0.84 0.28 0.45 0.69 0.52 0.47 0.46 0.38 0.30 0.37 0.62 0.56 0.51 0.17 0.42 0.49 0.64 0.70 0.32 0.59 0.68 0.51 0.48 0.46 0.37 0.20 0.04 0.04 0.06 0.00 0.00 0.00 0.00 0.00 0.00 0.00 0.00
0.24 0.23 0.28 0.09 0.92 1.42 1.50 1.11 0.41 0.39 0.58 0.69 0.71 0.67 0.46 0.25 0.25 0.38 0.54 0.27 0.21 0.12 0.45 0.28 0.59 0.56 0.23 0.48 0.42 0.46 0.36 0.30 0.24 0.11 0.06 0.01 0.00 0.00 0.00 0.00 0.00 0.00 0.00 0.00 0.00
0.21 0.31 0.28 0.14 0.81 1.48 1.61 0.86 0.53 0.70 0.65 0.54 0.46 0.40 0.18 0.13 0.23 0.30 0.42 0.17 0.08 0.04 0.21 0.24 0.66 0.69 0.54 0.69 0.51 0.34 0.16 0.23 0.41 0.25 0.12 0.01 0.00 0.00 0.00 0.00 0.00 0.00 0.00 0.00 0.00
0.16 0.26 0.16 0.30 1.06 1.65 1.23 0.85 0.62 0.50 0.55 0.53 0.18 0.11 0.02 0.07 0.14 0.16 0.22 0.11 0.03 0.03 0.16 0.38 0.63 0.68 0.74 0.66 0.48 0.38 0.34 0.21 0.23 0.14 0.09 0.01 0.00 0.00 0.00 0.00 0.00 0.00 0.00 0.00 0.00
0.20 0.18 0.15 0.48 1.06 0.87 0.86 0.91 0.65 0.40 0.51 0.47 0.18 0.04 0.03 0.04 0.10 0.13 0.08 0.03 0.01 0.01 0.11 0.33 0.48 0.69 0.47 0.16 0.17 0.21 0.19 0.11 0.24 0.15 0.08 0.02 0.00 0.00 0.00 0.00 0.00 0.00 0.00 0.00 0.00
0.14 0.25 0.52 0.41 0.49 0.46 0.58 0.66 0.64 0.52 0.49 0.47 0.15 0.06 0.01 0.02 0.08 0.06 0.04 0.00 0.00 0.00 0.03 0.25 0.56 0.64 0.50 0.26 0.30 0.38 0.23 0.08 0.08 0.06 0.03 0.01 0.00 0.00 0.00 0.00 0.00 0.00 0.00 0.00 0.00
0.13 0.23 0.66 0.56 0.22 0.43 0.60 0.64 0.67 0.49 0.41 0.44 0.16 0.05 0.02 0.01 0.03 0.03 0.03 0.00 0.00 0.00 0.01 0.24 0.56 0.54 0.31 0.11 0.12 0.17 0.11 0.03 0.02 0.03 0.02 0.01 0.00 0.00 0.00 0.00 0.00 0.00 0.00 0.00 0.00
0.14 0.12 0.10 0.14 0.07 0.18 0.51 0.70 0.74 0.77 0.46 0.54 0.35 0.05 0.02 0.01 0.02 0.01 0.01 0.01 0.00 0.00 0.01 0.19 0.46 0.35 0.14 0.00 0.01 0.02 0.01 0.01 0.03 0.02 0.01 0.00 0.00 0.00 0.00 0.00 0.00 0.00 0.00 0.00 0.00
0.10 0.08 0.05 0.01 0.01 0.08 0.38 0.50 0.56 0.58 0.49 0.30 0.19 0.03 0.01 0.01 0.00 0.00 0.00 0.00 0.00 0.00 0.01 0.04 0.13 0.12 0.11 0.00 0.00 0.00 0.00 0.00 0.01 0.00 0.00 0.00 0.00 0.00 0.00 0.00 0.00 0.00 0.00 0.00 0.00
0.06 0.04 0.03 0.04 0.02 0.08 0.13 0.37 0.60 0.56 0.29 0.08 0.06 0.08 0.07 0.01 0.00 0.01 0.00 0.00 0.00 0.00 0.00 0.00 0.02 0.03 0.05 0.01 0.00 0.00 0.00 0.00 0.00 0.00 0.00 0.00 0.00 0.00 0.00 0.00 0.00 0.00 0.00 0.00 0.00

GFSSW_prec_precacc_030.txt.gz
Total_Precipitation_Accumulation
0.00 0.00 0.00 0.00 0.01 0.01 0.00 0.00 0.01 0.02 0.06 0.09 0.13 0.14 0.11 0.10 0.04 0.03 0.02 0.00 0.00 0.00 0.00 0.00 0.00 0.00 0.00 0.00 0.00 0.00 0.00 0.00 0.00 0.00 0.00 0.00 0.00 0.00 0.00 0.00 0.00 0.00 0.00 0.00 0.00
0.00 0.00 0.00 0.00 0.01 0.01 0.02 0.01 0.01 0.01 0.01 0.02 0.05 0.08 0.11 0.07 0.03 0.05 0.00 0.00 0.00 0.00 0.00 0.00 0.00 0.01 0.01 0.00 0.00 0.00 0.00 0.00 0.00 0.00 0.00 0.00 0.00 0.00 0.00 0.00 0.00 0.00 0.00 0.00 0.00
0.00 0.01 0.02 0.03 0.02 0.01 0.02 0.03 0.04 0.04 0.03 0.02 0.02 0.05 0.11 0.07 0.04 0.01 0.00 0.00 0.00 0.01 0.01 0.01 0.01 0.03 0.04 0.01 0.00 0.00 0.00 0.00 0.00 0.00 0.00 0.00 0.00 0.00 0.00 0.00 0.00 0.00 0.00 0.00 0.00
0.02 0.02 0.05 0.06 0.04 0.06 0.09 0.07 0.05 0.04 0.03 0.05 0.06 0.11 0.16 0.14 0.02 0.00 0.00 0.00 0.00 0.01 0.04 0.02 0.01 0.02 0.03 0.02 0.00 0.00 0.00 0.00 0.00 0.00 0.00 0.00 0.00 0.00 0.00 0.00 0.00 0.00 0.00 0.00 0.00
0.03 0.02 0.01 0.02 0.03 0.01 0.01 0.05 0.06 0.06 0.07 0.10 0.15 0.19 0.21 0.13 0.02 0.00 0.00 0.00 0.00 0.04 0.05 0.04 0.03 0.02 0.03 0.01 0.01 0.00 0.00 0.00 0.00 0.00 0.00 0.00 0.00 0.00 0.00 0.00 0.00 0.00 0.00 0.00 0.00
0.01 0.01 0.00 0.00 0.00 0.00 0.00 0.02 0.05 0.07 0.12 0.09 0.19 0.36 0.18 0.04 0.00 0.00 0.01 0.00 0.00 0.02 0.07 0.06 0.03 0.01 0.02 0.01 0.01 0.00 0.00 0.00 0.00 0.00 0.00 0.00 0.00 0.00 0.00 0.00 0.00 0.00 0.00 0.00 0.00
0.07 0.03 0.01 0.00 0.00 0.01 0.01 0.01 0.02 0.07 0.19 0.21 0.28 0.33 0.15 0.01 0.00 0.00 0.03 0.01 0.00 0.02 0.07 0.02 0.04 0.07 0.03 0.04 0.00 0.00 0.01 0.00 0.00 0.00 0.00 0.00 0.00 0.00 0.00 0.00 0.00 0.00 0.00 0.00 0.00
0.09 0.06 0.02 0.03 0.03 0.03 0.05 0.04 0.04 0.07 0.10 0.23 0.52 0.51 0.10 0.01 0.01 0.00 0.03 0.07 0.01 0.04 0.21 0.21 0.16 0.10 0.08 0.05 0.03 0.04 0.06 0.02 0.00 0.00 0.00 0.00 0.00 0.00 0.00 0.00 0.00 0.00 0.00 0.00 0.00
0.07 0.06 0.11 0.19 0.07 0.06 0.07 0.12 0.20 0.31 0.28 0.42 0.50 0.34 0.04 0.04 0.06 0.00 0.03 0.09 0.01 0.04 0.19 0.35 0.27 0.18 0.09 0.11 0.11 0.07 0.03 0.01 0.00 0.00 0.00 0.00 0.00 0.00 0.00 0.00 0.00 0.00 0.00 0.00 0.00
0.12 0.14 0.21 0.33 0.24 0.14 0.14 0.35 0.51 0.93 0.54 0.50 0.39 0.31 0.02 0.03 0.04 0.04 0.07 0.15 0.06 0.13 0.38 0.57 0.44 0.28 0.17 0.15 0.08 0.02 0.01 0.01 0.00 0.00 0.00 0.00 0.00 0.00 0.00 0.00 0.00 0.00 0.00 0.00 0.00
0.13 0.11 0.15 0.22 0.31 0.28 0.45 0.74 0.57 0.61 0.24 0.07 0.09 0.07 0.03 0.07 0.13 0.17 0.13 0.20 0.12 0.25 0.41 0.63 0.57 0.35 0.16 0.06 0.01 0.01 0.02 0.02 0.00 0.00 0.00 0.00 0.00 0.00 0.00 0.00 0.00 0.00 0.00 0.00 0.00
0.11 0.12 0.21 0.24 0.38 0.62 0.93 0.68 0.25 0.15 0.16 0.18 0.02 0.06 0.18 0.31 0.33 0.50 0.22 0.23 0.14 0.21 0.33 0.79 0.46 0.14 0.10 0.05 0.05 0.03 0.04 0.02 0.01 0.00 0.01 0.00 0.00 0.00 0.00 0.00 0.00 0.00 0.00 0.00 0.00
0.15 0.20 0.34 0.41 0.46 0.70 0.66 0.71 0.42 0.34 0.98 0.48 0.04 0.13 0.25 0.65 0.41 0.81 0.31 0.28 0.11 0.20 0.37 0.61 0.35 0.15 0.12 0.19 0.12 0.11 0.04 0.03 0.01 0.01 0.01 0.01 0.00 0.00 0.00 0.00 0.00 0.00 0.00 0.00 0.00
0.23 0.36 0.51 0.61 0.74 0.51 0.78 0.71 0.65 0.84 1.49 0.54 0.25 0.28 0.44 1.02 0.57 0.58 0.40 0.39 0.34 0.22 0.32 0.47 0.44 0.24 0.22 0.29 0.11 0.16 0.04 0.02 0.04 0.05 0.03 0.03 0.03 0.00 0.00 0.00 0.00 0.00 0.00 0.00 0.00
0.23 0.35 0.59 0.93 1.10 0.85 0.97 1.04 1.16 1.46 1.19 0.53 0.51 0.51 0.67 0.84 0.57 0.53 0.47 0.50 0.49 0.30 0.55 0.65 0.49 0.24 0.32 0.22 0.16 0.08 0.06 0.02 0.06 0.17 0.09 0.04 0.07 0.01 0.00 0.00 0.00 0.00 0.00 0.00 0.00
0.20 0.31 0.64 1.38 1.47 1.14 1.11 1.11 1.35 1.49 0.93 0.55 0.65 0.80 0.60 0.60 0.45 0.64 0.64 0.51 0.60 0.51 0.53 0.32 0.41 0.33 0.21 0.13 0.22 0.11 0.15 0.20 0.13 0.21 0.40 0.07 0.06 0.02 0.00 0.00 0.00 0.00 0.00 0.00 0.00
0.30 0.26 0.30 0.65 1.17 1.29 1.24 1.25 1.32 0.78 0.56 0.65 0.72 0.54 0.44 0.47 0.41 0.49 0.83 0.76 1.21 0.51 0.55 0.55 0.70 0.58 0.26 0.34 0.43 0.40 0.43 0.71 0.60 0.31 0.27 0.10 0.05 0.05 0.00 0.00 0.00 0.00 0.00 0.00 0.00
0.46 0.47 0.27 0.15 1.12 1.37 1.47 1.38 0.85 0.28 0.45 0.69 0.52 0.47 0.46 0.38 0.31 0.38 0.63 0.58 0.52 0.17 0.42 0.50 0.64 0.70 0.33 0.59 0.69 0.52 0.50 0.52 0.38 0.20 0.04 0.04 0.11 0.01 0.00 0.00 0.00 0.00 0.00 0.00 0.00
0.65 0.94 0.73 0.14 0.94 1.44 1.50 1.15 0.41 0.39 0.58 0.69 0.71 0.67 0.46 0.25 0.25 0.38 0.54 0.27 0.21 0.12 0.46 0.29 0.59 0.56 0.23 0.48 0.42 0.47 0.40 0.30 0.25 0.12 0.08 0.02 0.01 0.00 0.00 0.00 0.00 0.00 0.00 0.00 0.00
0.59 1.08 0.98 0.18 0.84 1.55 1.70 0.88 0.53 0.70 0.65 0.54 0.47 0.41 0.19 0.13 0.23 0.31 0.42 0.17 0.08 0.04 0.21 0.24 0.67 0.69 0.59 0.87 0.62 0.36 0.18 0.24 0.46 0.32 0.19 0.06 0.00 0.00 0.00 0.00 0.00 0.00 0.00 0.00 0.00
0.57 0.96 0.61 0.47 1.14 1.84 1.34 0.86 0.62 0.50 0.55 0.53 0.19 0.14 0.03 0.07 0.14 0.16 0.22 0.11 0.03 0.03 0.16 0.40 0.70 0.74 0.93 0.93 0.58 0.42 0.41 0.24 0.24 0.16 0.23 0.16 0.00 0.00 0.00 0.00 0.00 0.00 0.00 0.00 0.00
0.59 0.63 0.45 0.73 1.29 1.06 0.91 0.91 0.65 0.40 0.51 0.49 0.21 0.08 0.05 0.05 0.11 0.13 0.08 0.03 0.01 0.01 0.12 0.35 0.58 0.77 0.62 0.25 0.17 0.22 0.22 0.11 0.26 0.23 0.14 0.17 0.02 0.00 0.00 0.00 0.00 0.00 0.00 0.00 0.00
0.54 0.63 0.76 0.56 0.78 0.49 0.58 0.66 0.64 0.52 0.51 0.53 0.21 0.09 0.02 0.03 0.10 0.06 0.04 0.00 0.00 0.01 0.08 0.37 0.70 0.72 0.55 0.40 0.36 0.49 0.25 0.09 0.15 0.30 0.23 0.09 0.01 0.00 0.00 0.00 0.00 0.00 0.00 0.00 0.00
0.56 0.49 0.95 0.85 0.32 0.44 0.60 0.65 0.67 0.49 0.44 0.52 0.26 0.13 0.05 0.02 0.03 0.03 0.03 0.00 0.00 0.00 0.03 0.35 0.72 0.80 0.59 0.24 0.15 0.24 0.18 0.10 0.13 0.21 0.19 0.14 0.02 0.00 0.00 0.00 0.00 0.00 0.00 0.00 0.00
0.44 0.20 0.18 0.25 0.14 0.19 0.51 0.71 0.74 0.78 0.50 0.63 0.44 0.11 0.04 0.02 0.02 0.01 0.01 0.01 0.00 0.00 0.05 0.31 0.70 0.73 0.36 0.12 0.04 0.10 0.16 0.09 0.22 0.17 0.13 0.05 0.03 0.01 0.00 0.00 0.00 0.00 0.00 0.00 0.00
0.23 0.10 0.05 0.01 0.01 0.08 0.39 0.50 0.56 0.59 0.54 0.37 0.25 0.06 0.06 0.02 0.00 0.00 0.00 0.00 0.01 0.01 0.03 0.13 0.43 0.45 0.25 0.04 0.07 0.09 0.26 0.08 0.36 0.17 0.10 0.02 0.01 0.00 0.00 0.00 0.00 0.00 0.00 0.00 0.00
0.12 0.04 0.04 0.05 0.02 0.08 0.14 0.37 0.60 0.57 0.30 0.11 0.13 0.16 0.11 0.01 0.00 0.01 0.00 0.00 0.00 0.02 0.02 0.02 0.17 0.29 0.16 0.04 0.02 0.05 0.10 0.07 0.15 0.06 0.04 0.02 0.00 0.00 0.00 0.00 0.00 0.00 0.00 0.00 0.00

GFSSW_prec_precacc_033.txt.gz
Total_Precipitation_Accumulation
0.00 0.00 0.00 0.00 0.01 0.01 0.00 0.00 0.01 0.02 0.06 0.09 0.13 0.15 0.19 0.12 0.05 0.03 0.02 0.00 0.00 0.00 0.00 0.00 0.00 0.00 0.00 0.00 0.00 0.00 0.00 0.00 0.00 0.00 0.00 0.00 0.00 0.00 0.00 0.00 0.00 0.00 0.00 0.00 0.00
0.00 0.00 0.00 0.00 0.01 0.01 0.02 0.01 0.01 0.01 0.01 0.02 0.05 0.08 0.11 0.08 0.04 0.05 0.00 0.00 0.00 0.00 0.00 0.00 0.00 0.01 0.01 0.00 0.00 0.00 0.00 0.00 0.00 0.00 0.00 0.00 0.00 0.00 0.00 0.00 0.00 0.00 0.00 0.00 0.00
0.00 0.01 0.02 0.03 0.02 0.01 0.02 0.03 0.04 0.04 0.03 0.02 0.02 0.05 0.11 0.07 0.04 0.01 0.00 0.00 0.00 0.02 0.01 0.01 0.01 0.03 0.04 0.01 0.00 0.00 0.00 0.00 0.00 0.00 0.00 0.00 0.00 0.00 0.00 0.00 0.00 0.00 0.00 0.00 0.00
0.02 0.02 0.05 0.06 0.04 0.06 0.09 0.07 0.05 0.04 0.03 0.05 0.06 0.11 0.16 0.14 0.02 0.00 0.00 0.00 0.00 0.02 0.05 0.02 0.01 0.02 0.03 0.02 0.00 0.00 0.00 0.00 0.00 0.00 0.00 0.00 0.00 0.00 0.00 0.00 0.00 0.00 0.00 0.00 0.00
0.04 0.02 0.01 0.02 0.03 0.01 0.01 0.05 0.06 0.06 0.07 0.10 0.15 0.19 0.21 0.13 0.02 0.00 0.00 0.00 0.00 0.04 0.06 0.04 0.03 0.02 0.03 0.01 0.01 0.00 0.00 0.00 0.00 0.00 0.00 0.00 0.00 0.00 0.00 0.00 0.00 0.00 0.00 0.00 0.00
0.02 0.02 0.00 0.00 0.00 0.00 0.00 0.02 0.05 0.07 0.12 0.09 0.19 0.36 0.18 0.04 0.00 0.00 0.01 0.00 0.00 0.02 0.07 0.06 0.03 0.01 0.02 0.01 0.01 0.00 0.00 0.00 0.00 0.00 0.00 0.00 0.00 0.00 0.00 0.00 0.00 0.00 0.00 0.00 0.00
0.08 0.05 0.02 0.00 0.00 0.01 0.01 0.01 0.02 0.07 0.19 0.21 0.28 0.33 0.15 0.01 0.00 0.00 0.03 0.01 0.00 0.02 0.07 0.02 0.04 0.07 0.03 0.04 0.00 0.00 0.01 0.00 0.00 0.00 0.00 0.00 0.00 0.00 0.00 0.00 0.00 0.00 0.00 0.00 0.00
0.10 0.09 0.03 0.04 0.03 0.03 0.05 0.05 0.04 0.07 0.10 0.23 0.52 0.51 0.10 0.01 0.01 0.00 0.03 0.07 0.01 0.04 0.21 0.21 0.16 0.10 0.08 0.05 0.03 0.04 0.06 0.02 0.00 0.00 0.00 0.00 0.00 0.00 0.00 0.00 0.00 0.00 0.00 0.00 0.00
0.08 0.08 0.13 0.20 0.07 0.06 0.08 0.13 0.20 0.31 0.28 0.43 0.50 0.34 0.04 0.04 0.06 0.00 0.03 0.09 0.01 0.04 0.19 0.35 0.27 0.18 0.09 0.12 0.11 0.07 0.03 0.01 0.00 0.00 0.00 0.00 0.00 0.00 0.00 0.00 0.00 0.00 0.00 0.00 0.00
0.14 0.17 0.26 0.37 0.25 0.14 0.15 0.35 0.51 0.93 0.55 0.53 0.40 0.31 0.02 0.03 0.04 0.04 0.07 0.15 0.06 0.13 0.38 0.57 0.44 0.28 0.17 0.15 0.08 0.02 0.01 0.01 0.00 0.00 0.00 0.00 0.00 0.00 0.00 0.00 0.00 0.00 0.00 0.00 0.00
0.18 0.15 0.17 0.26 0.32 0.29 0.46 0.74 0.57 0.61 0.26 0.08 0.09 0.07 0.03 0.07 0.13 0.17 0.13 0.20 0.12 0.25 0.41 0.63 0.57 0.35 0.16 0.06 0.01 0.01 0.02 0.02 0.00 0.00 0.00 0.00 0.00 0.00 0.00 0.00 0.00 0.00 0.00 0.00 0.00
0.20 0.18 0.24 0.30 0.41 0.63 0.93 0.68 0.25 0.15 0.16 0.18 0.02 0.06 0.18 0.31 0.33 0.50 0.22 0.23 0.14 0.21 0.33 0.79 0.46 0.14 0.10 0.05 0.05 0.03 0.04 0.02 0.01 0.00 0.01 0.00 0.00 0.00 0.00 0.00 0.00 0.00 0.00 0.00 0.00
0.28 0.31 0.40 0.48 0.52 0.72 0.66 0.71 0.42 0.34 0.98 0.48 0.04 0.13 0.25 0.65 0.41 0.81 0.31 0.28 0.11 0.20 0.37 0.61 0.35 0.15 0.12 0.19 0.12 0.11 0.04 0.03 0.01 0.01 0.01 0.01 0.00 0.00 0.00 0.00 0.00 0.00 0.00 0.00 0.00
0.40 0.55 0.60 0.73 0.83 0.52 0.78 0.71 0.65 0.84 1.49 0.54 0.25 0.28 0.44 1.03 0.58 0.58 0.40 0.39 0.34 0.22 0.32 0.48 0.44 0.24 0.22 0.29 0.11 0.16 0.04 0.02 0.04 0.05 0.03 0.03 0.03 0.00 0.00 0.00 0.00 0.00 0.00 0.00 0.00
0.47 0.64 0.81 0.99 1.12 0.85 0.97 1.04 1.16 1.46 1.19 0.53 0.51 0.51 0.67 0.84 0.57 0.53 0.47 0.50 0.49 0.30 0.55 0.66 0.49 0.24 0.32 0.22 0.16 0.08 0.06 0.02 0.07 0.17 0.10 0.04 0.07 0.01 0.00 0.00 0.00 0.00 0.00 0.00 0.00
0.50 0.68 0.97 1.51 1.50 1.15 1.11 1.11 1.35 1.49 0.93 0.55 0.65 0.80 0.60 0.60 0.45 0.64 0.64 0.51 0.61 0.55 0.59 0.34 0.41 0.33 0.21 0.13 0.22 0.11 0.17 0.22 0.18 0.23 0.42 0.07 0.06 0.02 0.00 0.00 0.00 0.00 0.00 0.00 0.00
0.53 0.66 0.88 0.81 1.21 1.29 1.24 1.25 1.33 0.79 0.56 0.65 0.72 0.54 0.44 0.47 0.41 0.49 0.84 0.77 1.23 0.55 0.59 0.59 0.72 0.59 0.26 0.34 0.43 0.41 0.54 0.87 0.75 0.43 0.30 0.10 0.05 0.05 0.00 0.00 0.00 0.00 0.00 0.00 0.00
0.62 0.80 1.05 0.42 1.17 1.40 1.47 1.39 0.86 0.28 0.45 0.69 0.52 0.47 0.46 0.38 0.31 0.38 0.64 0.58 0.52 0.18 0.43 0.50 0.64 0.70 0.33 0.60 0.69 0.53 0.53 0.62 0.49 0.23 0.05 0.04 0.12 0.01 0.00 0.00 0.00 0.00 0.00 0.00 0.00
0.84 1.22 1.62 0.75 0.98 1.50 1.51 1.15 0.42 0.39 0.58 0.69 0.71 0.67 0.46 0.25 0.25 0.38 0.55 0.27 0.21 0.12 0.46 0.29 0.59 0.56 0.23 0.48 0.42 0.48 0.44 0.33 0.32 0.18 0.13 0.02 0.01 0.00 0.00 0.00 0.00 0.00 0.00 0.00 0.00
0.75 1.53 1.59 0.75 0.93 1.56 1.73 0.89 0.53 0.70 0.65 0.54 0.47 0.41 0.19 0.13 0.23 0.31 0.42 0.17 0.08 0.04 0.21 0.24 0.67 0.69 0.59 0.88 0.63 0.36 0.18 0.26 0.62 0.43 0.23 0.06 0.00 0.00 0.00 0.00 0.00 0.00 0.00 0.00 0.00
0.75 1.41 1.20 0.98 1.54 1.91 1.40 0.87 0.62 0.50 0.55 0.53 0.19 0.14 0.03 0.07 0.14 0.16 0.22 0.11 0.03 0.03 0.16 0.40 0.72 0.76 1.04 1.03 0.61 0.46 0.45 0.25 0.24 0.16 0.23 0.16 0.00 0.00 0.00 0.00 0.00 0.00 0.00 0.00 0.00
0.80 0.96 0.87 1.41 2.06 1.32 0.94 0.91 0.65 0.40 0.51 0.49 0.21 0.09 0.06 0.06 0.12 0.13 0.08 0.03 0.01 0.01 0.12 0.36 0.69 0.83 0.69 0.27 0.20 0.30 0.26 0.12 0.27 0.23 0.14 0.19 0.03 0.00 0.00 0.00 0.00 0.01 0.02 0.00 0.00
0.80 0.96 1.24 0.95 1.11 0.59 0.60 0.66 0.64 0.52 0.51 0.53 0.21 0.10 0.03 0.04 0.11 0.06 0.04 0.00 0.00 0.01 0.09 0.43 0.84 0.80 0.62 0.50 0.46 0.60 0.32 0.14 0.16 0.31 0.23 0.16 0.02 0.00 0.00 0.00 0.00 0.00 0.01 0.01 0.00
0.85 0.99 1.58 1.47 0.48 0.45 0.60 0.65 0.67 0.49 0.44 0.52 0.27 0.16 0.08 0.03 0.03 0.03 0.03 0.00 0.00 0.00 0.03 0.41 0.85 0.90 0.70 0.39 0.33 0.28 0.19 0.11 0.14 0.21 0.20 0.18 0.03 0.01 0.01 0.01 0.00 0.00 0.01 0.00 0.00
0.67 0.50 0.39 0.48 0.24 0.20 0.52 0.71 0.74 0.78 0.51 0.65 0.47 0.13 0.07 0.04 0.02 0.01 0.01 0.01 0.00 0.00 0.06 0.42 0.85 0.84 0.45 0.21 0.24 0.23 0.19 0.10 0.23 0.17 0.14 0.07 0.06 0.02 0.02 0.01 0.02 0.01 0.00 0.00 0.00
0.42 0.29 0.07 0.01 0.02 0.09 0.39 0.51 0.57 0.59 0.55 0.38 0.26 0.09 0.08 0.03 0.00 0.00 0.00 0.00 0.01 0.02 0.10 0.29 0.61 0.68 0.56 0.14 0.15 0.19 0.31 0.11 0.43 0.20 0.16 0.14 0.11 0.00 0.00 0.00 0.00 0.00 0.00 0.00 0.00
0.33 0.13 0.05 0.05 0.03 0.09 0.14 0.37 0.60 0.58 0.31 0.11 0.14 0.18 0.12 0.02 0.01 0.01 0.00 0.00 0.01 0.04 0.12 0.17 0.37 0.53 0.51 0.31 0.18 0.28 0.30 0.47 0.43 0.17 0.21 0.25 0.12 0.00 0.00 0.00 0.00 0.00 0.00 0.00 0.00

GFSSW_prec_precacc_036.txt.gz
Total_Precipitation_Accumulation
0.00 0.00 0.00 0.00 0.01 0.01 0.00 0.00 0.01 0.02 0.06 0.09 0.13 0.16 0.22 0.18 0.08 0.04 0.03 0.00 0.00 0.00 0.00 0.00 0.00 0.00 0.00 0.00 0.00 0.00 0.00 0.00 0.00 0.00 0.00 0.00 0.00 0.00 0.00 0.00 0.00 0.00 0.00 0.00 0.00
0.00 0.00 0.00 0.01 0.01 0.01 0.02 0.01 0.01 0.01 0.01 0.02 0.05 0.08 0.12 0.11 0.05 0.06 0.00 0.00 0.00 0.01 0.00 0.00 0.00 0.01 0.01 0.00 0.00 0.00 0.00 0.00 0.00 0.00 0.00 0.00 0.00 0.00 0.00 0.00 0.00 0.00 0.00 0.00 0.00
0.01 0.01 0.02 0.03 0.03 0.01 0.02 0.03 0.04 0.04 0.03 0.02 0.02 0.05 0.11 0.07 0.04 0.01 0.00 0.00 0.01 0.04 0.02 0.01 0.01 0.03 0.04 0.01 0.00 0.00 0.00 0.00 0.00 0.00 0.00 0.00 0.00 0.00 0.00 0.00 0.00 0.00 0.00 0.00 0.00
0.05 0.04 0.05 0.06 0.04 0.06 0.09 0.07 0.05 0.04 0.03 0.05 0.06 0.11 0.16 0.14 0.02 0.00 0.00 0.00 0.00 0.03 0.05 0.02 0.01 0.02 0.03 0.02 0.00 0.00 0.00 0.00 0.00 0.00 0.00 0.00 0.00 0.00 0.00 0.00 0.00 0.00 0.00 0.00 0.00
0.07 0.06 0.03 0.02 0.03 0.01 0.01 0.05 0.06 0.06 0.07 0.10 0.15 0.19 0.21 0.13 0.02 0.00 0.00 0.00 0.00 0.05 0.07 0.04 0.03 0.02 0.03 0.01 0.01 0.00 0.00 0.00 0.00 0.00 0.00 0.00 0.00 0.00 0.00 0.00 0.00 0.00 0.00 0.00 0.00
0.05 0.05 0.04 0.01 0.00 0.00 0.00 0.02 0.05 0.07 0.12 0.09 0.19 0.36 0.18 0.04 0.00 0.00 0.01 0.00 0.00 0.02 0.08 0.07 0.03 0.01 0.02 0.01 0.01 0.00 0.00 0.00 0.00 0.00 0.00 0.00 0.00 0.00 0.00 0.00 0.00 0.00 0.00 0.00 0.00
0.11 0.07 0.06 0.03 0.01 0.01 0.01 0.01 0.03 0.08 0.19 0.21 0.28 0.33 0.15 0.01 0.00 0.00 0.03 0.01 0.00 0.02 0.07 0.02 0.04 0.07 0.03 0.04 0.00 0.00 0.01 0.00 0.00 0.00 0.00 0.00 0.00 0.00 0.00 0.00 0.00 0.00 0.00 0.00 0.00
0.15 0.13 0.09 0.08 0.05 0.03 0.05 0.06 0.06 0.08 0.10 0.23 0.52 0.51 0.10 0.01 0.01 0.00 0.03 0.07 0.01 0.04 0.21 0.21 0.16 0.11 0.08 0.05 0.03 0.04 0.06 0.02 0.00 0.00 0.00 0.00 0.00 0.00 0.00 0.00 0.00 0.00 0.00 0.00 0.00
0.18 0.14 0.17 0.25 0.11 0.07 0.09 0.13 0.21 0.31 0.28 0.45 0.50 0.34 0.04 0.04 0.06 0.00 0.03 0.09 0.01 0.04 0.19 0.35 0.27 0.18 0.09 0.12 0.11 0.07 0.03 0.01 0.00 0.00 0.00 0.00 0.00 0.00 0.00 0.00 0.00 0.00 0.00 0.00 0.00
0.25 0.26 0.31 0.43 0.31 0.16 0.17 0.37 0.51 0.93 0.55 0.56 0.40 0.31 0.02 0.03 0.04 0.04 0.07 0.15 0.06 0.13 0.38 0.57 0.44 0.28 0.17 0.15 0.08 0.02 0.01 0.01 0.00 0.00 0.00 0.00 0.00 0.00 0.00 0.00 0.00 0.00 0.00 0.00 0.00
0.31 0.27 0.27 0.33 0.40 0.33 0.47 0.74 0.57 0.61 0.26 0.08 0.10 0.07 0.03 0.07 0.13 0.17 0.13 0.20 0.12 0.25 0.41 0.63 0.57 0.35 0.16 0.06 0.01 0.01 0.02 0.02 0.00 0.00 0.00 0.00 0.00 0.00 0.00 0.00 0.00 0.00 0.00 0.00 0.00
0.25 0.36 0.42 0.39 0.52 0.68 0.95 0.68 0.25 0.15 0.16 0.18 0.02 0.06 0.18 0.31 0.33 0.50 0.22 0.23 0.14 0.21 0.33 0.79 0.46 0.14 0.10 0.05 0.05 0.03 0.04 0.02 0.01 0.00 0.01 0.00 0.00 0.00 0.00 0.00 0.00 0.00 0.00 0.00 0.00
0.29 0.39 0.59 0.72 0.71 0.82 0.67 0.71 0.42 0.34 0.98 0.48 0.04 0.13 0.25 0.65 0.41 0.81 0.31 0.28 0.11 0.20 0.37 0.61 0.35 0.15 0.12 0.19 0.12 0.11 0.04 0.03 0.01 0.01 0.01 0.01 0.00 0.00 0.00 0.00 0.00 0.00 0.00 0.00 0.00
0.41 0.59 0.78 1.03 1.24 0.67 0.81 0.72 0.65 0.84 1.49 0.54 0.25 0.28 0.44 1.04 0.58 0.58 0.40 0.39 0.34 0.22 0.32 0.48 0.44 0.24 0.22 0.29 0.11 0.16 0.04 0.02 0.04 0.05 0.03 0.03 0.03 0.00 0.00 0.00 0.00 0.00 0.00 0.00 0.00
0.48 0.65 0.99 1.40 1.61 1.00 0.99 1.04 1.16 1.46 1.19 0.53 0.51 0.51 0.68 0.85 0.57 0.53 0.47 0.51 0.49 0.30 0.55 0.66 0.49 0.24 0.32 0.22 0.16 0.08 0.06 0.02 0.07 0.18 0.10 0.04 0.07 0.01 0.00 0.00 0.00 0.00 0.00 0.00 0.00
0.50 0.69 1.09 2.01 1.90 1.23 1.12 1.12 1.35 1.49 0.93 0.55 0.65 0.80 0.61 0.61 0.46 0.64 0.65 0.51 0.62 0.57 0.60 0.34 0.41 0.33 0.21 0.13 0.22 0.12 0.18 0.23 0.20 0.29 0.49 0.07 0.06 0.02 0.00 0.00 0.00 0.00 0.00 0.00 0.00
0.54 0.67 1.03 1.32 1.64 1.36 1.26 1.27 1.34 0.80 0.56 0.65 0.72 0.54 0.45 0.48 0.41 0.49 0.84 0.78 1.24 0.56 0.60 0.60 0.72 0.59 0.26 0.35 0.43 0.41 0.56 0.93 0.81 0.52 0.34 0.10 0.05 0.05 0.00 0.00 0.00 0.00 0.00 0.00 0.00
0.63 0.85 1.13 0.95 1.56 1.53 1.53 1.41 0.86 0.29 0.45 0.69 0.52 0.47 0.46 0.38 0.31 0.38 0.65 0.59 0.53 0.18 0.44 0.50 0.65 0.71 0.33 0.60 0.69 0.53 0.54 0.63 0.52 0.25 0.06 0.04 0.12 0.01 0.00 0.00 0.00 0.00 0.00 0.00 0.00
0.90 1.30 1.69 1.27 1.56 1.73 1.60 1.20 0.42 0.39 0.58 0.69 0.71 0.68 0.46 0.25 0.25 0.39 0.55 0.27 0.21 0.13 0.47 0.29 0.59 0.56 0.23 0.48 0.42 0.48 0.46 0.33 0.35 0.23 0.22 0.04 0.01 0.00 0.00 0.00 0.00 0.00 0.00 0.00 0.00
0.84 1.63 1.71 1.13 1.59 1.94 1.89 0.91 0.53 0.70 0.65 0.54 0.47 0.41 0.19 0.13 0.23 0.31 0.42 0.17 0.08 0.04 0.21 0.24 0.67 0.69 0.59 0.88 0.63 0.36 0.19 0.30 0.73 0.49 0.27 0.07 0.00 0.00 0.00 0.00 0.00 0.00 0.00 0.00 0.00
0.79 1.54 1.35 1.26 2.11 2.41 1.64 0.88 0.62 0.50 0.55 0.53 0.19 0.14 0.03 0.07 0.14 0.16 0.22 0.11 0.03 0.03 0.16 0.40 0.73 0.76 1.04 1.03 0.62 0.54 0.60 0.35 0.26 0.16 0.23 0.16 0.00 0.00 0.00 0.00 0.00 0.00 0.00 0.00 0.00
0.84 1.03 1.10 1.79 2.84 1.88 1.03 0.92 0.65 0.40 0.51 0.49 0.21 0.09 0.06 0.06 0.12 0.13 0.08 0.03 0.01 0.01 0.12 0.36 0.72 0.84 0.69 0.27 0.22 0.34 0.29 0.21 0.37 0.24 0.14 0.20 0.03 0.00 0.00 0.00 0.00 0.01 0.02 0.01 0.00
0.90 1.02 1.55 1.32 1.42 0.82 0.65 0.66 0.64 0.52 0.51 0.53 0.21 0.10 0.03 0.04 0.13 0.07 0.04 0.00 0.00 0.01 0.09 0.43 0.87 0.83 0.62 0.53 0.56 0.75 0.40 0.25 0.26 0.39 0.26 0.16 0.02 0.00 0.00 0.00 0.00 0.00 0.03 0.02 0.01
1.03 1.19 1.95 1.93 0.65 0.47 0.61 0.65 0.67 0.49 0.44 0.52 0.27 0.16 0.10 0.05 0.04 0.03 0.03 0.00 0.00 0.00 0.03 0.41 0.86 0.93 0.75 0.43 0.52 0.54 0.31 0.27 0.29 0.34 0.22 0.18 0.03 0.01 0.01 0.01 0.00 0.00 0.02 0.04 0.01
0.84 0.70 0.54 0.61 0.41 0.23 0.52 0.71 0.74 0.78 0.51 0.65 0.47 0.13 0.08 0.07 0.03 0.02 0.01 0.01 0.00 0.00 0.06 0.42 0.87 0.88 0.49 0.28 0.37 0.39 0.33 0.23 0.34 0.20 0.15 0.07 0.07 0.03 0.02 0.01 0.02 0.01 0.01 0.02 0.00
0.47 0.50 0.12 0.03 0.04 0.12 0.41 0.51 0.57 0.59 0.55 0.38 0.26 0.09 0.08 0.05 0.01 0.00 0.00 0.00 0.01 0.02 0.11 0.32 0.67 0.73 0.61 0.24 0.31 0.31 0.36 0.16 0.46 0.21 0.16 0.14 0.12 0.01 0.01 0.01 0.00 0.00 0.00 0.01 0.00
0.38 0.33 0.19 0.12 0.05 0.14 0.16 0.37 0.61 0.58 0.31 0.11 0.14 0.18 0.12 0.02 0.01 0.01 0.00 0.00 0.01 0.05 0.14 0.23 0.45 0.65 0.62 0.48 0.25 0.40 0.42 0.50 0.43 0.17 0.21 0.26 0.14 0.01 0.01 0.01 0.00 0.00 0.01 0.00 0.00

GFSSW_prec_precacc_039.txt.gz
Total_Precipitation_Accumulation
0.01 0.00 0.00 0.00 0.01 0.01 0.01 0.01 0.01 0.02 0.06 0.09 0.13 0.17 0.24 0.23 0.12 0.05 0.03 0.00 0.00 0.00 0.00 0.00 0.00 0.00 0.00 0.00 0.00 0.00 0.00 0.00 0.00 0.00 0.00 0.00 0.00 0.00 0.00 0.00 0.00 0.00 0.00 0.00 0.00
0.02 0.01 0.01 0.01 0.01 0.01 0.03 0.02 0.02 0.01 0.01 0.02 0.05 0.08 0.12 0.11 0.13 0.10 0.01 0.00 0.01 0.01 0.00 0.00 0.00 0.01 0.01 0.00 0.00 0.00 0.00 0.00 0.00 0.00 0.00 0.00 0.00 0.00 0.00 0.00 0.00 0.00 0.00 0.00 0.00
0.05 0.05 0.05 0.04 0.03 0.01 0.02 0.03 0.04 0.04 0.03 0.02 0.02 0.05 0.11 0.07 0.04 0.01 0.00 0.00 0.02 0.10 0.02 0.01 0.01 0.03 0.04 0.01 0.00 0.00 0.00 0.00 0.00 0.00 0.00 0.00 0.00 0.00 0.00 0.00 0.00 0.00 0.00 0.00 0.00
0.08 0.08 0.10 0.09 0.05 0.06 0.09 0.07 0.05 0.04 0.03 0.05 0.06 0.11 0.16 0.14 0.02 0.00 0.00 0.00 0.00 0.05 0.06 0.02 0.01 0.02 0.03 0.02 0.00 0.00 0.00 0.00 0.00 0.00 0.00 0.00 0.00 0.00 0.00 0.00 0.00 0.00 0.00 0.00 0.00
0.10 0.09 0.08 0.07 0.05 0.01 0.01 0.05 0.06 0.06 0.07 0.10 0.15 0.19 0.21 0.13 0.02 0.00 0.00 0.00 0.00 0.05 0.07 0.05 0.03 0.02 0.03 0.01 0.01 0.00 0.00 0.00 0.00 0.00 0.00 0.00 0.00 0.00 0.00 0.00 0.00 0.00 0.00 0.00 0.00
0.07 0.08 0.07 0.07 0.05 0.01 0.00 0.02 0.05 0.07 0.12 0.09 0.19 0.36 0.18 0.04 0.00 0.00 0.01 0.00 0.00 0.02 0.09 0.07 0.03 0.01 0.02 0.01 0.01 0.00 0.00 0.00 0.00 0.00 0.00 0.00 0.00 0.00 0.00 0.00 0.00 0.00 0.00 0.00 0.00
0.12 0.09 0.08 0.07 0.06 0.03 0.01 0.01 0.03 0.09 0.19 0.21 0.28 0.33 0.15 0.01 0.00 0.00 0.03 0.01 0.00 0.02 0.07 0.02 0.04 0.07 0.03 0.04 0.00 0.00 0.01 0.00 0.00 0.00 0.00 0.00 0.00 0.00 0.00 0.00 0.00 0.00 0.00 0.00 0.00
0.17 0.16 0.12 0.13 0.12 0.08 0.07 0.06 0.07 0.11 0.12 0.24 0.52 0.51 0.10 0.01 0.01 0.00 0.03 0.07 0.01 0.04 0.21 0.21 0.16 0.11 0.08 0.05 0.03 0.04 0.06 0.02 0.00 0.00 0.00 0.00 0.00 0.00 0.00 0.00 0.00 0.00 0.00 0.00 0.00
0.19 0.18 0.23 0.32 0.18 0.15 0.13 0.15 0.22 0.33 0.29 0.47 0.51 0.34 0.04 0.04 0.06 0.00 0.03 0.09 0.01 0.04 0.19 0.35 0.27 0.18 0.09 0.12 0.11 0.07 0.03 0.01 0.00 0.00 0.00 0.00 0.00 0.00 0.00 0.00 0.00 0.00 0.00 0.00 0.00
0.25 0.29 0.40 0.53 0.42 0.26 0.24 0.40 0.51 0.93 0.56 0.57 0.41 0.31 0.02 0.03 0.04 0.04 0.07 0.15 0.06 0.13 0.38 0.57 0.44 0.28 0.17 0.15 0.08 0.02 0.01 0.01 0.00 0.00 0.00 0.00 0.00 0.00 0.00 0.00 0.00 0.00 0.00 0.00 0.00
0.32 0.28 0.31 0.46 0.53 0.46 0.54 0.76 0.57 0.61 0.27 0.08 0.10 0.07 0.03 0.07 0.13 0.17 0.13 0.20 0.12 0.25 0.41 0.63 0.57 0.35 0.16 0.06 0.01 0.01 0.02 0.02 0.00 0.00 0.00 0.00 0.00 0.00 0.00 0.00 0.00 0.00 0.00 0.00 0.00
0.27 0.37 0.47 0.52 0.74 0.95 1.06 0.68 0.25 0.15 0.16 0.18 0.02 0.06 0.18 0.31 0.33 0.50 0.22 0.23 0.14 0.21 0.33 0.79 0.46 0.14 0.10 0.05 0.05 0.03 0.04 0.02 0.01 0.00 0.01 0.00 0.00 0.00 0.00 0.00 0.00 0.00 0.00 0.00 0.00
0.32 0.41 0.62 0.86 1.03 1.33 0.84 0.72 0.42 0.34 0.98 0.48 0.04 0.13 0.25 0.65 0.41 0.81 0.31 0.28 0.11 0.20 0.37 0.61 0.35 0.15 0.12 0.19 0.12 0.11 0.04 0.03 0.01 0.01 0.01 0.01 0.00 0.00 0.00 0.00 0.00 0.00 0.00 0.00 0.00
0.46 0.63 0.80 1.08 1.57 1.25 1.12 0.75 0.65 0.84 1.49 0.54 0.25 0.28 0.44 1.04 0.58 0.58 0.40 0.39 0.34 0.22 0.32 0.48 0.44 0.24 0.22 0.29 0.11 0.16 0.04 0.02 0.04 0.05 0.03 0.03 0.03 0.00 0.00 0.00 0.00 0.00 0.00 0.00 0.00
0.52 0.66 1.00 1.45 1.90 1.56 1.30 1.11 1.16 1.46 1.19 0.53 0.51 0.52 0.69 0.85 0.57 0.53 0.47 0.51 0.49 0.30 0.55 0.66 0.49 0.24 0.32 0.22 0.16 0.08 0.06 0.02 0.07 0.18 0.11 0.04 0.08 0.01 0.00 0.00 0.00 0.00 0.00 0.00 0.00
0.51 0.69 1.11 2.03 2.07 1.59 1.44 1.24 1.39 1.49 0.93 0.55 0.65 0.81 0.63 0.61 0.46 0.64 0.65 0.52 0.62 0.57 0.61 0.34 0.41 0.33 0.21 0.13 0.22 0.12 0.18 0.24 0.21 0.31 0.52 0.07 0.06 0.02 0.00 0.00 0.00 0.00 0.00 0.00 0.00
0.56 0.68 1.05 1.35 1.76 1.68 1.70 1.59 1.42 0.81 0.56 0.65 0.72 0.55 0.45 0.48 0.42 0.50 0.85 0.79 1.24 0.56 0.61 0.60 0.73 0.59 0.26 0.35 0.43 0.41 0.58 0.94 0.82 0.56 0.35 0.10 0.05 0.05 0.00 0.00 0.00 0.00 0.00 0.00 0.00
0.67 0.87 1.15 0.97 1.72 1.95 2.02 1.72 0.90 0.29 0.45 0.69 0.52 0.47 0.46 0.38 0.31 0.38 0.65 0.60 0.54 0.19 0.45 0.50 0.65 0.71 0.33 0.60 0.69 0.53 0.54 0.64 0.52 0.25 0.06 0.04 0.12 0.01 0.00 0.00 0.00 0.00 0.00 0.00 0.00
0.95 1.32 1.72 1.29 1.80 2.30 2.13 1.49 0.44 0.39 0.58 0.69 0.71 0.68 0.46 0.25 0.25 0.39 0.55 0.27 0.21 0.13 0.48 0.29 0.59 0.56 0.23 0.48 0.42 0.48 0.47 0.33 0.36 0.23 0.23 0.04 0.01 0.00 0.00 0.00 0.00 0.00 0.00 0.00 0.00
0.91 1.67 1.74 1.17 1.81 2.56 2.39 1.06 0.53 0.70 0.65 0.54 0.47 0.41 0.19 0.13 0.23 0.32 0.42 0.17 0.08 0.04 0.21 0.24 0.67 0.69 0.59 0.88 0.63 0.36 0.19 0.33 0.79 0.53 0.29 0.07 0.00 0.00 0.00 0.00 0.00 0.00 0.00 0.00 0.00
0.83 1.54 1.42 1.32 2.40 3.14 2.10 1.00 0.62 0.50 0.55 0.53 0.19 0.14 0.03 0.07 0.14 0.16 0.22 0.11 0.03 0.03 0.16 0.40 0.73 0.76 1.04 1.03 0.62 0.55 0.64 0.44 0.39 0.23 0.25 0.16 0.00 0.00 0.00 0.00 0.00 0.00 0.00 0.00 0.00
0.88 1.07 1.25 1.89 3.12 2.27 1.30 0.95 0.65 0.40 0.51 0.49 0.21 0.09 0.06 0.06 0.12 0.13 0.08 0.03 0.01 0.01 0.12 0.36 0.74 0.85 0.69 0.27 0.22 0.34 0.30 0.28 0.62 0.33 0.20 0.21 0.03 0.00 0.01 0.01 0.00 0.01 0.02 0.01 0.00
1.04 1.16 1.90 1.39 1.49 0.90 0.73 0.69 0.64 0.52 0.51 0.53 0.21 0.10 0.03 0.04 0.13 0.07 0.04 0.00 0.00 0.01 0.09 0.43 0.89 0.83 0.62 0.53 0.58 0.79 0.41 0.33 0.43 0.63 0.43 0.21 0.03 0.00 0.00 0.00 0.00 0.00 0.03 0.02 0.01
1.18 1.49 2.38 2.19 0.71 0.48 0.65 0.66 0.67 0.49 0.44 0.52 0.27 0.16 0.10 0.05 0.04 0.03 0.03 0.00 0.00 0.00 0.03 0.41 0.87 0.93 0.75 0.43 0.56 0.76 0.41 0.42 0.57 0.61 0.28 0.21 0.03 0.01 0.01 0.02 0.01 0.00 0.02 0.04 0.01
0.87 0.82 0.62 0.67 0.53 0.25 0.53 0.72 0.74 0.78 0.51 0.65 0.47 0.13 0.08 0.07 0.03 0.02 0.01 0.01 0.00 0.00 0.06 0.43 0.88 0.88 0.49 0.28 0.42 0.52 0.50 0.39 0.54 0.25 0.20 0.09 0.07 0.03 0.03 0.02 0.02 0.01 0.01 0.02 0.00
0.56 0.72 0.23 0.04 0.08 0.16 0.43 0.53 0.57 0.59 0.55 0.38 0.26 0.09 0.08 0.05 0.01 0.00 0.00 0.00 0.01 0.02 0.11 0.32 0.69 0.74 0.61 0.24 0.38 0.47 0.47 0.24 0.48 0.21 0.18 0.14 0.12 0.01 0.01 0.01 0.00 0.00 0.01 0.02 0.00
0.55 0.59 0.33 0.17 0.08 0.19 0.17 0.38 0.61 0.58 0.31 0.11 0.14 0.18 0.12 0.02 0.01 0.01 0.00 0.00 0.01 0.05 0.15 0.25 0.48 0.69 0.63 0.48 0.28 0.46 0.55 0.60 0.44 0.18 0.22 0.26 0.14 0.01 0.01 0.01 0.00 0.01 0.02 0.01 0.00

GFSSW_prec_precacc_042.txt.gz
Total_Precipitation_Accumulation
0.03 0.04 0.02 0.01 0.01 0.01 0.01 0.01 0.01 0.02 0.06 0.09 0.13 0.17 0.25 0.24 0.17 0.06 0.03 0.00 0.00 0.00 0.00 0.00 0.00 0.00 0.00 0.00 0.00 0.00 0.00 0.00 0.00 0.00 0.00 0.00 0.00 0.00 0.00 0.00 0.00 0.00 0.00 0.00 0.00
0.03 0.03 0.06 0.05 0.01 0.01 0.03 0.02 0.02 0.01 0.01 0.02 0.05 0.08 0.12 0.12 0.16 0.13 0.01 0.00 0.01 0.02 0.00 0.00 0.00 0.01 0.01 0.00 0.00 0.00 0.00 0.00 0.00 0.00 0.00 0.00 0.00 0.00 0.00 0.00 0.00 0.00 0.00 0.00 0.00
0.06 0.07 0.09 0.10 0.07 0.01 0.02 0.03 0.04 0.04 0.03 0.02 0.02 0.05 0.11 0.07 0.04 0.01 0.00 0.02 0.04 0.16 0.02 0.01 0.01 0.03 0.04 0.01 0.00 0.00 0.00 0.00 0.00 0.00 0.00 0.00 0.00 0.00 0.00 0.00 0.00 0.00 0.00 0.00 0.00
0.09 0.10 0.13 0.15 0.12 0.10 0.09 0.07 0.05 0.04 0.03 0.05 0.06 0.11 0.16 0.14 0.02 0.00 0.00 0.00 0.01 0.11 0.07 0.02 0.01 0.02 0.03 0.02 0.00 0.00 0.00 0.00 0.00 0.00 0.00 0.00 0.00 0.00 0.00 0.00 0.00 0.00 0.00 0.00 0.00
0.10 0.10 0.10 0.10 0.10 0.07 0.03 0.05 0.06 0.06 0.07 0.10 0.15 0.19 0.21 0.13 0.02 0.00 0.00 0.00 0.00 0.06 0.08 0.05 0.03 0.02 0.03 0.01 0.01 0.00 0.00 0.00 0.00 0.00 0.00 0.00 0.00 0.00 0.00 0.00 0.00 0.00 0.00 0.00 0.00
0.07 0.08 0.08 0.08 0.07 0.07 0.04 0.03 0.05 0.07 0.12 0.09 0.19 0.36 0.18 0.04 0.00 0.00 0.01 0.00 0.00 0.03 0.09 0.08 0.04 0.01 0.02 0.01 0.01 0.00 0.00 0.00 0.00 0.00 0.00 0.00 0.00 0.00 0.00 0.00 0.00 0.00 0.00 0.00 0.00
0.12 0.10 0.08 0.08 0.08 0.07 0.08 0.03 0.03 0.09 0.19 0.21 0.28 0.33 0.15 0.01 0.00 0.00 0.03 0.01 0.00 0.03 0.08 0.02 0.04 0.07 0.03 0.04 0.00 0.00 0.01 0.00 0.00 0.00 0.00 0.00 0.00 0.00 0.00 0.00 0.00 0.00 0.00 0.00 0.00
0.18 0.16 0.12 0.13 0.14 0.13 0.14 0.12 0.09 0.11 0.13 0.24 0.52 0.51 0.10 0.01 0.01 0.00 0.03 0.07 0.01 0.05 0.22 0.23 0.16 0.11 0.08 0.05 0.03 0.04 0.06 0.02 0.00 0.00 0.00 0.00 0.00 0.00 0.00 0.00 0.00 0.00 0.00 0.00 0.00
0.19 0.19 0.24 0.33 0.22 0.21 0.20 0.22 0.26 0.33 0.31 0.50 0.51 0.34 0.04 0.04 0.06 0.00 0.03 0.09 0.01 0.04 0.19 0.35 0.28 0.18 0.09 0.12 0.11 0.07 0.03 0.01 0.00 0.00 0.00 0.00 0.00 0.00 0.00 0.00 0.00 0.00 0.00 0.00 0.00
0.26 0.30 0.41 0.54 0.45 0.34 0.38 0.60 0.59 0.94 0.56 0.58 0.42 0.31 0.02 0.03 0.04 0.04 0.07 0.15 0.06 0.13 0.38 0.57 0.44 0.28 0.17 0.15 0.08 0.02 0.01 0.01 0.00 0.00 0.00 0.00 0.00 0.00 0.00 0.00 0.00 0.00 0.00 0.00 0.00
0.34 0.30 0.32 0.47 0.58 0.63 0.95 1.23 0.69 0.61 0.27 0.08 0.10 0.07 0.03 0.07 0.13 0.17 0.13 0.20 0.12 0.25 0.41 0.63 0.57 0.35 0.16 0.06 0.01 0.01 0.02 0.02 0.00 0.00 0.00 0.00 0.00 0.00 0.00 0.00 0.00 0.00 0.00 0.00 0.00
0.29 0.39 0.48 0.53 0.79 1.19 1.75 1.07 0.27 0.15 0.16 0.18 0.02 0.06 0.18 0.31 0.33 0.50 0.22 0.23 0.14 0.21 0.33 0.79 0.46 0.14 0.10 0.05 0.05 0.03 0.04 0.02 0.01 0.00 0.01 0.00 0.00 0.00 0.00 0.00 0.00 0.00 0.00 0.00 0.00
0.35 0.43 0.65 0.89 1.06 1.52 1.33 1.01 0.43 0.34 0.98 0.48 0.04 0.13 0.25 0.65 0.41 0.81 0.31 0.28 0.11 0.20 0.37 0.61 0.35 0.15 0.12 0.19 0.12 0.11 0.04 0.03 0.01 0.01 0.01 0.01 0.00 0.00 0.00 0.00 0.00 0.00 0.00 0.00 0.00
0.48 0.65 0.82 1.10 1.58 1.34 1.45 1.00 0.73 0.85 1.50 0.54 0.25 0.28 0.45 1.04 0.58 0.58 0.40 0.39 0.34 0.22 0.32 0.48 0.44 0.24 0.22 0.29 0.11 0.16 0.04 0.02 0.04 0.06 0.03 0.03 0.03 0.00 0.00 0.00 0.00 0.00 0.00 0.00 0.00
0.54 0.67 1.01 1.49 1.95 1.67 1.52 1.48 1.38 1.53 1.22 0.53 0.51 0.52 0.70 0.85 0.57 0.53 0.47 0.51 0.49 0.30 0.55 0.66 0.49 0.24 0.32 0.22 0.16 0.08 0.06 0.02 0.07 0.18 0.11 0.05 0.08 0.01 0.00 0.00 0.00 0.00 0.00 0.00 0.00
0.54 0.74 1.13 2.04 2.09 1.62 1.69 1.72 1.83 1.64 0.94 0.56 0.65 0.83 0.65 0.62 0.47 0.64 0.66 0.53 0.62 0.57 0.61 0.34 0.41 0.33 0.21 0.13 0.22 0.12 0.18 0.24 0.22 0.33 0.54 0.07 0.06 0.02 0.00 0.00 0.00 0.00 0.00 0.00 0.00
0.72 0.76 1.08 1.40 1.78 1.73 2.04 2.39 1.96 0.91 0.56 0.66 0.72 0.56 0.46 0.48 0.43 0.50 0.86 0.80 1.25 0.57 0.61 0.61 0.73 0.59 0.26 0.35 0.43 0.42 0.60 0.95 0.83 0.58 0.36 0.10 0.05 0.05 0.00 0.00 0.00 0.00 0.00 0.00 0.00
0.73 0.92 1.19 0.99 1.73 2.05 2.40 2.43 1.17 0.30 0.45 0.69 0.53 0.48 0.47 0.38 0.31 0.39 0.66 0.61 0.54 0.19 0.45 0.50 0.65 0.71 0.33 0.61 0.70 0.53 0.55 0.64 0.52 0.25 0.06 0.04 0.12 0.01 0.00 0.00 0.00 0.00 0.00 0.00 0.00
1.06 1.34 1.72 1.29 1.80 2.47 2.44 1.97 0.52 0.39 0.58 0.69 0.72 0.68 0.47 0.25 0.25 0.39 0.56 0.28 0.22 0.13 0.48 0.29 0.59 0.56 0.23 0.48 0.42 0.49 0.47 0.33 0.36 0.23 0.24 0.04 0.01 0.00 0.00 0.00 0.00 0.00 0.00 0.00 0.00
0.97 1.68 1.77 1.20 1.84 2.89 2.69 1.29 0.57 0.70 0.65 0.54 0.47 0.41 0.19 0.13 0.23 0.32 0.42 0.17 0.08 0.04 0.21 0.24 0.67 0.69 0.59 0.89 0.64 0.36 0.19 0.33 0.81 0.55 0.30 0.07 0.00 0.00 0.00 0.00 0.00 0.00 0.00 0.00 0.00
0.94 1.57 1.45 1.41 2.53 3.56 2.44 1.21 0.63 0.50 0.55 0.53 0.19 0.14 0.03 0.07 0.14 0.16 0.22 0.11 0.03 0.03 0.16 0.40 0.73 0.77 1.05 1.03 0.62 0.55 0.64 0.45 0.44 0.28 0.28 0.19 0.01 0.00 0.00 0.00 0.00 0.00 0.00 0.00 0.00
0.96 1.26 1.30 2.00 3.21 2.55 1.53 1.05 0.65 0.40 0.51 0.49 0.21 0.09 0.06 0.06 0.12 0.13 0.08 0.03 0.01 0.01 0.12 0.36 0.74 0.86 0.69 0.27 0.22 0.34 0.30 0.30 0.76 0.42 0.34 0.31 0.07 0.00 0.01 0.01 0.00 0.01 0.02 0.01 0.00
1.10 1.36 2.07 1.46 1.53 1.04 0.89 0.73 0.64 0.52 0.51 0.53 0.21 0.10 0.03 0.04 0.13 0.07 0.04 0.00 0.00 0.01 0.09 0.43 0.89 0.84 0.62 0.53 0.58 0.79 0.41 0.34 0.55 0.84 0.58 0.31 0.09 0.00 0.00 0.00 0.00 0.01 0.03 0.02 0.01
1.29 1.86 2.61 2.27 0.72 0.49 0.69 0.69 0.69 0.50 0.44 0.52 0.27 0.16 0.10 0.05 0.04 0.03 0.03 0.00 0.00 0.00 0.03 0.41 0.87 0.93 0.75 0.43 0.57 0.82 0.45 0.53 0.89 0.83 0.32 0.26 0.03 0.01 0.01 0.02 0.01 0.00 0.02 0.04 0.01
1.14 1.10 0.67 0.69 0.53 0.25 0.53 0.72 0.74 0.78 0.51 0.65 0.47 0.13 0.08 0.07 0.03 0.02 0.01 0.01 0.00 0.00 0.06 0.43 0.89 0.88 0.49 0.28 0.42 0.57 0.56 0.48 0.77 0.35 0.28 0.10 0.07 0.03 0.03 0.02 0.02 0.01 0.01 0.02 0.01
0.75 0.89 0.28 0.04 0.09 0.17 0.43 0.53 0.57 0.59 0.55 0.38 0.26 0.09 0.08 0.05 0.01 0.00 0.00 0.01 0.01 0.02 0.11 0.33 0.70 0.75 0.61 0.24 0.38 0.48 0.55 0.34 0.52 0.22 0.19 0.15 0.12 0.01 0.01 0.01 0.00 0.00 0.01 0.02 0.00
0.60 0.66 0.44 0.21 0.09 0.20 0.17 0.38 0.61 0.58 0.31 0.11 0.14 0.18 0.12 0.02 0.01 0.01 0.00 0.00 0.01 0.06 0.15 0.26 0.49 0.71 0.64 0.48 0.28 0.46 0.58 0.66 0.46 0.18 0.22 0.27 0.14 0.01 0.01 0.01 0.00 0.01 0.02 0.02 0.00

GFSSW_prec_precacc_045.txt.gz
Total_Precipitation_Accumulation
0.04 0.05 0.05 0.06 0.05 0.02 0.01 0.01 0.01 0.02 0.06 0.09 0.13 0.17 0.25 0.26 0.20 0.07 0.03 0.00 0.00 0.00 0.00 0.00 0.00 0.00 0.00 0.00 0.00 0.00 0.00 0.00 0.00 0.00 0.00 0.00 0.00 0.00 0.00 0.00 0.00 0.00 0.00 0.00 0.00
0.03 0.04 0.07 0.08 0.07 0.05 0.03 0.02 0.02 0.01 0.01 0.02 0.05 0.08 0.12 0.12 0.21 0.16 0.01 0.00 0.02 0.02 0.00 0.00 0.00 0.01 0.01 0.00 0.00 0.00 0.00 0.00 0.00 0.00 0.00 0.00 0.00 0.00 0.00 0.00 0.00 0.00 0.00 0.00 0.00
0.06 0.07 0.09 0.12 0.11 0.07 0.05 0.03 0.04 0.04 0.03 0.02 0.02 0.05 0.11 0.07 0.06 0.02 0.00 0.03 0.10 0.21 0.02 0.01 0.01 0.03 0.04 0.01 0.00 0.00 0.00 0.00 0.00 0.00 0.00 0.00 0.00 0.00 0.00 0.00 0.00 0.00 0.00 0.00 0.00
0.09 0.10 0.13 0.15 0.13 0.15 0.15 0.09 0.05 0.04 0.03 0.05 0.06 0.11 0.16 0.14 0.02 0.00 0.00 0.01 0.04 0.21 0.09 0.02 0.01 0.02 0.03 0.02 0.00 0.00 0.00 0.00 0.00 0.00 0.00 0.00 0.00 0.00 0.00 0.00 0.00 0.00 0.00 0.00 0.00
0.10 0.10 0.10 0.10 0.10 0.09 0.08 0.09 0.07 0.06 0.07 0.10 0.15 0.19 0.21 0.13 0.02 0.00 0.00 0.00 0.00 0.07 0.10 0.05 0.03 0.02 0.03 0.01 0.01 0.00 0.00 0.00 0.00 0.00 0.00 0.00 0.00 0.00 0.00 0.00 0.00 0.00 0.00 0.00 0.00
0.07 0.08 0.08 0.08 0.07 0.07 0.08 0.09 0.08 0.07 0.12 0.09 0.19 0.36 0.18 0.04 0.00 0.00 0.01 0.00 0.00 0.03 0.11 0.08 0.04 0.01 0.02 0.01 0.01 0.00 0.00 0.00 0.00 0.00 0.00 0.00 0.00 0.00 0.00 0.00 0.00 0.00 0.00 0.00 0.00
0.12 0.10 0.09 0.08 0.08 0.08 0.10 0.11 0.11 0.11 0.19 0.21 0.28 0.33 0.15 0.01 0.00 0.00 0.03 0.01 0.00 0.03 0.09 0.03 0.04 0.07 0.03 0.04 0.00 0.00 0.01 0.00 0.00 0.00 0.00 0.00 0.00 0.00 0.00 0.00 0.00 0.00 0.00 0.00 0.00
0.18 0.16 0.12 0.14 0.14 0.13 0.16 0.17 0.24 0.16 0.14 0.25 0.52 0.51 0.10 0.01 0.01 0.00 0.03 0.07 0.01 0.05 0.23 0.23 0.16 0.11 0.08 0.05 0.03 0.04 0.06 0.02 0.00 0.00 0.00 0.00 0.00 0.00 0.00 0.00 0.00 0.00 0.00 0.00 0.00
0.19 0.20 0.24 0.33 0.23 0.21 0.23 0.28 0.44 0.50 0.34 0.52 0.51 0.34 0.04 0.04 0.06 0.00 0.03 0.09 0.01 0.04 0.19 0.37 0.29 0.18 0.09 0.12 0.11 0.07 0.03 0.01 0.00 0.00 0.00 0.00 0.00 0.00 0.00 0.00 0.00 0.00 0.00 0.00 0.00
0.27 0.31 0.41 0.55 0.46 0.35 0.40 0.72 0.92 1.19 0.61 0.62 0.43 0.31 0.02 0.03 0.04 0.04 0.07 0.15 0.06 0.13 0.38 0.57 0.44 0.28 0.17 0.15 0.08 0.02 0.01 0.01 0.00 0.00 0.00 0.00 0.00 0.00 0.00 0.00 0.00 0.00 0.00 0.00 0.00
0.34 0.31 0.35 0.50 0.60 0.65 0.99 1.52 1.40 1.17 0.39 0.09 0.10 0.07 0.03 0.07 0.13 0.17 0.13 0.20 0.12 0.25 0.41 0.63 0.57 0.35 0.16 0.06 0.01 0.01 0.02 0.02 0.00 0.00 0.00 0.00 0.00 0.00 0.00 0.00 0.00 0.00 0.00 0.00 0.00
0.30 0.41 0.52 0.56 0.81 1.19 1.79 1.45 0.72 0.32 0.23 0.18 0.02 0.06 0.18 0.31 0.33 0.50 0.22 0.23 0.14 0.21 0.33 0.79 0.46 0.14 0.10 0.05 0.05 0.03 0.04 0.02 0.01 0.00 0.01 0.00 0.00 0.00 0.00 0.00 0.00 0.00 0.00 0.00 0.00
0.37 0.48 0.71 0.95 1.08 1.53 1.36 1.14 0.68 0.54 1.11 0.49 0.04 0.13 0.25 0.65 0.41 0.81 0.31 0.28 0.11 0.20 0.37 0.61 0.35 0.15 0.12 0.19 0.12 0.11 0.04 0.03 0.01 0.01 0.01 0.01 0.00 0.00 0.00 0.00 0.00 0.00 0.00 0.00 0.00
0.50 0.68 0.86 1.15 1.61 1.37 1.48 1.09 1.04 1.17 1.65 0.54 0.25 0.28 0.45 1.04 0.58 0.58 0.40 0.39 0.34 0.22 0.32 0.48 0.44 0.24 0.22 0.29 0.11 0.16 0.04 0.02 0.04 0.06 0.03 0.03 0.03 0.00 0.00 0.00 0.00 0.00 0.00 0.00 0.00
0.57 0.73 1.06 1.55 2.01 1.67 1.56 1.72 1.85 1.96 1.44 0.54 0.52 0.52 0.70 0.85 0.57 0.53 0.47 0.51 0.49 0.30 0.55 0.66 0.49 0.24 0.32 0.22 0.16 0.08 0.06 0.02 0.07 0.18 0.11 0.05 0.08 0.01 0.00 0.00 0.00 0.00 0.00 0.00 0.00
0.57 0.78 1.22 2.10 2.15 1.62 1.72 2.02 2.58 2.25 1.13 0.56 0.66 0.84 0.66 0.62 0.47 0.65 0.66 0.53 0.62 0.57 0.61 0.34 0.41 0.33 0.21 0.13 0.22 0.12 0.18 0.24 0.22 0.34 0.54 0.07 0.06 0.02 0.00 0.00 0.00 0.00 0.00 0.00 0.00
0.73 0.79 1.14 1.44 1.80 1.75 2.12 2.75 2.55 1.31 0.60 0.66 0.73 0.58 0.47 0.49 0.44 0.51 0.87 0.81 1.25 0.57 0.62 0.61 0.73 0.59 0.26 0.35 0.44 0.42 0.60 0.95 0.83 0.59 0.36 0.10 0.05 0.05 0.00 0.00 0.00 0.00 0.00 0.00 0.00
0.86 1.00 1.23 1.02 1.75 2.13 2.48 2.75 1.47 0.44 0.46 0.69 0.53 0.49 0.48 0.39 0.32 0.39 0.67 0.62 0.54 0.19 0.45 0.50 0.65 0.71 0.33 0.61 0.70 0.54 0.55 0.64 0.52 0.25 0.06 0.04 0.12 0.01 0.00 0.00 0.00 0.00 0.00 0.00 0.00
1.23 1.37 1.74 1.31 1.81 2.52 2.50 2.15 0.72 0.42 0.58 0.69 0.73 0.70 0.49 0.25 0.26 0.40 0.57 0.28 0.22 0.13 0.48 0.29 0.59 0.56 0.23 0.48 0.42 0.49 0.48 0.33 0.36 0.23 0.24 0.04 0.01 0.00 0.00 0.00 0.00 0.00 0.00 0.00 0.00
1.08 1.73 1.85 1.21 1.87 2.93 2.79 1.36 0.69 0.71 0.65 0.54 0.47 0.41 0.19 0.14 0.24 0.32 0.42 0.17 0.08 0.04 0.21 0.24 0.67 0.69 0.59 0.89 0.64 0.36 0.19 0.33 0.82 0.56 0.30 0.07 0.00 0.00 0.00 0.00 0.00 0.00 0.00 0.00 0.00
1.04 1.63 1.55 1.50 2.59 3.63 2.52 1.25 0.71 0.50 0.55 0.53 0.19 0.14 0.03 0.07 0.14 0.16 0.22 0.11 0.03 0.03 0.16 0.40 0.73 0.77 1.05 1.03 0.62 0.55 0.65 0.46 0.44 0.28 0.28 0.19 0.01 0.00 0.00 0.00 0.00 0.00 0.00 0.00 0.00
1.07 1.45 1.39 2.06 3.30 2.63 1.57 1.08 0.69 0.40 0.51 0.49 0.21 0.09 0.06 0.06 0.12 0.13 0.08 0.03 0.01 0.01 0.12 0.36 0.74 0.86 0.69 0.27 0.22 0.34 0.30 0.30 0.77 0.42 0.39 0.35 0.09 0.00 0.01 0.01 0.00 0.01 0.02 0.01 0.00
1.22 1.49 2.13 1.54 1.59 1.10 0.92 0.82 0.67 0.53 0.51 0.53 0.21 0.10 0.03 0.04 0.13 0.07 0.04 0.00 0.00 0.01 0.09 0.43 0.90 0.84 0.62 0.53 0.58 0.79 0.41 0.35 0.58 0.93 0.65 0.40 0.13 0.00 0.00 0.00 0.00 0.01 0.03 0.02 0.01
1.46 1.91 2.67 2.36 0.74 0.52 0.72 0.80 0.71 0.50 0.44 0.52 0.27 0.16 0.10 0.05 0.04 0.03 0.03 0.00 0.00 0.00 0.03 0.41 0.88 0.93 0.75 0.43 0.57 0.82 0.45 0.57 1.09 1.01 0.34 0.28 0.03 0.01 0.01 0.02 0.01 0.00 0.02 0.04 0.01
1.31 1.17 0.80 0.76 0.54 0.29 0.55 0.77 0.75 0.79 0.51 0.65 0.47 0.13 0.08 0.07 0.03 0.02 0.01 0.01 0.00 0.00 0.06 0.43 0.90 0.88 0.49 0.28 0.42 0.57 0.56 0.49 0.89 0.49 0.41 0.13 0.07 0.03 0.03 0.02 0.02 0.01 0.01 0.03 0.02
0.84 0.99 0.33 0.05 0.09 0.18 0.44 0.55 0.58 0.59 0.55 0.38 0.26 0.09 0.08 0.05 0.01 0.00 0.00 0.01 0.01 0.02 0.11 0.33 0.71 0.75 0.61 0.24 0.38 0.48 0.55 0.36 0.56 0.25 0.22 0.15 0.12 0.01 0.01 0.01 0.00 0.00 0.02 0.04 0.04
0.68 0.76 0.48 0.21 0.10 0.21 0.18 0.38 0.62 0.58 0.31 0.11 0.14 0.18 0.12 0.02 0.01 0.01 0.00 0.00 0.01 0.06 0.16 0.27 0.50 0.72 0.64 0.48 0.28 0.46 0.58 0.68 0.48 0.19 0.22 0.27 0.14 0.01 0.01 0.04 0.05 0.03 0.04 0.03 0.02

GFSSW_prec_precacc_048.txt.gz
Total_Precipitation_Accumulation
0.04 0.05 0.06 0.07 0.07 0.06 0.03 0.01 0.01 0.02 0.06 0.09 0.13 0.17 0.25 0.26 0.21 0.08 0.04 0.00 0.00 0.00 0.00 0.00 0.00 0.00 0.00 0.00 0.00 0.00 0.00 0.00 0.00 0.00 0.00 0.00 0.00 0.00 0.00 0.00 0.00 0.00 0.00 0.00 0.00
0.03 0.04 0.07 0.09 0.08 0.08 0.07 0.04 0.02 0.01 0.01 0.02 0.05 0.08 0.12 0.12 0.22 0.17 0.01 0.00 0.02 0.02 0.00 0.00 0.00 0.01 0.01 0.00 0.00 0.00 0.00 0.00 0.00 0.00 0.00 0.00 0.00 0.00 0.00 0.00 0.00 0.00 0.00 0.00 0.00
0.06 0.07 0.09 0.12 0.12 0.08 0.09 0.08 0.06 0.04 0.03 0.02 0.02 0.05 0.11 0.07 0.06 0.02 0.00 0.04 0.11 0.22 0.02 0.01 0.01 0.03 0.04 0.01 0.00 0.00 0.00 0.00 0.00 0.00 0.00 0.00 0.00 0.00 0.00 0.00 0.00 0.00 0.00 0.00 0.00
0.09 0.10 0.13 0.15 0.14 0.16 0.16 0.14 0.10 0.05 0.03 0.05 0.06 0.11 0.16 0.14 0.02 0.00 0.00 0.05 0.15 0.28 0.11 0.02 0.01 0.02 0.03 0.02 0.00 0.00 0.00 0.00 0.00 0.00 0.00 0.00 0.00 0.00 0.00 0.00 0.00 0.00 0.00 0.00 0.00
0.10 0.10 0.10 0.10 0.11 0.09 0.09 0.11 0.12 0.11 0.08 0.10 0.15 0.19 0.21 0.14 0.02 0.00 0.00 0.00 0.05 0.17 0.15 0.07 0.03 0.02 0.03 0.01 0.01 0.00 0.00 0.00 0.00 0.00 0.00 0.00 0.00 0.00 0.00 0.00 0.00 0.00 0.00 0.00 0.00
0.07 0.08 0.08 0.08 0.07 0.07 0.08 0.09 0.12 0.15 0.16 0.09 0.19 0.36 0.18 0.04 0.00 0.00 0.01 0.00 0.00 0.05 0.16 0.13 0.04 0.01 0.02 0.01 0.01 0.00 0.00 0.00 0.00 0.00 0.00 0.00 0.00 0.00 0.00 0.00 0.00 0.00 0.00 0.00 0.00
0.12 0.10 0.09 0.08 0.08 0.08 0.11 0.11 0.13 0.20 0.29 0.23 0.28 0.33 0.15 0.01 0.00 0.00 0.03 0.01 0.00 0.03 0.11 0.05 0.05 0.07 0.03 0.04 0.00 0.00 0.01 0.00 0.00 0.00 0.00 0.00 0.00 0.00 0.00 0.00 0.00 0.00 0.00 0.00 0.00
0.18 0.16 0.12 0.14 0.15 0.13 0.16 0.18 0.24 0.31 0.33 0.33 0.53 0.51 0.10 0.01 0.01 0.00 0.03 0.07 0.01 0.05 0.25 0.25 0.17 0.11 0.09 0.05 0.03 0.04 0.06 0.02 0.00 0.00 0.00 0.00 0.00 0.00 0.00 0.00 0.00 0.00 0.00 0.00 0.00
0.20 0.20 0.25 0.33 0.23 0.21 0.23 0.28 0.45 0.66 0.65 0.68 0.53 0.35 0.04 0.04 0.06 0.00 0.03 0.09 0.01 0.04 0.20 0.38 0.29 0.18 0.09 0.12 0.11 0.07 0.03 0.01 0.00 0.00 0.00 0.00 0.00 0.00 0.00 0.00 0.00 0.00 0.00 0.00 0.00
0.28 0.31 0.42 0.56 0.47 0.36 0.42 0.73 0.92 1.37 1.04 0.95 0.51 0.32 0.02 0.03 0.04 0.04 0.07 0.15 0.06 0.14 0.42 0.59 0.45 0.28 0.17 0.15 0.08 0.02 0.01 0.01 0.00 0.00 0.00 0.00 0.00 0.00 0.00 0.00 0.00 0.00 0.00 0.00 0.00
0.36 0.33 0.36 0.52 0.63 0.67 1.04 1.54 1.42 1.42 1.01 0.42 0.19 0.08 0.03 0.07 0.13 0.17 0.13 0.20 0.12 0.26 0.41 0.63 0.57 0.35 0.16 0.06 0.01 0.01 0.02 0.02 0.00 0.00 0.00 0.00 0.00 0.00 0.00 0.00 0.00 0.00 0.00 0.00 0.00
0.32 0.43 0.55 0.59 0.85 1.24 1.82 1.48 0.83 0.64 0.70 0.39 0.04 0.06 0.18 0.31 0.33 0.50 0.22 0.23 0.14 0.22 0.33 0.79 0.46 0.14 0.10 0.05 0.05 0.03 0.04 0.02 0.01 0.00 0.01 0.00 0.00 0.00 0.00 0.00 0.00 0.00 0.00 0.00 0.00
0.38 0.50 0.75 1.02 1.15 1.55 1.41 1.16 0.76 0.90 1.48 0.71 0.09 0.13 0.25 0.65 0.41 0.81 0.31 0.28 0.11 0.20 0.37 0.61 0.35 0.15 0.12 0.19 0.12 0.11 0.04 0.03 0.01 0.01 0.01 0.01 0.00 0.00 0.00 0.00 0.00 0.00 0.00 0.00 0.00
0.52 0.70 0.92 1.22 1.64 1.44 1.56 1.19 1.10 1.65 2.01 0.76 0.36 0.29 0.45 1.04 0.58 0.58 0.40 0.39 0.34 0.22 0.32 0.48 0.44 0.24 0.22 0.29 0.11 0.16 0.04 0.02 0.04 0.06 0.03 0.03 0.03 0.00 0.00 0.00 0.00 0.00 0.00 0.00 0.00
0.58 0.74 1.10 1.63 2.04 1.68 1.63 1.82 1.95 2.35 1.73 0.62 0.59 0.52 0.70 0.85 0.57 0.53 0.47 0.51 0.49 0.30 0.55 0.66 0.49 0.24 0.32 0.22 0.16 0.08 0.06 0.02 0.07 0.18 0.11 0.05 0.08 0.01 0.00 0.00 0.00 0.00 0.00 0.00 0.00
0.57 0.79 1.24 2.13 2.22 1.64 1.77 2.07 2.88 2.62 1.46 0.71 0.72 0.85 0.66 0.62 0.47 0.65 0.66 0.53 0.62 0.57 0.61 0.34 0.41 0.33 0.21 0.13 0.22 0.12 0.18 0.24 0.22 0.34 0.54 0.07 0.06 0.02 0.00 0.00 0.00 0.00 0.00 0.00 0.00
0.73 0.83 1.22 1.52 1.84 1.76 2.19 2.81 2.80 1.56 0.78 0.71 0.75 0.59 0.47 0.49 0.44 0.51 0.87 0.81 1.25 0.57 0.62 0.61 0.73 0.59 0.26 0.35 0.44 0.42 0.61 0.95 0.83 0.59 0.36 0.10 0.05 0.05 0.00 0.00 0.00 0.00 0.00 0.00 0.00
0.88 1.05 1.26 1.06 1.76 2.16 2.54 2.82 1.59 0.54 0.58 0.71 0.54 0.50 0.48 0.39 0.33 0.40 0.67 0.62 0.54 0.19 0.45 0.50 0.65 0.71 0.33 0.61 0.70 0.54 0.55 0.64 0.52 0.25 0.06 0.04 0.12 0.01 0.00 0.00 0.00 0.00 0.00 0.00 0.00
1.25 1.39 1.77 1.33 1.85 2.56 2.52 2.18 0.79 0.58 0.61 0.71 0.75 0.72 0.51 0.26 0.27 0.40 0.57 0.28 0.22 0.13 0.48 0.29 0.59 0.56 0.23 0.48 0.42 0.49 0.48 0.34 0.37 0.24 0.24 0.04 0.01 0.00 0.00 0.00 0.00 0.00 0.00 0.00 0.00
1.12 1.78 1.95 1.24 1.92 2.97 2.81 1.37 0.80 0.87 0.67 0.54 0.49 0.42 0.21 0.14 0.24 0.32 0.43 0.17 0.08 0.04 0.21 0.24 0.67 0.69 0.59 0.89 0.64 0.36 0.19 0.33 0.83 0.56 0.30 0.07 0.00 0.00 0.00 0.00 0.00 0.00 0.00 0.00 0.00
1.10 1.70 1.67 1.53 2.65 3.66 2.53 1.30 0.88 0.57 0.56 0.53 0.19 0.14 0.04 0.08 0.14 0.17 0.22 0.11 0.03 0.03 0.16 0.40 0.73 0.77 1.05 1.03 0.62 0.55 0.65 0.46 0.45 0.29 0.28 0.19 0.01 0.00 0.00 0.00 0.00 0.00 0.00 0.00 0.00
1.20 1.61 1.50 2.12 3.31 2.64 1.59 1.13 0.88 0.49 0.52 0.49 0.21 0.09 0.06 0.06 0.12 0.13 0.08 0.03 0.01 0.01 0.12 0.36 0.75 0.86 0.69 0.27 0.22 0.34 0.30 0.30 0.77 0.42 0.40 0.36 0.10 0.00 0.01 0.01 0.00 0.01 0.02 0.01 0.00
1.29 1.51 2.18 1.60 1.63 1.12 0.94 0.90 0.80 0.56 0.51 0.53 0.21 0.10 0.03 0.04 0.13 0.07 0.04 0.00 0.00 0.01 0.09 0.43 0.90 0.84 0.62 0.53 0.58 0.79 0.41 0.35 0.59 0.97 0.67 0.42 0.14 0.00 0.00 0.00 0.00 0.01 0.03 0.02 0.01
1.48 1.93 2.71 2.47 0.81 0.53 0.77 0.93 0.77 0.52 0.45 0.52 0.27 0.16 0.10 0.05 0.04 0.03 0.03 0.00 0.00 0.00 0.03 0.41 0.88 0.93 0.75 0.43 0.57 0.82 0.45 0.57 1.13 1.08 0.35 0.29 0.04 0.01 0.01 0.02 0.01 0.00 0.02 0.04 0.01
1.32 1.19 0.83 0.77 0.62 0.31 0.60 0.83 0.78 0.80 0.51 0.65 0.47 0.13 0.08 0.07 0.03 0.02 0.01 0.01 0.00 0.00 0.06 0.43 0.90 0.88 0.49 0.28 0.42 0.57 0.56 0.49 0.94 0.52 0.50 0.16 0.07 0.03 0.03 0.02 0.02 0.01 0.01 0.03 0.02
0.85 1.06 0.40 0.08 0.16 0.20 0.46 0.65 0.60 0.59 0.56 0.38 0.26 0.09 0.08 0.05 0.01 0.00 0.00 0.01 0.01 0.02 0.11 0.33 0.71 0.75 0.61 0.24 0.38 0.48 0.55 0.36 0.56 0.27 0.26 0.16 0.13 0.01 0.01 0.01 0.00 0.01 0.04 0.06 0.05
0.69 0.78 0.49 0.22 0.11 0.22 0.19 0.41 0.62 0.58 0.31 0.11 0.14 0.18 0.12 0.02 0.01 0.01 0.00 0.00 0.01 0.06 0.16 0.28 0.51 0.73 0.64 0.48 0.28 0.47 0.58 0.68 0.48 0.20 0.24 0.27 0.14 0.01 0.01 0.04 0.06 0.04 0.06 0.04 0.02

GFSSW_prec_precacc_051.txt.gz
Total_Precipitation_Accumulation
0.04 0.05 0.06 0.07 0.07 0.06 0.04 0.04 0.05 0.04 0.06 0.09 0.13 0.17 0.25 0.26 0.21 0.09 0.05 0.00 0.00 0.00 0.00 0.00 0.00 0.00 0.00 0.00 0.00 0.00 0.00 0.00 0.00 0.00 0.00 0.00 0.00 0.00 0.00 0.00 0.00 0.00 0.00 0.00 0.00
0.03 0.04 0.07 0.09 0.08 0.08 0.08 0.06 0.06 0.06 0.02 0.02 0.05 0.08 0.12 0.12 0.22 0.17 0.01 0.00 0.02 0.03 0.00 0.00 0.00 0.01 0.01 0.00 0.00 0.00 0.00 0.00 0.00 0.00 0.00 0.00 0.00 0.00 0.00 0.00 0.00 0.00 0.00 0.00 0.00
0.06 0.07 0.09 0.12 0.12 0.08 0.09 0.08 0.08 0.08 0.08 0.02 0.02 0.05 0.11 0.07 0.06 0.02 0.00 0.04 0.11 0.23 0.02 0.01 0.01 0.03 0.04 0.01 0.00 0.00 0.00 0.00 0.00 0.00 0.00 0.00 0.00 0.00 0.00 0.00 0.00 0.00 0.00 0.00 0.00
0.09 0.10 0.13 0.15 0.14 0.16 0.16 0.14 0.10 0.09 0.11 0.08 0.06 0.11 0.16 0.14 0.02 0.00 0.00 0.05 0.19 0.35 0.12 0.02 0.01 0.03 0.03 0.02 0.00 0.00 0.00 0.00 0.00 0.00 0.00 0.00 0.00 0.00 0.00 0.00 0.00 0.00 0.00 0.00 0.00
0.11 0.10 0.10 0.10 0.11 0.09 0.09 0.12 0.13 0.12 0.17 0.22 0.16 0.19 0.21 0.14 0.02 0.00 0.00 0.01 0.12 0.27 0.17 0.10 0.03 0.02 0.03 0.01 0.01 0.00 0.00 0.00 0.00 0.00 0.00 0.00 0.00 0.00 0.00 0.00 0.00 0.00 0.00 0.00 0.00
0.08 0.09 0.08 0.08 0.07 0.07 0.09 0.10 0.13 0.15 0.22 0.22 0.23 0.36 0.18 0.04 0.00 0.00 0.01 0.00 0.01 0.13 0.22 0.22 0.06 0.01 0.02 0.01 0.01 0.00 0.00 0.00 0.00 0.00 0.00 0.00 0.00 0.00 0.00 0.00 0.00 0.00 0.00 0.00 0.00
0.13 0.11 0.09 0.08 0.08 0.08 0.11 0.12 0.14 0.20 0.32 0.39 0.45 0.34 0.15 0.01 0.00 0.00 0.03 0.01 0.00 0.04 0.15 0.14 0.08 0.08 0.03 0.04 0.00 0.00 0.01 0.00 0.00 0.00 0.00 0.00 0.00 0.00 0.00 0.00 0.00 0.00 0.00 0.00 0.00
0.20 0.17 0.13 0.14 0.15 0.13 0.16 0.18 0.25 0.31 0.34 0.46 0.76 0.54 0.11 0.01 0.01 0.00 0.03 0.07 0.01 0.05 0.25 0.32 0.21 0.12 0.09 0.05 0.03 0.04 0.06 0.02 0.00 0.00 0.00 0.00 0.00 0.00 0.00 0.00 0.00 0.00 0.00 0.00 0.00
0.21 0.21 0.26 0.34 0.24 0.22 0.23 0.29 0.45 0.66 0.65 0.80 0.94 0.42 0.04 0.04 0.06 0.00 0.03 0.09 0.01 0.04 0.20 0.41 0.32 0.19 0.09 0.12 0.11 0.07 0.03 0.01 0.00 0.00 0.00 0.00 0.00 0.00 0.00 0.00 0.00 0.00 0.00 0.00 0.00
0.29 0.33 0.44 0.58 0.48 0.37 0.44 0.75 0.92 1.37 1.05 1.20 0.96 0.46 0.03 0.03 0.04 0.04 0.07 0.15 0.06 0.15 0.44 0.60 0.46 0.28 0.17 0.15 0.08 0.02 0.01 0.01 0.00 0.00 0.00 0.00 0.00 0.00 0.00 0.00 0.00 0.00 0.00 0.00 0.00
0.38 0.35 0.39 0.54 0.64 0.71 1.09 1.55 1.43 1.45 1.04 0.71 0.54 0.13 0.03 0.07 0.13 0.17 0.13 0.20 0.13 0.28 0.43 0.65 0.58 0.35 0.16 0.06 0.01 0.01 0.02 0.02 0.00 0.00 0.00 0.00 0.00 0.00 0.00 0.00 0.00 0.00 0.00 0.00 0.00
0.35 0.45 0.57 0.61 0.87 1.26 1.88 1.50 0.86 0.67 0.72 0.57 0.24 0.07 0.18 0.31 0.33 0.50 0.22 0.23 0.15 0.22 0.33 0.80 0.46 0.14 0.10 0.05 0.05 0.03 0.04 0.02 0.01 0.00 0.01 0.00 0.00 0.00 0.00 0.00 0.00 0.00 0.00 0.00 0.00
0.40 0.50 0.77 1.04 1.15 1.57 1.47 1.25 0.81 0.93 1.55 0.83 0.40 0.27 0.25 0.65 0.41 0.81 0.31 0.28 0.11 0.20 0.37 0.61 0.35 0.15 0.12 0.19 0.12 0.11 0.04 0.03 0.01 0.01 0.01 0.01 0.00 0.00 0.00 0.00 0.00 0.00 0.00 0.00 0.00
0.53 0.71 0.94 1.25 1.66 1.46 1.60 1.45 1.14 1.72 2.12 0.84 0.71 0.52 0.46 1.04 0.58 0.58 0.40 0.39 0.34 0.22 0.32 0.48 0.44 0.24 0.22 0.29 0.11 0.16 0.04 0.02 0.04 0.06 0.03 0.03 0.03 0.00 0.00 0.00 0.00 0.00 0.00 0.00 0.00
0.59 0.75 1.12 1.68 2.05 1.68 1.68 1.89 1.96 2.39 1.83 0.67 0.81 0.63 0.70 0.85 0.57 0.53 0.47 0.51 0.49 0.30 0.55 0.66 0.49 0.24 0.32 0.22 0.16 0.08 0.06 0.02 0.07 0.18 0.11 0.05 0.08 0.01 0.00 0.00 0.00 0.00 0.00 0.00 0.00
0.58 0.79 1.25 2.16 2.29 1.69 1.79 2.16 2.91 2.65 1.61 0.93 0.95 0.93 0.67 0.63 0.47 0.65 0.66 0.53 0.62 0.57 0.61 0.34 0.41 0.33 0.21 0.13 0.22 0.12 0.18 0.24 0.22 0.34 0.54 0.07 0.06 0.02 0.00 0.00 0.00 0.00 0.00 0.00 0.00
0.73 0.83 1.24 1.58 1.92 1.78 2.21 2.83 2.82 1.59 0.99 0.87 0.89 0.61 0.48 0.50 0.45 0.51 0.87 0.81 1.25 0.58 0.62 0.61 0.73 0.59 0.26 0.35 0.44 0.42 0.61 0.95 0.83 0.60 0.36 0.10 0.05 0.05 0.00 0.00 0.00 0.00 0.00 0.00 0.00
0.88 1.05 1.26 1.09 1.82 2.17 2.56 2.83 1.61 0.58 0.78 0.80 0.56 0.52 0.49 0.40 0.34 0.40 0.67 0.62 0.54 0.19 0.45 0.50 0.65 0.71 0.33 0.61 0.70 0.54 0.55 0.64 0.52 0.25 0.06 0.04 0.12 0.01 0.00 0.00 0.00 0.00 0.00 0.00 0.00
1.25 1.39 1.78 1.35 1.87 2.56 2.53 2.18 0.80 0.80 0.75 0.85 0.84 0.80 0.55 0.27 0.28 0.41 0.58 0.28 0.22 0.13 0.48 0.29 0.59 0.56 0.23 0.48 0.42 0.49 0.48 0.34 0.37 0.24 0.24 0.04 0.01 0.00 0.00 0.00 0.00 0.00 0.00 0.00 0.00
1.14 1.82 1.98 1.27 1.93 2.98 2.83 1.38 0.81 1.02 0.86 0.60 0.59 0.47 0.22 0.15 0.25 0.33 0.43 0.17 0.08 0.04 0.21 0.24 0.67 0.69 0.59 0.89 0.64 0.36 0.19 0.33 0.83 0.56 0.30 0.07 0.00 0.00 0.00 0.00 0.00 0.00 0.00 0.00 0.00
1.12 1.73 1.73 1.56 2.67 3.68 2.54 1.32 0.92 0.71 0.70 0.58 0.19 0.14 0.04 0.08 0.15 0.17 0.22 0.11 0.03 0.03 0.16 0.40 0.73 0.77 1.05 1.03 0.62 0.55 0.65 0.46 0.45 0.29 0.28 0.19 0.01 0.00 0.00 0.00 0.00 0.00 0.00 0.00 0.00
1.21 1.70 1.55 2.17 3.32 2.65 1.62 1.16 1.17 0.69 0.56 0.49 0.21 0.09 0.06 0.06 0.12 0.13 0.08 0.03 0.01 0.01 0.12 0.36 0.75 0.86 0.69 0.27 0.22 0.34 0.30 0.30 0.77 0.42 0.40 0.36 0.10 0.00 0.01 0.01 0.00 0.01 0.02 0.01 0.00
1.30 1.52 2.20 1.62 1.63 1.13 0.98 1.00 1.01 0.62 0.52 0.54 0.21 0.10 0.03 0.04 0.13 0.07 0.04 0.00 0.00 0.01 0.09 0.43 0.90 0.84 0.63 0.53 0.58 0.79 0.41 0.35 0.59 0.97 0.67 0.42 0.14 0.00 0.00 0.00 0.00 0.01 0.03 0.02 0.01
1.48 1.95 2.72 2.49 0.82 0.56 0.84 1.10 0.89 0.57 0.46 0.53 0.27 0.16 0.10 0.05 0.04 0.04 0.03 0.00 0.00 0.00 0.03 0.41 0.88 0.93 0.75 0.43 0.57 0.82 0.45 0.57 1.13 1.09 0.36 0.29 0.04 0.01 0.01 0.02 0.01 0.00 0.02 0.04 0.01
1.32 1.19 0.84 0.78 0.64 0.32 0.67 0.91 0.81 0.80 0.51 0.65 0.47 0.13 0.08 0.07 0.03 0.02 0.01 0.01 0.00 0.00 0.06 0.43 0.90 0.88 0.49 0.28 0.42 0.57 0.56 0.49 0.94 0.52 0.52 0.16 0.07 0.03 0.03 0.02 0.02 0.01 0.01 0.04 0.05
0.85 1.09 0.41 0.15 0.19 0.22 0.57 0.78 0.63 0.59 0.56 0.38 0.27 0.09 0.08 0.05 0.01 0.00 0.00 0.01 0.01 0.02 0.11 0.33 0.71 0.75 0.61 0.24 0.38 0.48 0.55 0.36 0.56 0.27 0.26 0.17 0.13 0.01 0.01 0.01 0.00 0.01 0.04 0.07 0.07
0.69 0.78 0.49 0.26 0.13 0.29 0.31 0.48 0.63 0.58 0.31 0.11 0.14 0.18 0.12 0.02 0.01 0.01 0.00 0.00 0.01 0.06 0.16 0.28 0.51 0.73 0.64 0.48 0.28 0.47 0.58 0.68 0.48 0.20 0.25 0.28 0.15 0.01 0.01 0.04 0.06 0.04 0.06 0.04 0.03

GFSSW_prec_precacc_054.txt.gz
Total_Precipitation_Accumulation
0.04 0.05 0.06 0.07 0.07 0.06 0.04 0.04 0.05 0.06 0.10 0.13 0.13 0.17 0.25 0.26 0.21 0.09 0.05 0.00 0.00 0.00 0.00 0.00 0.00 0.00 0.00 0.00 0.00 0.00 0.00 0.00 0.00 0.00 0.00 0.00 0.00 0.00 0.00 0.00 0.00 0.00 0.00 0.00 0.00
0.03 0.04 0.07 0.09 0.08 0.08 0.08 0.06 0.06 0.06 0.07 0.10 0.08 0.08 0.12 0.12 0.23 0.17 0.01 0.00 0.02 0.03 0.02 0.00 0.00 0.01 0.01 0.00 0.00 0.00 0.00 0.00 0.00 0.00 0.00 0.00 0.00 0.00 0.00 0.00 0.00 0.00 0.00 0.00 0.00
0.06 0.07 0.09 0.12 0.12 0.08 0.09 0.08 0.08 0.08 0.11 0.12 0.11 0.07 0.11 0.07 0.07 0.02 0.00 0.04 0.11 0.24 0.03 0.01 0.01 0.03 0.04 0.01 0.00 0.00 0.00 0.00 0.00 0.00 0.00 0.00 0.00 0.00 0.00 0.00 0.00 0.00 0.00 0.00 0.00
0.10 0.11 0.14 0.16 0.14 0.16 0.16 0.14 0.10 0.09 0.11 0.14 0.15 0.15 0.16 0.14 0.03 0.00 0.00 0.05 0.19 0.40 0.15 0.03 0.01 0.03 0.03 0.02 0.00 0.00 0.00 0.00 0.00 0.00 0.00 0.00 0.00 0.00 0.00 0.00 0.00 0.00 0.00 0.00 0.00
0.12 0.12 0.11 0.11 0.11 0.09 0.09 0.12 0.13 0.12 0.17 0.24 0.28 0.33 0.22 0.14 0.02 0.00 0.01 0.03 0.14 0.33 0.20 0.10 0.04 0.03 0.03 0.01 0.01 0.00 0.00 0.00 0.00 0.00 0.00 0.00 0.00 0.00 0.00 0.00 0.00 0.00 0.00 0.00 0.00
0.09 0.10 0.09 0.09 0.08 0.08 0.09 0.10 0.13 0.15 0.22 0.23 0.40 0.58 0.21 0.04 0.00 0.00 0.01 0.05 0.04 0.16 0.23 0.24 0.07 0.01 0.02 0.01 0.01 0.00 0.00 0.00 0.00 0.00 0.00 0.00 0.00 0.00 0.00 0.00 0.00 0.00 0.00 0.00 0.00
0.14 0.12 0.10 0.09 0.09 0.09 0.11 0.12 0.14 0.20 0.32 0.39 0.54 0.66 0.21 0.01 0.00 0.00 0.03 0.02 0.02 0.07 0.19 0.15 0.12 0.08 0.03 0.04 0.00 0.00 0.01 0.00 0.00 0.00 0.00 0.00 0.00 0.00 0.00 0.00 0.00 0.00 0.00 0.00 0.00
0.21 0.19 0.14 0.16 0.16 0.14 0.16 0.18 0.25 0.31 0.34 0.47 0.81 0.84 0.18 0.01 0.01 0.00 0.03 0.07 0.01 0.06 0.30 0.41 0.29 0.14 0.09 0.05 0.03 0.04 0.06 0.02 0.00 0.00 0.00 0.00 0.00 0.00 0.00 0.00 0.00 0.00 0.00 0.00 0.00
0.23 0.22 0.27 0.36 0.25 0.24 0.24 0.29 0.46 0.67 0.65 0.80 0.98 0.69 0.11 0.04 0.06 0.00 0.03 0.09 0.01 0.04 0.21 0.47 0.40 0.31 0.15 0.12 0.11 0.07 0.03 0.01 0.00 0.00 0.00 0.00 0.00 0.00 0.00 0.00 0.00 0.00 0.00 0.00 0.00
0.31 0.34 0.47 0.60 0.49 0.38 0.47 0.76 0.92 1.38 1.06 1.21 1.04 0.75 0.10 0.03 0.04 0.04 0.07 0.15 0.06 0.16 0.48 0.66 0.51 0.32 0.27 0.17 0.09 0.02 0.01 0.01 0.00 0.00 0.00 0.00 0.00 0.00 0.00 0.00 0.00 0.00 0.00 0.00 0.00
0.40 0.37 0.42 0.54 0.64 0.73 1.13 1.56 1.43 1.48 1.07 0.72 0.64 0.21 0.04 0.07 0.13 0.17 0.13 0.20 0.15 0.31 0.44 0.66 0.58 0.36 0.16 0.06 0.01 0.01 0.02 0.02 0.00 0.00 0.00 0.00 0.00 0.00 0.00 0.00 0.00 0.00 0.00 0.00 0.00
0.38 0.46 0.58 0.62 0.88 1.28 1.92 1.51 0.87 0.70 0.76 0.57 0.37 0.14 0.20 0.31 0.33 0.50 0.22 0.23 0.16 0.23 0.34 0.81 0.46 0.14 0.10 0.05 0.05 0.03 0.04 0.02 0.01 0.00 0.01 0.00 0.00 0.00 0.00 0.00 0.00 0.00 0.00 0.00 0.00
0.42 0.51 0.77 1.06 1.15 1.58 1.47 1.31 0.92 0.96 1.56 0.83 0.49 0.47 0.31 0.65 0.41 0.81 0.31 0.28 0.12 0.21 0.38 0.62 0.35 0.15 0.12 0.19 0.12 0.11 0.04 0.03 0.01 0.01 0.01 0.01 0.00 0.00 0.00 0.00 0.00 0.00 0.00 0.00 0.00
0.55 0.72 0.94 1.26 1.66 1.46 1.62 1.52 1.20 1.73 2.17 0.85 0.79 0.84 0.59 1.04 0.58 0.58 0.40 0.39 0.34 0.22 0.32 0.48 0.44 0.24 0.22 0.29 0.11 0.16 0.04 0.02 0.04 0.06 0.03 0.03 0.03 0.00 0.00 0.00 0.00 0.00 0.00 0.00 0.00
0.60 0.76 1.12 1.72 2.08 1.70 1.71 1.92 1.97 2.40 1.87 0.70 0.91 0.90 0.77 0.86 0.57 0.53 0.47 0.51 0.49 0.30 0.55 0.67 0.49 0.24 0.32 0.22 0.16 0.08 0.06 0.02 0.07 0.18 0.11 0.05 0.08 0.01 0.00 0.00 0.00 0.00 0.00 0.00 0.00
0.58 0.80 1.27 2.19 2.34 1.76 1.82 2.18 2.92 2.66 1.67 1.18 1.11 1.26 0.72 0.64 0.47 0.65 0.66 0.53 0.62 0.57 0.61 0.34 0.41 0.33 0.21 0.13 0.22 0.12 0.18 0.24 0.22 0.34 0.54 0.07 0.06 0.02 0.00 0.00 0.00 0.00 0.00 0.00 0.00
0.74 0.84 1.26 1.62 1.94 1.78 2.21 2.84 2.82 1.60 1.12 1.11 1.13 0.74 0.49 0.51 0.45 0.51 0.87 0.81 1.25 0.58 0.63 0.61 0.73 0.59 0.26 0.35 0.44 0.42 0.61 0.95 0.83 0.60 0.36 0.10 0.05 0.05 0.00 0.00 0.00 0.00 0.00 0.00 0.00
0.89 1.07 1.26 1.09 1.87 2.18 2.57 2.85 1.61 0.61 0.90 1.05 0.71 0.54 0.51 0.40 0.34 0.41 0.67 0.62 0.54 0.19 0.45 0.50 0.65 0.71 0.33 0.61 0.70 0.54 0.55 0.64 0.52 0.25 0.06 0.04 0.12 0.01 0.00 0.00 0.00 0.00 0.00 0.00 0.00
1.26 1.39 1.78 1.38 1.90 2.57 2.54 2.19 0.84 0.91 0.98 1.16 0.93 0.87 0.60 0.27 0.28 0.41 0.58 0.28 0.22 0.13 0.48 0.29 0.59 0.56 0.23 0.48 0.42 0.49 0.48 0.34 0.37 0.24 0.24 0.04 0.01 0.00 0.00 0.00 0.00 0.00 0.00 0.00 0.00
1.14 1.82 1.99 1.30 1.93 2.99 2.84 1.43 0.85 1.06 1.12 0.77 0.68 0.51 0.24 0.16 0.26 0.33 0.44 0.17 0.08 0.04 0.21 0.24 0.67 0.69 0.59 0.89 0.64 0.36 0.19 0.33 0.83 0.56 0.30 0.07 0.00 0.00 0.00 0.00 0.00 0.00 0.00 0.00 0.00
1.12 1.73 1.75 1.57 2.67 3.68 2.55 1.36 0.97 0.79 0.90 0.67 0.20 0.14 0.04 0.08 0.15 0.17 0.22 0.11 0.03 0.03 0.16 0.40 0.73 0.77 1.05 1.03 0.62 0.55 0.65 0.46 0.45 0.29 0.28 0.19 0.01 0.00 0.00 0.00 0.00 0.00 0.00 0.00 0.00
1.21 1.70 1.56 2.17 3.32 2.66 1.66 1.26 1.36 0.89 0.62 0.50 0.21 0.09 0.06 0.06 0.12 0.13 0.08 0.03 0.01 0.01 0.12 0.36 0.75 0.86 0.69 0.27 0.22 0.34 0.30 0.30 0.77 0.42 0.40 0.36 0.10 0.00 0.01 0.01 0.00 0.01 0.02 0.01 0.00
1.30 1.53 2.20 1.62 1.64 1.15 1.04 1.11 1.19 0.69 0.53 0.54 0.21 0.10 0.03 0.04 0.13 0.07 0.04 0.00 0.00 0.01 0.09 0.43 0.90 0.84 0.63 0.54 0.58 0.79 0.41 0.35 0.59 0.97 0.67 0.42 0.14 0.00 0.00 0.00 0.00 0.01 0.03 0.02 0.01
1.48 1.95 2.72 2.49 0.82 0.63 1.01 1.32 1.05 0.58 0.46 0.53 0.27 0.16 0.10 0.05 0.04 0.04 0.03 0.00 0.00 0.00 0.03 0.41 0.88 0.93 0.75 0.43 0.57 0.82 0.45 0.57 1.13 1.09 0.36 0.29 0.04 0.01 0.01 0.02 0.01 0.00 0.02 0.04 0.01
1.32 1.19 0.84 0.78 0.64 0.34 0.76 0.98 0.82 0.81 0.51 0.65 0.47 0.13 0.08 0.08 0.03 0.02 0.01 0.01 0.00 0.00 0.06 0.43 0.90 0.88 0.49 0.28 0.42 0.57 0.56 0.49 0.94 0.52 0.52 0.16 0.07 0.03 0.03 0.02 0.02 0.01 0.01 0.04 0.05
0.85 1.09 0.41 0.15 0.19 0.24 0.62 0.80 0.64 0.60 0.56 0.39 0.27 0.09 0.08 0.05 0.01 0.00 0.00 0.01 0.01 0.02 0.11 0.33 0.71 0.75 0.61 0.24 0.38 0.48 0.55 0.36 0.56 0.27 0.26 0.17 0.13 0.01 0.01 0.01 0.00 0.01 0.04 0.07 0.07
0.69 0.78 0.49 0.26 0.16 0.38 0.36 0.49 0.63 0.58 0.32 0.11 0.14 0.18 0.12 0.02 0.01 0.01 0.00 0.00 0.01 0.06 0.16 0.28 0.51 0.73 0.64 0.48 0.28 0.47 0.58 0.68 0.48 0.20 0.25 0.28 0.15 0.01 0.01 0.04 0.06 0.05 0.06 0.04 0.03

GFSSW_prec_precacc_057.txt.gz
Total_Precipitation_Accumulation
0.04 0.05 0.06 0.07 0.07 0.06 0.04 0.04 0.05 0.06 0.10 0.15 0.20 0.23 0.26 0.26 0.21 0.09 0.05 0.00 0.00 0.00 0.00 0.00 0.00 0.00 0.00 0.00 0.00 0.00 0.00 0.00 0.00 0.00 0.00 0.00 0.00 0.00 0.00 0.00 0.00 0.00 0.00 0.00 0.00
0.03 0.04 0.07 0.09 0.08 0.08 0.08 0.06 0.06 0.06 0.07 0.10 0.12 0.15 0.18 0.13 0.23 0.17 0.01 0.00 0.02 0.03 0.02 0.00 0.00 0.01 0.01 0.00 0.00 0.00 0.00 0.00 0.00 0.00 0.00 0.00 0.00 0.00 0.00 0.00 0.00 0.00 0.00 0.00 0.00
0.07 0.08 0.10 0.13 0.12 0.09 0.09 0.08 0.08 0.08 0.11 0.12 0.12 0.16 0.22 0.09 0.07 0.02 0.00 0.04 0.11 0.24 0.05 0.01 0.01 0.03 0.04 0.01 0.00 0.00 0.00 0.00 0.00 0.00 0.00 0.00 0.00 0.00 0.00 0.00 0.00 0.00 0.00 0.00 0.00
0.11 0.12 0.16 0.16 0.15 0.16 0.17 0.14 0.10 0.09 0.11 0.14 0.15 0.20 0.31 0.18 0.03 0.00 0.00 0.05 0.19 0.41 0.18 0.04 0.01 0.03 0.03 0.02 0.00 0.00 0.00 0.00 0.00 0.00 0.00 0.00 0.00 0.00 0.00 0.00 0.00 0.00 0.00 0.00 0.00
0.13 0.13 0.12 0.11 0.12 0.10 0.10 0.12 0.13 0.13 0.17 0.24 0.28 0.39 0.46 0.18 0.02 0.00 0.02 0.04 0.14 0.37 0.23 0.11 0.04 0.03 0.03 0.01 0.01 0.00 0.00 0.00 0.00 0.00 0.00 0.00 0.00 0.00 0.00 0.00 0.00 0.00 0.00 0.00 0.00
0.11 0.11 0.10 0.10 0.09 0.09 0.10 0.11 0.13 0.16 0.22 0.23 0.40 0.62 0.40 0.08 0.00 0.00 0.01 0.08 0.05 0.19 0.27 0.24 0.07 0.01 0.02 0.01 0.01 0.00 0.00 0.00 0.00 0.00 0.00 0.00 0.00 0.00 0.00 0.00 0.00 0.00 0.00 0.00 0.00
0.16 0.13 0.12 0.11 0.10 0.10 0.12 0.12 0.15 0.20 0.32 0.39 0.54 0.68 0.35 0.04 0.00 0.00 0.03 0.06 0.09 0.15 0.23 0.16 0.13 0.09 0.03 0.04 0.00 0.00 0.01 0.00 0.00 0.00 0.00 0.00 0.00 0.00 0.00 0.00 0.00 0.00 0.00 0.00 0.00
0.22 0.21 0.16 0.18 0.17 0.16 0.18 0.20 0.26 0.31 0.34 0.47 0.82 0.90 0.25 0.01 0.01 0.00 0.03 0.08 0.06 0.16 0.41 0.54 0.37 0.16 0.09 0.05 0.03 0.04 0.06 0.02 0.00 0.00 0.00 0.00 0.00 0.00 0.00 0.00 0.00 0.00 0.00 0.00 0.00
0.24 0.25 0.30 0.38 0.27 0.26 0.27 0.32 0.47 0.67 0.68 0.82 1.00 0.73 0.17 0.05 0.06 0.00 0.03 0.09 0.02 0.10 0.31 0.62 0.53 0.42 0.16 0.12 0.11 0.07 0.03 0.01 0.00 0.00 0.00 0.00 0.00 0.00 0.00 0.00 0.00 0.00 0.00 0.00 0.00
0.34 0.36 0.49 0.61 0.50 0.41 0.50 0.77 0.92 1.38 1.07 1.23 1.07 0.79 0.14 0.03 0.04 0.04 0.07 0.15 0.06 0.18 0.54 0.86 0.72 0.58 0.36 0.19 0.09 0.02 0.01 0.01 0.00 0.00 0.00 0.00 0.00 0.00 0.00 0.00 0.00 0.00 0.00 0.00 0.00
0.43 0.38 0.43 0.55 0.66 0.77 1.16 1.56 1.43 1.49 1.09 0.72 0.65 0.22 0.08 0.07 0.14 0.18 0.13 0.20 0.18 0.39 0.46 0.75 0.92 0.46 0.28 0.13 0.02 0.01 0.02 0.02 0.00 0.00 0.00 0.00 0.00 0.00 0.00 0.00 0.00 0.00 0.00 0.00 0.00
0.40 0.46 0.59 0.63 0.89 1.33 1.94 1.51 0.88 0.72 0.78 0.57 0.37 0.15 0.28 0.31 0.34 0.51 0.22 0.23 0.18 0.27 0.35 0.82 0.54 0.20 0.13 0.10 0.09 0.03 0.04 0.02 0.01 0.00 0.01 0.00 0.00 0.00 0.00 0.00 0.00 0.00 0.00 0.00 0.00
0.44 0.52 0.78 1.07 1.16 1.58 1.47 1.31 0.94 0.98 1.62 0.83 0.49 0.49 0.42 0.68 0.42 0.82 0.31 0.29 0.16 0.24 0.38 0.62 0.35 0.15 0.13 0.19 0.12 0.11 0.04 0.03 0.01 0.01 0.01 0.01 0.00 0.00 0.00 0.00 0.00 0.00 0.00 0.00 0.00
0.56 0.73 0.95 1.27 1.67 1.46 1.62 1.52 1.22 1.78 2.30 0.86 0.80 0.89 0.79 1.14 0.62 0.58 0.40 0.40 0.39 0.25 0.34 0.49 0.44 0.24 0.22 0.29 0.11 0.16 0.04 0.02 0.04 0.06 0.03 0.03 0.03 0.00 0.00 0.00 0.00 0.00 0.00 0.00 0.00
0.61 0.76 1.12 1.76 2.18 1.74 1.74 1.96 1.99 2.45 1.93 0.72 0.91 1.01 1.00 0.92 0.59 0.54 0.47 0.52 0.50 0.30 0.55 0.67 0.49 0.24 0.32 0.22 0.16 0.08 0.06 0.02 0.07 0.18 0.11 0.05 0.08 0.01 0.00 0.00 0.00 0.00 0.00 0.00 0.00
0.58 0.80 1.30 2.27 2.43 1.81 1.84 2.19 2.95 2.68 1.74 1.28 1.13 1.55 0.99 0.66 0.47 0.66 0.67 0.53 0.63 0.59 0.62 0.34 0.41 0.33 0.21 0.13 0.22 0.12 0.18 0.24 0.22 0.34 0.54 0.07 0.06 0.02 0.00 0.00 0.00 0.00 0.00 0.00 0.00
0.75 0.88 1.31 1.64 1.96 1.79 2.21 2.84 2.83 1.61 1.19 1.32 1.20 1.09 0.58 0.52 0.45 0.53 0.90 0.81 1.26 0.62 0.66 0.62 0.73 0.59 0.26 0.35 0.44 0.42 0.61 0.95 0.83 0.60 0.36 0.10 0.05 0.05 0.00 0.00 0.00 0.00 0.00 0.00 0.00
0.93 1.11 1.27 1.10 1.89 2.18 2.57 2.85 1.64 0.67 1.09 1.25 0.90 0.72 0.54 0.41 0.36 0.42 0.68 0.62 0.54 0.19 0.45 0.51 0.65 0.71 0.33 0.61 0.70 0.54 0.55 0.64 0.52 0.25 0.06 0.04 0.12 0.01 0.00 0.00 0.00 0.00 0.00 0.00 0.00
1.28 1.40 1.79 1.40 1.90 2.57 2.54 2.22 0.90 1.04 1.23 1.55 1.13 0.92 0.64 0.28 0.29 0.42 0.58 0.28 0.22 0.13 0.48 0.29 0.59 0.56 0.23 0.48 0.42 0.49 0.48 0.34 0.37 0.24 0.24 0.04 0.01 0.00 0.00 0.00 0.00 0.00 0.00 0.00 0.00
1.14 1.82 2.02 1.31 1.93 2.99 2.84 1.48 0.96 1.20 1.42 0.99 0.77 0.55 0.27 0.17 0.27 0.33 0.44 0.17 0.08 0.04 0.21 0.24 0.67 0.69 0.59 0.89 0.64 0.36 0.19 0.33 0.83 0.56 0.30 0.07 0.00 0.00 0.00 0.00 0.00 0.00 0.00 0.00 0.00
1.12 1.73 1.75 1.57 2.67 3.68 2.58 1.48 1.13 0.93 1.03 0.71 0.20 0.15 0.04 0.08 0.15 0.17 0.22 0.11 0.03 0.03 0.16 0.40 0.73 0.78 1.05 1.03 0.62 0.55 0.65 0.46 0.45 0.29 0.28 0.19 0.01 0.00 0.00 0.00 0.00 0.00 0.00 0.00 0.00
1.21 1.70 1.56 2.17 3.32 2.66 1.70 1.36 1.44 0.93 0.62 0.50 0.21 0.09 0.06 0.06 0.12 0.13 0.08 0.03 0.01 0.01 0.12 0.36 0.75 0.87 0.69 0.27 0.22 0.34 0.30 0.30 0.77 0.42 0.40 0.36 0.10 0.00 0.01 0.01 0.00 0.01 0.02 0.01 0.00
1.30 1.53 2.20 1.62 1.65 1.18 1.11 1.18 1.22 0.69 0.53 0.54 0.21 0.10 0.03 0.04 0.13 0.07 0.04 0.00 0.00 0.01 0.09 0.43 0.90 0.84 0.63 0.54 0.58 0.79 0.41 0.35 0.59 0.97 0.67 0.42 0.14 0.00 0.00 0.00 0.00 0.01 0.03 0.02 0.01
1.48 1.95 2.72 2.49 0.83 0.72 1.20 1.40 1.06 0.58 0.46 0.53 0.27 0.16 0.10 0.05 0.04 0.04 0.03 0.00 0.00 0.00 0.03 0.41 0.88 0.93 0.75 0.43 0.57 0.82 0.45 0.57 1.13 1.09 0.36 0.29 0.04 0.01 0.01 0.02 0.01 0.00 0.02 0.04 0.01
1.32 1.19 0.84 0.78 0.64 0.36 0.79 1.00 0.82 0.81 0.51 0.65 0.47 0.13 0.08 0.08 0.03 0.02 0.01 0.01 0.00 0.00 0.06 0.43 0.90 0.88 0.49 0.28 0.42 0.57 0.56 0.49 0.94 0.52 0.52 0.16 0.07 0.03 0.03 0.02 0.02 0.01 0.01 0.04 0.05
0.85 1.09 0.41 0.15 0.19 0.24 0.62 0.80 0.64 0.60 0.56 0.39 0.27 0.09 0.08 0.05 0.01 0.00 0.00 0.01 0.01 0.02 0.11 0.33 0.71 0.75 0.61 0.24 0.38 0.48 0.55 0.36 0.56 0.27 0.26 0.17 0.13 0.01 0.01 0.01 0.00 0.01 0.04 0.07 0.07
0.69 0.78 0.49 0.26 0.16 0.38 0.36 0.49 0.63 0.58 0.32 0.11 0.14 0.18 0.12 0.02 0.01 0.01 0.00 0.00 0.01 0.06 0.16 0.28 0.51 0.73 0.64 0.48 0.28 0.47 0.58 0.68 0.48 0.20 0.25 0.28 0.15 0.01 0.01 0.04 0.06 0.05 0.06 0.04 0.03

GFSSW_prec_precacc_060.txt.gz
Total_Precipitation_Accumulation
0.05 0.06 0.06 0.07 0.08 0.07 0.05 0.04 0.05 0.06 0.10 0.15 0.20 0.25 0.32 0.32 0.24 0.10 0.06 0.00 0.00 0.00 0.00 0.00 0.01 0.00 0.00 0.00 0.00 0.00 0.00 0.00 0.00 0.00 0.00 0.00 0.00 0.00 0.00 0.00 0.00 0.00 0.00 0.00 0.00
0.04 0.05 0.09 0.10 0.10 0.10 0.09 0.06 0.06 0.06 0.07 0.10 0.12 0.15 0.20 0.19 0.25 0.18 0.01 0.00 0.02 0.03 0.02 0.00 0.00 0.01 0.01 0.00 0.00 0.00 0.00 0.00 0.00 0.00 0.00 0.00 0.00 0.00 0.00 0.00 0.00 0.00 0.00 0.00 0.00
0.07 0.09 0.12 0.15 0.15 0.10 0.10 0.09 0.09 0.09 0.11 0.12 0.12 0.16 0.23 0.15 0.10 0.03 0.00 0.04 0.11 0.24 0.05 0.02 0.01 0.03 0.04 0.01 0.00 0.00 0.00 0.00 0.00 0.00 0.00 0.00 0.00 0.00 0.00 0.00 0.00 0.00 0.00 0.00 0.00
0.12 0.13 0.18 0.18 0.15 0.17 0.17 0.16 0.12 0.10 0.12 0.14 0.15 0.20 0.32 0.25 0.04 0.00 0.01 0.05 0.19 0.41 0.18 0.07 0.02 0.03 0.03 0.02 0.00 0.00 0.00 0.00 0.00 0.00 0.00 0.00 0.00 0.00 0.00 0.00 0.00 0.00 0.00 0.00 0.00
0.15 0.16 0.14 0.13 0.13 0.11 0.11 0.14 0.15 0.14 0.19 0.25 0.29 0.39 0.47 0.24 0.03 0.00 0.02 0.05 0.14 0.37 0.23 0.13 0.05 0.03 0.03 0.01 0.01 0.00 0.00 0.00 0.00 0.00 0.00 0.00 0.00 0.00 0.00 0.00 0.00 0.00 0.00 0.00 0.00
0.12 0.13 0.11 0.11 0.10 0.10 0.12 0.12 0.14 0.17 0.25 0.25 0.41 0.62 0.42 0.11 0.00 0.00 0.01 0.09 0.05 0.20 0.27 0.26 0.08 0.01 0.02 0.01 0.01 0.00 0.00 0.00 0.00 0.00 0.00 0.00 0.00 0.00 0.00 0.00 0.00 0.00 0.00 0.00 0.00
0.17 0.14 0.12 0.12 0.12 0.11 0.15 0.15 0.16 0.24 0.33 0.41 0.55 0.70 0.37 0.05 0.00 0.00 0.03 0.08 0.11 0.15 0.23 0.16 0.14 0.09 0.03 0.04 0.00 0.00 0.01 0.00 0.00 0.00 0.00 0.00 0.00 0.00 0.00 0.00 0.00 0.00 0.00 0.00 0.00
0.23 0.22 0.18 0.20 0.18 0.18 0.20 0.22 0.27 0.32 0.35 0.51 0.86 0.96 0.26 0.01 0.01 0.00 0.03 0.09 0.13 0.28 0.50 0.65 0.43 0.20 0.09 0.05 0.03 0.04 0.06 0.02 0.00 0.00 0.00 0.00 0.00 0.00 0.00 0.00 0.00 0.00 0.00 0.00 0.00
0.26 0.27 0.32 0.40 0.28 0.27 0.28 0.32 0.47 0.67 0.75 0.90 1.09 0.78 0.19 0.05 0.06 0.00 0.03 0.09 0.09 0.20 0.48 0.82 0.70 0.49 0.18 0.12 0.11 0.07 0.03 0.01 0.00 0.00 0.00 0.00 0.00 0.00 0.00 0.00 0.00 0.00 0.00 0.00 0.00
0.36 0.38 0.51 0.62 0.51 0.42 0.51 0.77 0.92 1.38 1.08 1.27 1.12 0.83 0.14 0.03 0.04 0.05 0.07 0.15 0.07 0.24 0.66 1.06 0.90 0.63 0.40 0.19 0.09 0.02 0.01 0.01 0.00 0.00 0.00 0.00 0.00 0.00 0.00 0.00 0.00 0.00 0.00 0.00 0.00
0.45 0.40 0.44 0.56 0.67 0.78 1.17 1.56 1.43 1.49 1.09 0.72 0.66 0.22 0.08 0.07 0.15 0.19 0.14 0.20 0.19 0.45 0.52 1.02 1.39 0.55 0.33 0.14 0.02 0.01 0.02 0.02 0.00 0.00 0.00 0.00 0.00 0.00 0.00 0.00 0.00 0.00 0.00 0.00 0.00
0.41 0.47 0.60 0.64 0.90 1.35 1.94 1.51 0.88 0.74 0.80 0.58 0.38 0.15 0.30 0.33 0.37 0.53 0.23 0.23 0.19 0.29 0.38 1.06 1.07 0.41 0.23 0.19 0.11 0.03 0.04 0.02 0.01 0.00 0.01 0.00 0.00 0.00 0.00 0.00 0.00 0.00 0.00 0.00 0.00
0.44 0.53 0.79 1.08 1.17 1.59 1.47 1.31 0.94 1.01 1.66 0.84 0.49 0.49 0.46 0.73 0.47 0.84 0.31 0.29 0.18 0.28 0.42 0.67 0.54 0.34 0.34 0.44 0.28 0.13 0.04 0.03 0.01 0.01 0.01 0.01 0.00 0.00 0.00 0.00 0.00 0.00 0.00 0.00 0.00
0.56 0.73 0.96 1.31 1.74 1.47 1.65 1.56 1.25 1.82 2.36 0.87 0.80 0.90 0.84 1.22 0.68 0.60 0.40 0.41 0.42 0.31 0.39 0.52 0.45 0.27 0.28 0.39 0.22 0.23 0.04 0.02 0.04 0.06 0.03 0.03 0.03 0.00 0.00 0.00 0.00 0.00 0.00 0.00 0.00
0.62 0.78 1.19 1.95 2.60 2.12 1.95 2.03 2.03 2.48 2.00 0.74 0.91 1.05 1.13 1.14 0.67 0.62 0.47 0.53 0.52 0.33 0.58 0.68 0.49 0.25 0.32 0.22 0.16 0.08 0.06 0.02 0.07 0.18 0.11 0.05 0.08 0.01 0.00 0.00 0.00 0.00 0.00 0.00 0.00
0.62 0.86 1.36 2.32 2.50 1.87 1.85 2.20 2.97 2.71 1.86 1.31 1.14 1.62 1.18 0.81 0.52 0.69 0.68 0.54 0.65 0.61 0.64 0.34 0.41 0.34 0.21 0.13 0.22 0.12 0.18 0.24 0.22 0.34 0.54 0.07 0.06 0.02 0.00 0.00 0.00 0.00 0.00 0.00 0.00
0.78 0.91 1.32 1.65 1.96 1.79 2.21 2.85 2.84 1.67 1.25 1.35 1.21 1.23 0.79 0.58 0.47 0.55 0.92 0.83 1.29 0.63 0.69 0.62 0.73 0.59 0.26 0.35 0.44 0.42 0.61 0.95 0.83 0.60 0.36 0.10 0.05 0.05 0.00 0.00 0.00 0.00 0.00 0.00 0.00
0.95 1.11 1.27 1.11 1.89 2.18 2.57 2.85 1.67 0.75 1.20 1.30 0.96 0.94 0.64 0.43 0.38 0.48 0.70 0.64 0.59 0.19 0.46 0.51 0.65 0.71 0.33 0.61 0.70 0.54 0.55 0.64 0.52 0.25 0.06 0.04 0.12 0.01 0.00 0.00 0.00 0.00 0.00 0.00 0.00
1.28 1.40 1.79 1.41 1.90 2.57 2.55 2.25 0.95 1.12 1.28 1.66 1.37 1.09 0.68 0.30 0.32 0.52 0.58 0.29 0.24 0.13 0.48 0.29 0.59 0.56 0.23 0.48 0.42 0.49 0.48 0.34 0.37 0.24 0.24 0.04 0.01 0.00 0.00 0.00 0.00 0.00 0.00 0.00 0.00
1.14 1.82 2.02 1.31 1.93 2.99 2.87 1.57 1.09 1.30 1.57 1.20 0.94 0.59 0.30 0.19 0.30 0.37 0.44 0.17 0.08 0.04 0.21 0.24 0.67 0.69 0.59 0.89 0.64 0.36 0.19 0.33 0.83 0.56 0.30 0.07 0.00 0.00 0.00 0.00 0.00 0.00 0.00 0.00 0.00
1.12 1.73 1.75 1.57 2.67 3.68 2.63 1.59 1.32 1.03 1.09 0.72 0.20 0.15 0.04 0.08 0.15 0.17 0.22 0.11 0.03 0.03 0.16 0.40 0.73 0.78 1.05 1.03 0.62 0.55 0.65 0.46 0.45 0.29 0.28 0.19 0.01 0.00 0.00 0.00 0.00 0.00 0.00 0.00 0.00
1.21 1.70 1.56 2.17 3.32 2.66 1.72 1.40 1.47 0.93 0.62 0.50 0.21 0.09 0.06 0.06 0.12 0.13 0.08 0.03 0.01 0.01 0.12 0.36 0.75 0.87 0.70 0.27 0.22 0.34 0.30 0.30 0.77 0.42 0.40 0.36 0.10 0.00 0.01 0.01 0.00 0.01 0.02 0.01 0.00
1.30 1.53 2.20 1.62 1.66 1.19 1.11 1.18 1.22 0.69 0.53 0.54 0.21 0.10 0.03 0.04 0.13 0.07 0.04 0.00 0.00 0.01 0.09 0.43 0.90 0.84 0.63 0.54 0.58 0.79 0.41 0.35 0.59 0.97 0.67 0.42 0.14 0.00 0.00 0.00 0.00 0.01 0.03 0.02 0.01
1.48 1.95 2.72 2.49 0.83 0.73 1.20 1.40 1.06 0.58 0.46 0.53 0.27 0.16 0.10 0.05 0.04 0.04 0.03 0.00 0.00 0.00 0.03 0.41 0.88 0.93 0.75 0.43 0.57 0.82 0.45 0.57 1.13 1.09 0.36 0.29 0.04 0.01 0.01 0.02 0.01 0.00 0.02 0.04 0.01
1.32 1.19 0.84 0.79 0.64 0.36 0.79 1.00 0.82 0.81 0.51 0.65 0.47 0.13 0.08 0.08 0.03 0.02 0.01 0.01 0.00 0.00 0.06 0.43 0.90 0.88 0.49 0.28 0.42 0.57 0.56 0.49 0.94 0.52 0.52 0.16 0.07 0.03 0.03 0.02 0.02 0.01 0.01 0.04 0.05
0.85 1.10 0.42 0.15 0.19 0.24 0.62 0.80 0.64 0.60 0.56 0.39 0.27 0.09 0.08 0.05 0.01 0.00 0.00 0.01 0.01 0.02 0.11 0.33 0.71 0.75 0.61 0.24 0.38 0.48 0.55 0.36 0.56 0.27 0.26 0.17 0.13 0.01 0.01 0.01 0.00 0.01 0.04 0.07 0.07
0.69 0.78 0.50 0.26 0.16 0.38 0.36 0.49 0.63 0.58 0.32 0.11 0.14 0.18 0.12 0.02 0.01 0.01 0.00 0.00 0.01 0.06 0.16 0.28 0.51 0.73 0.64 0.48 0.28 0.47 0.58 0.68 0.48 0.20 0.25 0.28 0.15 0.01 0.01 0.04 0.06 0.05 0.06 0.04 0.03

GFSSW_prec_precacc_063.txt.gz
Total_Precipitation_Accumulation
0.05 0.07 0.07 0.08 0.09 0.08 0.07 0.05 0.06 0.07 0.11 0.15 0.20 0.25 0.32 0.33 0.27 0.12 0.07 0.00 0.00 0.00 0.01 0.00 0.01 0.03 0.00 0.00 0.00 0.00 0.00 0.00 0.00 0.00 0.00 0.00 0.00 0.00 0.00 0.00 0.00 0.00 0.00 0.00 0.00
0.06 0.07 0.10 0.11 0.11 0.12 0.10 0.07 0.07 0.06 0.08 0.10 0.13 0.15 0.20 0.19 0.26 0.18 0.01 0.00 0.02 0.03 0.02 0.01 0.00 0.02 0.02 0.00 0.00 0.00 0.00 0.00 0.00 0.00 0.00 0.00 0.00 0.00 0.00 0.00 0.00 0.00 0.00 0.00 0.00
0.09 0.10 0.13 0.17 0.16 0.11 0.11 0.09 0.09 0.10 0.12 0.13 0.13 0.16 0.23 0.16 0.10 0.03 0.00 0.04 0.11 0.24 0.05 0.02 0.02 0.03 0.05 0.01 0.00 0.00 0.00 0.00 0.00 0.00 0.00 0.00 0.00 0.00 0.00 0.00 0.00 0.00 0.00 0.00 0.00
0.13 0.15 0.19 0.19 0.17 0.18 0.19 0.16 0.13 0.12 0.13 0.15 0.16 0.21 0.32 0.26 0.05 0.00 0.02 0.05 0.19 0.41 0.18 0.09 0.03 0.05 0.04 0.02 0.00 0.00 0.00 0.00 0.00 0.00 0.00 0.00 0.00 0.00 0.00 0.00 0.00 0.00 0.00 0.00 0.00
0.16 0.16 0.15 0.14 0.14 0.12 0.13 0.16 0.18 0.15 0.20 0.27 0.31 0.42 0.47 0.25 0.04 0.02 0.03 0.05 0.14 0.38 0.23 0.14 0.05 0.04 0.03 0.01 0.01 0.00 0.00 0.00 0.00 0.00 0.00 0.00 0.00 0.00 0.00 0.00 0.00 0.00 0.00 0.00 0.00
0.13 0.15 0.12 0.11 0.11 0.11 0.13 0.14 0.15 0.18 0.27 0.26 0.45 0.67 0.44 0.12 0.00 0.00 0.01 0.09 0.06 0.20 0.28 0.28 0.09 0.02 0.03 0.01 0.01 0.00 0.00 0.00 0.00 0.00 0.00 0.00 0.00 0.00 0.00 0.00 0.00 0.00 0.00 0.00 0.00
0.19 0.15 0.13 0.13 0.13 0.13 0.16 0.16 0.16 0.25 0.35 0.44 0.59 0.76 0.40 0.05 0.00 0.00 0.03 0.08 0.12 0.16 0.24 0.17 0.17 0.10 0.03 0.04 0.00 0.00 0.01 0.00 0.00 0.00 0.00 0.00 0.00 0.00 0.00 0.00 0.00 0.00 0.00 0.00 0.00
0.24 0.23 0.19 0.21 0.19 0.19 0.20 0.22 0.28 0.32 0.37 0.54 0.92 1.08 0.28 0.01 0.01 0.00 0.03 0.09 0.13 0.28 0.53 0.72 0.55 0.27 0.10 0.05 0.03 0.04 0.06 0.02 0.00 0.00 0.00 0.00 0.00 0.00 0.00 0.00 0.00 0.00 0.00 0.00 0.00
0.27 0.29 0.33 0.41 0.28 0.28 0.29 0.32 0.47 0.67 0.78 0.97 1.24 0.87 0.20 0.05 0.06 0.01 0.03 0.09 0.15 0.26 0.58 1.05 0.94 0.62 0.23 0.13 0.11 0.07 0.03 0.01 0.00 0.00 0.00 0.00 0.00 0.00 0.00 0.00 0.00 0.00 0.00 0.00 0.00
0.38 0.41 0.52 0.62 0.52 0.43 0.52 0.77 0.92 1.38 1.08 1.29 1.16 0.85 0.14 0.03 0.05 0.06 0.08 0.16 0.11 0.34 0.81 1.24 1.10 0.75 0.46 0.20 0.09 0.02 0.01 0.01 0.00 0.00 0.00 0.00 0.00 0.00 0.00 0.00 0.00 0.00 0.00 0.00 0.00
0.46 0.41 0.45 0.57 0.68 0.81 1.19 1.56 1.43 1.49 1.09 0.72 0.66 0.22 0.09 0.08 0.17 0.21 0.16 0.22 0.23 0.54 0.61 1.17 1.70 0.75 0.34 0.14 0.02 0.01 0.02 0.02 0.00 0.00 0.00 0.00 0.00 0.00 0.00 0.00 0.00 0.00 0.00 0.00 0.00
0.42 0.48 0.60 0.65 0.91 1.38 1.96 1.51 0.88 0.74 0.80 0.58 0.38 0.15 0.30 0.34 0.40 0.58 0.25 0.24 0.21 0.34 0.45 1.22 1.44 0.58 0.27 0.20 0.12 0.03 0.04 0.02 0.01 0.00 0.01 0.00 0.00 0.00 0.00 0.00 0.00 0.00 0.00 0.00 0.00
0.45 0.54 0.82 1.14 1.23 1.60 1.50 1.31 0.95 1.01 1.68 0.84 0.49 0.49 0.46 0.75 0.51 0.88 0.33 0.29 0.18 0.31 0.47 0.85 0.80 0.63 0.50 0.52 0.31 0.14 0.04 0.03 0.01 0.01 0.01 0.01 0.00 0.00 0.00 0.00 0.00 0.00 0.00 0.00 0.00
0.59 0.77 1.03 1.42 1.86 1.59 1.77 1.68 1.34 1.90 2.42 0.87 0.81 0.92 0.85 1.28 0.79 0.64 0.42 0.42 0.44 0.33 0.44 0.69 0.61 0.56 0.66 0.68 0.41 0.32 0.05 0.02 0.04 0.06 0.03 0.03 0.03 0.00 0.00 0.00 0.00 0.00 0.00 0.00 0.00
0.65 0.80 1.23 2.00 2.64 2.17 2.04 2.06 2.06 2.49 2.03 0.77 0.94 1.09 1.19 1.24 0.85 0.68 0.49 0.55 0.54 0.35 0.60 0.75 0.55 0.32 0.43 0.42 0.36 0.20 0.11 0.03 0.07 0.18 0.11 0.05 0.08 0.01 0.00 0.00 0.00 0.00 0.00 0.00 0.00
0.64 0.86 1.37 2.32 2.51 1.88 1.85 2.21 2.99 2.73 1.89 1.35 1.15 1.65 1.26 1.09 0.65 0.80 0.70 0.56 0.69 0.68 0.66 0.39 0.43 0.40 0.26 0.15 0.24 0.13 0.19 0.24 0.22 0.34 0.54 0.07 0.06 0.02 0.00 0.00 0.00 0.00 0.00 0.00 0.00
0.79 0.91 1.32 1.65 1.97 1.79 2.21 2.85 2.86 1.72 1.30 1.37 1.23 1.25 0.94 0.74 0.61 0.58 0.94 0.86 1.30 0.76 0.84 0.71 0.76 0.61 0.28 0.36 0.44 0.42 0.61 0.95 0.83 0.60 0.36 0.10 0.05 0.05 0.00 0.00 0.00 0.00 0.00 0.00 0.00
0.95 1.11 1.27 1.11 1.89 2.18 2.59 2.86 1.71 0.80 1.24 1.32 0.99 1.03 0.89 0.52 0.56 0.50 0.73 0.66 0.59 0.22 0.50 0.55 0.69 0.72 0.34 0.61 0.70 0.54 0.55 0.64 0.52 0.25 0.06 0.04 0.12 0.01 0.00 0.00 0.00 0.00 0.00 0.00 0.00
1.28 1.40 1.79 1.41 1.90 2.57 2.56 2.27 0.99 1.15 1.30 1.67 1.42 1.30 0.83 0.38 0.40 0.52 0.59 0.30 0.26 0.14 0.49 0.29 0.59 0.56 0.23 0.48 0.42 0.49 0.48 0.34 0.37 0.24 0.24 0.04 0.01 0.00 0.00 0.00 0.00 0.00 0.00 0.00 0.00
1.14 1.82 2.02 1.31 1.93 2.99 2.88 1.61 1.13 1.32 1.58 1.23 1.11 0.66 0.35 0.23 0.32 0.39 0.45 0.18 0.09 0.04 0.21 0.24 0.67 0.69 0.59 0.89 0.64 0.36 0.19 0.33 0.83 0.56 0.30 0.07 0.00 0.00 0.00 0.00 0.00 0.00 0.00 0.00 0.00
1.12 1.73 1.75 1.57 2.67 3.68 2.64 1.61 1.32 1.03 1.09 0.73 0.21 0.15 0.04 0.09 0.16 0.17 0.22 0.11 0.03 0.03 0.16 0.40 0.73 0.78 1.05 1.03 0.62 0.55 0.65 0.46 0.45 0.29 0.28 0.19 0.01 0.00 0.00 0.00 0.00 0.00 0.00 0.00 0.00
1.21 1.70 1.56 2.17 3.32 2.66 1.72 1.41 1.47 0.93 0.62 0.50 0.21 0.09 0.06 0.06 0.12 0.13 0.08 0.03 0.01 0.01 0.12 0.36 0.75 0.87 0.70 0.27 0.22 0.34 0.30 0.30 0.77 0.42 0.40 0.36 0.10 0.00 0.01 0.01 0.00 0.01 0.02 0.01 0.00
1.30 1.53 2.20 1.62 1.66 1.19 1.11 1.18 1.22 0.69 0.53 0.54 0.21 0.10 0.03 0.04 0.13 0.07 0.04 0.00 0.00 0.01 0.09 0.43 0.90 0.84 0.63 0.54 0.58 0.79 0.41 0.35 0.59 0.97 0.67 0.42 0.14 0.00 0.00 0.00 0.00 0.01 0.03 0.02 0.01
1.48 1.95 2.72 2.49 0.83 0.73 1.21 1.40 1.06 0.58 0.46 0.53 0.27 0.16 0.10 0.05 0.04 0.04 0.03 0.00 0.00 0.00 0.03 0.41 0.88 0.93 0.75 0.43 0.57 0.82 0.45 0.57 1.13 1.09 0.36 0.29 0.04 0.01 0.01 0.02 0.01 0.00 0.02 0.04 0.01
1.32 1.19 0.84 0.79 0.64 0.36 0.79 1.00 0.82 0.81 0.51 0.65 0.47 0.13 0.08 0.08 0.03 0.02 0.01 0.01 0.00 0.00 0.06 0.43 0.90 0.88 0.49 0.28 0.42 0.57 0.56 0.49 0.94 0.52 0.52 0.16 0.07 0.03 0.03 0.02 0.02 0.01 0.01 0.04 0.05
0.85 1.10 0.42 0.15 0.19 0.24 0.62 0.80 0.64 0.60 0.56 0.39 0.27 0.09 0.08 0.05 0.01 0.00 0.00 0.01 0.01 0.02 0.11 0.33 0.71 0.75 0.61 0.24 0.38 0.48 0.55 0.36 0.56 0.27 0.26 0.17 0.13 0.01 0.01 0.01 0.00 0.01 0.04 0.07 0.07
0.69 0.78 0.50 0.26 0.16 0.38 0.36 0.49 0.63 0.58 0.32 0.11 0.14 0.18 0.12 0.02 0.01 0.01 0.00 0.00 0.01 0.06 0.16 0.28 0.51 0.73 0.64 0.48 0.28 0.47 0.58 0.68 0.48 0.20 0.25 0.28 0.15 0.01 0.01 0.04 0.06 0.05 0.06 0.04 0.03

GFSSW_prec_precacc_066.txt.gz
Total_Precipitation_Accumulation
0.07 0.09 0.10 0.10 0.10 0.09 0.07 0.06 0.06 0.07 0.11 0.16 0.20 0.25 0.32 0.33 0.27 0.12 0.07 0.01 0.00 0.00 0.01 0.00 0.01 0.06 0.02 0.00 0.00 0.00 0.00 0.00 0.00 0.00 0.00 0.00 0.00 0.00 0.00 0.00 0.00 0.00 0.00 0.00 0.00
0.08 0.09 0.11 0.12 0.13 0.13 0.11 0.09 0.08 0.07 0.08 0.11 0.13 0.16 0.20 0.19 0.26 0.18 0.01 0.00 0.02 0.03 0.02 0.01 0.00 0.06 0.06 0.00 0.00 0.00 0.00 0.00 0.00 0.00 0.00 0.00 0.00 0.00 0.00 0.00 0.00 0.00 0.00 0.00 0.00
0.11 0.10 0.14 0.18 0.17 0.13 0.13 0.11 0.10 0.10 0.13 0.14 0.14 0.16 0.23 0.16 0.10 0.03 0.00 0.04 0.12 0.25 0.05 0.02 0.02 0.06 0.08 0.01 0.00 0.00 0.00 0.00 0.00 0.00 0.00 0.00 0.00 0.00 0.00 0.00 0.00 0.00 0.00 0.00 0.00
0.14 0.16 0.20 0.20 0.17 0.19 0.19 0.17 0.14 0.14 0.14 0.17 0.18 0.22 0.35 0.27 0.05 0.02 0.03 0.06 0.24 0.48 0.20 0.10 0.04 0.07 0.06 0.03 0.00 0.00 0.00 0.00 0.00 0.00 0.00 0.00 0.00 0.00 0.00 0.00 0.00 0.00 0.00 0.00 0.00
0.18 0.17 0.16 0.15 0.14 0.12 0.13 0.17 0.19 0.17 0.22 0.29 0.32 0.46 0.52 0.26 0.05 0.05 0.05 0.05 0.15 0.43 0.26 0.15 0.07 0.05 0.04 0.02 0.02 0.00 0.00 0.00 0.00 0.00 0.00 0.00 0.00 0.00 0.00 0.00 0.00 0.00 0.00 0.00 0.00
0.14 0.15 0.13 0.12 0.12 0.12 0.14 0.14 0.16 0.20 0.29 0.29 0.47 0.73 0.48 0.15 0.00 0.00 0.02 0.09 0.06 0.23 0.30 0.28 0.10 0.02 0.03 0.02 0.02 0.00 0.00 0.00 0.00 0.00 0.00 0.00 0.00 0.00 0.00 0.00 0.00 0.00 0.00 0.00 0.00
0.20 0.16 0.14 0.14 0.14 0.13 0.16 0.16 0.17 0.26 0.36 0.45 0.62 0.82 0.44 0.06 0.00 0.00 0.04 0.08 0.12 0.19 0.27 0.17 0.21 0.11 0.04 0.05 0.00 0.00 0.01 0.00 0.00 0.00 0.00 0.00 0.00 0.00 0.00 0.00 0.00 0.00 0.00 0.00 0.00
0.25 0.25 0.20 0.23 0.20 0.20 0.22 0.23 0.29 0.33 0.39 0.57 0.97 1.14 0.30 0.01 0.01 0.00 0.03 0.10 0.14 0.29 0.55 0.73 0.66 0.34 0.11 0.05 0.03 0.04 0.06 0.02 0.00 0.00 0.00 0.00 0.00 0.00 0.00 0.00 0.00 0.00 0.00 0.00 0.00
0.29 0.30 0.35 0.43 0.30 0.29 0.30 0.34 0.47 0.67 0.78 1.00 1.31 0.90 0.20 0.05 0.06 0.01 0.03 0.10 0.16 0.30 0.60 1.13 1.14 0.75 0.30 0.14 0.13 0.08 0.03 0.01 0.00 0.00 0.00 0.00 0.00 0.00 0.00 0.00 0.00 0.00 0.00 0.00 0.00
0.39 0.42 0.54 0.63 0.53 0.44 0.55 0.79 0.92 1.38 1.08 1.30 1.18 0.86 0.15 0.03 0.05 0.06 0.08 0.16 0.15 0.45 0.87 1.35 1.25 0.99 0.57 0.23 0.09 0.02 0.01 0.01 0.00 0.00 0.00 0.00 0.00 0.00 0.00 0.00 0.00 0.00 0.00 0.00 0.00
0.47 0.43 0.47 0.60 0.71 0.83 1.23 1.56 1.43 1.49 1.09 0.72 0.66 0.22 0.09 0.08 0.17 0.22 0.16 0.24 0.27 0.65 0.65 1.22 1.80 1.04 0.43 0.15 0.02 0.01 0.02 0.02 0.00 0.00 0.00 0.00 0.00 0.00 0.00 0.00 0.00 0.00 0.00 0.00 0.00
0.44 0.51 0.64 0.69 0.96 1.40 1.98 1.52 0.88 0.74 0.80 0.58 0.38 0.15 0.30 0.34 0.41 0.62 0.29 0.32 0.26 0.46 0.48 1.28 1.50 0.62 0.29 0.23 0.12 0.03 0.04 0.02 0.01 0.00 0.01 0.00 0.00 0.00 0.00 0.00 0.00 0.00 0.00 0.00 0.00
0.48 0.58 0.84 1.16 1.26 1.62 1.53 1.37 0.97 1.02 1.69 0.84 0.49 0.49 0.46 0.75 0.53 1.00 0.41 0.37 0.22 0.51 0.49 0.94 0.85 0.70 0.62 0.57 0.33 0.14 0.04 0.03 0.01 0.01 0.01 0.01 0.00 0.00 0.00 0.00 0.00 0.00 0.00 0.00 0.00
0.61 0.79 1.04 1.42 1.86 1.60 1.78 1.72 1.37 1.93 2.47 0.88 0.82 0.94 0.86 1.28 0.82 0.70 0.55 0.46 0.45 0.60 0.49 0.87 0.76 0.75 0.93 0.78 0.44 0.35 0.05 0.02 0.04 0.06 0.03 0.03 0.03 0.00 0.00 0.00 0.00 0.00 0.00 0.00 0.00
0.67 0.81 1.24 2.00 2.64 2.18 2.04 2.08 2.08 2.51 2.05 0.80 0.97 1.12 1.20 1.26 0.93 0.80 0.63 0.56 0.58 0.52 0.71 0.98 0.75 0.51 0.72 0.56 0.41 0.26 0.12 0.03 0.07 0.18 0.11 0.05 0.08 0.01 0.00 0.00 0.00 0.00 0.00 0.00 0.00
0.64 0.87 1.37 2.32 2.51 1.88 1.85 2.22 3.01 2.74 1.92 1.37 1.15 1.68 1.31 1.17 0.81 0.95 0.79 0.58 0.70 0.70 0.76 0.50 0.54 0.55 0.34 0.33 0.34 0.20 0.22 0.25 0.22 0.34 0.54 0.07 0.06 0.02 0.00 0.00 0.00 0.00 0.00 0.00 0.00
0.79 0.91 1.32 1.65 1.98 1.79 2.23 2.87 2.87 1.75 1.31 1.37 1.23 1.29 1.14 0.96 0.72 0.72 0.97 0.87 1.31 0.78 0.90 0.88 0.90 0.70 0.48 0.53 0.56 0.47 0.63 0.97 0.83 0.60 0.36 0.10 0.05 0.05 0.00 0.00 0.00 0.00 0.00 0.00 0.00
0.95 1.11 1.27 1.11 1.89 2.18 2.60 2.86 1.72 0.84 1.26 1.34 1.07 1.24 1.20 0.63 0.64 0.57 0.75 0.67 0.59 0.23 0.54 0.70 0.82 0.83 0.47 0.63 0.72 0.54 0.55 0.64 0.52 0.25 0.06 0.04 0.12 0.01 0.00 0.00 0.00 0.00 0.00 0.00 0.00
1.28 1.40 1.79 1.41 1.90 2.57 2.57 2.27 1.00 1.17 1.32 1.71 1.50 1.44 0.96 0.43 0.47 0.54 0.61 0.31 0.26 0.15 0.51 0.34 0.63 0.60 0.26 0.49 0.42 0.49 0.48 0.34 0.37 0.24 0.24 0.04 0.01 0.00 0.00 0.00 0.00 0.00 0.00 0.00 0.00
1.14 1.82 2.02 1.31 1.93 2.99 2.88 1.62 1.13 1.32 1.58 1.24 1.20 0.68 0.40 0.26 0.33 0.39 0.45 0.18 0.09 0.04 0.21 0.25 0.68 0.70 0.59 0.89 0.64 0.36 0.19 0.33 0.83 0.56 0.30 0.07 0.00 0.00 0.00 0.00 0.00 0.00 0.00 0.00 0.00
1.12 1.73 1.75 1.57 2.67 3.68 2.65 1.61 1.33 1.04 1.09 0.74 0.21 0.15 0.05 0.09 0.16 0.17 0.22 0.11 0.03 0.03 0.16 0.40 0.73 0.79 1.05 1.03 0.62 0.55 0.65 0.46 0.45 0.29 0.28 0.19 0.01 0.00 0.00 0.00 0.00 0.00 0.00 0.00 0.00
1.21 1.70 1.56 2.17 3.32 2.66 1.73 1.41 1.47 0.93 0.62 0.50 0.21 0.09 0.06 0.06 0.12 0.13 0.08 0.03 0.01 0.01 0.12 0.36 0.75 0.87 0.70 0.27 0.22 0.34 0.30 0.30 0.77 0.42 0.40 0.36 0.10 0.00 0.01 0.01 0.00 0.01 0.02 0.01 0.00
1.30 1.53 2.20 1.62 1.66 1.19 1.11 1.18 1.22 0.69 0.53 0.54 0.21 0.10 0.03 0.04 0.13 0.07 0.04 0.00 0.00 0.01 0.09 0.43 0.90 0.84 0.63 0.54 0.58 0.79 0.41 0.35 0.59 0.97 0.67 0.42 0.14 0.00 0.00 0.00 0.00 0.01 0.03 0.02 0.01
1.48 1.95 2.72 2.49 0.83 0.74 1.21 1.40 1.06 0.58 0.46 0.53 0.27 0.16 0.10 0.05 0.04 0.04 0.03 0.00 0.00 0.00 0.03 0.41 0.88 0.93 0.75 0.43 0.57 0.82 0.45 0.57 1.13 1.09 0.36 0.29 0.04 0.01 0.01 0.02 0.01 0.00 0.02 0.04 0.01
1.32 1.19 0.84 0.79 0.64 0.36 0.79 1.00 0.82 0.81 0.51 0.65 0.47 0.13 0.08 0.08 0.03 0.02 0.01 0.01 0.00 0.00 0.06 0.43 0.90 0.88 0.49 0.28 0.42 0.57 0.56 0.49 0.94 0.52 0.52 0.16 0.07 0.03 0.03 0.02 0.02 0.01 0.01 0.04 0.05
0.85 1.10 0.42 0.15 0.19 0.24 0.62 0.80 0.64 0.60 0.56 0.39 0.27 0.09 0.08 0.05 0.01 0.00 0.00 0.01 0.01 0.02 0.11 0.33 0.71 0.75 0.61 0.24 0.38 0.48 0.55 0.36 0.56 0.27 0.26 0.17 0.13 0.01 0.01 0.01 0.00 0.01 0.04 0.07 0.07
0.69 0.78 0.50 0.26 0.16 0.38 0.36 0.49 0.63 0.58 0.32 0.11 0.14 0.18 0.12 0.02 0.01 0.01 0.00 0.00 0.01 0.06 0.16 0.28 0.51 0.73 0.64 0.48 0.28 0.47 0.58 0.68 0.48 0.20 0.25 0.28 0.15 0.01 0.01 0.04 0.06 0.05 0.06 0.04 0.03

GFSSW_prec_precacc_069.txt.gz
Total_Precipitation_Accumulation
0.07 0.10 0.11 0.11 0.11 0.10 0.08 0.07 0.08 0.10 0.14 0.17 0.21 0.26 0.33 0.33 0.27 0.12 0.07 0.01 0.00 0.00 0.01 0.00 0.01 0.07 0.05 0.00 0.00 0.00 0.00 0.00 0.00 0.00 0.00 0.00 0.00 0.00 0.00 0.00 0.00 0.00 0.00 0.00 0.00
0.10 0.11 0.12 0.13 0.14 0.14 0.12 0.09 0.08 0.08 0.09 0.12 0.14 0.17 0.20 0.20 0.26 0.18 0.01 0.00 0.02 0.03 0.02 0.01 0.01 0.09 0.11 0.01 0.00 0.00 0.00 0.00 0.00 0.00 0.00 0.00 0.00 0.00 0.00 0.00 0.00 0.00 0.00 0.00 0.00
0.14 0.12 0.15 0.19 0.18 0.14 0.13 0.11 0.10 0.11 0.13 0.15 0.14 0.18 0.25 0.17 0.10 0.03 0.00 0.04 0.12 0.28 0.06 0.02 0.02 0.09 0.14 0.04 0.00 0.00 0.00 0.00 0.00 0.00 0.00 0.00 0.00 0.00 0.00 0.00 0.00 0.00 0.00 0.00 0.00
0.15 0.16 0.21 0.21 0.18 0.19 0.20 0.17 0.15 0.15 0.16 0.18 0.21 0.25 0.39 0.31 0.06 0.04 0.03 0.06 0.24 0.57 0.30 0.11 0.05 0.11 0.09 0.04 0.00 0.00 0.00 0.00 0.00 0.00 0.00 0.00 0.00 0.00 0.00 0.00 0.00 0.00 0.00 0.00 0.00
0.19 0.18 0.17 0.15 0.15 0.13 0.14 0.17 0.19 0.17 0.24 0.33 0.35 0.50 0.55 0.28 0.05 0.05 0.05 0.05 0.16 0.52 0.37 0.17 0.07 0.06 0.05 0.02 0.03 0.00 0.00 0.00 0.00 0.00 0.00 0.00 0.00 0.00 0.00 0.00 0.00 0.00 0.00 0.00 0.00
0.15 0.17 0.15 0.14 0.13 0.13 0.16 0.16 0.17 0.21 0.31 0.32 0.48 0.76 0.49 0.15 0.00 0.00 0.03 0.09 0.06 0.25 0.38 0.32 0.10 0.03 0.04 0.03 0.03 0.01 0.00 0.00 0.00 0.00 0.00 0.00 0.00 0.00 0.00 0.00 0.00 0.00 0.00 0.00 0.00
0.22 0.18 0.16 0.15 0.16 0.15 0.19 0.18 0.20 0.29 0.38 0.47 0.66 0.88 0.46 0.06 0.00 0.00 0.05 0.09 0.12 0.19 0.30 0.22 0.22 0.12 0.05 0.06 0.01 0.01 0.01 0.00 0.00 0.00 0.00 0.00 0.00 0.00 0.00 0.00 0.00 0.00 0.00 0.00 0.00
0.27 0.26 0.21 0.24 0.22 0.22 0.23 0.25 0.31 0.36 0.42 0.61 1.03 1.21 0.30 0.01 0.01 0.00 0.03 0.11 0.14 0.29 0.58 0.78 0.68 0.39 0.13 0.08 0.05 0.05 0.07 0.02 0.00 0.00 0.00 0.00 0.00 0.00 0.00 0.00 0.00 0.00 0.00 0.00 0.00
0.29 0.31 0.36 0.45 0.32 0.31 0.31 0.35 0.49 0.69 0.80 1.04 1.39 0.95 0.21 0.05 0.06 0.01 0.03 0.12 0.18 0.31 0.64 1.20 1.22 0.83 0.36 0.19 0.18 0.12 0.04 0.01 0.00 0.00 0.00 0.00 0.00 0.00 0.00 0.00 0.00 0.00 0.00 0.00 0.00
0.39 0.43 0.57 0.67 0.56 0.47 0.59 0.80 0.93 1.38 1.08 1.31 1.21 0.90 0.15 0.03 0.05 0.06 0.08 0.17 0.24 0.52 0.97 1.53 1.37 1.08 0.64 0.30 0.13 0.03 0.01 0.01 0.00 0.00 0.00 0.00 0.00 0.00 0.00 0.00 0.00 0.00 0.00 0.00 0.00
0.48 0.46 0.50 0.62 0.74 0.87 1.26 1.58 1.45 1.51 1.10 0.74 0.67 0.22 0.09 0.08 0.17 0.22 0.16 0.26 0.38 0.87 0.73 1.39 1.85 1.17 0.50 0.16 0.02 0.01 0.02 0.02 0.00 0.00 0.00 0.00 0.00 0.00 0.00 0.00 0.00 0.00 0.00 0.00 0.00
0.46 0.54 0.65 0.69 0.98 1.41 1.98 1.53 0.88 0.75 0.81 0.58 0.38 0.15 0.30 0.34 0.41 0.65 0.32 0.39 0.40 0.74 0.52 1.31 1.51 0.64 0.37 0.25 0.14 0.03 0.04 0.02 0.01 0.00 0.01 0.00 0.00 0.00 0.00 0.00 0.00 0.00 0.00 0.00 0.00
0.51 0.60 0.84 1.16 1.26 1.62 1.54 1.42 1.04 1.03 1.71 0.84 0.49 0.49 0.46 0.75 0.53 1.04 0.47 0.48 0.34 0.72 0.51 0.94 0.86 0.71 0.76 0.71 0.40 0.15 0.04 0.03 0.01 0.01 0.01 0.01 0.00 0.00 0.00 0.00 0.00 0.00 0.00 0.00 0.00
0.63 0.80 1.04 1.42 1.86 1.60 1.79 1.73 1.39 1.93 2.49 0.91 0.85 0.97 0.87 1.29 0.85 0.82 0.60 0.57 0.51 0.72 0.52 0.90 0.77 0.76 0.98 1.01 0.54 0.37 0.05 0.02 0.04 0.06 0.03 0.03 0.03 0.00 0.00 0.00 0.00 0.00 0.00 0.00 0.00
0.68 0.82 1.24 2.00 2.64 2.18 2.05 2.08 2.08 2.52 2.11 0.86 1.06 1.21 1.23 1.32 1.08 0.94 0.76 0.63 0.64 0.87 0.75 0.99 0.77 0.53 0.75 0.70 0.56 0.28 0.12 0.03 0.07 0.18 0.11 0.05 0.08 0.01 0.00 0.00 0.00 0.00 0.00 0.00 0.00
0.65 0.87 1.37 2.33 2.51 1.89 1.86 2.23 3.01 2.77 1.95 1.39 1.18 1.70 1.34 1.22 0.96 1.33 0.96 0.69 0.89 1.08 0.81 0.55 0.61 0.67 0.41 0.42 0.51 0.23 0.23 0.25 0.22 0.34 0.54 0.07 0.06 0.02 0.00 0.00 0.00 0.00 0.00 0.00 0.00
0.80 0.91 1.32 1.65 1.98 1.79 2.23 2.88 2.88 1.77 1.32 1.38 1.25 1.32 1.22 1.02 0.98 1.09 1.09 1.06 1.51 1.06 1.06 1.02 0.99 0.81 0.60 0.73 0.75 0.54 0.71 1.03 0.86 0.60 0.36 0.10 0.05 0.05 0.00 0.00 0.00 0.00 0.00 0.00 0.00
0.95 1.11 1.27 1.11 1.89 2.18 2.60 2.87 1.73 0.86 1.27 1.36 1.08 1.26 1.27 0.80 0.97 0.70 0.78 0.71 0.63 0.28 0.62 0.87 1.02 0.97 0.66 0.74 0.85 0.61 0.66 0.71 0.53 0.25 0.06 0.04 0.12 0.01 0.00 0.00 0.00 0.00 0.00 0.00 0.00
1.28 1.40 1.79 1.41 1.90 2.58 2.57 2.27 1.01 1.18 1.38 1.84 1.66 1.54 0.98 0.46 0.54 0.55 0.61 0.31 0.27 0.15 0.52 0.41 0.71 0.69 0.38 0.54 0.46 0.53 0.50 0.34 0.37 0.24 0.24 0.04 0.01 0.00 0.00 0.00 0.00 0.00 0.00 0.00 0.00
1.14 1.82 2.02 1.31 1.93 2.99 2.88 1.62 1.14 1.32 1.59 1.28 1.29 0.70 0.41 0.26 0.33 0.40 0.46 0.18 0.09 0.04 0.21 0.25 0.72 0.75 0.62 0.93 0.65 0.37 0.20 0.33 0.83 0.56 0.30 0.07 0.00 0.00 0.00 0.00 0.00 0.00 0.00 0.00 0.00
1.12 1.73 1.75 1.57 2.67 3.68 2.65 1.61 1.33 1.04 1.09 0.74 0.21 0.15 0.05 0.09 0.16 0.17 0.22 0.11 0.03 0.03 0.16 0.40 0.74 0.79 1.06 1.05 0.63 0.55 0.65 0.46 0.45 0.29 0.28 0.19 0.01 0.00 0.00 0.00 0.00 0.00 0.00 0.00 0.00
1.21 1.70 1.56 2.17 3.32 2.66 1.73 1.41 1.47 0.93 0.62 0.50 0.21 0.09 0.06 0.06 0.12 0.13 0.08 0.03 0.01 0.01 0.12 0.36 0.75 0.88 0.70 0.27 0.22 0.34 0.30 0.30 0.77 0.42 0.40 0.36 0.10 0.00 0.01 0.01 0.00 0.01 0.02 0.01 0.00
1.30 1.53 2.20 1.62 1.66 1.19 1.11 1.18 1.22 0.69 0.53 0.54 0.21 0.10 0.03 0.04 0.13 0.07 0.04 0.00 0.00 0.01 0.09 0.43 0.90 0.84 0.63 0.54 0.58 0.79 0.41 0.35 0.59 0.97 0.67 0.42 0.14 0.00 0.00 0.00 0.00 0.01 0.03 0.02 0.01
1.48 1.95 2.72 2.49 0.83 0.74 1.21 1.40 1.06 0.58 0.46 0.53 0.27 0.16 0.10 0.05 0.04 0.04 0.03 0.00 0.00 0.00 0.03 0.41 0.88 0.93 0.75 0.43 0.57 0.82 0.45 0.57 1.13 1.09 0.36 0.29 0.04 0.01 0.01 0.02 0.01 0.00 0.02 0.04 0.01
1.32 1.19 0.84 0.79 0.64 0.36 0.79 1.00 0.82 0.81 0.51 0.65 0.47 0.13 0.08 0.08 0.03 0.02 0.01 0.01 0.00 0.00 0.06 0.43 0.90 0.88 0.49 0.28 0.42 0.57 0.56 0.49 0.94 0.52 0.52 0.16 0.07 0.03 0.03 0.02 0.02 0.01 0.01 0.04 0.05
0.85 1.10 0.42 0.15 0.19 0.24 0.62 0.80 0.64 0.60 0.56 0.39 0.27 0.09 0.08 0.05 0.01 0.00 0.00 0.01 0.01 0.02 0.11 0.33 0.71 0.75 0.61 0.24 0.38 0.48 0.55 0.36 0.56 0.27 0.26 0.17 0.13 0.01 0.01 0.01 0.00 0.01 0.04 0.07 0.07
0.70 0.78 0.50 0.26 0.16 0.38 0.36 0.49 0.63 0.58 0.32 0.11 0.14 0.18 0.12 0.02 0.01 0.01 0.00 0.00 0.01 0.06 0.16 0.28 0.51 0.73 0.64 0.48 0.28 0.47 0.58 0.68 0.48 0.20 0.25 0.28 0.15 0.01 0.01 0.04 0.06 0.05 0.06 0.04 0.03

GFSSW_prec_precacc_072.txt.gz
Total_Precipitation_Accumulation
0.09 0.15 0.15 0.12 0.12 0.11 0.09 0.08 0.08 0.10 0.15 0.18 0.23 0.27 0.35 0.35 0.27 0.12 0.07 0.01 0.00 0.00 0.01 0.00 0.01 0.08 0.10 0.04 0.01 0.00 0.00 0.00 0.00 0.00 0.00 0.00 0.00 0.00 0.00 0.00 0.00 0.00 0.00 0.00 0.00
0.14 0.14 0.13 0.13 0.14 0.15 0.13 0.10 0.09 0.08 0.09 0.12 0.15 0.18 0.22 0.20 0.26 0.19 0.01 0.00 0.02 0.04 0.03 0.01 0.01 0.10 0.15 0.03 0.03 0.00 0.00 0.00 0.00 0.00 0.00 0.00 0.00 0.00 0.00 0.00 0.00 0.00 0.00 0.00 0.00
0.16 0.13 0.16 0.20 0.19 0.14 0.14 0.12 0.11 0.11 0.13 0.15 0.15 0.19 0.27 0.19 0.12 0.03 0.00 0.04 0.12 0.30 0.09 0.03 0.02 0.09 0.15 0.08 0.02 0.00 0.00 0.00 0.00 0.00 0.00 0.00 0.00 0.00 0.00 0.00 0.00 0.00 0.00 0.00 0.00
0.17 0.17 0.23 0.23 0.19 0.20 0.21 0.18 0.15 0.16 0.17 0.19 0.21 0.29 0.46 0.35 0.07 0.07 0.03 0.06 0.24 0.59 0.37 0.15 0.05 0.11 0.11 0.07 0.00 0.00 0.00 0.00 0.00 0.00 0.00 0.00 0.00 0.00 0.00 0.00 0.00 0.00 0.00 0.00 0.00
0.19 0.19 0.18 0.16 0.16 0.15 0.15 0.19 0.20 0.20 0.26 0.37 0.39 0.59 0.62 0.32 0.06 0.06 0.05 0.05 0.16 0.53 0.40 0.22 0.08 0.07 0.06 0.03 0.06 0.02 0.00 0.00 0.00 0.00 0.00 0.00 0.00 0.00 0.00 0.00 0.00 0.00 0.00 0.00 0.00
0.17 0.18 0.16 0.14 0.14 0.14 0.16 0.16 0.19 0.23 0.33 0.34 0.53 0.81 0.52 0.16 0.00 0.00 0.03 0.09 0.06 0.25 0.40 0.38 0.11 0.03 0.04 0.04 0.05 0.02 0.00 0.00 0.00 0.00 0.00 0.00 0.00 0.00 0.00 0.00 0.00 0.00 0.00 0.00 0.00
0.23 0.18 0.16 0.16 0.17 0.16 0.21 0.21 0.24 0.31 0.40 0.49 0.70 0.93 0.47 0.06 0.00 0.00 0.05 0.09 0.12 0.19 0.30 0.26 0.26 0.12 0.06 0.08 0.01 0.03 0.02 0.02 0.00 0.00 0.00 0.00 0.00 0.00 0.00 0.00 0.00 0.00 0.00 0.00 0.00
0.28 0.26 0.21 0.25 0.24 0.25 0.28 0.29 0.34 0.36 0.43 0.63 1.10 1.28 0.31 0.01 0.01 0.00 0.03 0.11 0.14 0.29 0.58 0.79 0.73 0.45 0.14 0.10 0.07 0.10 0.10 0.05 0.00 0.00 0.00 0.00 0.00 0.00 0.00 0.00 0.00 0.00 0.00 0.00 0.00
0.30 0.31 0.37 0.48 0.34 0.35 0.35 0.40 0.52 0.70 0.80 1.07 1.43 1.01 0.21 0.05 0.06 0.01 0.03 0.12 0.19 0.31 0.64 1.22 1.32 0.92 0.38 0.24 0.25 0.17 0.07 0.02 0.00 0.00 0.00 0.00 0.00 0.00 0.00 0.00 0.00 0.00 0.00 0.00 0.00
0.39 0.44 0.60 0.69 0.57 0.49 0.61 0.85 0.96 1.39 1.09 1.32 1.26 0.96 0.16 0.03 0.05 0.06 0.08 0.17 0.26 0.59 0.99 1.58 1.57 1.16 0.68 0.37 0.21 0.05 0.02 0.01 0.00 0.00 0.00 0.00 0.00 0.00 0.00 0.00 0.00 0.00 0.00 0.00 0.00
0.48 0.47 0.52 0.62 0.74 0.87 1.26 1.59 1.47 1.53 1.12 0.75 0.69 0.23 0.10 0.08 0.17 0.22 0.16 0.26 0.46 1.12 0.83 1.47 2.10 1.28 0.50 0.16 0.03 0.02 0.02 0.02 0.00 0.00 0.00 0.00 0.00 0.00 0.00 0.00 0.00 0.00 0.00 0.00 0.00
0.46 0.55 0.65 0.71 0.98 1.41 1.99 1.54 0.90 0.78 0.83 0.59 0.38 0.15 0.30 0.34 0.41 0.65 0.32 0.40 0.54 0.97 0.61 1.53 1.60 0.66 0.38 0.26 0.15 0.04 0.05 0.02 0.01 0.00 0.01 0.00 0.00 0.00 0.00 0.00 0.00 0.00 0.00 0.00 0.00
0.52 0.60 0.84 1.16 1.26 1.64 1.54 1.43 1.04 1.04 1.72 0.85 0.49 0.49 0.47 0.75 0.53 1.04 0.52 0.50 0.40 0.97 0.61 1.03 0.88 0.72 0.77 0.72 0.41 0.16 0.04 0.03 0.01 0.01 0.01 0.01 0.00 0.00 0.00 0.00 0.00 0.00 0.00 0.00 0.00
0.65 0.81 1.04 1.42 1.87 1.61 1.80 1.73 1.39 1.94 2.52 0.95 0.90 1.00 0.90 1.30 0.85 0.82 0.65 0.66 0.67 1.13 0.60 0.95 0.78 0.77 1.00 1.08 0.59 0.39 0.05 0.02 0.04 0.06 0.03 0.03 0.03 0.00 0.00 0.00 0.00 0.00 0.00 0.00 0.00
0.69 0.83 1.24 2.00 2.65 2.18 2.05 2.09 2.09 2.53 2.16 0.90 1.09 1.25 1.27 1.33 1.10 0.97 0.81 0.95 0.96 1.25 0.92 1.07 0.79 0.54 0.76 0.72 0.68 0.42 0.13 0.03 0.09 0.18 0.11 0.05 0.08 0.01 0.00 0.00 0.00 0.00 0.00 0.00 0.00
0.66 0.88 1.37 2.33 2.52 1.89 1.86 2.23 3.02 2.79 1.97 1.40 1.22 1.72 1.35 1.23 1.04 1.39 1.04 1.03 1.16 1.33 0.83 0.55 0.63 0.67 0.41 0.42 0.67 0.42 0.31 0.28 0.24 0.36 0.56 0.07 0.06 0.02 0.00 0.00 0.00 0.00 0.00 0.00 0.00
0.80 0.91 1.32 1.65 1.98 1.79 2.23 2.88 2.89 1.79 1.33 1.42 1.31 1.39 1.27 1.04 1.02 1.11 1.16 1.19 1.58 1.24 1.07 1.03 0.99 0.81 0.60 0.74 0.85 0.82 0.86 1.10 0.92 0.62 0.37 0.10 0.05 0.05 0.00 0.00 0.00 0.00 0.00 0.00 0.00
0.95 1.11 1.27 1.11 1.89 2.18 2.60 2.87 1.73 0.86 1.28 1.39 1.14 1.33 1.35 0.94 1.13 0.85 1.03 0.84 0.80 0.35 0.63 0.88 1.05 1.00 0.70 0.77 0.90 0.73 0.75 0.80 0.56 0.26 0.06 0.04 0.12 0.01 0.00 0.00 0.00 0.00 0.00 0.00 0.00
1.28 1.40 1.79 1.41 1.90 2.58 2.58 2.27 1.01 1.18 1.39 1.84 1.66 1.57 1.13 0.63 0.77 0.79 0.78 0.36 0.43 0.22 0.54 0.44 0.76 0.74 0.45 0.60 0.55 0.67 0.56 0.41 0.37 0.24 0.24 0.04 0.01 0.00 0.00 0.00 0.00 0.00 0.00 0.00 0.00
1.14 1.82 2.02 1.31 1.93 2.99 2.89 1.62 1.14 1.33 1.59 1.29 1.31 0.70 0.44 0.30 0.41 0.42 0.47 0.19 0.10 0.04 0.21 0.25 0.75 0.81 0.69 0.99 0.70 0.46 0.24 0.36 0.86 0.56 0.30 0.07 0.00 0.00 0.00 0.00 0.00 0.00 0.00 0.00 0.00
1.12 1.73 1.75 1.57 2.67 3.68 2.65 1.62 1.33 1.04 1.09 0.74 0.21 0.15 0.06 0.10 0.16 0.17 0.22 0.12 0.03 0.03 0.16 0.40 0.74 0.83 1.10 1.09 0.65 0.58 0.70 0.46 0.45 0.29 0.28 0.19 0.01 0.00 0.00 0.00 0.00 0.00 0.00 0.00 0.00
1.21 1.70 1.56 2.17 3.32 2.66 1.73 1.41 1.47 0.93 0.62 0.50 0.21 0.09 0.06 0.06 0.12 0.13 0.08 0.03 0.01 0.01 0.12 0.36 0.75 0.88 0.71 0.27 0.22 0.34 0.31 0.30 0.77 0.42 0.40 0.36 0.10 0.00 0.01 0.01 0.00 0.01 0.02 0.01 0.00
1.30 1.53 2.20 1.62 1.66 1.19 1.11 1.18 1.22 0.69 0.53 0.54 0.21 0.10 0.03 0.04 0.13 0.07 0.04 0.00 0.00 0.01 0.09 0.43 0.90 0.84 0.63 0.54 0.58 0.79 0.41 0.35 0.59 0.97 0.67 0.42 0.14 0.00 0.00 0.00 0.00 0.01 0.03 0.02 0.01
1.48 1.95 2.72 2.49 0.83 0.74 1.21 1.40 1.06 0.58 0.46 0.53 0.27 0.16 0.10 0.05 0.04 0.04 0.03 0.00 0.00 0.00 0.03 0.41 0.88 0.93 0.75 0.43 0.57 0.82 0.45 0.57 1.13 1.09 0.36 0.29 0.04 0.01 0.01 0.02 0.01 0.00 0.02 0.04 0.01
1.32 1.19 0.84 0.79 0.64 0.36 0.79 1.00 0.82 0.81 0.51 0.65 0.47 0.13 0.08 0.08 0.03 0.02 0.01 0.01 0.00 0.00 0.06 0.43 0.90 0.88 0.49 0.28 0.42 0.57 0.56 0.49 0.94 0.52 0.52 0.16 0.07 0.03 0.03 0.02 0.02 0.01 0.01 0.04 0.05
0.86 1.10 0.42 0.15 0.19 0.24 0.62 0.80 0.64 0.60 0.56 0.39 0.27 0.09 0.08 0.05 0.01 0.00 0.00 0.01 0.01 0.02 0.11 0.33 0.71 0.75 0.61 0.24 0.38 0.48 0.55 0.36 0.56 0.27 0.26 0.17 0.13 0.01 0.01 0.01 0.00 0.01 0.04 0.07 0.07
0.70 0.79 0.51 0.26 0.16 0.38 0.36 0.49 0.63 0.59 0.32 0.11 0.14 0.18 0.12 0.02 0.01 0.01 0.00 0.00 0.01 0.06 0.16 0.28 0.51 0.73 0.64 0.48 0.28 0.47 0.58 0.68 0.48 0.20 0.25 0.28 0.15 0.01 0.01 0.04 0.06 0.05 0.06 0.04 0.03

GFSSW_prec_precacc_075.txt.gz
Total_Precipitation_Accumulation
0.11 0.18 0.16 0.13 0.12 0.11 0.10 0.08 0.09 0.10 0.15 0.18 0.23 0.27 0.35 0.36 0.29 0.12 0.07 0.01 0.00 0.00 0.02 0.00 0.01 0.08 0.13 0.07 0.04 0.05 0.03 0.02 0.00 0.00 0.00 0.00 0.00 0.00 0.00 0.00 0.00 0.00 0.00 0.00 0.01
0.16 0.16 0.13 0.14 0.15 0.15 0.13 0.10 0.10 0.08 0.09 0.12 0.15 0.18 0.23 0.21 0.26 0.19 0.01 0.00 0.02 0.04 0.04 0.02 0.01 0.10 0.16 0.07 0.14 0.03 0.00 0.00 0.00 0.00 0.00 0.00 0.01 0.01 0.00 0.00 0.00 0.00 0.01 0.00 0.00
0.17 0.14 0.16 0.21 0.20 0.15 0.14 0.12 0.11 0.11 0.14 0.15 0.15 0.19 0.28 0.23 0.12 0.03 0.00 0.04 0.12 0.30 0.10 0.05 0.03 0.09 0.16 0.10 0.08 0.01 0.00 0.00 0.00 0.00 0.00 0.00 0.02 0.00 0.00 0.00 0.00 0.00 0.00 0.00 0.00
0.18 0.19 0.23 0.23 0.20 0.21 0.21 0.19 0.16 0.17 0.18 0.20 0.22 0.30 0.50 0.38 0.08 0.10 0.04 0.06 0.24 0.59 0.39 0.22 0.07 0.12 0.11 0.07 0.01 0.00 0.00 0.00 0.00 0.00 0.00 0.00 0.00 0.00 0.00 0.00 0.00 0.00 0.00 0.00 0.00
0.23 0.21 0.19 0.17 0.17 0.16 0.16 0.19 0.21 0.22 0.27 0.39 0.40 0.61 0.63 0.34 0.06 0.08 0.07 0.05 0.16 0.53 0.41 0.27 0.12 0.07 0.06 0.03 0.07 0.03 0.00 0.00 0.00 0.00 0.00 0.00 0.00 0.00 0.00 0.00 0.00 0.00 0.00 0.00 0.00
0.19 0.19 0.16 0.15 0.15 0.16 0.19 0.19 0.22 0.26 0.34 0.35 0.59 0.85 0.53 0.17 0.00 0.00 0.03 0.09 0.07 0.26 0.40 0.43 0.16 0.04 0.05 0.04 0.06 0.03 0.02 0.00 0.01 0.00 0.00 0.00 0.00 0.00 0.00 0.00 0.00 0.00 0.00 0.00 0.00
0.24 0.19 0.16 0.16 0.19 0.19 0.25 0.26 0.29 0.33 0.42 0.51 0.76 0.99 0.48 0.06 0.01 0.00 0.05 0.09 0.12 0.19 0.30 0.27 0.34 0.19 0.06 0.08 0.01 0.03 0.05 0.06 0.02 0.00 0.00 0.00 0.00 0.00 0.00 0.00 0.00 0.00 0.00 0.00 0.00
0.28 0.26 0.22 0.26 0.27 0.27 0.29 0.32 0.41 0.41 0.45 0.66 1.17 1.35 0.31 0.01 0.01 0.00 0.03 0.11 0.14 0.29 0.58 0.79 0.75 0.50 0.16 0.11 0.07 0.14 0.15 0.11 0.03 0.00 0.00 0.00 0.00 0.00 0.00 0.00 0.00 0.00 0.00 0.00 0.00
0.30 0.31 0.39 0.50 0.36 0.35 0.35 0.40 0.57 0.78 0.83 1.14 1.47 1.03 0.21 0.05 0.06 0.01 0.03 0.12 0.19 0.31 0.64 1.22 1.35 0.96 0.41 0.25 0.29 0.22 0.11 0.03 0.01 0.00 0.00 0.00 0.00 0.00 0.00 0.00 0.00 0.00 0.00 0.00 0.00
0.40 0.44 0.61 0.70 0.59 0.49 0.61 0.85 0.99 1.42 1.11 1.34 1.28 0.96 0.16 0.04 0.05 0.06 0.08 0.17 0.26 0.60 1.00 1.60 1.66 1.25 0.71 0.38 0.23 0.05 0.02 0.01 0.00 0.00 0.00 0.00 0.00 0.00 0.00 0.00 0.00 0.00 0.00 0.00 0.00
0.49 0.48 0.53 0.64 0.75 0.87 1.26 1.59 1.48 1.55 1.18 0.76 0.69 0.23 0.11 0.08 0.17 0.22 0.16 0.26 0.46 1.19 0.92 1.52 2.25 1.44 0.51 0.16 0.03 0.02 0.02 0.02 0.00 0.00 0.00 0.00 0.00 0.00 0.00 0.00 0.00 0.00 0.00 0.00 0.00
0.47 0.55 0.66 0.72 0.98 1.41 1.99 1.54 0.91 0.80 0.85 0.59 0.39 0.15 0.30 0.34 0.41 0.65 0.32 0.40 0.54 1.03 0.74 1.58 1.75 0.76 0.38 0.26 0.15 0.04 0.06 0.02 0.01 0.00 0.01 0.00 0.00 0.00 0.00 0.00 0.00 0.00 0.00 0.00 0.00
0.53 0.61 0.84 1.16 1.26 1.64 1.54 1.43 1.04 1.04 1.72 0.85 0.49 0.49 0.47 0.75 0.53 1.04 0.52 0.51 0.40 1.04 0.79 1.06 0.93 0.79 0.78 0.72 0.41 0.16 0.04 0.03 0.01 0.01 0.01 0.01 0.00 0.00 0.00 0.00 0.00 0.00 0.00 0.00 0.00
0.66 0.82 1.05 1.42 1.87 1.61 1.80 1.73 1.39 1.94 2.53 0.97 0.93 1.00 0.91 1.30 0.85 0.82 0.65 0.67 0.67 1.16 0.71 0.99 0.79 0.81 1.01 1.08 0.59 0.39 0.05 0.02 0.06 0.06 0.03 0.03 0.03 0.00 0.00 0.00 0.00 0.00 0.00 0.00 0.00
0.69 0.84 1.24 2.00 2.65 2.18 2.05 2.09 2.09 2.53 2.21 1.03 1.12 1.25 1.29 1.33 1.10 0.97 0.82 0.98 0.99 1.31 1.02 1.13 0.81 0.58 0.77 0.73 0.68 0.42 0.13 0.04 0.13 0.20 0.11 0.05 0.08 0.01 0.00 0.00 0.00 0.00 0.00 0.00 0.00
0.66 0.88 1.37 2.33 2.52 1.89 1.86 2.23 3.02 2.79 2.00 1.52 1.36 1.80 1.43 1.27 1.11 1.42 1.08 1.19 1.43 1.50 1.13 0.63 0.66 0.69 0.42 0.42 0.67 0.42 0.32 0.30 0.26 0.40 0.63 0.07 0.06 0.02 0.00 0.00 0.00 0.00 0.00 0.00 0.00
0.80 0.91 1.32 1.65 1.98 1.79 2.23 2.88 2.89 1.80 1.34 1.43 1.34 1.41 1.34 1.13 1.07 1.13 1.27 1.55 2.08 1.56 1.48 1.11 1.07 0.82 0.60 0.74 0.85 0.84 1.01 1.23 1.04 0.71 0.40 0.10 0.05 0.05 0.00 0.00 0.00 0.00 0.00 0.00 0.00
0.95 1.11 1.27 1.11 1.89 2.18 2.60 2.87 1.73 0.87 1.28 1.40 1.14 1.34 1.35 0.94 1.14 0.86 1.21 1.21 1.04 0.42 0.73 0.94 1.11 1.01 0.70 0.77 0.90 0.75 0.95 0.96 0.60 0.27 0.06 0.04 0.12 0.01 0.00 0.00 0.00 0.00 0.00 0.00 0.00
1.28 1.40 1.79 1.41 1.90 2.58 2.58 2.28 1.01 1.18 1.39 1.84 1.67 1.65 1.26 0.68 0.79 0.90 0.91 0.48 0.50 0.23 0.55 0.44 0.78 0.75 0.46 0.60 0.55 0.69 0.64 0.51 0.38 0.24 0.24 0.04 0.01 0.00 0.00 0.00 0.00 0.00 0.00 0.00 0.00
1.14 1.82 2.02 1.31 1.93 2.99 2.89 1.62 1.14 1.33 1.59 1.29 1.31 0.71 0.55 0.42 0.47 0.43 0.49 0.20 0.10 0.04 0.21 0.25 0.76 0.82 0.70 1.00 0.71 0.47 0.25 0.39 0.97 0.59 0.30 0.07 0.00 0.00 0.00 0.00 0.00 0.00 0.00 0.00 0.00
1.12 1.73 1.75 1.57 2.67 3.68 2.65 1.62 1.33 1.04 1.09 0.74 0.21 0.15 0.06 0.10 0.16 0.17 0.22 0.12 0.03 0.03 0.16 0.40 0.75 0.86 1.13 1.10 0.66 0.60 0.74 0.46 0.48 0.33 0.28 0.19 0.01 0.00 0.00 0.00 0.00 0.00 0.00 0.00 0.00
1.21 1.70 1.56 2.17 3.32 2.66 1.73 1.41 1.47 0.93 0.62 0.50 0.21 0.09 0.06 0.06 0.12 0.13 0.08 0.03 0.01 0.01 0.12 0.36 0.75 0.89 0.72 0.27 0.22 0.34 0.32 0.30 0.78 0.43 0.40 0.36 0.10 0.00 0.01 0.01 0.00 0.01 0.02 0.01 0.00
1.30 1.53 2.20 1.62 1.66 1.19 1.11 1.18 1.22 0.69 0.53 0.54 0.21 0.10 0.03 0.04 0.13 0.07 0.04 0.00 0.00 0.01 0.09 0.43 0.90 0.84 0.63 0.54 0.58 0.79 0.42 0.35 0.59 0.97 0.67 0.42 0.14 0.00 0.00 0.00 0.00 0.01 0.03 0.02 0.01
1.48 1.95 2.72 2.49 0.83 0.74 1.21 1.40 1.06 0.58 0.46 0.53 0.27 0.16 0.10 0.05 0.04 0.04 0.03 0.00 0.00 0.00 0.03 0.41 0.88 0.93 0.75 0.43 0.57 0.82 0.45 0.57 1.13 1.09 0.36 0.29 0.04 0.01 0.01 0.02 0.01 0.00 0.02 0.04 0.01
1.32 1.19 0.84 0.79 0.64 0.36 0.79 1.00 0.82 0.81 0.51 0.65 0.47 0.13 0.08 0.08 0.03 0.02 0.01 0.01 0.00 0.00 0.06 0.43 0.90 0.88 0.49 0.28 0.42 0.57 0.56 0.49 0.94 0.52 0.52 0.16 0.07 0.03 0.03 0.02 0.02 0.01 0.01 0.04 0.05
0.86 1.10 0.42 0.15 0.19 0.24 0.62 0.80 0.64 0.60 0.56 0.39 0.27 0.09 0.08 0.05 0.01 0.00 0.00 0.01 0.01 0.02 0.11 0.33 0.71 0.75 0.61 0.24 0.38 0.48 0.55 0.36 0.56 0.27 0.26 0.17 0.13 0.01 0.01 0.01 0.00 0.01 0.04 0.07 0.07
0.70 0.79 0.51 0.26 0.16 0.38 0.36 0.49 0.63 0.59 0.32 0.12 0.14 0.18 0.12 0.02 0.01 0.01 0.00 0.00 0.01 0.06 0.16 0.28 0.51 0.73 0.64 0.48 0.28 0.47 0.58 0.68 0.48 0.20 0.25 0.28 0.15 0.01 0.01 0.04 0.06 0.05 0.06 0.04 0.03

GFSSW_prec_precacc_078.txt.gz
Total_Precipitation_Accumulation
0.12 0.19 0.17 0.13 0.13 0.11 0.10 0.08 0.09 0.10 0.16 0.19 0.23 0.27 0.35 0.36 0.29 0.12 0.07 0.01 0.00 0.00 0.02 0.01 0.01 0.08 0.14 0.09 0.08 0.07 0.06 0.02 0.01 0.00 0.00 0.00 0.00 0.00 0.00 0.00 0.00 0.00 0.00 0.00 0.01
0.16 0.17 0.14 0.14 0.16 0.16 0.13 0.11 0.10 0.09 0.09 0.13 0.15 0.18 0.23 0.22 0.27 0.19 0.01 0.00 0.02 0.04 0.04 0.02 0.01 0.10 0.17 0.09 0.18 0.06 0.00 0.00 0.00 0.00 0.00 0.00 0.06 0.02 0.00 0.00 0.00 0.00 0.03 0.04 0.05
0.18 0.17 0.17 0.22 0.21 0.15 0.15 0.13 0.11 0.12 0.14 0.15 0.15 0.20 0.29 0.23 0.12 0.03 0.01 0.05 0.12 0.30 0.10 0.06 0.04 0.09 0.17 0.12 0.10 0.02 0.00 0.00 0.00 0.00 0.00 0.03 0.08 0.00 0.00 0.00 0.00 0.00 0.00 0.03 0.07
0.20 0.21 0.24 0.24 0.20 0.22 0.23 0.21 0.18 0.19 0.20 0.22 0.23 0.30 0.50 0.38 0.08 0.13 0.06 0.07 0.26 0.59 0.39 0.22 0.09 0.14 0.12 0.08 0.01 0.00 0.00 0.00 0.00 0.00 0.01 0.03 0.01 0.03 0.01 0.00 0.00 0.00 0.00 0.00 0.01
0.24 0.22 0.20 0.17 0.18 0.17 0.20 0.24 0.26 0.27 0.30 0.42 0.46 0.62 0.63 0.34 0.06 0.10 0.09 0.05 0.16 0.54 0.41 0.28 0.14 0.10 0.06 0.03 0.08 0.03 0.00 0.00 0.00 0.00 0.00 0.00 0.00 0.00 0.00 0.00 0.00 0.00 0.03 0.00 0.01
0.20 0.20 0.16 0.15 0.16 0.18 0.21 0.22 0.27 0.36 0.42 0.40 0.68 0.89 0.53 0.17 0.00 0.00 0.03 0.10 0.09 0.29 0.41 0.44 0.19 0.07 0.05 0.04 0.06 0.03 0.02 0.00 0.01 0.00 0.00 0.00 0.00 0.00 0.00 0.00 0.00 0.00 0.01 0.02 0.01
0.25 0.20 0.17 0.18 0.21 0.20 0.25 0.27 0.33 0.47 0.53 0.55 0.87 1.04 0.49 0.06 0.01 0.01 0.05 0.09 0.15 0.22 0.31 0.27 0.39 0.28 0.07 0.08 0.01 0.04 0.06 0.08 0.03 0.00 0.00 0.00 0.00 0.00 0.00 0.00 0.00 0.00 0.01 0.00 0.01
0.29 0.27 0.23 0.28 0.28 0.27 0.29 0.32 0.42 0.52 0.57 0.74 1.25 1.37 0.31 0.01 0.02 0.01 0.03 0.11 0.15 0.35 0.58 0.79 0.76 0.54 0.17 0.11 0.07 0.14 0.18 0.14 0.05 0.00 0.00 0.00 0.00 0.00 0.00 0.00 0.00 0.00 0.00 0.00 0.00
0.31 0.32 0.40 0.51 0.38 0.35 0.35 0.41 0.57 0.84 0.89 1.16 1.49 1.04 0.21 0.06 0.06 0.01 0.03 0.12 0.20 0.37 0.66 1.22 1.38 1.02 0.44 0.26 0.30 0.23 0.12 0.03 0.01 0.00 0.00 0.00 0.00 0.00 0.00 0.00 0.00 0.00 0.00 0.00 0.00
0.41 0.45 0.62 0.72 0.59 0.49 0.61 0.85 1.00 1.43 1.11 1.34 1.28 0.96 0.16 0.04 0.05 0.06 0.08 0.17 0.26 0.62 1.07 1.60 1.69 1.37 0.74 0.39 0.23 0.05 0.02 0.01 0.00 0.00 0.00 0.00 0.00 0.00 0.00 0.00 0.00 0.00 0.00 0.00 0.00
0.49 0.49 0.54 0.66 0.75 0.87 1.26 1.59 1.48 1.55 1.18 0.76 0.69 0.23 0.11 0.08 0.17 0.22 0.16 0.26 0.46 1.19 1.05 1.55 2.29 1.61 0.56 0.16 0.03 0.02 0.02 0.02 0.00 0.00 0.00 0.00 0.00 0.00 0.00 0.00 0.00 0.00 0.00 0.00 0.00
0.47 0.56 0.67 0.72 0.98 1.41 1.99 1.54 0.91 0.80 0.85 0.59 0.39 0.15 0.30 0.34 0.41 0.65 0.33 0.40 0.55 1.03 0.87 1.63 1.77 0.81 0.41 0.26 0.15 0.04 0.06 0.02 0.01 0.00 0.01 0.00 0.00 0.00 0.00 0.00 0.00 0.00 0.00 0.00 0.00
0.53 0.62 0.84 1.16 1.26 1.64 1.54 1.43 1.04 1.04 1.72 0.85 0.49 0.49 0.47 0.75 0.53 1.04 0.52 0.51 0.40 1.04 0.85 1.14 0.94 0.86 0.88 0.72 0.42 0.17 0.05 0.03 0.01 0.01 0.01 0.01 0.00 0.00 0.00 0.00 0.00 0.00 0.00 0.00 0.00
0.66 0.83 1.05 1.42 1.87 1.61 1.80 1.73 1.39 1.94 2.53 1.00 0.93 1.00 0.91 1.30 0.85 0.82 0.65 0.67 0.67 1.17 0.73 1.02 0.80 0.86 1.19 1.09 0.59 0.40 0.07 0.04 0.06 0.06 0.03 0.03 0.03 0.00 0.00 0.00 0.00 0.00 0.00 0.00 0.00
0.70 0.84 1.24 2.00 2.65 2.18 2.05 2.09 2.09 2.53 2.23 1.11 1.16 1.25 1.29 1.33 1.10 0.97 0.82 0.98 1.00 1.31 1.02 1.14 0.82 0.62 0.92 0.74 0.68 0.43 0.13 0.05 0.13 0.20 0.12 0.05 0.08 0.01 0.00 0.00 0.00 0.00 0.00 0.00 0.00
0.66 0.88 1.37 2.33 2.52 1.89 1.86 2.23 3.02 2.79 2.01 1.54 1.47 1.90 1.47 1.28 1.13 1.43 1.09 1.20 1.44 1.52 1.14 0.66 0.68 0.78 0.47 0.44 0.69 0.42 0.33 0.31 0.28 0.44 0.69 0.07 0.06 0.02 0.00 0.00 0.00 0.00 0.00 0.00 0.00
0.80 0.91 1.32 1.65 1.98 1.79 2.23 2.88 2.89 1.81 1.35 1.46 1.41 1.52 1.47 1.22 1.13 1.14 1.28 1.57 2.09 1.60 1.55 1.19 1.10 0.94 0.68 0.75 0.87 0.84 1.02 1.27 1.09 0.78 0.42 0.10 0.05 0.05 0.00 0.00 0.00 0.00 0.00 0.00 0.00
0.95 1.11 1.27 1.11 1.89 2.18 2.60 2.87 1.73 0.87 1.28 1.41 1.26 1.39 1.37 0.98 1.20 0.94 1.33 1.36 1.08 0.53 0.93 1.06 1.21 1.07 0.75 0.78 0.91 0.76 0.95 0.96 0.61 0.27 0.06 0.04 0.12 0.01 0.00 0.00 0.00 0.00 0.00 0.00 0.00
1.28 1.40 1.79 1.41 1.90 2.58 2.58 2.28 1.02 1.18 1.39 1.84 1.70 1.82 1.28 0.70 0.85 1.07 1.24 0.69 0.57 0.40 0.68 0.48 0.85 0.77 0.46 0.60 0.55 0.69 0.65 0.56 0.44 0.24 0.24 0.04 0.01 0.00 0.00 0.00 0.00 0.00 0.00 0.00 0.00
1.14 1.82 2.02 1.31 1.93 2.99 2.89 1.62 1.14 1.33 1.59 1.29 1.31 0.75 0.60 0.43 0.50 0.48 0.59 0.23 0.12 0.08 0.23 0.25 0.79 0.84 0.70 1.00 0.71 0.47 0.25 0.43 1.09 0.64 0.30 0.07 0.00 0.00 0.00 0.00 0.00 0.00 0.00 0.00 0.00
1.12 1.73 1.75 1.57 2.67 3.68 2.65 1.62 1.33 1.04 1.09 0.74 0.21 0.15 0.06 0.10 0.16 0.17 0.23 0.12 0.04 0.03 0.16 0.40 0.75 0.88 1.13 1.10 0.66 0.60 0.74 0.46 0.48 0.34 0.29 0.19 0.01 0.00 0.00 0.00 0.00 0.00 0.00 0.00 0.00
1.21 1.70 1.56 2.17 3.32 2.66 1.73 1.41 1.47 0.93 0.62 0.50 0.21 0.09 0.06 0.06 0.12 0.13 0.09 0.03 0.01 0.01 0.12 0.36 0.75 0.90 0.72 0.27 0.22 0.34 0.32 0.30 0.78 0.44 0.40 0.36 0.10 0.00 0.01 0.01 0.00 0.01 0.02 0.01 0.00
1.30 1.53 2.20 1.62 1.66 1.19 1.11 1.18 1.22 0.69 0.53 0.54 0.21 0.10 0.03 0.04 0.13 0.07 0.04 0.00 0.00 0.01 0.09 0.43 0.90 0.85 0.65 0.55 0.59 0.79 0.42 0.35 0.59 0.97 0.67 0.42 0.14 0.00 0.00 0.00 0.00 0.01 0.03 0.02 0.01
1.48 1.95 2.72 2.49 0.83 0.74 1.21 1.40 1.06 0.58 0.46 0.53 0.27 0.16 0.10 0.05 0.04 0.04 0.03 0.00 0.00 0.00 0.03 0.41 0.88 0.93 0.75 0.43 0.57 0.82 0.45 0.57 1.13 1.09 0.36 0.29 0.04 0.01 0.01 0.02 0.01 0.00 0.02 0.04 0.01
1.32 1.19 0.84 0.79 0.64 0.36 0.79 1.01 0.82 0.81 0.51 0.65 0.47 0.13 0.08 0.08 0.03 0.02 0.01 0.01 0.00 0.00 0.06 0.43 0.90 0.88 0.49 0.28 0.42 0.57 0.56 0.49 0.94 0.52 0.52 0.16 0.07 0.03 0.03 0.02 0.02 0.01 0.01 0.04 0.05
0.86 1.10 0.42 0.15 0.19 0.24 0.62 0.80 0.64 0.60 0.56 0.39 0.27 0.09 0.08 0.05 0.01 0.00 0.00 0.01 0.01 0.02 0.11 0.33 0.71 0.75 0.61 0.24 0.38 0.48 0.55 0.36 0.56 0.27 0.26 0.17 0.13 0.01 0.01 0.01 0.00 0.01 0.04 0.07 0.07
0.70 0.79 0.51 0.26 0.16 0.38 0.36 0.49 0.63 0.59 0.32 0.12 0.14 0.18 0.12 0.02 0.01 0.01 0.00 0.00 0.01 0.06 0.16 0.28 0.51 0.73 0.64 0.48 0.28 0.47 0.58 0.68 0.48 0.20 0.25 0.28 0.15 0.01 0.01 0.04 0.06 0.05 0.06 0.04 0.03

GFSSW_prec_precacc_081.txt.gz
Total_Precipitation_Accumulation
0.12 0.20 0.20 0.14 0.13 0.12 0.10 0.08 0.09 0.10 0.16 0.19 0.24 0.28 0.36 0.37 0.32 0.15 0.08 0.01 0.00 0.00 0.02 0.01 0.01 0.08 0.14 0.10 0.11 0.08 0.09 0.02 0.01 0.00 0.00 0.00 0.00 0.00 0.00 0.00 0.00 0.00 0.00 0.01 0.01
0.17 0.20 0.16 0.15 0.16 0.16 0.14 0.12 0.11 0.10 0.10 0.13 0.16 0.19 0.24 0.23 0.28 0.20 0.01 0.01 0.03 0.05 0.04 0.02 0.01 0.10 0.17 0.09 0.21 0.08 0.01 0.00 0.00 0.00 0.00 0.00 0.06 0.02 0.00 0.00 0.00 0.02 0.09 0.10 0.06
0.18 0.18 0.18 0.23 0.21 0.16 0.16 0.15 0.15 0.16 0.16 0.16 0.16 0.22 0.31 0.24 0.12 0.03 0.02 0.05 0.13 0.32 0.10 0.06 0.05 0.10 0.17 0.12 0.11 0.03 0.00 0.00 0.00 0.00 0.00 0.04 0.09 0.02 0.01 0.00 0.00 0.01 0.07 0.10 0.10
0.20 0.22 0.25 0.24 0.21 0.23 0.25 0.25 0.23 0.29 0.32 0.26 0.28 0.33 0.50 0.38 0.08 0.16 0.10 0.09 0.31 0.62 0.39 0.22 0.09 0.16 0.12 0.09 0.02 0.01 0.00 0.00 0.00 0.00 0.02 0.03 0.01 0.04 0.02 0.00 0.00 0.01 0.08 0.12 0.07
0.24 0.23 0.20 0.18 0.19 0.19 0.22 0.28 0.30 0.35 0.45 0.50 0.57 0.65 0.63 0.34 0.06 0.12 0.11 0.05 0.16 0.55 0.41 0.28 0.14 0.13 0.07 0.03 0.09 0.04 0.01 0.00 0.00 0.00 0.00 0.00 0.00 0.01 0.02 0.00 0.00 0.00 0.07 0.09 0.09
0.21 0.21 0.17 0.16 0.17 0.19 0.23 0.23 0.29 0.41 0.53 0.48 0.78 0.90 0.53 0.17 0.00 0.00 0.03 0.11 0.09 0.31 0.45 0.44 0.20 0.09 0.06 0.04 0.07 0.05 0.03 0.01 0.01 0.00 0.00 0.00 0.00 0.00 0.01 0.09 0.00 0.00 0.03 0.06 0.04
0.26 0.20 0.18 0.18 0.22 0.21 0.25 0.28 0.34 0.51 0.60 0.66 0.94 1.04 0.49 0.06 0.01 0.01 0.05 0.09 0.15 0.24 0.38 0.30 0.40 0.32 0.09 0.08 0.01 0.05 0.08 0.10 0.03 0.00 0.00 0.00 0.00 0.00 0.00 0.07 0.02 0.00 0.02 0.04 0.06
0.30 0.28 0.23 0.28 0.29 0.28 0.29 0.32 0.42 0.54 0.62 0.78 1.27 1.37 0.31 0.01 0.02 0.01 0.03 0.11 0.15 0.38 0.67 0.80 0.77 0.56 0.22 0.11 0.07 0.15 0.18 0.15 0.05 0.00 0.00 0.00 0.00 0.00 0.00 0.02 0.04 0.00 0.00 0.01 0.04
0.31 0.32 0.41 0.52 0.39 0.35 0.35 0.41 0.58 0.86 0.91 1.17 1.49 1.04 0.21 0.06 0.06 0.01 0.03 0.12 0.20 0.44 0.73 1.22 1.40 1.07 0.50 0.28 0.30 0.23 0.12 0.03 0.01 0.00 0.00 0.00 0.00 0.00 0.00 0.00 0.00 0.00 0.00 0.00 0.01
0.41 0.46 0.63 0.73 0.59 0.49 0.61 0.85 1.00 1.43 1.11 1.34 1.28 0.96 0.16 0.04 0.05 0.06 0.08 0.17 0.27 0.66 1.22 1.60 1.74 1.46 0.90 0.40 0.23 0.05 0.02 0.01 0.00 0.00 0.00 0.00 0.00 0.00 0.00 0.00 0.00 0.00 0.00 0.00 0.00
0.50 0.50 0.55 0.66 0.75 0.87 1.26 1.59 1.48 1.55 1.18 0.76 0.69 0.23 0.11 0.08 0.17 0.22 0.16 0.26 0.46 1.20 1.25 1.58 2.36 1.78 0.75 0.17 0.03 0.02 0.02 0.02 0.00 0.00 0.00 0.00 0.00 0.00 0.00 0.00 0.00 0.00 0.00 0.00 0.00
0.47 0.56 0.68 0.73 0.98 1.41 1.99 1.54 0.91 0.80 0.85 0.59 0.39 0.15 0.30 0.34 0.41 0.65 0.33 0.40 0.55 1.04 1.01 1.67 1.80 0.95 0.47 0.27 0.15 0.04 0.06 0.02 0.01 0.00 0.01 0.00 0.00 0.00 0.00 0.00 0.00 0.00 0.00 0.00 0.00
0.54 0.62 0.85 1.16 1.26 1.64 1.54 1.43 1.04 1.04 1.72 0.85 0.49 0.49 0.47 0.75 0.53 1.04 0.52 0.51 0.40 1.04 0.90 1.15 0.94 1.00 1.04 0.74 0.42 0.17 0.05 0.03 0.01 0.01 0.01 0.01 0.00 0.00 0.00 0.00 0.00 0.00 0.00 0.00 0.00
0.66 0.83 1.05 1.42 1.87 1.61 1.80 1.73 1.39 1.94 2.53 1.02 0.93 1.00 0.91 1.30 0.85 0.82 0.65 0.67 0.67 1.17 0.74 1.02 0.81 0.96 1.39 1.12 0.59 0.41 0.07 0.04 0.06 0.06 0.03 0.03 0.03 0.00 0.00 0.00 0.00 0.00 0.00 0.00 0.00
0.70 0.84 1.24 2.00 2.65 2.18 2.05 2.09 2.09 2.53 2.24 1.18 1.18 1.25 1.29 1.33 1.10 0.97 0.82 0.98 1.00 1.31 1.02 1.14 0.82 0.64 1.07 0.79 0.68 0.43 0.14 0.05 0.13 0.20 0.12 0.05 0.08 0.01 0.00 0.00 0.00 0.00 0.00 0.00 0.00
0.66 0.88 1.37 2.33 2.52 1.89 1.86 2.23 3.02 2.79 2.01 1.58 1.54 1.93 1.47 1.28 1.13 1.43 1.09 1.20 1.44 1.52 1.14 0.67 0.68 0.81 0.53 0.50 0.70 0.44 0.34 0.32 0.29 0.45 0.69 0.07 0.06 0.02 0.00 0.00 0.00 0.00 0.00 0.00 0.00
0.80 0.91 1.32 1.65 1.98 1.79 2.23 2.88 2.89 1.81 1.37 1.52 1.46 1.58 1.56 1.24 1.13 1.14 1.28 1.57 2.09 1.60 1.56 1.23 1.14 1.00 0.76 0.91 0.91 0.86 1.03 1.33 1.15 0.84 0.43 0.10 0.05 0.05 0.00 0.00 0.00 0.00 0.00 0.00 0.00
0.95 1.11 1.27 1.11 1.89 2.18 2.60 2.87 1.73 0.87 1.29 1.43 1.29 1.41 1.41 1.06 1.26 0.96 1.33 1.36 1.08 0.54 0.97 1.09 1.32 1.20 0.95 0.90 0.94 0.76 0.96 0.98 0.61 0.28 0.06 0.04 0.12 0.01 0.00 0.00 0.00 0.00 0.00 0.00 0.00
1.28 1.40 1.79 1.41 1.90 2.58 2.58 2.28 1.02 1.18 1.39 1.84 1.72 1.88 1.31 0.74 0.93 1.15 1.27 0.70 0.59 0.41 0.74 0.50 0.90 0.86 0.64 0.64 0.55 0.69 0.65 0.56 0.44 0.24 0.24 0.04 0.01 0.00 0.00 0.00 0.00 0.00 0.00 0.00 0.00
1.14 1.82 2.02 1.31 1.93 2.99 2.89 1.62 1.14 1.33 1.59 1.29 1.31 0.75 0.62 0.46 0.59 0.59 0.77 0.33 0.26 0.13 0.24 0.25 0.82 0.86 0.77 1.01 0.72 0.47 0.25 0.43 1.09 0.64 0.30 0.07 0.00 0.00 0.00 0.00 0.00 0.00 0.00 0.00 0.00
1.12 1.73 1.75 1.57 2.67 3.68 2.65 1.62 1.33 1.04 1.09 0.74 0.21 0.15 0.06 0.10 0.17 0.19 0.25 0.16 0.06 0.06 0.16 0.40 0.75 0.90 1.14 1.11 0.67 0.60 0.74 0.46 0.48 0.34 0.29 0.19 0.01 0.00 0.00 0.00 0.00 0.00 0.00 0.00 0.00
1.21 1.70 1.56 2.17 3.32 2.66 1.73 1.41 1.47 0.93 0.62 0.50 0.21 0.09 0.06 0.06 0.12 0.14 0.10 0.04 0.01 0.01 0.12 0.36 0.75 0.90 0.73 0.27 0.22 0.34 0.32 0.30 0.78 0.44 0.40 0.36 0.10 0.00 0.01 0.01 0.00 0.01 0.02 0.01 0.00
1.30 1.53 2.20 1.62 1.66 1.19 1.11 1.18 1.22 0.69 0.53 0.54 0.21 0.10 0.03 0.04 0.13 0.07 0.04 0.00 0.00 0.01 0.09 0.43 0.90 0.86 0.66 0.56 0.59 0.79 0.42 0.35 0.59 0.97 0.67 0.42 0.14 0.00 0.00 0.00 0.00 0.01 0.03 0.02 0.01
1.48 1.95 2.72 2.49 0.83 0.74 1.21 1.40 1.06 0.58 0.46 0.53 0.27 0.16 0.10 0.05 0.04 0.04 0.03 0.01 0.00 0.00 0.03 0.41 0.88 0.93 0.75 0.44 0.58 0.82 0.45 0.57 1.13 1.09 0.36 0.29 0.04 0.01 0.01 0.02 0.01 0.00 0.02 0.04 0.01
1.32 1.19 0.84 0.79 0.64 0.36 0.79 1.01 0.82 0.81 0.51 0.65 0.47 0.13 0.08 0.08 0.03 0.02 0.01 0.01 0.00 0.00 0.06 0.43 0.90 0.88 0.49 0.28 0.42 0.57 0.56 0.49 0.94 0.52 0.52 0.16 0.07 0.03 0.03 0.02 0.02 0.01 0.01 0.04 0.05
0.86 1.10 0.42 0.15 0.19 0.24 0.62 0.80 0.64 0.60 0.56 0.39 0.27 0.09 0.08 0.05 0.01 0.00 0.00 0.01 0.01 0.02 0.11 0.33 0.71 0.75 0.61 0.24 0.38 0.48 0.55 0.36 0.56 0.27 0.26 0.17 0.13 0.01 0.01 0.01 0.00 0.01 0.04 0.07 0.07
0.70 0.79 0.51 0.26 0.16 0.38 0.36 0.49 0.63 0.60 0.34 0.14 0.15 0.18 0.12 0.02 0.01 0.01 0.00 0.00 0.01 0.06 0.16 0.28 0.51 0.73 0.64 0.48 0.28 0.47 0.58 0.68 0.48 0.20 0.25 0.28 0.15 0.01 0.01 0.04 0.06 0.05 0.06 0.04 0.03

GFSSW_prec_precacc_084.txt.gz
Total_Precipitation_Accumulation
0.12 0.21 0.21 0.15 0.14 0.13 0.11 0.09 0.10 0.12 0.16 0.20 0.24 0.29 0.38 0.38 0.32 0.17 0.09 0.01 0.00 0.00 0.02 0.01 0.01 0.08 0.14 0.10 0.13 0.09 0.10 0.02 0.01 0.00 0.00 0.00 0.00 0.00 0.00 0.00 0.00 0.00 0.00 0.02 0.03
0.17 0.20 0.17 0.16 0.17 0.16 0.14 0.13 0.13 0.13 0.12 0.15 0.19 0.22 0.26 0.24 0.28 0.20 0.01 0.01 0.05 0.08 0.05 0.03 0.01 0.10 0.17 0.09 0.23 0.11 0.01 0.00 0.00 0.00 0.00 0.00 0.06 0.02 0.00 0.00 0.00 0.02 0.10 0.12 0.10
0.19 0.18 0.19 0.24 0.22 0.17 0.18 0.17 0.17 0.21 0.26 0.29 0.26 0.30 0.35 0.25 0.12 0.03 0.04 0.05 0.15 0.35 0.11 0.06 0.06 0.12 0.17 0.13 0.12 0.04 0.00 0.00 0.00 0.00 0.00 0.04 0.09 0.02 0.01 0.00 0.00 0.01 0.08 0.16 0.25
0.21 0.23 0.26 0.25 0.22 0.24 0.27 0.26 0.25 0.31 0.38 0.39 0.41 0.41 0.53 0.38 0.08 0.18 0.18 0.11 0.39 0.76 0.43 0.24 0.12 0.19 0.13 0.09 0.02 0.03 0.01 0.00 0.00 0.00 0.02 0.03 0.01 0.04 0.02 0.00 0.00 0.01 0.08 0.12 0.14
0.25 0.24 0.21 0.18 0.19 0.20 0.23 0.28 0.31 0.35 0.47 0.56 0.63 0.70 0.64 0.34 0.06 0.13 0.13 0.06 0.17 0.57 0.47 0.29 0.17 0.16 0.08 0.03 0.09 0.05 0.02 0.00 0.00 0.00 0.00 0.00 0.00 0.01 0.02 0.00 0.00 0.00 0.07 0.09 0.11
0.21 0.22 0.17 0.16 0.18 0.20 0.23 0.23 0.30 0.42 0.53 0.49 0.86 0.94 0.53 0.17 0.00 0.00 0.03 0.13 0.09 0.32 0.51 0.48 0.20 0.10 0.08 0.04 0.07 0.05 0.04 0.02 0.01 0.00 0.00 0.00 0.00 0.00 0.01 0.10 0.01 0.00 0.03 0.06 0.06
0.26 0.21 0.18 0.19 0.23 0.23 0.25 0.28 0.34 0.51 0.60 0.66 0.94 1.05 0.49 0.06 0.01 0.01 0.05 0.09 0.15 0.24 0.41 0.34 0.46 0.39 0.15 0.08 0.01 0.06 0.09 0.13 0.04 0.00 0.00 0.00 0.00 0.00 0.00 0.08 0.04 0.00 0.02 0.05 0.08
0.30 0.28 0.24 0.29 0.30 0.28 0.29 0.32 0.42 0.54 0.62 0.78 1.28 1.37 0.31 0.01 0.02 0.01 0.03 0.11 0.15 0.38 0.72 0.87 0.78 0.63 0.28 0.14 0.07 0.16 0.20 0.16 0.06 0.00 0.00 0.00 0.00 0.00 0.00 0.03 0.08 0.01 0.00 0.01 0.04
0.32 0.33 0.41 0.53 0.40 0.36 0.35 0.41 0.58 0.86 0.91 1.17 1.50 1.04 0.21 0.06 0.06 0.01 0.03 0.12 0.20 0.44 0.81 1.29 1.41 1.14 0.59 0.33 0.31 0.24 0.13 0.04 0.02 0.00 0.00 0.00 0.00 0.00 0.00 0.00 0.04 0.05 0.00 0.00 0.01
0.42 0.46 0.63 0.74 0.60 0.49 0.61 0.85 1.00 1.43 1.11 1.34 1.28 0.96 0.16 0.04 0.05 0.06 0.08 0.17 0.28 0.66 1.31 1.70 1.76 1.48 1.05 0.46 0.23 0.05 0.03 0.01 0.00 0.00 0.00 0.00 0.00 0.00 0.00 0.00 0.00 0.04 0.02 0.00 0.00
0.50 0.50 0.55 0.67 0.76 0.87 1.26 1.59 1.48 1.55 1.18 0.76 0.69 0.23 0.11 0.08 0.17 0.22 0.16 0.26 0.46 1.20 1.39 1.80 2.39 1.80 0.85 0.25 0.04 0.02 0.02 0.02 0.00 0.00 0.00 0.00 0.00 0.00 0.00 0.00 0.00 0.01 0.03 0.01 0.00
0.48 0.57 0.68 0.73 0.98 1.41 1.99 1.54 0.91 0.80 0.85 0.59 0.39 0.15 0.30 0.34 0.41 0.65 0.33 0.40 0.55 1.04 1.07 1.84 1.81 0.95 0.52 0.37 0.16 0.04 0.06 0.02 0.01 0.00 0.01 0.00 0.00 0.00 0.00 0.00 0.00 0.00 0.00 0.00 0.00
0.54 0.63 0.85 1.17 1.26 1.64 1.54 1.43 1.04 1.04 1.72 0.85 0.49 0.49 0.47 0.75 0.53 1.04 0.52 0.51 0.40 1.05 0.92 1.22 0.94 1.00 1.16 0.92 0.45 0.17 0.05 0.03 0.01 0.01 0.01 0.01 0.00 0.00 0.00 0.00 0.00 0.00 0.00 0.00 0.00
0.67 0.84 1.05 1.42 1.87 1.61 1.80 1.73 1.39 1.94 2.53 1.03 0.94 1.00 0.91 1.30 0.85 0.83 0.65 0.67 0.67 1.17 0.74 1.04 0.81 1.01 1.63 1.35 0.62 0.41 0.07 0.04 0.06 0.06 0.03 0.03 0.03 0.00 0.00 0.00 0.00 0.00 0.00 0.00 0.00
0.70 0.84 1.24 2.00 2.65 2.18 2.05 2.09 2.09 2.53 2.24 1.19 1.19 1.25 1.29 1.33 1.10 0.97 0.82 0.98 1.00 1.31 1.02 1.15 0.82 0.67 1.30 1.00 0.71 0.43 0.14 0.05 0.13 0.20 0.12 0.05 0.08 0.01 0.00 0.00 0.00 0.00 0.00 0.00 0.00
0.66 0.88 1.37 2.33 2.52 1.89 1.86 2.23 3.02 2.79 2.01 1.58 1.56 1.94 1.47 1.28 1.13 1.44 1.09 1.20 1.44 1.53 1.14 0.69 0.69 0.83 0.64 0.71 0.71 0.45 0.35 0.32 0.29 0.45 0.69 0.07 0.06 0.02 0.00 0.00 0.00 0.00 0.00 0.00 0.00
0.80 0.91 1.32 1.65 1.98 1.79 2.23 2.88 2.89 1.81 1.37 1.53 1.49 1.59 1.56 1.25 1.13 1.14 1.28 1.57 2.09 1.60 1.56 1.25 1.19 1.02 0.80 1.07 0.98 0.90 1.04 1.37 1.17 0.85 0.43 0.10 0.05 0.05 0.00 0.00 0.00 0.00 0.00 0.00 0.00
0.95 1.11 1.27 1.11 1.89 2.18 2.60 2.87 1.73 0.87 1.29 1.43 1.31 1.44 1.45 1.06 1.26 0.97 1.33 1.36 1.08 0.54 0.97 1.11 1.43 1.22 0.96 1.00 1.07 0.80 0.96 0.98 0.61 0.28 0.06 0.04 0.12 0.01 0.00 0.00 0.00 0.00 0.00 0.00 0.00
1.28 1.40 1.79 1.41 1.90 2.58 2.58 2.28 1.02 1.18 1.39 1.84 1.72 1.90 1.37 0.79 0.96 1.16 1.27 0.70 0.59 0.41 0.75 0.50 0.97 0.88 0.71 0.69 0.62 0.70 0.66 0.56 0.44 0.24 0.24 0.04 0.01 0.00 0.00 0.00 0.00 0.00 0.00 0.00 0.00
1.14 1.82 2.02 1.31 1.93 2.99 2.89 1.62 1.14 1.33 1.59 1.29 1.31 0.75 0.63 0.52 0.66 0.64 0.80 0.35 0.26 0.13 0.25 0.25 0.88 0.92 0.93 1.13 0.85 0.48 0.25 0.43 1.09 0.64 0.30 0.07 0.00 0.00 0.00 0.00 0.00 0.00 0.00 0.00 0.00
1.12 1.73 1.75 1.57 2.67 3.68 2.65 1.62 1.33 1.04 1.09 0.74 0.21 0.15 0.06 0.11 0.23 0.22 0.30 0.24 0.10 0.06 0.16 0.40 0.76 0.96 1.23 1.23 0.76 0.61 0.74 0.46 0.48 0.34 0.29 0.19 0.01 0.00 0.00 0.00 0.00 0.00 0.00 0.00 0.00
1.21 1.70 1.56 2.17 3.32 2.66 1.73 1.41 1.47 0.93 0.62 0.50 0.21 0.09 0.06 0.06 0.12 0.16 0.14 0.05 0.04 0.03 0.12 0.36 0.75 0.91 0.74 0.28 0.23 0.34 0.32 0.30 0.78 0.44 0.40 0.36 0.10 0.00 0.01 0.01 0.00 0.01 0.02 0.01 0.00
1.30 1.53 2.20 1.62 1.66 1.19 1.11 1.18 1.22 0.69 0.53 0.55 0.22 0.10 0.03 0.04 0.13 0.07 0.04 0.00 0.00 0.01 0.09 0.43 0.90 0.86 0.67 0.56 0.59 0.79 0.42 0.35 0.59 0.97 0.67 0.42 0.14 0.00 0.00 0.00 0.00 0.01 0.03 0.02 0.01
1.48 1.95 2.72 2.49 0.83 0.74 1.21 1.40 1.06 0.58 0.46 0.53 0.28 0.16 0.10 0.05 0.04 0.04 0.06 0.03 0.00 0.00 0.03 0.41 0.88 0.93 0.75 0.44 0.58 0.82 0.45 0.57 1.13 1.09 0.36 0.29 0.04 0.01 0.01 0.02 0.01 0.00 0.02 0.04 0.01
1.32 1.19 0.84 0.79 0.64 0.36 0.79 1.01 0.82 0.81 0.52 0.66 0.49 0.15 0.08 0.08 0.03 0.02 0.01 0.02 0.01 0.00 0.06 0.43 0.90 0.88 0.49 0.28 0.42 0.57 0.56 0.49 0.94 0.52 0.52 0.16 0.07 0.03 0.03 0.02 0.02 0.01 0.01 0.04 0.05
0.86 1.10 0.42 0.15 0.19 0.24 0.62 0.80 0.64 0.61 0.57 0.41 0.31 0.15 0.09 0.06 0.01 0.00 0.00 0.01 0.01 0.02 0.11 0.33 0.71 0.75 0.61 0.24 0.38 0.48 0.55 0.36 0.56 0.27 0.26 0.17 0.13 0.01 0.01 0.01 0.00 0.01 0.04 0.07 0.07
0.70 0.79 0.51 0.26 0.16 0.38 0.36 0.49 0.63 0.60 0.34 0.16 0.22 0.31 0.14 0.02 0.01 0.01 0.00 0.00 0.01 0.06 0.16 0.28 0.51 0.73 0.64 0.48 0.28 0.47 0.58 0.68 0.48 0.20 0.25 0.28 0.15 0.01 0.01 0.04 0.06 0.05 0.06 0.04 0.03

GFSSW_prec_precacc_087.txt.gz
Total_Precipitation_Accumulation
0.12 0.21 0.22 0.16 0.15 0.13 0.11 0.09 0.11 0.14 0.18 0.22 0.28 0.33 0.40 0.41 0.32 0.17 0.09 0.01 0.01 0.01 0.02 0.01 0.01 0.08 0.14 0.10 0.13 0.10 0.12 0.03 0.01 0.00 0.00 0.00 0.00 0.00 0.00 0.00 0.00 0.00 0.00 0.02 0.03
0.17 0.20 0.18 0.17 0.18 0.17 0.15 0.14 0.15 0.14 0.13 0.18 0.28 0.33 0.33 0.27 0.28 0.20 0.01 0.01 0.07 0.11 0.08 0.04 0.04 0.11 0.18 0.09 0.23 0.12 0.01 0.00 0.00 0.00 0.00 0.00 0.06 0.02 0.00 0.00 0.00 0.02 0.10 0.13 0.13
0.19 0.19 0.20 0.24 0.22 0.17 0.19 0.18 0.18 0.21 0.26 0.31 0.31 0.36 0.38 0.25 0.12 0.03 0.07 0.06 0.16 0.40 0.14 0.08 0.08 0.14 0.19 0.13 0.13 0.05 0.01 0.00 0.00 0.00 0.00 0.04 0.09 0.02 0.01 0.00 0.00 0.01 0.08 0.16 0.29
0.21 0.23 0.27 0.25 0.22 0.25 0.28 0.27 0.25 0.32 0.39 0.40 0.43 0.42 0.55 0.38 0.08 0.18 0.28 0.13 0.40 0.87 0.53 0.29 0.19 0.25 0.16 0.10 0.02 0.03 0.01 0.00 0.00 0.00 0.02 0.03 0.01 0.04 0.02 0.00 0.00 0.01 0.08 0.12 0.15
0.25 0.24 0.22 0.19 0.21 0.20 0.24 0.29 0.31 0.36 0.47 0.56 0.64 0.71 0.64 0.34 0.06 0.13 0.14 0.06 0.17 0.58 0.54 0.32 0.20 0.24 0.11 0.03 0.10 0.06 0.03 0.01 0.00 0.00 0.00 0.00 0.00 0.01 0.02 0.00 0.00 0.00 0.07 0.09 0.11
0.21 0.22 0.18 0.17 0.19 0.21 0.23 0.23 0.30 0.42 0.53 0.49 0.86 0.94 0.53 0.17 0.00 0.00 0.03 0.13 0.09 0.33 0.57 0.59 0.23 0.13 0.14 0.04 0.08 0.05 0.05 0.03 0.02 0.00 0.00 0.00 0.00 0.00 0.01 0.10 0.01 0.00 0.03 0.06 0.06
0.26 0.22 0.19 0.20 0.24 0.23 0.25 0.28 0.34 0.51 0.61 0.66 0.95 1.05 0.49 0.06 0.01 0.01 0.05 0.09 0.16 0.24 0.44 0.47 0.49 0.47 0.28 0.13 0.01 0.07 0.09 0.15 0.04 0.00 0.00 0.00 0.00 0.00 0.00 0.08 0.04 0.00 0.02 0.05 0.08
0.31 0.29 0.24 0.30 0.31 0.29 0.29 0.32 0.42 0.54 0.62 0.78 1.28 1.37 0.31 0.01 0.02 0.01 0.03 0.11 0.15 0.38 0.72 0.93 0.82 0.65 0.46 0.20 0.08 0.19 0.21 0.17 0.07 0.00 0.00 0.00 0.00 0.00 0.00 0.03 0.08 0.01 0.00 0.01 0.04
0.33 0.34 0.42 0.54 0.40 0.36 0.35 0.41 0.58 0.86 0.91 1.17 1.50 1.04 0.21 0.06 0.06 0.01 0.03 0.12 0.20 0.44 0.81 1.31 1.42 1.16 0.69 0.47 0.31 0.25 0.13 0.04 0.02 0.01 0.00 0.00 0.00 0.00 0.00 0.00 0.04 0.05 0.00 0.00 0.01
0.42 0.47 0.64 0.75 0.60 0.49 0.61 0.85 1.00 1.43 1.11 1.34 1.28 0.96 0.16 0.04 0.05 0.06 0.08 0.17 0.28 0.66 1.32 1.74 1.82 1.53 1.19 0.71 0.25 0.06 0.03 0.01 0.00 0.00 0.00 0.00 0.00 0.00 0.00 0.00 0.00 0.04 0.02 0.00 0.00
0.51 0.51 0.56 0.68 0.76 0.87 1.26 1.59 1.48 1.55 1.18 0.76 0.69 0.23 0.11 0.08 0.17 0.22 0.16 0.26 0.46 1.20 1.40 1.99 2.57 1.87 0.98 0.40 0.06 0.02 0.02 0.02 0.00 0.00 0.01 0.00 0.00 0.00 0.00 0.00 0.00 0.01 0.03 0.01 0.00
0.48 0.57 0.69 0.74 0.98 1.41 1.99 1.54 0.91 0.80 0.85 0.59 0.39 0.15 0.30 0.34 0.41 0.65 0.33 0.40 0.55 1.04 1.08 1.96 1.87 0.95 0.54 0.43 0.24 0.04 0.06 0.02 0.01 0.00 0.02 0.00 0.00 0.00 0.00 0.00 0.00 0.00 0.00 0.00 0.00
0.55 0.63 0.86 1.17 1.26 1.64 1.54 1.43 1.04 1.04 1.72 0.85 0.49 0.49 0.47 0.75 0.53 1.04 0.52 0.51 0.40 1.05 0.93 1.28 0.97 1.01 1.20 0.96 0.59 0.17 0.05 0.03 0.01 0.01 0.01 0.01 0.00 0.00 0.00 0.00 0.00 0.00 0.00 0.00 0.00
0.68 0.84 1.05 1.42 1.87 1.61 1.80 1.73 1.39 1.94 2.53 1.03 0.94 1.00 0.91 1.30 0.85 0.83 0.65 0.67 0.67 1.18 0.74 1.08 0.83 1.02 1.65 1.43 0.78 0.42 0.07 0.04 0.06 0.06 0.03 0.03 0.03 0.00 0.00 0.00 0.00 0.00 0.00 0.00 0.00
0.71 0.85 1.24 2.00 2.65 2.18 2.05 2.09 2.09 2.53 2.24 1.19 1.19 1.25 1.29 1.33 1.10 0.97 0.82 0.98 1.00 1.31 1.03 1.17 0.82 0.68 1.31 1.07 0.96 0.46 0.14 0.05 0.13 0.20 0.12 0.05 0.08 0.01 0.00 0.00 0.00 0.00 0.00 0.00 0.00
0.67 0.88 1.37 2.33 2.52 1.89 1.86 2.23 3.02 2.79 2.01 1.58 1.56 1.94 1.47 1.28 1.13 1.44 1.09 1.20 1.44 1.53 1.14 0.69 0.69 0.83 0.65 0.85 1.01 0.49 0.35 0.33 0.29 0.45 0.69 0.07 0.06 0.02 0.00 0.00 0.00 0.00 0.00 0.00 0.00
0.80 0.91 1.32 1.65 1.98 1.79 2.23 2.88 2.89 1.81 1.37 1.53 1.49 1.60 1.58 1.25 1.13 1.14 1.28 1.57 2.09 1.60 1.56 1.26 1.19 1.03 0.83 1.35 1.28 0.96 1.05 1.39 1.18 0.85 0.43 0.10 0.05 0.05 0.00 0.00 0.00 0.00 0.00 0.00 0.00
0.95 1.11 1.27 1.11 1.89 2.18 2.60 2.87 1.73 0.87 1.29 1.43 1.31 1.45 1.49 1.09 1.27 0.97 1.33 1.36 1.08 0.54 0.97 1.12 1.49 1.25 0.99 1.28 1.38 0.85 0.96 0.98 0.61 0.28 0.06 0.04 0.12 0.01 0.00 0.00 0.00 0.00 0.00 0.00 0.00
1.28 1.40 1.79 1.41 1.90 2.58 2.58 2.28 1.02 1.18 1.39 1.84 1.73 1.91 1.39 0.85 1.01 1.17 1.27 0.70 0.59 0.41 0.75 0.51 1.01 0.90 0.73 0.79 0.84 0.82 0.67 0.56 0.44 0.24 0.24 0.04 0.01 0.00 0.00 0.00 0.00 0.00 0.00 0.00 0.00
1.14 1.82 2.02 1.31 1.93 2.99 2.89 1.62 1.14 1.33 1.59 1.29 1.31 0.76 0.64 0.57 0.75 0.68 0.80 0.35 0.26 0.13 0.25 0.25 0.92 0.94 0.95 1.15 0.93 0.56 0.26 0.43 1.09 0.64 0.30 0.07 0.00 0.00 0.00 0.00 0.00 0.00 0.00 0.00 0.00
1.12 1.73 1.75 1.57 2.67 3.68 2.65 1.62 1.33 1.04 1.09 0.75 0.22 0.16 0.06 0.12 0.30 0.31 0.34 0.26 0.10 0.06 0.16 0.40 0.79 1.01 1.25 1.25 0.81 0.62 0.75 0.46 0.48 0.34 0.29 0.19 0.01 0.00 0.00 0.00 0.00 0.00 0.00 0.00 0.00
1.21 1.70 1.56 2.17 3.32 2.66 1.73 1.41 1.47 0.93 0.63 0.51 0.22 0.09 0.06 0.06 0.13 0.23 0.27 0.10 0.05 0.03 0.12 0.36 0.75 0.94 0.75 0.28 0.25 0.34 0.32 0.30 0.78 0.44 0.40 0.36 0.10 0.00 0.01 0.01 0.00 0.01 0.02 0.01 0.00
1.30 1.53 2.20 1.62 1.66 1.19 1.11 1.18 1.22 0.70 0.54 0.57 0.24 0.12 0.04 0.04 0.14 0.08 0.11 0.01 0.01 0.01 0.09 0.43 0.90 0.87 0.69 0.57 0.61 0.82 0.42 0.35 0.59 0.97 0.67 0.42 0.14 0.00 0.00 0.00 0.00 0.01 0.03 0.02 0.01
1.48 1.95 2.72 2.49 0.83 0.74 1.21 1.40 1.07 0.59 0.47 0.58 0.31 0.19 0.11 0.05 0.04 0.04 0.28 0.04 0.01 0.04 0.04 0.41 0.88 0.93 0.76 0.44 0.58 0.82 0.45 0.57 1.13 1.09 0.36 0.29 0.04 0.01 0.01 0.02 0.01 0.00 0.02 0.04 0.01
1.32 1.19 0.84 0.79 0.64 0.36 0.79 1.01 0.83 0.82 0.53 0.68 0.53 0.26 0.29 0.10 0.03 0.02 0.16 0.22 0.06 0.02 0.07 0.44 0.90 0.88 0.49 0.28 0.42 0.57 0.56 0.49 0.94 0.52 0.52 0.16 0.07 0.03 0.03 0.02 0.02 0.01 0.01 0.04 0.05
0.86 1.10 0.42 0.15 0.19 0.24 0.62 0.80 0.64 0.61 0.57 0.41 0.37 0.21 0.24 0.14 0.05 0.02 0.02 0.09 0.08 0.03 0.12 0.33 0.71 0.75 0.61 0.24 0.38 0.48 0.55 0.36 0.56 0.27 0.26 0.17 0.13 0.01 0.01 0.01 0.00 0.01 0.04 0.07 0.07
0.70 0.79 0.51 0.26 0.16 0.38 0.36 0.49 0.63 0.60 0.34 0.16 0.23 0.35 0.23 0.07 0.04 0.01 0.00 0.00 0.01 0.08 0.16 0.28 0.51 0.73 0.64 0.48 0.28 0.47 0.58 0.68 0.48 0.20 0.25 0.28 0.15 0.01 0.01 0.04 0.06 0.05 0.06 0.04 0.03

GFSSW_prec_precacc_090.txt.gz
Total_Precipitation_Accumulation
0.12 0.22 0.22 0.17 0.15 0.14 0.12 0.10 0.12 0.15 0.19 0.22 0.30 0.40 0.51 0.43 0.32 0.17 0.09 0.01 0.01 0.01 0.03 0.01 0.01 0.09 0.15 0.11 0.16 0.12 0.16 0.04 0.01 0.00 0.00 0.00 0.00 0.00 0.00 0.00 0.00 0.00 0.00 0.02 0.03
0.17 0.21 0.19 0.18 0.18 0.18 0.16 0.15 0.16 0.15 0.13 0.18 0.29 0.36 0.37 0.27 0.28 0.20 0.01 0.01 0.07 0.14 0.12 0.05 0.07 0.14 0.20 0.10 0.25 0.14 0.03 0.00 0.00 0.00 0.00 0.00 0.06 0.02 0.00 0.00 0.00 0.02 0.10 0.13 0.13
0.19 0.19 0.20 0.25 0.23 0.18 0.19 0.20 0.18 0.21 0.26 0.31 0.31 0.37 0.38 0.25 0.12 0.03 0.11 0.11 0.17 0.43 0.18 0.09 0.10 0.20 0.23 0.14 0.13 0.05 0.01 0.00 0.00 0.00 0.00 0.04 0.09 0.02 0.01 0.00 0.00 0.01 0.08 0.16 0.29
0.22 0.24 0.27 0.26 0.23 0.26 0.29 0.27 0.25 0.32 0.39 0.40 0.43 0.42 0.55 0.38 0.08 0.18 0.30 0.13 0.40 0.91 0.61 0.32 0.19 0.30 0.20 0.12 0.02 0.04 0.01 0.00 0.00 0.00 0.02 0.03 0.01 0.04 0.02 0.00 0.00 0.01 0.08 0.12 0.16
0.26 0.25 0.22 0.19 0.21 0.22 0.24 0.29 0.31 0.36 0.47 0.56 0.64 0.72 0.65 0.34 0.06 0.13 0.14 0.06 0.17 0.59 0.58 0.40 0.24 0.28 0.16 0.04 0.10 0.06 0.04 0.01 0.00 0.00 0.00 0.00 0.00 0.01 0.02 0.00 0.00 0.00 0.07 0.09 0.11
0.21 0.23 0.19 0.18 0.20 0.22 0.24 0.23 0.30 0.42 0.53 0.49 0.86 0.94 0.53 0.17 0.00 0.00 0.03 0.13 0.09 0.33 0.57 0.64 0.26 0.15 0.21 0.07 0.08 0.05 0.06 0.04 0.02 0.00 0.00 0.00 0.00 0.00 0.01 0.10 0.01 0.00 0.03 0.06 0.06
0.27 0.22 0.20 0.20 0.24 0.24 0.26 0.28 0.34 0.51 0.61 0.66 0.95 1.05 0.49 0.06 0.01 0.01 0.05 0.09 0.16 0.24 0.44 0.48 0.52 0.52 0.37 0.19 0.02 0.08 0.09 0.18 0.05 0.00 0.00 0.00 0.00 0.00 0.00 0.08 0.04 0.00 0.02 0.05 0.08
0.31 0.30 0.25 0.30 0.31 0.29 0.29 0.32 0.42 0.54 0.62 0.78 1.28 1.37 0.31 0.01 0.02 0.01 0.03 0.11 0.15 0.38 0.72 0.94 0.85 0.67 0.50 0.35 0.09 0.21 0.22 0.19 0.07 0.01 0.00 0.00 0.00 0.00 0.00 0.03 0.08 0.01 0.00 0.01 0.04
0.33 0.34 0.42 0.54 0.41 0.36 0.35 0.41 0.58 0.86 0.91 1.17 1.50 1.04 0.21 0.06 0.06 0.01 0.03 0.12 0.20 0.44 0.81 1.31 1.45 1.20 0.73 0.73 0.38 0.27 0.15 0.04 0.03 0.02 0.01 0.00 0.00 0.00 0.00 0.00 0.04 0.05 0.00 0.00 0.01
0.43 0.47 0.65 0.76 0.61 0.49 0.61 0.85 1.00 1.43 1.11 1.34 1.28 0.96 0.16 0.04 0.05 0.06 0.08 0.17 0.28 0.66 1.32 1.75 1.85 1.58 1.23 0.94 0.40 0.06 0.04 0.01 0.01 0.01 0.01 0.00 0.00 0.00 0.00 0.00 0.00 0.04 0.02 0.00 0.00
0.51 0.51 0.57 0.69 0.76 0.87 1.26 1.59 1.48 1.55 1.18 0.76 0.69 0.23 0.11 0.08 0.17 0.22 0.16 0.26 0.46 1.20 1.40 2.00 2.60 1.93 0.99 0.45 0.11 0.02 0.02 0.02 0.00 0.00 0.01 0.00 0.00 0.00 0.00 0.00 0.00 0.01 0.03 0.01 0.00
0.49 0.58 0.69 0.74 0.99 1.41 1.99 1.54 0.91 0.80 0.85 0.59 0.39 0.15 0.30 0.34 0.41 0.65 0.33 0.41 0.55 1.05 1.09 1.98 1.87 0.96 0.54 0.48 0.32 0.05 0.06 0.02 0.01 0.01 0.03 0.00 0.00 0.00 0.00 0.00 0.00 0.00 0.00 0.00 0.00
0.55 0.64 0.86 1.17 1.26 1.64 1.54 1.43 1.04 1.04 1.72 0.85 0.49 0.49 0.47 0.75 0.53 1.04 0.52 0.52 0.40 1.06 0.94 1.28 0.97 1.01 1.23 1.04 0.75 0.18 0.05 0.04 0.02 0.01 0.01 0.02 0.00 0.00 0.00 0.00 0.00 0.00 0.00 0.00 0.00
0.68 0.84 1.05 1.42 1.87 1.61 1.80 1.73 1.39 1.94 2.53 1.03 0.94 1.00 0.91 1.30 0.85 0.83 0.65 0.67 0.68 1.19 0.76 1.08 0.83 1.03 1.68 1.46 0.94 0.45 0.07 0.05 0.07 0.06 0.03 0.03 0.03 0.00 0.00 0.00 0.00 0.00 0.00 0.00 0.00
0.71 0.85 1.24 2.00 2.65 2.18 2.05 2.09 2.09 2.53 2.24 1.19 1.19 1.25 1.29 1.33 1.10 0.97 0.82 0.98 1.00 1.32 1.04 1.18 0.85 0.69 1.32 1.09 1.04 0.50 0.14 0.06 0.15 0.21 0.12 0.05 0.09 0.01 0.00 0.00 0.00 0.00 0.00 0.00 0.00
0.67 0.88 1.37 2.33 2.52 1.89 1.86 2.23 3.02 2.79 2.01 1.58 1.56 1.94 1.47 1.28 1.13 1.44 1.09 1.20 1.44 1.54 1.15 0.69 0.70 0.86 0.65 0.85 1.07 0.56 0.36 0.36 0.33 0.48 0.70 0.07 0.06 0.02 0.00 0.00 0.00 0.00 0.00 0.00 0.00
0.80 0.91 1.32 1.65 1.98 1.79 2.23 2.88 2.89 1.81 1.37 1.53 1.50 1.62 1.59 1.25 1.13 1.14 1.28 1.57 2.09 1.61 1.57 1.27 1.19 1.04 0.84 1.37 1.40 1.22 1.13 1.44 1.22 0.87 0.43 0.10 0.05 0.05 0.00 0.00 0.00 0.00 0.00 0.00 0.00
0.95 1.11 1.27 1.11 1.89 2.18 2.60 2.87 1.73 0.87 1.29 1.43 1.31 1.46 1.51 1.12 1.27 0.97 1.33 1.36 1.08 0.54 0.98 1.13 1.49 1.25 0.99 1.30 1.61 1.01 1.03 0.99 0.62 0.29 0.06 0.04 0.12 0.01 0.00 0.00 0.00 0.00 0.00 0.00 0.00
1.28 1.40 1.79 1.41 1.90 2.58 2.58 2.28 1.02 1.18 1.39 1.84 1.73 1.92 1.39 0.89 1.07 1.18 1.27 0.70 0.59 0.41 0.76 0.52 1.02 0.90 0.73 0.85 1.16 0.97 0.68 0.57 0.44 0.24 0.24 0.04 0.01 0.00 0.00 0.00 0.00 0.00 0.00 0.00 0.00
1.14 1.82 2.02 1.31 1.93 2.99 2.89 1.62 1.14 1.33 1.59 1.30 1.33 0.78 0.66 0.61 0.86 0.77 0.83 0.35 0.26 0.13 0.25 0.28 0.94 0.95 1.00 1.25 1.11 0.73 0.27 0.43 1.09 0.64 0.30 0.07 0.00 0.00 0.00 0.00 0.00 0.00 0.00 0.00 0.00
1.12 1.73 1.75 1.57 2.67 3.68 2.65 1.62 1.33 1.04 1.10 0.77 0.23 0.18 0.10 0.14 0.32 0.44 0.47 0.27 0.10 0.06 0.17 0.42 0.82 1.07 1.37 1.32 0.86 0.73 0.76 0.46 0.48 0.34 0.29 0.19 0.01 0.00 0.00 0.00 0.00 0.00 0.00 0.00 0.00
1.21 1.70 1.56 2.17 3.32 2.66 1.73 1.41 1.47 0.93 0.64 0.52 0.23 0.16 0.12 0.08 0.13 0.35 0.49 0.18 0.05 0.03 0.12 0.36 0.79 0.97 0.79 0.29 0.26 0.38 0.32 0.30 0.78 0.44 0.40 0.36 0.10 0.00 0.01 0.01 0.00 0.01 0.02 0.01 0.00
1.30 1.53 2.20 1.62 1.66 1.19 1.11 1.18 1.22 0.70 0.56 0.60 0.28 0.17 0.17 0.10 0.14 0.11 0.30 0.10 0.01 0.01 0.09 0.43 0.91 0.90 0.72 0.58 0.61 0.83 0.42 0.35 0.59 0.97 0.67 0.42 0.14 0.00 0.00 0.00 0.00 0.01 0.03 0.02 0.01
1.48 1.95 2.72 2.49 0.83 0.74 1.21 1.40 1.07 0.59 0.48 0.58 0.34 0.26 0.19 0.08 0.04 0.05 0.48 0.11 0.02 0.05 0.05 0.41 0.88 0.93 0.76 0.44 0.58 0.82 0.45 0.57 1.13 1.09 0.36 0.29 0.04 0.01 0.01 0.02 0.01 0.00 0.02 0.04 0.01
1.32 1.19 0.84 0.79 0.64 0.36 0.79 1.01 0.83 0.82 0.53 0.68 0.55 0.34 0.47 0.23 0.07 0.04 0.37 0.33 0.15 0.14 0.08 0.44 0.90 0.88 0.49 0.28 0.42 0.57 0.56 0.49 0.94 0.52 0.52 0.16 0.07 0.03 0.03 0.02 0.02 0.01 0.01 0.04 0.05
0.86 1.10 0.42 0.15 0.19 0.24 0.62 0.80 0.64 0.61 0.57 0.41 0.37 0.21 0.30 0.25 0.22 0.10 0.09 0.31 0.24 0.07 0.19 0.35 0.71 0.75 0.61 0.24 0.38 0.48 0.55 0.36 0.56 0.27 0.26 0.17 0.13 0.01 0.01 0.01 0.00 0.01 0.04 0.07 0.07
0.70 0.79 0.51 0.26 0.16 0.38 0.36 0.49 0.63 0.60 0.34 0.16 0.23 0.35 0.24 0.08 0.07 0.02 0.01 0.01 0.05 0.14 0.17 0.28 0.51 0.73 0.64 0.48 0.28 0.47 0.58 0.68 0.48 0.20 0.25 0.28 0.15 0.01 0.01 0.04 0.06 0.05 0.06 0.04 0.03

GFSSW_prec_precacc_093.txt.gz
Total_Precipitation_Accumulation
0.12 0.22 0.23 0.17 0.15 0.14 0.12 0.10 0.13 0.16 0.19 0.22 0.30 0.40 0.51 0.43 0.32 0.17 0.09 0.01 0.01 0.02 0.05 0.01 0.01 0.10 0.17 0.12 0.16 0.17 0.22 0.05 0.01 0.00 0.00 0.00 0.00 0.00 0.00 0.00 0.00 0.00 0.00 0.02 0.03
0.17 0.21 0.19 0.19 0.18 0.18 0.16 0.16 0.16 0.15 0.13 0.18 0.29 0.36 0.37 0.27 0.28 0.20 0.01 0.01 0.07 0.15 0.15 0.06 0.07 0.17 0.24 0.10 0.28 0.17 0.05 0.00 0.00 0.00 0.00 0.00 0.06 0.02 0.00 0.00 0.00 0.02 0.10 0.13 0.13
0.20 0.20 0.21 0.25 0.23 0.19 0.21 0.20 0.18 0.21 0.27 0.31 0.31 0.37 0.38 0.25 0.12 0.03 0.12 0.12 0.18 0.44 0.20 0.12 0.11 0.24 0.28 0.16 0.14 0.06 0.01 0.00 0.00 0.00 0.00 0.04 0.09 0.02 0.01 0.00 0.00 0.01 0.08 0.16 0.29
0.22 0.24 0.28 0.26 0.23 0.27 0.30 0.27 0.25 0.32 0.39 0.40 0.43 0.42 0.55 0.38 0.08 0.18 0.30 0.14 0.41 0.94 0.66 0.33 0.21 0.34 0.25 0.15 0.02 0.04 0.01 0.00 0.00 0.02 0.03 0.03 0.01 0.04 0.02 0.00 0.00 0.01 0.08 0.12 0.16
0.27 0.25 0.23 0.19 0.22 0.22 0.25 0.29 0.31 0.36 0.47 0.56 0.64 0.72 0.65 0.34 0.06 0.13 0.14 0.06 0.17 0.61 0.65 0.43 0.26 0.32 0.20 0.06 0.11 0.06 0.04 0.01 0.00 0.01 0.01 0.00 0.00 0.01 0.02 0.00 0.00 0.00 0.07 0.09 0.11
0.22 0.24 0.19 0.18 0.20 0.22 0.24 0.23 0.30 0.42 0.53 0.49 0.86 0.94 0.53 0.17 0.00 0.00 0.03 0.13 0.09 0.33 0.58 0.71 0.30 0.18 0.23 0.09 0.09 0.05 0.06 0.04 0.02 0.00 0.00 0.00 0.00 0.00 0.01 0.10 0.01 0.00 0.03 0.06 0.06
0.27 0.23 0.20 0.21 0.25 0.24 0.26 0.28 0.34 0.51 0.61 0.66 0.95 1.05 0.49 0.06 0.01 0.01 0.05 0.09 0.16 0.24 0.44 0.51 0.67 0.55 0.38 0.22 0.02 0.08 0.09 0.19 0.06 0.00 0.00 0.00 0.00 0.00 0.00 0.08 0.04 0.00 0.02 0.05 0.08
0.32 0.30 0.25 0.31 0.32 0.29 0.29 0.32 0.42 0.54 0.62 0.78 1.28 1.37 0.31 0.01 0.02 0.01 0.03 0.11 0.15 0.38 0.72 0.94 0.96 0.80 0.59 0.37 0.10 0.22 0.23 0.20 0.08 0.01 0.00 0.01 0.00 0.00 0.00 0.03 0.08 0.01 0.00 0.01 0.04
0.34 0.35 0.43 0.55 0.42 0.36 0.35 0.41 0.58 0.86 0.91 1.17 1.50 1.04 0.21 0.06 0.06 0.01 0.03 0.12 0.20 0.44 0.81 1.31 1.48 1.36 0.86 0.78 0.45 0.32 0.18 0.04 0.03 0.03 0.01 0.01 0.00 0.00 0.00 0.00 0.04 0.05 0.00 0.00 0.01
0.43 0.47 0.65 0.76 0.61 0.49 0.61 0.85 1.00 1.43 1.11 1.34 1.28 0.96 0.16 0.04 0.05 0.06 0.08 0.17 0.29 0.66 1.33 1.77 1.90 1.65 1.34 1.03 0.54 0.09 0.05 0.01 0.01 0.02 0.02 0.01 0.00 0.00 0.00 0.00 0.00 0.04 0.02 0.00 0.00
0.51 0.52 0.57 0.69 0.76 0.87 1.26 1.59 1.48 1.55 1.18 0.76 0.69 0.23 0.11 0.08 0.17 0.22 0.16 0.27 0.47 1.22 1.41 2.01 2.66 1.98 1.01 0.46 0.16 0.03 0.03 0.02 0.00 0.00 0.02 0.00 0.00 0.00 0.00 0.00 0.00 0.01 0.03 0.01 0.00
0.49 0.58 0.70 0.74 0.99 1.41 1.99 1.54 0.91 0.80 0.85 0.59 0.39 0.15 0.30 0.34 0.41 0.65 0.33 0.42 0.57 1.08 1.11 2.00 1.89 0.96 0.55 0.54 0.42 0.08 0.07 0.03 0.02 0.02 0.05 0.01 0.00 0.00 0.00 0.00 0.00 0.00 0.00 0.00 0.00
0.55 0.64 0.87 1.17 1.26 1.64 1.54 1.43 1.04 1.04 1.72 0.85 0.49 0.49 0.47 0.75 0.53 1.05 0.53 0.52 0.41 1.07 0.96 1.31 0.99 1.01 1.25 1.14 0.87 0.21 0.05 0.04 0.02 0.02 0.02 0.03 0.01 0.00 0.00 0.00 0.00 0.00 0.00 0.00 0.00
0.69 0.85 1.06 1.42 1.87 1.61 1.80 1.73 1.39 1.94 2.53 1.03 0.94 1.00 0.91 1.30 0.85 0.83 0.65 0.67 0.68 1.20 0.78 1.09 0.84 1.03 1.69 1.49 0.99 0.47 0.07 0.05 0.08 0.08 0.04 0.03 0.03 0.00 0.00 0.00 0.00 0.00 0.00 0.00 0.00
0.71 0.85 1.24 2.00 2.65 2.18 2.05 2.09 2.09 2.53 2.25 1.19 1.19 1.25 1.29 1.33 1.10 0.97 0.82 0.98 1.00 1.32 1.08 1.25 0.85 0.70 1.32 1.09 1.06 0.57 0.15 0.07 0.16 0.22 0.14 0.05 0.09 0.01 0.00 0.00 0.00 0.00 0.00 0.00 0.00
0.67 0.88 1.37 2.33 2.52 1.89 1.86 2.23 3.02 2.80 2.02 1.58 1.56 1.94 1.49 1.31 1.13 1.44 1.09 1.20 1.44 1.55 1.17 0.73 0.73 0.89 0.68 0.87 1.08 0.62 0.37 0.39 0.36 0.52 0.73 0.08 0.06 0.02 0.00 0.00 0.00 0.00 0.00 0.00 0.00
0.80 0.91 1.32 1.65 1.98 1.79 2.23 2.88 2.89 1.81 1.37 1.53 1.50 1.62 1.61 1.33 1.15 1.14 1.28 1.57 2.09 1.62 1.59 1.28 1.28 1.08 0.89 1.42 1.47 1.34 1.20 1.57 1.31 0.94 0.44 0.10 0.05 0.05 0.00 0.00 0.00 0.00 0.00 0.00 0.00
0.95 1.11 1.27 1.11 1.89 2.18 2.60 2.87 1.74 0.87 1.29 1.43 1.32 1.47 1.53 1.19 1.33 0.97 1.33 1.36 1.08 0.54 0.99 1.14 1.52 1.29 1.02 1.32 1.68 1.12 1.09 1.05 0.63 0.29 0.07 0.04 0.12 0.01 0.00 0.00 0.00 0.00 0.00 0.00 0.00
1.28 1.40 1.79 1.41 1.90 2.58 2.58 2.28 1.02 1.19 1.40 1.85 1.74 1.93 1.41 0.92 1.15 1.20 1.27 0.70 0.59 0.41 0.77 0.54 1.04 0.92 0.74 0.85 1.21 1.13 0.70 0.57 0.44 0.24 0.24 0.04 0.01 0.00 0.00 0.00 0.00 0.00 0.00 0.00 0.00
1.14 1.82 2.02 1.31 1.93 2.99 2.89 1.62 1.14 1.33 1.60 1.32 1.37 0.79 0.72 0.70 0.88 0.88 0.85 0.35 0.26 0.13 0.26 0.30 0.96 0.97 1.01 1.25 1.15 0.87 0.29 0.44 1.10 0.64 0.31 0.07 0.00 0.00 0.00 0.00 0.00 0.00 0.00 0.00 0.00
1.12 1.73 1.75 1.57 2.67 3.68 2.65 1.62 1.33 1.04 1.11 0.79 0.24 0.19 0.16 0.28 0.34 0.57 0.52 0.27 0.10 0.06 0.17 0.42 0.84 1.11 1.41 1.34 0.89 0.79 0.79 0.47 0.50 0.34 0.29 0.19 0.01 0.00 0.00 0.00 0.00 0.00 0.00 0.00 0.00
1.21 1.70 1.56 2.17 3.32 2.66 1.73 1.41 1.48 0.94 0.65 0.54 0.25 0.21 0.20 0.17 0.15 0.52 0.66 0.19 0.05 0.03 0.12 0.38 0.83 1.04 0.89 0.31 0.26 0.39 0.34 0.32 0.80 0.44 0.40 0.36 0.10 0.00 0.01 0.01 0.00 0.01 0.02 0.01 0.00
1.30 1.53 2.20 1.62 1.66 1.19 1.11 1.18 1.22 0.70 0.56 0.60 0.31 0.23 0.20 0.14 0.16 0.17 0.59 0.15 0.01 0.01 0.10 0.46 0.97 0.98 0.79 0.60 0.62 0.84 0.42 0.35 0.59 0.98 0.68 0.43 0.14 0.00 0.00 0.00 0.00 0.01 0.03 0.02 0.01
1.48 1.95 2.72 2.49 0.83 0.74 1.21 1.40 1.07 0.59 0.48 0.58 0.35 0.26 0.20 0.09 0.05 0.07 0.69 0.18 0.02 0.05 0.05 0.43 0.93 0.97 0.78 0.44 0.58 0.82 0.45 0.57 1.13 1.10 0.36 0.29 0.04 0.01 0.01 0.02 0.01 0.00 0.02 0.04 0.01
1.32 1.19 0.84 0.79 0.64 0.36 0.79 1.01 0.83 0.82 0.53 0.68 0.55 0.34 0.47 0.24 0.08 0.06 0.48 0.41 0.18 0.14 0.10 0.45 0.93 0.88 0.49 0.28 0.42 0.57 0.56 0.49 0.94 0.52 0.52 0.16 0.07 0.03 0.03 0.02 0.02 0.01 0.01 0.04 0.05
0.86 1.10 0.42 0.15 0.19 0.24 0.62 0.80 0.64 0.61 0.57 0.41 0.37 0.21 0.30 0.26 0.22 0.10 0.11 0.37 0.35 0.10 0.22 0.35 0.71 0.75 0.61 0.24 0.38 0.48 0.55 0.36 0.56 0.27 0.26 0.17 0.13 0.01 0.01 0.01 0.00 0.01 0.04 0.07 0.07
0.70 0.79 0.51 0.26 0.16 0.38 0.36 0.49 0.63 0.60 0.34 0.16 0.23 0.35 0.24 0.08 0.07 0.02 0.01 0.01 0.08 0.18 0.18 0.28 0.51 0.73 0.64 0.48 0.28 0.47 0.58 0.68 0.48 0.20 0.25 0.28 0.15 0.01 0.01 0.04 0.06 0.05 0.06 0.04 0.03

GFSSW_prec_precacc_096.txt.gz
Total_Precipitation_Accumulation
0.13 0.22 0.23 0.18 0.16 0.14 0.13 0.11 0.13 0.16 0.19 0.22 0.30 0.41 0.52 0.43 0.32 0.17 0.10 0.01 0.01 0.08 0.12 0.02 0.01 0.10 0.18 0.13 0.17 0.24 0.33 0.10 0.01 0.00 0.00 0.00 0.00 0.00 0.00 0.00 0.00 0.00 0.00 0.02 0.03
0.17 0.22 0.19 0.19 0.18 0.19 0.17 0.16 0.17 0.15 0.13 0.18 0.29 0.36 0.37 0.27 0.28 0.20 0.01 0.01 0.07 0.16 0.17 0.09 0.08 0.18 0.29 0.12 0.31 0.22 0.14 0.02 0.00 0.00 0.00 0.01 0.06 0.02 0.00 0.00 0.00 0.02 0.10 0.13 0.13
0.20 0.20 0.21 0.26 0.23 0.19 0.22 0.21 0.18 0.21 0.27 0.31 0.31 0.37 0.38 0.25 0.13 0.03 0.12 0.12 0.18 0.44 0.21 0.13 0.14 0.25 0.31 0.22 0.18 0.07 0.01 0.00 0.00 0.01 0.02 0.06 0.10 0.02 0.01 0.00 0.00 0.01 0.08 0.17 0.31
0.22 0.25 0.29 0.27 0.24 0.28 0.31 0.28 0.25 0.32 0.39 0.40 0.43 0.42 0.55 0.38 0.08 0.18 0.30 0.14 0.41 0.94 0.68 0.36 0.27 0.37 0.26 0.20 0.03 0.04 0.01 0.00 0.03 0.07 0.06 0.06 0.05 0.06 0.02 0.00 0.00 0.01 0.08 0.12 0.16
0.27 0.26 0.23 0.20 0.22 0.23 0.25 0.29 0.31 0.36 0.47 0.56 0.64 0.72 0.65 0.34 0.06 0.13 0.14 0.06 0.17 0.61 0.68 0.50 0.31 0.35 0.22 0.07 0.14 0.06 0.04 0.01 0.01 0.08 0.03 0.01 0.02 0.02 0.03 0.02 0.00 0.00 0.07 0.09 0.11
0.22 0.24 0.20 0.19 0.21 0.23 0.24 0.23 0.30 0.42 0.53 0.49 0.86 0.94 0.53 0.17 0.00 0.00 0.03 0.13 0.09 0.33 0.60 0.77 0.32 0.27 0.26 0.10 0.14 0.06 0.06 0.04 0.02 0.02 0.02 0.01 0.01 0.02 0.02 0.11 0.01 0.00 0.03 0.06 0.06
0.28 0.23 0.21 0.22 0.26 0.25 0.26 0.28 0.34 0.51 0.61 0.66 0.95 1.05 0.49 0.06 0.01 0.01 0.05 0.09 0.16 0.24 0.44 0.52 0.69 0.69 0.53 0.24 0.03 0.09 0.10 0.19 0.06 0.02 0.04 0.02 0.02 0.04 0.01 0.08 0.04 0.00 0.02 0.05 0.08
0.32 0.31 0.26 0.31 0.33 0.30 0.30 0.32 0.42 0.54 0.62 0.78 1.28 1.37 0.32 0.01 0.02 0.01 0.03 0.11 0.15 0.38 0.72 0.94 0.98 0.87 0.77 0.42 0.11 0.28 0.24 0.21 0.08 0.02 0.02 0.05 0.05 0.00 0.00 0.03 0.08 0.01 0.00 0.01 0.04
0.34 0.35 0.43 0.56 0.42 0.37 0.35 0.41 0.58 0.86 0.91 1.17 1.50 1.04 0.21 0.06 0.06 0.01 0.03 0.12 0.20 0.44 0.81 1.31 1.51 1.48 0.96 0.84 0.52 0.40 0.20 0.04 0.03 0.03 0.01 0.01 0.00 0.00 0.00 0.01 0.04 0.05 0.00 0.00 0.01
0.43 0.48 0.66 0.77 0.62 0.49 0.61 0.85 1.00 1.43 1.11 1.34 1.28 0.97 0.17 0.04 0.05 0.06 0.08 0.17 0.29 0.66 1.34 1.78 1.93 1.74 1.52 1.13 0.64 0.16 0.06 0.01 0.01 0.02 0.02 0.01 0.00 0.00 0.00 0.00 0.00 0.04 0.02 0.00 0.00
0.51 0.52 0.58 0.70 0.77 0.87 1.26 1.59 1.48 1.55 1.18 0.76 0.69 0.23 0.11 0.08 0.17 0.22 0.16 0.27 0.47 1.23 1.42 2.01 2.67 2.02 1.06 0.50 0.19 0.07 0.03 0.02 0.00 0.00 0.02 0.00 0.00 0.00 0.00 0.00 0.00 0.01 0.03 0.01 0.00
0.49 0.59 0.70 0.75 0.99 1.41 1.99 1.54 0.91 0.80 0.85 0.59 0.39 0.15 0.30 0.34 0.41 0.65 0.33 0.43 0.61 1.11 1.15 2.01 1.90 0.96 0.56 0.58 0.49 0.15 0.09 0.03 0.02 0.02 0.05 0.01 0.00 0.00 0.00 0.00 0.00 0.00 0.00 0.00 0.00
0.56 0.64 0.87 1.18 1.26 1.64 1.54 1.43 1.04 1.04 1.72 0.85 0.49 0.49 0.47 0.75 0.53 1.05 0.53 0.53 0.42 1.08 0.99 1.32 1.01 1.02 1.26 1.19 0.95 0.23 0.06 0.04 0.02 0.04 0.06 0.04 0.04 0.00 0.00 0.00 0.00 0.00 0.00 0.00 0.00
0.69 0.85 1.06 1.42 1.87 1.61 1.80 1.73 1.39 1.94 2.54 1.03 0.94 1.00 0.92 1.30 0.86 0.83 0.65 0.67 0.69 1.22 0.78 1.09 0.84 1.04 1.71 1.53 1.01 0.51 0.08 0.06 0.09 0.10 0.16 0.05 0.07 0.01 0.00 0.00 0.00 0.00 0.00 0.00 0.00
0.72 0.86 1.24 2.00 2.65 2.18 2.05 2.09 2.09 2.53 2.27 1.20 1.19 1.25 1.30 1.35 1.10 0.98 0.82 0.98 1.01 1.33 1.09 1.32 0.87 0.71 1.34 1.12 1.07 0.59 0.17 0.10 0.21 0.24 0.15 0.07 0.09 0.01 0.00 0.00 0.00 0.00 0.00 0.00 0.00
0.67 0.89 1.37 2.33 2.52 1.89 1.86 2.23 3.02 2.80 2.03 1.58 1.56 1.94 1.51 1.38 1.14 1.44 1.09 1.20 1.45 1.55 1.22 0.83 0.75 0.93 0.71 0.88 1.10 0.64 0.38 0.41 0.42 0.57 0.82 0.09 0.06 0.02 0.00 0.00 0.00 0.00 0.00 0.00 0.00
0.80 0.91 1.32 1.65 1.98 1.79 2.23 2.88 2.89 1.82 1.37 1.54 1.50 1.63 1.65 1.41 1.17 1.14 1.28 1.57 2.09 1.65 1.65 1.39 1.31 1.10 0.90 1.43 1.49 1.39 1.25 1.68 1.53 1.05 0.48 0.10 0.05 0.05 0.00 0.00 0.00 0.00 0.00 0.00 0.00
0.95 1.11 1.27 1.11 1.89 2.18 2.60 2.87 1.74 0.88 1.29 1.44 1.32 1.48 1.56 1.23 1.36 0.97 1.33 1.36 1.08 0.56 1.03 1.19 1.55 1.31 1.06 1.35 1.69 1.17 1.18 1.13 0.67 0.31 0.07 0.05 0.13 0.01 0.00 0.00 0.00 0.00 0.00 0.00 0.00
1.28 1.40 1.79 1.41 1.90 2.58 2.58 2.28 1.02 1.19 1.41 1.86 1.75 1.94 1.43 1.00 1.17 1.24 1.27 0.70 0.59 0.41 0.80 0.58 1.06 0.93 0.76 0.87 1.23 1.19 0.74 0.63 0.45 0.24 0.25 0.04 0.01 0.00 0.00 0.00 0.00 0.00 0.00 0.00 0.00
1.14 1.82 2.02 1.31 1.93 2.99 2.89 1.63 1.14 1.34 1.60 1.33 1.38 0.80 0.74 0.78 0.91 0.94 0.86 0.35 0.26 0.13 0.26 0.31 0.99 0.98 1.01 1.25 1.15 0.91 0.31 0.51 1.12 0.66 0.32 0.08 0.00 0.00 0.00 0.00 0.00 0.00 0.00 0.00 0.00
1.12 1.73 1.75 1.57 2.67 3.68 2.65 1.62 1.33 1.05 1.11 0.80 0.24 0.20 0.17 0.32 0.37 0.65 0.54 0.28 0.10 0.06 0.17 0.42 0.85 1.13 1.41 1.34 0.89 0.81 0.80 0.48 0.51 0.35 0.30 0.20 0.01 0.00 0.00 0.00 0.00 0.00 0.00 0.00 0.00
1.21 1.70 1.56 2.17 3.32 2.66 1.73 1.41 1.48 0.94 0.65 0.54 0.25 0.23 0.20 0.18 0.18 0.63 0.67 0.20 0.05 0.03 0.13 0.40 0.85 1.06 0.90 0.32 0.26 0.39 0.34 0.33 0.84 0.46 0.41 0.37 0.10 0.00 0.01 0.01 0.00 0.01 0.02 0.01 0.00
1.30 1.53 2.20 1.62 1.66 1.19 1.11 1.18 1.22 0.70 0.56 0.60 0.31 0.23 0.20 0.14 0.19 0.21 0.60 0.15 0.02 0.01 0.18 0.54 1.01 1.06 0.83 0.62 0.62 0.84 0.42 0.36 0.60 0.99 0.69 0.46 0.14 0.00 0.00 0.00 0.00 0.01 0.03 0.02 0.01
1.48 1.95 2.72 2.49 0.83 0.74 1.21 1.40 1.07 0.59 0.48 0.58 0.35 0.26 0.20 0.09 0.05 0.10 0.71 0.18 0.02 0.06 0.07 0.47 0.97 1.02 0.81 0.45 0.58 0.82 0.45 0.57 1.13 1.10 0.37 0.31 0.04 0.01 0.01 0.02 0.01 0.00 0.02 0.04 0.01
1.32 1.19 0.84 0.79 0.64 0.36 0.79 1.01 0.83 0.82 0.53 0.68 0.55 0.34 0.47 0.24 0.08 0.06 0.49 0.42 0.18 0.15 0.10 0.46 0.99 0.91 0.49 0.28 0.42 0.57 0.56 0.49 0.94 0.52 0.52 0.16 0.07 0.03 0.03 0.02 0.02 0.01 0.01 0.04 0.05
0.86 1.10 0.42 0.15 0.19 0.24 0.62 0.80 0.64 0.61 0.57 0.41 0.37 0.21 0.30 0.26 0.23 0.10 0.11 0.38 0.36 0.10 0.22 0.35 0.72 0.75 0.61 0.24 0.38 0.48 0.55 0.36 0.56 0.27 0.26 0.17 0.13 0.01 0.01 0.01 0.00 0.01 0.04 0.07 0.07
0.70 0.79 0.51 0.26 0.16 0.38 0.36 0.49 0.63 0.60 0.34 0.16 0.23 0.35 0.24 0.08 0.07 0.02 0.01 0.01 0.08 0.19 0.20 0.28 0.51 0.74 0.66 0.48 0.28 0.47 0.58 0.68 0.48 0.20 0.25 0.28 0.15 0.01 0.01 0.04 0.06 0.05 0.06 0.04 0.03

GFSSW_prec_precacc_099.txt.gz
Total_Precipitation_Accumulation
0.13 0.22 0.23 0.18 0.16 0.14 0.13 0.12 0.14 0.16 0.19 0.22 0.30 0.41 0.52 0.44 0.32 0.17 0.10 0.01 0.01 0.13 0.22 0.06 0.02 0.10 0.19 0.14 0.18 0.29 0.49 0.45 0.01 0.00 0.00 0.01 0.00 0.00 0.00 0.00 0.00 0.00 0.00 0.02 0.04
0.17 0.22 0.20 0.20 0.19 0.19 0.17 0.17 0.17 0.15 0.13 0.19 0.30 0.36 0.37 0.27 0.28 0.20 0.02 0.02 0.07 0.16 0.21 0.16 0.11 0.21 0.29 0.13 0.35 0.27 0.16 0.27 0.04 0.00 0.01 0.04 0.07 0.02 0.00 0.00 0.00 0.03 0.13 0.14 0.13
0.20 0.21 0.22 0.26 0.24 0.20 0.22 0.22 0.19 0.21 0.27 0.32 0.31 0.37 0.38 0.25 0.13 0.04 0.13 0.12 0.18 0.44 0.21 0.15 0.16 0.30 0.31 0.24 0.22 0.10 0.02 0.00 0.01 0.06 0.06 0.07 0.11 0.02 0.01 0.00 0.00 0.02 0.10 0.17 0.32
0.23 0.26 0.29 0.27 0.24 0.28 0.31 0.28 0.25 0.32 0.39 0.40 0.43 0.42 0.55 0.38 0.08 0.18 0.30 0.14 0.41 0.94 0.68 0.38 0.30 0.46 0.28 0.20 0.04 0.06 0.01 0.00 0.04 0.13 0.11 0.07 0.06 0.07 0.03 0.00 0.00 0.01 0.10 0.13 0.16
0.27 0.27 0.24 0.20 0.23 0.24 0.26 0.29 0.31 0.36 0.47 0.56 0.64 0.72 0.65 0.35 0.06 0.13 0.14 0.06 0.17 0.61 0.68 0.53 0.36 0.50 0.24 0.07 0.15 0.06 0.04 0.01 0.03 0.16 0.13 0.03 0.03 0.07 0.04 0.03 0.01 0.01 0.10 0.10 0.11
0.23 0.24 0.20 0.19 0.21 0.24 0.25 0.24 0.30 0.42 0.53 0.49 0.86 0.94 0.53 0.17 0.00 0.00 0.03 0.13 0.09 0.33 0.60 0.79 0.36 0.44 0.29 0.10 0.15 0.08 0.06 0.04 0.03 0.13 0.09 0.05 0.04 0.08 0.06 0.11 0.04 0.05 0.05 0.09 0.07
0.28 0.23 0.21 0.22 0.26 0.26 0.27 0.28 0.34 0.51 0.61 0.66 0.95 1.05 0.49 0.06 0.01 0.01 0.05 0.09 0.16 0.24 0.44 0.52 0.70 0.78 0.66 0.24 0.03 0.10 0.10 0.20 0.07 0.06 0.12 0.05 0.11 0.09 0.08 0.09 0.05 0.03 0.04 0.06 0.08
0.32 0.31 0.26 0.32 0.33 0.31 0.30 0.32 0.42 0.54 0.62 0.78 1.28 1.37 0.32 0.01 0.02 0.01 0.03 0.11 0.15 0.38 0.72 0.94 0.98 0.88 0.96 0.48 0.11 0.30 0.25 0.21 0.09 0.02 0.05 0.11 0.13 0.05 0.06 0.15 0.13 0.03 0.01 0.02 0.04
0.34 0.35 0.44 0.56 0.43 0.37 0.35 0.41 0.58 0.86 0.91 1.17 1.50 1.04 0.21 0.06 0.06 0.01 0.03 0.12 0.20 0.44 0.81 1.32 1.51 1.48 1.09 1.09 0.56 0.50 0.31 0.04 0.03 0.03 0.03 0.08 0.03 0.02 0.04 0.16 0.11 0.06 0.00 0.00 0.01
0.43 0.48 0.66 0.77 0.62 0.50 0.61 0.85 1.00 1.43 1.11 1.34 1.28 0.97 0.17 0.04 0.05 0.06 0.08 0.17 0.29 0.66 1.34 1.78 1.94 1.75 1.55 1.44 0.73 0.20 0.16 0.02 0.01 0.02 0.03 0.04 0.00 0.00 0.04 0.06 0.04 0.04 0.02 0.00 0.00
0.51 0.52 0.58 0.70 0.77 0.87 1.26 1.59 1.48 1.55 1.18 0.76 0.69 0.23 0.11 0.08 0.17 0.22 0.16 0.27 0.47 1.23 1.43 2.01 2.67 2.02 1.07 0.57 0.27 0.10 0.06 0.03 0.00 0.01 0.02 0.01 0.00 0.01 0.00 0.02 0.02 0.02 0.03 0.01 0.00
0.49 0.59 0.70 0.76 0.99 1.41 1.99 1.54 0.91 0.80 0.85 0.59 0.39 0.15 0.30 0.34 0.41 0.65 0.33 0.43 0.61 1.12 1.15 2.01 1.90 0.96 0.58 0.58 0.54 0.27 0.12 0.03 0.02 0.02 0.05 0.02 0.00 0.00 0.00 0.00 0.00 0.00 0.00 0.00 0.00
0.56 0.65 0.87 1.18 1.26 1.64 1.54 1.43 1.04 1.04 1.72 0.85 0.49 0.49 0.47 0.75 0.53 1.05 0.53 0.53 0.42 1.08 1.00 1.32 1.02 1.02 1.28 1.20 1.02 0.31 0.10 0.04 0.03 0.05 0.07 0.04 0.04 0.01 0.00 0.00 0.00 0.00 0.00 0.00 0.00
0.69 0.85 1.06 1.42 1.87 1.61 1.80 1.73 1.39 1.94 2.54 1.03 0.94 1.00 0.92 1.30 0.86 0.83 0.65 0.67 0.70 1.22 0.79 1.09 0.84 1.05 1.73 1.56 1.10 0.57 0.11 0.06 0.10 0.11 0.19 0.08 0.07 0.01 0.00 0.00 0.00 0.00 0.00 0.00 0.00
0.72 0.86 1.24 2.00 2.65 2.18 2.05 2.09 2.09 2.53 2.27 1.20 1.19 1.25 1.30 1.36 1.11 0.98 0.82 0.98 1.01 1.34 1.10 1.34 0.89 0.73 1.40 1.14 1.09 0.63 0.19 0.10 0.22 0.24 0.18 0.17 0.12 0.01 0.00 0.00 0.00 0.00 0.00 0.00 0.00
0.68 0.89 1.37 2.33 2.52 1.89 1.86 2.23 3.02 2.80 2.03 1.58 1.56 1.94 1.53 1.40 1.14 1.44 1.09 1.20 1.45 1.55 1.25 0.86 0.79 0.99 0.77 0.90 1.11 0.66 0.42 0.43 0.45 0.60 0.88 0.14 0.10 0.02 0.00 0.00 0.00 0.00 0.00 0.00 0.00
0.81 0.91 1.32 1.65 1.98 1.79 2.23 2.88 2.89 1.82 1.38 1.54 1.50 1.63 1.66 1.43 1.17 1.14 1.28 1.57 2.09 1.69 1.88 1.48 1.43 1.15 0.92 1.43 1.50 1.43 1.32 1.72 1.63 1.19 0.51 0.10 0.05 0.05 0.00 0.00 0.00 0.00 0.00 0.00 0.00
0.95 1.11 1.27 1.11 1.89 2.18 2.60 2.87 1.74 0.88 1.29 1.44 1.32 1.48 1.56 1.26 1.37 0.97 1.33 1.36 1.08 0.59 1.22 1.25 1.58 1.32 1.06 1.35 1.71 1.22 1.25 1.19 0.73 0.35 0.07 0.05 0.13 0.01 0.00 0.00 0.00 0.00 0.00 0.00 0.00
1.28 1.40 1.79 1.41 1.90 2.58 2.58 2.28 1.02 1.19 1.41 1.86 1.75 1.94 1.44 1.02 1.21 1.24 1.27 0.70 0.59 0.41 0.89 0.59 1.07 0.93 0.76 0.87 1.24 1.23 0.78 0.69 0.46 0.25 0.25 0.04 0.01 0.00 0.00 0.00 0.00 0.00 0.00 0.00 0.00
1.14 1.82 2.02 1.31 1.93 2.99 2.89 1.63 1.14 1.34 1.60 1.33 1.38 0.80 0.75 0.79 0.94 0.95 0.86 0.35 0.26 0.13 0.27 0.31 1.00 0.98 1.02 1.25 1.16 0.91 0.32 0.53 1.12 0.66 0.33 0.08 0.00 0.00 0.00 0.00 0.00 0.00 0.00 0.00 0.00
1.12 1.73 1.75 1.57 2.67 3.68 2.65 1.62 1.33 1.05 1.11 0.80 0.24 0.20 0.17 0.33 0.42 0.66 0.54 0.28 0.10 0.06 0.17 0.42 0.85 1.14 1.41 1.34 0.89 0.81 0.80 0.50 0.52 0.35 0.30 0.20 0.01 0.00 0.00 0.00 0.00 0.00 0.00 0.00 0.00
1.21 1.70 1.56 2.17 3.32 2.66 1.73 1.41 1.48 0.94 0.65 0.54 0.25 0.23 0.20 0.19 0.25 0.65 0.67 0.20 0.05 0.03 0.13 0.40 0.86 1.06 0.91 0.32 0.26 0.39 0.34 0.34 0.84 0.46 0.42 0.38 0.10 0.00 0.01 0.01 0.00 0.01 0.02 0.01 0.00
1.30 1.53 2.20 1.62 1.66 1.19 1.11 1.18 1.22 0.70 0.56 0.60 0.31 0.23 0.20 0.14 0.25 0.22 0.60 0.15 0.02 0.01 0.30 0.56 1.03 1.07 0.85 0.62 0.63 0.84 0.42 0.36 0.60 0.99 0.70 0.57 0.15 0.00 0.00 0.00 0.00 0.01 0.03 0.02 0.01
1.48 1.95 2.72 2.49 0.83 0.74 1.21 1.40 1.07 0.59 0.48 0.58 0.35 0.26 0.20 0.09 0.06 0.10 0.71 0.19 0.03 0.06 0.09 0.49 0.98 1.06 0.84 0.45 0.58 0.82 0.45 0.57 1.13 1.10 0.38 0.36 0.04 0.01 0.01 0.02 0.01 0.00 0.02 0.04 0.01
1.32 1.19 0.84 0.79 0.64 0.36 0.79 1.01 0.83 0.82 0.53 0.68 0.55 0.34 0.47 0.24 0.08 0.06 0.50 0.42 0.18 0.15 0.10 0.48 1.07 0.91 0.49 0.28 0.42 0.57 0.56 0.49 0.94 0.52 0.52 0.17 0.07 0.03 0.03 0.02 0.02 0.01 0.01 0.04 0.05
0.86 1.10 0.42 0.15 0.19 0.24 0.62 0.80 0.64 0.61 0.57 0.41 0.37 0.21 0.30 0.26 0.23 0.10 0.12 0.38 0.36 0.10 0.22 0.35 0.72 0.75 0.61 0.24 0.38 0.48 0.55 0.36 0.56 0.27 0.26 0.17 0.13 0.01 0.01 0.01 0.00 0.01 0.04 0.07 0.07
0.70 0.79 0.51 0.26 0.16 0.38 0.36 0.49 0.63 0.60 0.34 0.16 0.23 0.35 0.24 0.08 0.07 0.02 0.01 0.01 0.09 0.19 0.20 0.28 0.51 0.75 0.67 0.48 0.28 0.47 0.58 0.68 0.48 0.20 0.25 0.28 0.15 0.01 0.01 0.04 0.06 0.05 0.06 0.04 0.03

GFSSW_prec_precacc_102.txt.gz
Total_Precipitation_Accumulation
0.13 0.23 0.24 0.19 0.16 0.15 0.13 0.12 0.15 0.17 0.19 0.22 0.30 0.42 0.52 0.44 0.32 0.17 0.10 0.01 0.02 0.14 0.25 0.07 0.05 0.17 0.23 0.15 0.22 0.35 0.58 0.63 0.08 0.01 0.00 0.01 0.00 0.00 0.00 0.00 0.00 0.00 0.00 0.02 0.04
0.18 0.22 0.20 0.20 0.19 0.19 0.18 0.18 0.18 0.15 0.13 0.19 0.30 0.36 0.37 0.27 0.28 0.20 0.02 0.04 0.12 0.19 0.23 0.18 0.17 0.27 0.36 0.16 0.39 0.32 0.19 0.37 0.06 0.01 0.01 0.06 0.07 0.03 0.00 0.00 0.01 0.06 0.14 0.14 0.14
0.20 0.21 0.22 0.27 0.24 0.20 0.23 0.22 0.19 0.21 0.27 0.32 0.32 0.37 0.38 0.25 0.13 0.04 0.13 0.13 0.18 0.45 0.21 0.15 0.20 0.34 0.36 0.25 0.25 0.15 0.02 0.02 0.06 0.08 0.06 0.09 0.11 0.03 0.01 0.00 0.00 0.04 0.16 0.21 0.33
0.23 0.26 0.30 0.28 0.24 0.28 0.31 0.29 0.25 0.32 0.39 0.40 0.43 0.42 0.55 0.38 0.08 0.18 0.30 0.14 0.41 0.94 0.68 0.40 0.34 0.50 0.33 0.21 0.05 0.08 0.01 0.01 0.14 0.27 0.15 0.12 0.07 0.09 0.03 0.00 0.04 0.05 0.11 0.15 0.20
0.27 0.27 0.24 0.21 0.23 0.24 0.27 0.30 0.31 0.36 0.47 0.56 0.64 0.72 0.65 0.35 0.07 0.13 0.14 0.06 0.17 0.61 0.68 0.54 0.40 0.53 0.31 0.10 0.15 0.07 0.04 0.01 0.12 0.52 0.22 0.06 0.05 0.09 0.05 0.03 0.06 0.14 0.23 0.25 0.25
0.23 0.25 0.20 0.19 0.22 0.24 0.26 0.24 0.30 0.42 0.53 0.49 0.86 0.94 0.53 0.17 0.00 0.00 0.03 0.13 0.09 0.33 0.60 0.79 0.39 0.48 0.35 0.19 0.16 0.09 0.07 0.05 0.07 0.40 0.31 0.19 0.06 0.09 0.08 0.12 0.07 0.14 0.15 0.19 0.19
0.28 0.24 0.21 0.23 0.26 0.26 0.27 0.29 0.34 0.51 0.61 0.66 0.95 1.05 0.49 0.06 0.01 0.01 0.05 0.09 0.16 0.24 0.44 0.53 0.74 0.86 0.81 0.37 0.04 0.10 0.11 0.21 0.10 0.09 0.27 0.33 0.24 0.10 0.10 0.12 0.06 0.05 0.09 0.14 0.18
0.32 0.31 0.27 0.32 0.34 0.31 0.30 0.32 0.42 0.54 0.62 0.78 1.28 1.37 0.32 0.01 0.02 0.01 0.03 0.11 0.15 0.38 0.72 0.95 0.99 0.90 1.07 0.67 0.14 0.32 0.27 0.24 0.10 0.03 0.09 0.40 0.34 0.07 0.09 0.21 0.13 0.03 0.04 0.07 0.10
0.34 0.35 0.44 0.56 0.43 0.38 0.36 0.41 0.58 0.86 0.91 1.17 1.50 1.04 0.21 0.06 0.06 0.01 0.03 0.12 0.20 0.44 0.81 1.33 1.51 1.48 1.10 1.26 0.67 0.52 0.33 0.05 0.04 0.04 0.05 0.21 0.18 0.12 0.08 0.25 0.15 0.08 0.02 0.05 0.04
0.43 0.48 0.66 0.77 0.62 0.50 0.61 0.85 1.00 1.43 1.11 1.34 1.28 0.97 0.17 0.04 0.05 0.06 0.08 0.17 0.29 0.66 1.34 1.78 1.94 1.75 1.56 1.53 0.87 0.21 0.16 0.02 0.02 0.03 0.05 0.05 0.07 0.13 0.09 0.16 0.18 0.12 0.03 0.04 0.02
0.51 0.52 0.58 0.71 0.78 0.88 1.26 1.59 1.48 1.55 1.18 0.76 0.69 0.23 0.11 0.08 0.17 0.22 0.16 0.27 0.47 1.23 1.43 2.01 2.67 2.02 1.08 0.60 0.38 0.14 0.06 0.05 0.00 0.03 0.03 0.01 0.01 0.06 0.06 0.14 0.21 0.19 0.06 0.02 0.01
0.49 0.59 0.71 0.76 0.99 1.41 1.99 1.54 0.91 0.80 0.85 0.59 0.39 0.15 0.30 0.34 0.41 0.65 0.33 0.43 0.61 1.12 1.15 2.01 1.90 0.97 0.58 0.61 0.67 0.34 0.13 0.06 0.03 0.04 0.07 0.03 0.01 0.03 0.03 0.06 0.12 0.20 0.06 0.00 0.01
0.56 0.65 0.88 1.18 1.26 1.64 1.54 1.43 1.04 1.04 1.72 0.85 0.49 0.49 0.47 0.75 0.53 1.05 0.53 0.53 0.42 1.09 1.00 1.32 1.03 1.02 1.28 1.23 1.10 0.36 0.12 0.06 0.04 0.06 0.09 0.05 0.07 0.09 0.04 0.02 0.03 0.11 0.09 0.00 0.00
0.69 0.85 1.06 1.42 1.87 1.61 1.80 1.73 1.39 1.94 2.54 1.03 0.94 1.00 0.92 1.30 0.86 0.83 0.65 0.67 0.70 1.23 0.79 1.09 0.84 1.05 1.73 1.58 1.13 0.62 0.13 0.06 0.11 0.14 0.25 0.10 0.09 0.05 0.03 0.01 0.00 0.01 0.03 0.00 0.00
0.72 0.86 1.24 2.00 2.65 2.18 2.05 2.09 2.09 2.53 2.27 1.20 1.19 1.25 1.30 1.36 1.11 0.98 0.82 0.98 1.01 1.34 1.10 1.34 0.90 0.74 1.41 1.14 1.11 0.72 0.23 0.11 0.22 0.24 0.19 0.19 0.12 0.01 0.00 0.00 0.00 0.00 0.00 0.00 0.00
0.68 0.89 1.37 2.33 2.52 1.89 1.86 2.23 3.02 2.80 2.03 1.58 1.56 1.94 1.54 1.40 1.14 1.44 1.09 1.20 1.45 1.56 1.26 0.88 0.80 1.04 0.80 0.91 1.12 0.69 0.50 0.45 0.47 0.61 0.90 0.14 0.11 0.02 0.00 0.00 0.00 0.00 0.00 0.00 0.00
0.81 0.91 1.32 1.65 1.98 1.79 2.23 2.88 2.89 1.82 1.38 1.54 1.51 1.63 1.66 1.43 1.17 1.14 1.28 1.57 2.09 1.74 1.94 1.64 1.62 1.23 0.94 1.43 1.53 1.51 1.44 1.88 1.77 1.26 0.53 0.10 0.08 0.05 0.00 0.00 0.00 0.00 0.00 0.00 0.00
0.95 1.11 1.27 1.11 1.89 2.18 2.60 2.87 1.74 0.88 1.29 1.44 1.32 1.48 1.56 1.26 1.37 0.97 1.33 1.36 1.09 0.62 1.30 1.48 1.70 1.40 1.07 1.35 1.72 1.31 1.31 1.26 0.79 0.37 0.09 0.05 0.13 0.01 0.00 0.00 0.00 0.00 0.00 0.00 0.00
1.28 1.40 1.79 1.41 1.90 2.58 2.58 2.28 1.02 1.19 1.41 1.86 1.75 1.94 1.44 1.03 1.21 1.24 1.27 0.70 0.59 0.42 0.93 0.60 1.11 0.94 0.76 0.87 1.24 1.27 0.83 0.70 0.46 0.25 0.25 0.05 0.01 0.00 0.00 0.00 0.00 0.00 0.00 0.00 0.00
1.14 1.82 2.02 1.31 1.93 2.99 2.89 1.63 1.14 1.34 1.60 1.33 1.38 0.80 0.75 0.80 0.95 0.95 0.86 0.35 0.26 0.13 0.27 0.31 1.00 0.99 1.02 1.25 1.17 0.93 0.35 0.54 1.12 0.66 0.33 0.08 0.00 0.00 0.00 0.00 0.00 0.00 0.00 0.00 0.00
1.12 1.73 1.75 1.57 2.67 3.68 2.65 1.62 1.33 1.05 1.11 0.80 0.24 0.20 0.17 0.34 0.43 0.66 0.54 0.28 0.10 0.06 0.17 0.42 0.85 1.15 1.41 1.34 0.90 0.82 0.81 0.50 0.52 0.35 0.30 0.20 0.01 0.00 0.00 0.00 0.00 0.00 0.00 0.00 0.00
1.21 1.70 1.56 2.17 3.32 2.66 1.73 1.41 1.48 0.94 0.65 0.54 0.25 0.23 0.20 0.19 0.26 0.65 0.68 0.20 0.05 0.03 0.13 0.40 0.86 1.06 0.91 0.32 0.26 0.39 0.34 0.34 0.84 0.46 0.42 0.38 0.10 0.00 0.01 0.01 0.00 0.01 0.02 0.01 0.00
1.30 1.53 2.20 1.62 1.66 1.19 1.11 1.18 1.22 0.70 0.56 0.60 0.31 0.23 0.20 0.14 0.26 0.22 0.60 0.15 0.02 0.01 0.30 0.56 1.03 1.07 0.85 0.62 0.63 0.84 0.42 0.36 0.60 0.99 0.70 0.57 0.15 0.00 0.00 0.00 0.00 0.01 0.03 0.02 0.01
1.48 1.95 2.72 2.49 0.83 0.74 1.21 1.40 1.07 0.59 0.48 0.58 0.35 0.26 0.20 0.09 0.06 0.10 0.71 0.19 0.03 0.06 0.09 0.50 0.99 1.08 0.84 0.45 0.58 0.82 0.45 0.57 1.13 1.11 0.40 0.37 0.05 0.01 0.01 0.02 0.01 0.00 0.02 0.04 0.01
1.32 1.19 0.84 0.79 0.64 0.36 0.79 1.01 0.83 0.82 0.53 0.68 0.55 0.34 0.47 0.24 0.08 0.06 0.50 0.42 0.18 0.15 0.10 0.49 1.08 0.91 0.49 0.28 0.42 0.57 0.56 0.49 0.94 0.52 0.58 0.18 0.07 0.03 0.03 0.02 0.02 0.01 0.01 0.04 0.05
0.86 1.10 0.42 0.15 0.19 0.24 0.62 0.80 0.64 0.61 0.57 0.41 0.37 0.21 0.30 0.26 0.23 0.10 0.12 0.38 0.36 0.10 0.22 0.35 0.72 0.75 0.61 0.24 0.38 0.48 0.55 0.36 0.56 0.27 0.28 0.17 0.13 0.01 0.01 0.01 0.00 0.01 0.04 0.07 0.07
0.70 0.79 0.51 0.26 0.16 0.38 0.36 0.49 0.63 0.60 0.34 0.16 0.23 0.35 0.24 0.08 0.07 0.02 0.01 0.01 0.09 0.19 0.20 0.28 0.51 0.75 0.67 0.48 0.28 0.47 0.58 0.68 0.48 0.20 0.25 0.28 0.15 0.01 0.01 0.04 0.06 0.05 0.06 0.04 0.03

GFSSW_prec_precacc_105.txt.gz
Total_Precipitation_Accumulation
0.13 0.23 0.24 0.19 0.17 0.15 0.13 0.13 0.15 0.17 0.20 0.22 0.31 0.42 0.53 0.44 0.32 0.17 0.10 0.01 0.02 0.16 0.26 0.07 0.05 0.17 0.24 0.15 0.23 0.40 0.63 0.63 0.14 0.07 0.06 0.01 0.00 0.00 0.00 0.00 0.00 0.00 0.01 0.03 0.05
0.18 0.22 0.21 0.21 0.20 0.20 0.18 0.18 0.18 0.16 0.13 0.19 0.30 0.37 0.37 0.27 0.28 0.20 0.02 0.04 0.19 0.27 0.23 0.18 0.17 0.27 0.37 0.18 0.42 0.38 0.24 0.38 0.07 0.04 0.07 0.09 0.07 0.03 0.00 0.00 0.02 0.11 0.19 0.22 0.23
0.20 0.21 0.23 0.28 0.25 0.20 0.23 0.22 0.20 0.21 0.27 0.32 0.32 0.37 0.38 0.25 0.13 0.04 0.13 0.13 0.19 0.46 0.21 0.15 0.20 0.35 0.37 0.33 0.29 0.21 0.13 0.03 0.07 0.13 0.17 0.25 0.14 0.03 0.01 0.00 0.00 0.04 0.22 0.40 0.56
0.23 0.26 0.30 0.28 0.25 0.29 0.32 0.29 0.26 0.32 0.39 0.40 0.43 0.42 0.55 0.38 0.08 0.18 0.30 0.14 0.41 0.94 0.68 0.40 0.35 0.52 0.35 0.25 0.10 0.13 0.05 0.01 0.15 0.43 0.33 0.46 0.18 0.10 0.05 0.01 0.05 0.12 0.13 0.18 0.29
0.27 0.27 0.24 0.21 0.24 0.24 0.27 0.31 0.32 0.36 0.47 0.57 0.64 0.72 0.65 0.35 0.07 0.13 0.14 0.06 0.17 0.61 0.68 0.54 0.40 0.55 0.32 0.11 0.19 0.10 0.04 0.02 0.15 0.77 0.52 0.39 0.35 0.10 0.05 0.03 0.09 0.25 0.46 0.39 0.37
0.23 0.25 0.21 0.20 0.22 0.24 0.26 0.25 0.31 0.42 0.53 0.49 0.86 0.94 0.53 0.17 0.00 0.00 0.03 0.13 0.09 0.33 0.60 0.79 0.40 0.55 0.37 0.20 0.21 0.12 0.08 0.06 0.10 0.56 0.62 0.54 0.45 0.13 0.08 0.12 0.10 0.23 0.26 0.36 0.37
0.28 0.24 0.22 0.23 0.27 0.26 0.28 0.29 0.34 0.51 0.61 0.66 0.95 1.05 0.49 0.06 0.01 0.01 0.05 0.09 0.16 0.24 0.44 0.53 0.75 0.93 0.85 0.40 0.10 0.11 0.13 0.22 0.12 0.17 0.54 0.69 0.55 0.27 0.10 0.12 0.10 0.09 0.17 0.29 0.39
0.33 0.31 0.27 0.33 0.34 0.32 0.31 0.33 0.42 0.54 0.62 0.78 1.28 1.37 0.32 0.01 0.02 0.01 0.03 0.11 0.15 0.38 0.72 0.95 0.99 0.95 1.11 0.77 0.28 0.37 0.30 0.26 0.13 0.08 0.19 0.75 0.73 0.29 0.14 0.21 0.15 0.05 0.06 0.12 0.22
0.34 0.35 0.44 0.57 0.43 0.38 0.36 0.41 0.58 0.86 0.91 1.17 1.50 1.04 0.21 0.06 0.06 0.01 0.03 0.12 0.20 0.44 0.82 1.34 1.52 1.49 1.11 1.33 0.88 0.62 0.34 0.06 0.09 0.10 0.11 0.37 0.60 0.34 0.25 0.27 0.16 0.09 0.03 0.06 0.07
0.43 0.48 0.67 0.77 0.63 0.51 0.61 0.85 1.00 1.43 1.11 1.34 1.28 0.97 0.17 0.04 0.05 0.06 0.08 0.17 0.29 0.66 1.34 1.79 1.94 1.75 1.56 1.56 1.03 0.30 0.17 0.04 0.05 0.09 0.10 0.09 0.27 0.47 0.39 0.28 0.20 0.13 0.03 0.04 0.02
0.51 0.52 0.58 0.71 0.78 0.88 1.26 1.59 1.48 1.55 1.18 0.76 0.69 0.23 0.11 0.08 0.17 0.22 0.16 0.27 0.47 1.23 1.43 2.01 2.67 2.02 1.08 0.61 0.44 0.20 0.07 0.07 0.03 0.09 0.08 0.02 0.03 0.28 0.42 0.34 0.30 0.21 0.06 0.02 0.01
0.49 0.59 0.71 0.76 0.99 1.41 1.99 1.54 0.91 0.80 0.85 0.59 0.39 0.15 0.30 0.34 0.41 0.65 0.33 0.43 0.61 1.12 1.15 2.01 1.90 0.97 0.59 0.63 0.68 0.41 0.14 0.09 0.06 0.08 0.14 0.05 0.02 0.09 0.28 0.30 0.30 0.25 0.07 0.01 0.02
0.56 0.65 0.88 1.18 1.26 1.64 1.54 1.43 1.04 1.04 1.72 0.85 0.49 0.49 0.47 0.75 0.53 1.05 0.53 0.53 0.42 1.09 1.00 1.32 1.03 1.02 1.29 1.31 1.11 0.41 0.12 0.08 0.06 0.12 0.14 0.09 0.11 0.13 0.17 0.22 0.16 0.24 0.16 0.01 0.01
0.69 0.85 1.07 1.42 1.87 1.61 1.80 1.73 1.39 1.94 2.54 1.03 0.94 1.00 0.92 1.30 0.86 0.83 0.65 0.67 0.70 1.23 0.79 1.09 0.84 1.05 1.73 1.62 1.15 0.64 0.13 0.07 0.13 0.16 0.32 0.16 0.16 0.07 0.06 0.11 0.10 0.11 0.18 0.05 0.00
0.72 0.86 1.24 2.00 2.65 2.18 2.05 2.09 2.09 2.53 2.27 1.20 1.19 1.25 1.30 1.36 1.11 0.98 0.82 0.98 1.01 1.34 1.10 1.34 0.90 0.75 1.42 1.15 1.14 0.81 0.24 0.11 0.23 0.27 0.23 0.24 0.13 0.01 0.01 0.03 0.04 0.01 0.06 0.07 0.01
0.68 0.89 1.37 2.33 2.52 1.89 1.86 2.23 3.02 2.80 2.03 1.58 1.56 1.94 1.54 1.40 1.14 1.44 1.09 1.20 1.45 1.56 1.26 0.89 0.80 1.08 0.82 0.92 1.17 0.86 0.53 0.46 0.51 0.66 0.92 0.15 0.11 0.02 0.00 0.00 0.00 0.00 0.00 0.03 0.01
0.81 0.91 1.32 1.65 1.98 1.79 2.23 2.88 2.89 1.82 1.38 1.54 1.51 1.63 1.66 1.43 1.17 1.14 1.28 1.57 2.09 1.76 1.97 1.70 1.76 1.33 0.95 1.44 1.59 1.74 1.49 1.94 1.86 1.31 0.54 0.10 0.08 0.05 0.00 0.00 0.00 0.00 0.00 0.00 0.00
0.95 1.11 1.27 1.11 1.89 2.18 2.60 2.87 1.74 0.88 1.29 1.44 1.32 1.48 1.56 1.26 1.37 0.97 1.33 1.36 1.09 0.65 1.50 1.68 1.81 1.42 1.08 1.35 1.75 1.49 1.37 1.27 0.82 0.38 0.09 0.06 0.13 0.01 0.00 0.00 0.00 0.00 0.00 0.00 0.00
1.28 1.40 1.79 1.41 1.90 2.58 2.58 2.28 1.02 1.19 1.41 1.86 1.75 1.94 1.44 1.03 1.21 1.24 1.27 0.70 0.59 0.43 0.96 0.62 1.16 0.95 0.76 0.87 1.25 1.35 0.86 0.72 0.46 0.25 0.25 0.05 0.01 0.00 0.00 0.00 0.00 0.00 0.00 0.00 0.00
1.14 1.82 2.02 1.31 1.93 2.99 2.89 1.63 1.14 1.34 1.60 1.33 1.38 0.80 0.75 0.80 0.95 0.95 0.86 0.35 0.26 0.13 0.27 0.31 1.01 0.99 1.02 1.25 1.17 0.96 0.38 0.57 1.12 0.66 0.33 0.08 0.00 0.00 0.00 0.00 0.00 0.00 0.00 0.00 0.00
1.12 1.73 1.75 1.57 2.67 3.68 2.65 1.62 1.33 1.05 1.11 0.80 0.24 0.20 0.17 0.34 0.43 0.66 0.54 0.28 0.10 0.06 0.17 0.42 0.85 1.15 1.41 1.34 0.90 0.82 0.81 0.51 0.52 0.35 0.30 0.20 0.01 0.00 0.00 0.00 0.00 0.00 0.00 0.00 0.00
1.21 1.70 1.56 2.17 3.32 2.66 1.73 1.41 1.48 0.94 0.65 0.54 0.25 0.23 0.20 0.19 0.26 0.65 0.68 0.20 0.05 0.03 0.13 0.40 0.86 1.06 0.91 0.32 0.26 0.39 0.34 0.34 0.84 0.46 0.42 0.38 0.10 0.00 0.01 0.01 0.00 0.01 0.02 0.01 0.00
1.30 1.53 2.20 1.62 1.66 1.19 1.11 1.18 1.22 0.70 0.56 0.60 0.31 0.23 0.20 0.14 0.26 0.22 0.60 0.15 0.02 0.01 0.30 0.56 1.03 1.07 0.85 0.62 0.63 0.84 0.42 0.36 0.60 0.99 0.70 0.57 0.15 0.00 0.00 0.00 0.00 0.01 0.03 0.02 0.01
1.48 1.95 2.72 2.49 0.83 0.74 1.21 1.40 1.07 0.59 0.48 0.58 0.35 0.26 0.20 0.09 0.06 0.10 0.71 0.19 0.03 0.07 0.09 0.50 0.99 1.08 0.84 0.45 0.58 0.82 0.45 0.57 1.13 1.11 0.40 0.37 0.05 0.01 0.01 0.02 0.01 0.00 0.02 0.04 0.01
1.32 1.19 0.84 0.79 0.64 0.36 0.79 1.01 0.83 0.82 0.53 0.68 0.55 0.34 0.47 0.24 0.08 0.06 0.50 0.42 0.18 0.15 0.10 0.49 1.09 0.92 0.49 0.28 0.42 0.57 0.56 0.49 0.94 0.52 0.58 0.18 0.07 0.03 0.03 0.02 0.02 0.01 0.01 0.04 0.05
0.86 1.10 0.42 0.15 0.19 0.24 0.62 0.80 0.64 0.61 0.57 0.41 0.37 0.21 0.30 0.26 0.23 0.10 0.12 0.38 0.36 0.10 0.22 0.35 0.72 0.75 0.61 0.24 0.38 0.48 0.55 0.36 0.56 0.27 0.28 0.17 0.13 0.01 0.01 0.01 0.00 0.01 0.04 0.07 0.07
0.70 0.79 0.51 0.26 0.16 0.38 0.36 0.49 0.63 0.60 0.34 0.16 0.23 0.35 0.24 0.08 0.07 0.02 0.01 0.01 0.09 0.19 0.20 0.28 0.51 0.75 0.67 0.48 0.28 0.47 0.58 0.68 0.48 0.20 0.25 0.28 0.15 0.01 0.01 0.04 0.06 0.05 0.06 0.04 0.03

GFSSW_prec_precacc_108.txt.gz
Total_Precipitation_Accumulation
0.13 0.23 0.24 0.20 0.18 0.16 0.14 0.13 0.16 0.18 0.20 0.22 0.31 0.42 0.53 0.44 0.32 0.17 0.10 0.01 0.02 0.19 0.31 0.07 0.05 0.17 0.24 0.15 0.23 0.42 0.67 0.65 0.14 0.07 0.07 0.05 0.01 0.00 0.00 0.00 0.00 0.00 0.01 0.06 0.18
0.18 0.22 0.21 0.21 0.21 0.21 0.19 0.19 0.19 0.16 0.13 0.19 0.31 0.37 0.37 0.27 0.28 0.20 0.02 0.04 0.22 0.40 0.26 0.18 0.17 0.27 0.37 0.18 0.42 0.39 0.26 0.39 0.07 0.04 0.08 0.13 0.14 0.04 0.00 0.00 0.03 0.14 0.21 0.23 0.29
0.20 0.22 0.23 0.28 0.25 0.21 0.24 0.23 0.21 0.22 0.27 0.32 0.32 0.37 0.38 0.25 0.13 0.04 0.13 0.13 0.20 0.47 0.21 0.15 0.20 0.35 0.37 0.33 0.29 0.22 0.13 0.03 0.07 0.13 0.17 0.29 0.24 0.05 0.05 0.03 0.00 0.05 0.27 0.43 0.66
0.23 0.26 0.30 0.29 0.25 0.30 0.33 0.30 0.28 0.33 0.39 0.40 0.43 0.43 0.55 0.38 0.08 0.18 0.30 0.14 0.41 0.94 0.68 0.40 0.35 0.52 0.35 0.26 0.11 0.15 0.05 0.01 0.15 0.44 0.36 0.49 0.29 0.19 0.13 0.03 0.05 0.13 0.20 0.32 0.39
0.28 0.27 0.25 0.22 0.24 0.25 0.28 0.31 0.33 0.37 0.47 0.57 0.65 0.72 0.65 0.35 0.07 0.13 0.14 0.06 0.17 0.61 0.68 0.54 0.40 0.56 0.32 0.11 0.20 0.13 0.05 0.02 0.15 0.78 0.54 0.42 0.49 0.35 0.18 0.05 0.09 0.26 0.54 0.54 0.47
0.23 0.25 0.21 0.20 0.23 0.25 0.27 0.26 0.32 0.43 0.53 0.49 0.86 0.94 0.53 0.17 0.00 0.00 0.03 0.13 0.09 0.33 0.60 0.80 0.41 0.56 0.39 0.22 0.22 0.13 0.09 0.06 0.10 0.58 0.65 0.59 0.60 0.52 0.29 0.14 0.10 0.24 0.35 0.46 0.53
0.28 0.24 0.22 0.24 0.27 0.27 0.28 0.30 0.35 0.52 0.61 0.66 0.95 1.05 0.49 0.06 0.01 0.01 0.05 0.09 0.16 0.24 0.44 0.53 0.75 0.94 0.87 0.46 0.16 0.12 0.15 0.24 0.12 0.18 0.57 0.77 0.71 0.62 0.37 0.18 0.10 0.12 0.23 0.39 0.61
0.33 0.31 0.27 0.33 0.35 0.32 0.31 0.34 0.43 0.54 0.62 0.79 1.29 1.37 0.32 0.01 0.02 0.01 0.03 0.11 0.15 0.38 0.72 0.96 0.99 0.96 1.13 0.82 0.34 0.41 0.33 0.31 0.13 0.08 0.23 0.84 0.88 0.79 0.60 0.40 0.19 0.07 0.09 0.16 0.31
0.35 0.36 0.44 0.57 0.44 0.39 0.37 0.41 0.58 0.86 0.91 1.17 1.50 1.04 0.21 0.06 0.06 0.01 0.03 0.12 0.20 0.44 0.82 1.34 1.52 1.50 1.12 1.34 0.89 0.71 0.46 0.09 0.10 0.11 0.15 0.42 0.72 0.90 0.92 0.61 0.25 0.12 0.06 0.10 0.13
0.45 0.48 0.67 0.78 0.63 0.51 0.62 0.85 1.00 1.43 1.11 1.34 1.28 0.97 0.17 0.04 0.05 0.06 0.08 0.17 0.29 0.66 1.34 1.79 1.95 1.75 1.57 1.57 1.04 0.46 0.32 0.07 0.08 0.12 0.14 0.11 0.34 0.82 1.14 0.63 0.27 0.17 0.07 0.10 0.07
0.59 0.52 0.58 0.71 0.78 0.88 1.26 1.59 1.48 1.55 1.18 0.76 0.69 0.23 0.11 0.08 0.17 0.22 0.16 0.27 0.47 1.23 1.43 2.01 2.67 2.02 1.08 0.62 0.45 0.27 0.20 0.13 0.04 0.15 0.12 0.04 0.06 0.43 1.02 0.77 0.39 0.26 0.08 0.06 0.07
0.58 0.60 0.71 0.76 1.00 1.41 1.99 1.54 0.91 0.80 0.85 0.59 0.39 0.15 0.30 0.34 0.41 0.65 0.33 0.43 0.61 1.12 1.15 2.01 1.90 0.97 0.59 0.65 0.73 0.43 0.23 0.13 0.08 0.14 0.21 0.08 0.06 0.17 0.65 0.77 0.49 0.33 0.07 0.02 0.03
0.77 0.67 0.88 1.18 1.26 1.64 1.54 1.43 1.04 1.04 1.72 0.85 0.49 0.49 0.47 0.75 0.53 1.05 0.53 0.53 0.42 1.09 1.00 1.32 1.03 1.02 1.29 1.38 1.15 0.43 0.17 0.12 0.10 0.17 0.19 0.17 0.16 0.19 0.33 0.52 0.46 0.38 0.18 0.02 0.01
0.90 0.88 1.07 1.42 1.87 1.61 1.80 1.73 1.39 1.94 2.54 1.03 0.94 1.00 0.92 1.30 0.86 0.83 0.65 0.67 0.70 1.23 0.79 1.09 0.84 1.06 1.74 1.66 1.16 0.65 0.14 0.12 0.17 0.20 0.39 0.30 0.21 0.11 0.10 0.20 0.26 0.31 0.23 0.05 0.00
0.93 0.90 1.25 2.00 2.65 2.18 2.05 2.09 2.09 2.53 2.27 1.20 1.19 1.25 1.30 1.36 1.11 0.98 0.82 0.98 1.01 1.34 1.10 1.34 0.90 0.75 1.43 1.16 1.17 0.90 0.24 0.12 0.25 0.30 0.28 0.29 0.14 0.03 0.04 0.05 0.09 0.13 0.18 0.07 0.01
0.75 0.90 1.37 2.33 2.52 1.89 1.86 2.23 3.02 2.80 2.03 1.58 1.56 1.94 1.54 1.40 1.14 1.44 1.09 1.20 1.45 1.56 1.27 0.89 0.80 1.08 0.84 0.94 1.27 0.95 0.53 0.46 0.51 0.67 0.94 0.20 0.11 0.02 0.01 0.01 0.03 0.02 0.17 0.04 0.01
0.86 0.92 1.32 1.65 1.98 1.79 2.23 2.88 2.89 1.82 1.38 1.54 1.51 1.63 1.66 1.43 1.17 1.14 1.28 1.57 2.12 1.78 2.00 1.75 1.83 1.41 1.04 1.53 1.74 1.89 1.50 1.97 1.94 1.35 0.55 0.10 0.08 0.05 0.00 0.00 0.01 0.01 0.06 0.07 0.00
0.98 1.12 1.27 1.11 1.89 2.18 2.60 2.87 1.74 0.88 1.29 1.44 1.32 1.48 1.57 1.26 1.37 0.97 1.33 1.36 1.11 0.72 1.55 1.82 1.90 1.46 1.09 1.38 1.85 1.66 1.39 1.29 0.85 0.39 0.10 0.06 0.13 0.01 0.00 0.00 0.00 0.00 0.00 0.05 0.00
1.31 1.41 1.79 1.41 1.90 2.58 2.58 2.28 1.02 1.19 1.41 1.86 1.75 1.94 1.45 1.03 1.21 1.24 1.27 0.70 0.59 0.44 0.98 0.63 1.18 0.96 0.76 0.87 1.30 1.45 0.87 0.72 0.46 0.25 0.25 0.05 0.01 0.00 0.00 0.00 0.00 0.00 0.00 0.00 0.00
1.16 1.83 2.02 1.31 1.93 2.99 2.89 1.63 1.14 1.34 1.60 1.33 1.38 0.80 0.75 0.80 0.95 0.95 0.86 0.35 0.26 0.13 0.27 0.32 1.01 0.99 1.02 1.25 1.21 1.01 0.40 0.58 1.12 0.66 0.33 0.08 0.00 0.00 0.00 0.00 0.00 0.00 0.00 0.00 0.00
1.12 1.74 1.76 1.57 2.67 3.68 2.65 1.62 1.33 1.05 1.11 0.80 0.24 0.20 0.17 0.34 0.43 0.66 0.54 0.28 0.10 0.06 0.17 0.42 0.85 1.15 1.41 1.34 0.90 0.85 0.84 0.52 0.52 0.35 0.30 0.20 0.01 0.00 0.00 0.00 0.00 0.00 0.00 0.00 0.00
1.21 1.71 1.57 2.17 3.32 2.66 1.73 1.41 1.48 0.94 0.65 0.54 0.25 0.23 0.20 0.19 0.26 0.65 0.68 0.20 0.05 0.03 0.13 0.40 0.86 1.06 0.91 0.32 0.26 0.39 0.34 0.34 0.84 0.46 0.42 0.38 0.10 0.00 0.01 0.01 0.00 0.01 0.02 0.01 0.00
1.30 1.54 2.22 1.62 1.66 1.19 1.11 1.18 1.22 0.70 0.56 0.60 0.31 0.23 0.20 0.14 0.26 0.22 0.60 0.15 0.02 0.01 0.30 0.57 1.03 1.07 0.85 0.62 0.63 0.84 0.42 0.36 0.60 0.99 0.70 0.57 0.15 0.00 0.00 0.00 0.00 0.01 0.03 0.02 0.01
1.48 1.96 2.73 2.49 0.83 0.74 1.21 1.40 1.07 0.59 0.48 0.58 0.35 0.26 0.20 0.09 0.06 0.10 0.71 0.19 0.03 0.07 0.10 0.50 0.99 1.08 0.85 0.46 0.58 0.82 0.45 0.57 1.13 1.11 0.40 0.37 0.05 0.01 0.01 0.02 0.01 0.00 0.02 0.04 0.01
1.32 1.19 0.85 0.79 0.64 0.36 0.79 1.01 0.83 0.82 0.53 0.68 0.55 0.34 0.47 0.24 0.08 0.06 0.50 0.42 0.18 0.15 0.10 0.49 1.09 0.92 0.49 0.28 0.42 0.57 0.56 0.49 0.94 0.52 0.58 0.18 0.07 0.03 0.03 0.02 0.02 0.01 0.01 0.04 0.05
0.86 1.11 0.42 0.15 0.19 0.24 0.62 0.80 0.64 0.61 0.57 0.41 0.37 0.21 0.30 0.26 0.23 0.10 0.12 0.38 0.36 0.10 0.22 0.35 0.72 0.75 0.61 0.24 0.38 0.48 0.55 0.36 0.56 0.27 0.28 0.17 0.13 0.01 0.01 0.01 0.00 0.01 0.04 0.07 0.07
0.70 0.79 0.51 0.26 0.16 0.38 0.36 0.49 0.63 0.60 0.34 0.16 0.23 0.35 0.24 0.08 0.07 0.02 0.01 0.01 0.09 0.19 0.20 0.28 0.51 0.75 0.67 0.48 0.28 0.47 0.58 0.68 0.48 0.20 0.25 0.28 0.15 0.01 0.01 0.04 0.06 0.05 0.06 0.04 0.03

GFSSW_prec_precacc_111.txt.gz
Total_Precipitation_Accumulation
0.13 0.23 0.25 0.20 0.18 0.16 0.15 0.14 0.16 0.19 0.21 0.23 0.31 0.43 0.53 0.45 0.32 0.17 0.10 0.01 0.02 0.19 0.33 0.08 0.05 0.17 0.24 0.15 0.23 0.44 0.69 0.65 0.15 0.07 0.07 0.05 0.02 0.00 0.00 0.00 0.00 0.03 0.03 0.09 0.22
0.18 0.23 0.21 0.22 0.21 0.22 0.19 0.19 0.20 0.17 0.14 0.19 0.31 0.37 0.38 0.27 0.28 0.20 0.02 0.04 0.23 0.46 0.30 0.19 0.17 0.27 0.37 0.18 0.42 0.40 0.27 0.39 0.07 0.04 0.08 0.13 0.15 0.04 0.02 0.02 0.03 0.15 0.24 0.29 0.30
0.20 0.22 0.23 0.28 0.26 0.21 0.24 0.24 0.22 0.23 0.28 0.32 0.32 0.37 0.38 0.25 0.13 0.04 0.13 0.13 0.22 0.48 0.21 0.15 0.20 0.35 0.37 0.33 0.29 0.22 0.14 0.03 0.07 0.13 0.18 0.30 0.25 0.06 0.12 0.12 0.01 0.06 0.30 0.50 0.68
0.23 0.26 0.30 0.29 0.26 0.30 0.33 0.31 0.28 0.34 0.39 0.40 0.44 0.43 0.55 0.38 0.08 0.18 0.30 0.14 0.41 0.94 0.68 0.40 0.35 0.52 0.35 0.26 0.11 0.15 0.05 0.01 0.15 0.44 0.36 0.51 0.31 0.22 0.18 0.11 0.05 0.13 0.28 0.48 0.57
0.28 0.27 0.25 0.22 0.25 0.25 0.28 0.32 0.34 0.37 0.47 0.57 0.65 0.72 0.65 0.35 0.07 0.13 0.14 0.06 0.17 0.61 0.68 0.54 0.40 0.56 0.32 0.11 0.20 0.13 0.05 0.02 0.15 0.78 0.54 0.43 0.53 0.38 0.21 0.08 0.09 0.26 0.58 0.66 0.68
0.24 0.27 0.21 0.21 0.23 0.25 0.27 0.27 0.33 0.43 0.53 0.49 0.87 0.95 0.53 0.17 0.00 0.00 0.03 0.13 0.09 0.33 0.60 0.80 0.41 0.57 0.40 0.23 0.24 0.14 0.09 0.06 0.10 0.58 0.65 0.60 0.61 0.57 0.29 0.16 0.11 0.24 0.37 0.54 0.73
0.35 0.27 0.22 0.24 0.27 0.27 0.29 0.31 0.36 0.52 0.61 0.66 0.95 1.05 0.49 0.06 0.01 0.01 0.05 0.09 0.16 0.24 0.44 0.53 0.75 0.94 0.88 0.46 0.19 0.17 0.19 0.24 0.12 0.18 0.57 0.78 0.72 0.63 0.38 0.24 0.14 0.13 0.24 0.44 0.71
0.47 0.41 0.32 0.33 0.35 0.32 0.31 0.34 0.44 0.54 0.62 0.79 1.29 1.37 0.32 0.01 0.02 0.01 0.03 0.11 0.15 0.38 0.72 0.96 0.99 0.97 1.14 0.83 0.34 0.44 0.36 0.32 0.13 0.08 0.23 0.89 0.91 0.79 0.62 0.50 0.26 0.07 0.09 0.18 0.37
0.46 0.45 0.49 0.57 0.44 0.39 0.37 0.42 0.58 0.86 0.91 1.17 1.50 1.04 0.21 0.06 0.06 0.01 0.03 0.12 0.20 0.44 0.82 1.35 1.53 1.50 1.13 1.34 0.89 0.71 0.46 0.10 0.10 0.11 0.15 0.44 0.74 0.91 0.94 0.78 0.48 0.18 0.07 0.12 0.19
0.62 0.64 0.76 0.79 0.63 0.51 0.62 0.85 1.00 1.43 1.11 1.34 1.28 0.97 0.17 0.04 0.05 0.06 0.08 0.17 0.29 0.66 1.34 1.79 1.95 1.75 1.57 1.57 1.05 0.46 0.35 0.12 0.09 0.12 0.14 0.11 0.34 0.82 1.20 0.96 0.68 0.33 0.12 0.12 0.12
0.81 0.78 0.78 0.74 0.78 0.89 1.26 1.59 1.48 1.55 1.18 0.76 0.69 0.23 0.11 0.08 0.17 0.22 0.16 0.27 0.47 1.23 1.43 2.01 2.67 2.02 1.08 0.62 0.46 0.29 0.23 0.18 0.06 0.17 0.12 0.04 0.06 0.44 1.13 1.12 0.77 0.47 0.16 0.10 0.10
0.75 0.75 0.80 0.78 1.00 1.42 1.99 1.54 0.91 0.80 0.85 0.59 0.39 0.15 0.30 0.34 0.41 0.65 0.33 0.43 0.61 1.12 1.15 2.01 1.90 0.97 0.59 0.65 0.76 0.48 0.30 0.17 0.09 0.19 0.23 0.10 0.10 0.19 0.74 1.06 0.88 0.64 0.17 0.07 0.07
1.04 0.97 1.01 1.20 1.27 1.64 1.54 1.43 1.04 1.04 1.72 0.85 0.49 0.49 0.47 0.75 0.53 1.05 0.53 0.53 0.42 1.09 1.00 1.32 1.03 1.02 1.29 1.38 1.18 0.48 0.26 0.19 0.11 0.25 0.34 0.20 0.24 0.24 0.41 0.77 0.75 0.64 0.32 0.07 0.03
1.11 1.02 1.12 1.43 1.88 1.61 1.80 1.73 1.39 1.94 2.54 1.03 0.94 1.00 0.92 1.30 0.86 0.83 0.65 0.67 0.70 1.23 0.79 1.09 0.84 1.06 1.76 1.71 1.19 0.72 0.24 0.16 0.21 0.33 0.68 0.37 0.29 0.17 0.16 0.35 0.44 0.54 0.40 0.13 0.02
1.01 0.99 1.26 2.01 2.65 2.18 2.05 2.09 2.09 2.53 2.27 1.20 1.19 1.25 1.30 1.36 1.11 0.98 0.82 0.98 1.01 1.34 1.10 1.34 0.90 0.75 1.43 1.18 1.22 0.97 0.43 0.18 0.27 0.32 0.42 0.41 0.16 0.09 0.10 0.16 0.19 0.31 0.41 0.15 0.01
0.81 0.96 1.39 2.34 2.52 1.89 1.86 2.23 3.02 2.80 2.03 1.58 1.56 1.94 1.54 1.40 1.14 1.44 1.09 1.20 1.45 1.56 1.27 0.89 0.80 1.08 0.91 0.97 1.34 0.97 0.55 0.50 0.52 0.69 1.06 0.25 0.12 0.06 0.05 0.05 0.05 0.12 0.45 0.11 0.01
0.95 0.95 1.33 1.65 1.98 1.79 2.23 2.88 2.89 1.82 1.38 1.54 1.51 1.63 1.66 1.43 1.17 1.14 1.28 1.57 2.13 1.80 2.04 1.79 1.91 1.49 1.11 1.56 1.75 1.89 1.50 1.97 1.94 1.37 0.62 0.12 0.08 0.05 0.00 0.01 0.02 0.04 0.31 0.10 0.00
1.10 1.14 1.28 1.11 1.89 2.18 2.60 2.87 1.74 0.88 1.29 1.44 1.32 1.48 1.57 1.26 1.37 0.97 1.33 1.36 1.11 0.74 1.58 1.84 1.93 1.48 1.10 1.43 1.99 1.68 1.39 1.29 0.85 0.39 0.11 0.06 0.13 0.01 0.00 0.00 0.00 0.00 0.09 0.11 0.00
1.42 1.42 1.80 1.41 1.90 2.58 2.58 2.28 1.02 1.19 1.41 1.86 1.75 1.94 1.45 1.03 1.21 1.24 1.27 0.70 0.59 0.44 0.99 0.64 1.18 0.96 0.76 0.96 1.47 1.48 0.87 0.73 0.46 0.25 0.25 0.05 0.01 0.00 0.00 0.00 0.00 0.00 0.05 0.08 0.01
1.21 1.85 2.04 1.31 1.93 2.99 2.89 1.63 1.14 1.34 1.60 1.33 1.38 0.80 0.75 0.80 0.95 0.95 0.86 0.35 0.26 0.13 0.27 0.32 1.01 0.99 1.02 1.32 1.27 1.01 0.40 0.58 1.12 0.66 0.33 0.08 0.00 0.00 0.00 0.00 0.00 0.00 0.02 0.09 0.04
1.14 1.76 1.78 1.58 2.67 3.68 2.65 1.62 1.33 1.05 1.11 0.80 0.24 0.20 0.17 0.34 0.43 0.66 0.54 0.28 0.10 0.06 0.17 0.42 0.85 1.15 1.41 1.35 0.91 0.87 0.84 0.52 0.52 0.35 0.30 0.20 0.02 0.00 0.00 0.00 0.00 0.00 0.00 0.03 0.08
1.22 1.72 1.59 2.19 3.32 2.66 1.73 1.41 1.48 0.94 0.65 0.54 0.25 0.23 0.20 0.19 0.26 0.65 0.68 0.20 0.05 0.03 0.13 0.40 0.86 1.06 0.91 0.32 0.27 0.39 0.34 0.34 0.84 0.46 0.42 0.38 0.11 0.00 0.01 0.01 0.00 0.01 0.02 0.01 0.04
1.31 1.58 2.27 1.63 1.66 1.19 1.11 1.18 1.22 0.70 0.56 0.60 0.31 0.23 0.20 0.14 0.26 0.22 0.60 0.15 0.02 0.01 0.30 0.57 1.03 1.07 0.85 0.62 0.63 0.84 0.42 0.36 0.60 0.99 0.70 0.57 0.15 0.00 0.00 0.00 0.00 0.01 0.03 0.02 0.01
1.49 1.99 2.77 2.50 0.83 0.74 1.21 1.40 1.07 0.59 0.48 0.58 0.35 0.26 0.20 0.09 0.06 0.10 0.71 0.19 0.03 0.07 0.10 0.50 0.99 1.08 0.85 0.46 0.58 0.82 0.45 0.57 1.13 1.11 0.40 0.37 0.05 0.01 0.01 0.02 0.01 0.00 0.02 0.04 0.01
1.33 1.20 0.86 0.79 0.64 0.36 0.79 1.01 0.83 0.82 0.53 0.68 0.55 0.34 0.47 0.24 0.08 0.06 0.50 0.42 0.18 0.15 0.10 0.49 1.09 0.92 0.49 0.28 0.42 0.57 0.56 0.49 0.94 0.52 0.58 0.18 0.07 0.03 0.03 0.02 0.02 0.01 0.01 0.04 0.05
0.86 1.11 0.42 0.15 0.19 0.24 0.62 0.80 0.64 0.61 0.57 0.41 0.37 0.21 0.30 0.26 0.23 0.10 0.12 0.38 0.36 0.10 0.22 0.35 0.72 0.75 0.61 0.24 0.38 0.48 0.55 0.36 0.56 0.27 0.28 0.17 0.13 0.01 0.01 0.01 0.00 0.01 0.04 0.07 0.07
0.70 0.79 0.51 0.26 0.16 0.38 0.36 0.49 0.63 0.60 0.34 0.16 0.23 0.35 0.24 0.08 0.07 0.02 0.01 0.01 0.09 0.19 0.20 0.28 0.51 0.75 0.67 0.48 0.28 0.47 0.58 0.68 0.48 0.20 0.25 0.28 0.15 0.01 0.01 0.04 0.06 0.05 0.06 0.04 0.03

GFSSW_prec_precacc_114.txt.gz
Total_Precipitation_Accumulation
0.13 0.23 0.25 0.20 0.18 0.17 0.16 0.15 0.17 0.19 0.22 0.23 0.31 0.43 0.53 0.45 0.32 0.17 0.10 0.01 0.02 0.19 0.33 0.08 0.05 0.17 0.24 0.15 0.23 0.45 0.70 0.66 0.15 0.07 0.07 0.05 0.02 0.00 0.00 0.00 0.00 0.03 0.04 0.09 0.23
0.18 0.23 0.21 0.22 0.21 0.22 0.20 0.19 0.20 0.18 0.15 0.20 0.31 0.37 0.38 0.27 0.28 0.20 0.02 0.04 0.23 0.48 0.32 0.19 0.17 0.27 0.37 0.18 0.42 0.41 0.27 0.39 0.07 0.04 0.08 0.13 0.15 0.04 0.02 0.02 0.03 0.15 0.24 0.30 0.33
0.21 0.22 0.23 0.28 0.26 0.22 0.25 0.24 0.22 0.24 0.28 0.32 0.32 0.37 0.39 0.25 0.13 0.04 0.13 0.14 0.23 0.49 0.22 0.15 0.20 0.35 0.37 0.33 0.30 0.23 0.14 0.03 0.07 0.13 0.18 0.30 0.25 0.06 0.13 0.13 0.01 0.06 0.30 0.51 0.76
0.27 0.28 0.31 0.29 0.26 0.30 0.34 0.31 0.29 0.35 0.39 0.40 0.44 0.43 0.55 0.38 0.08 0.18 0.30 0.14 0.41 0.94 0.68 0.40 0.35 0.52 0.35 0.26 0.11 0.15 0.05 0.01 0.15 0.44 0.36 0.51 0.31 0.22 0.19 0.11 0.05 0.13 0.28 0.48 0.63
0.33 0.34 0.29 0.24 0.25 0.25 0.28 0.32 0.35 0.38 0.47 0.57 0.65 0.73 0.65 0.35 0.07 0.13 0.14 0.06 0.17 0.61 0.68 0.54 0.40 0.56 0.32 0.11 0.20 0.13 0.05 0.02 0.15 0.78 0.54 0.43 0.54 0.39 0.21 0.08 0.09 0.26 0.58 0.66 0.69
0.31 0.38 0.36 0.29 0.25 0.25 0.27 0.27 0.34 0.44 0.53 0.49 0.87 0.95 0.53 0.17 0.00 0.00 0.03 0.13 0.09 0.33 0.60 0.80 0.41 0.57 0.41 0.23 0.24 0.14 0.10 0.06 0.11 0.58 0.65 0.60 0.61 0.58 0.29 0.17 0.12 0.27 0.37 0.54 0.73
0.47 0.40 0.30 0.28 0.29 0.27 0.29 0.31 0.37 0.52 0.61 0.66 0.96 1.05 0.49 0.06 0.01 0.01 0.05 0.09 0.16 0.24 0.44 0.53 0.75 0.95 0.88 0.47 0.20 0.18 0.20 0.24 0.12 0.18 0.57 0.80 0.73 0.64 0.38 0.24 0.14 0.15 0.24 0.44 0.71
0.59 0.60 0.46 0.50 0.39 0.32 0.32 0.35 0.44 0.54 0.62 0.79 1.30 1.37 0.32 0.01 0.02 0.01 0.03 0.11 0.15 0.38 0.72 0.96 1.01 0.98 1.16 0.84 0.35 0.44 0.37 0.32 0.13 0.08 0.23 0.91 0.91 0.79 0.62 0.50 0.27 0.09 0.09 0.18 0.37
0.51 0.59 0.62 0.70 0.47 0.39 0.37 0.42 0.59 0.86 0.91 1.18 1.50 1.04 0.21 0.06 0.06 0.01 0.03 0.12 0.20 0.44 0.82 1.35 1.53 1.51 1.16 1.36 0.90 0.72 0.47 0.10 0.10 0.11 0.16 0.46 0.75 0.91 0.94 0.78 0.49 0.19 0.07 0.12 0.19
0.64 0.71 0.85 0.91 0.67 0.52 0.62 0.86 1.00 1.43 1.11 1.34 1.28 0.97 0.17 0.04 0.05 0.06 0.08 0.17 0.29 0.66 1.34 1.79 1.95 1.76 1.58 1.58 1.05 0.46 0.36 0.13 0.09 0.15 0.17 0.14 0.35 0.84 1.21 0.96 0.68 0.34 0.12 0.12 0.12
0.84 0.87 0.83 0.82 0.80 0.89 1.26 1.59 1.48 1.55 1.18 0.76 0.69 0.23 0.11 0.08 0.17 0.22 0.16 0.27 0.47 1.23 1.43 2.01 2.68 2.03 1.09 0.62 0.46 0.30 0.25 0.18 0.06 0.17 0.15 0.06 0.06 0.45 1.15 1.13 0.77 0.47 0.16 0.10 0.10
0.80 0.83 0.84 0.83 1.01 1.42 1.99 1.54 0.91 0.80 0.85 0.59 0.39 0.15 0.30 0.34 0.41 0.65 0.33 0.43 0.61 1.12 1.15 2.01 1.90 0.97 0.59 0.65 0.77 0.49 0.31 0.18 0.10 0.19 0.25 0.10 0.10 0.19 0.75 1.06 0.88 0.65 0.19 0.07 0.07
1.11 1.08 1.12 1.22 1.27 1.65 1.54 1.43 1.04 1.04 1.72 0.85 0.49 0.49 0.47 0.75 0.53 1.05 0.53 0.53 0.42 1.09 1.00 1.33 1.03 1.02 1.29 1.39 1.19 0.49 0.29 0.21 0.14 0.30 0.37 0.21 0.27 0.29 0.42 0.77 0.76 0.66 0.33 0.08 0.03
1.27 1.21 1.19 1.45 1.88 1.61 1.80 1.73 1.39 1.94 2.54 1.03 0.94 1.00 0.92 1.30 0.86 0.83 0.65 0.67 0.70 1.23 0.79 1.09 0.84 1.06 1.76 1.72 1.28 0.80 0.29 0.20 0.28 0.71 0.86 0.41 0.39 0.37 0.19 0.36 0.45 0.54 0.41 0.14 0.02
1.10 1.03 1.27 2.01 2.65 2.18 2.05 2.09 2.09 2.53 2.27 1.20 1.19 1.25 1.30 1.36 1.11 0.98 0.82 0.98 1.01 1.34 1.10 1.34 0.90 0.75 1.43 1.21 1.33 1.08 0.62 0.26 0.40 0.66 0.67 0.47 0.23 0.29 0.13 0.16 0.21 0.33 0.43 0.20 0.03
1.03 1.09 1.39 2.34 2.52 1.89 1.86 2.23 3.02 2.80 2.03 1.58 1.56 1.94 1.54 1.40 1.14 1.44 1.09 1.20 1.45 1.56 1.27 0.89 0.80 1.09 0.92 0.98 1.41 1.02 0.69 0.57 0.68 0.97 1.27 0.31 0.15 0.15 0.07 0.06 0.09 0.13 0.51 0.23 0.05
1.02 1.01 1.33 1.65 1.98 1.79 2.23 2.88 2.89 1.82 1.38 1.54 1.51 1.63 1.66 1.43 1.17 1.14 1.28 1.57 2.13 1.80 2.04 1.79 1.91 1.50 1.13 1.57 1.75 1.90 1.53 1.98 1.97 1.46 0.83 0.15 0.08 0.06 0.00 0.02 0.04 0.05 0.46 0.31 0.08
1.25 1.27 1.29 1.11 1.89 2.18 2.60 2.87 1.74 0.88 1.29 1.44 1.32 1.48 1.57 1.26 1.37 0.97 1.33 1.36 1.11 0.74 1.58 1.85 1.93 1.50 1.18 1.51 2.01 1.68 1.39 1.29 0.87 0.47 0.20 0.07 0.14 0.02 0.00 0.00 0.00 0.03 0.34 0.39 0.12
1.61 1.46 1.80 1.41 1.90 2.58 2.58 2.28 1.02 1.19 1.41 1.86 1.75 1.94 1.45 1.03 1.21 1.24 1.27 0.70 0.59 0.44 1.00 0.64 1.18 0.99 0.89 1.05 1.47 1.49 0.92 0.75 0.46 0.25 0.27 0.08 0.02 0.00 0.00 0.00 0.00 0.04 0.33 0.41 0.13
1.38 1.87 2.04 1.32 1.94 3.00 2.89 1.63 1.14 1.34 1.60 1.33 1.38 0.80 0.75 0.80 0.95 0.95 0.86 0.35 0.26 0.13 0.27 0.32 1.01 0.99 1.05 1.33 1.27 1.03 0.47 0.60 1.12 0.67 0.36 0.10 0.02 0.01 0.00 0.00 0.00 0.05 0.33 0.42 0.13
1.28 1.79 1.80 1.60 2.68 3.69 2.65 1.62 1.33 1.05 1.11 0.80 0.24 0.20 0.17 0.34 0.43 0.66 0.54 0.28 0.10 0.06 0.17 0.42 0.85 1.15 1.41 1.35 0.98 0.92 0.85 0.52 0.52 0.35 0.31 0.21 0.10 0.00 0.00 0.00 0.00 0.02 0.23 0.41 0.16
1.28 1.76 1.64 2.20 3.33 2.66 1.73 1.41 1.48 0.94 0.65 0.54 0.25 0.23 0.20 0.19 0.26 0.65 0.68 0.20 0.05 0.03 0.13 0.40 0.86 1.06 0.91 0.32 0.27 0.40 0.34 0.34 0.84 0.46 0.42 0.39 0.17 0.00 0.01 0.01 0.00 0.01 0.10 0.32 0.23
1.40 1.66 2.36 1.66 1.66 1.19 1.11 1.18 1.22 0.70 0.56 0.60 0.31 0.23 0.20 0.14 0.26 0.22 0.60 0.15 0.02 0.01 0.30 0.57 1.03 1.07 0.85 0.63 0.63 0.84 0.42 0.36 0.60 0.99 0.70 0.57 0.18 0.00 0.00 0.00 0.00 0.01 0.03 0.10 0.14
1.53 2.06 2.85 2.54 0.84 0.74 1.21 1.40 1.07 0.59 0.48 0.58 0.35 0.26 0.20 0.09 0.06 0.10 0.71 0.19 0.03 0.07 0.10 0.50 0.99 1.08 0.86 0.46 0.58 0.82 0.45 0.57 1.13 1.11 0.40 0.37 0.05 0.01 0.01 0.02 0.01 0.00 0.02 0.04 0.03
1.34 1.20 0.88 0.80 0.64 0.36 0.79 1.01 0.83 0.82 0.53 0.68 0.55 0.34 0.47 0.24 0.08 0.06 0.50 0.42 0.18 0.15 0.10 0.49 1.09 0.92 0.49 0.28 0.42 0.57 0.56 0.49 0.94 0.52 0.58 0.18 0.07 0.03 0.03 0.02 0.02 0.01 0.01 0.04 0.05
0.86 1.12 0.43 0.15 0.19 0.24 0.62 0.80 0.64 0.61 0.57 0.41 0.37 0.21 0.30 0.26 0.23 0.10 0.12 0.38 0.36 0.10 0.22 0.35 0.72 0.75 0.61 0.24 0.38 0.48 0.55 0.36 0.56 0.27 0.28 0.17 0.13 0.01 0.01 0.01 0.00 0.01 0.04 0.07 0.07
0.70 0.79 0.51 0.26 0.16 0.38 0.36 0.49 0.63 0.60 0.34 0.16 0.23 0.35 0.24 0.08 0.07 0.02 0.01 0.01 0.09 0.19 0.20 0.28 0.51 0.75 0.67 0.48 0.28 0.47 0.58 0.68 0.48 0.20 0.25 0.28 0.15 0.01 0.01 0.04 0.06 0.05 0.06 0.04 0.03

GFSSW_prec_precacc_117.txt.gz
Total_Precipitation_Accumulation
0.13 0.23 0.25 0.20 0.18 0.17 0.16 0.15 0.17 0.20 0.22 0.24 0.31 0.43 0.53 0.45 0.32 0.17 0.10 0.01 0.02 0.19 0.33 0.08 0.05 0.17 0.24 0.15 0.23 0.45 0.70 0.66 0.15 0.07 0.07 0.05 0.02 0.00 0.00 0.00 0.00 0.03 0.04 0.09 0.23
0.21 0.23 0.22 0.22 0.21 0.22 0.20 0.20 0.20 0.18 0.16 0.20 0.31 0.37 0.38 0.27 0.28 0.20 0.02 0.04 0.23 0.49 0.33 0.20 0.17 0.27 0.37 0.18 0.42 0.41 0.27 0.39 0.07 0.04 0.08 0.13 0.15 0.04 0.02 0.02 0.03 0.15 0.24 0.30 0.33
0.25 0.25 0.29 0.31 0.26 0.22 0.25 0.25 0.23 0.25 0.28 0.32 0.32 0.37 0.39 0.25 0.13 0.04 0.13 0.14 0.24 0.50 0.22 0.16 0.20 0.35 0.37 0.33 0.30 0.23 0.14 0.03 0.07 0.13 0.18 0.30 0.25 0.06 0.13 0.13 0.01 0.06 0.30 0.51 0.76
0.31 0.36 0.39 0.32 0.27 0.31 0.34 0.31 0.29 0.35 0.39 0.40 0.44 0.43 0.55 0.38 0.08 0.18 0.30 0.14 0.41 0.94 0.68 0.40 0.35 0.52 0.35 0.26 0.11 0.15 0.05 0.01 0.15 0.44 0.36 0.51 0.31 0.22 0.20 0.12 0.05 0.13 0.28 0.48 0.63
0.35 0.41 0.36 0.27 0.29 0.27 0.29 0.32 0.35 0.39 0.47 0.57 0.65 0.73 0.65 0.35 0.07 0.13 0.14 0.06 0.17 0.61 0.68 0.54 0.40 0.56 0.32 0.11 0.20 0.13 0.05 0.02 0.15 0.78 0.54 0.43 0.54 0.39 0.21 0.08 0.09 0.26 0.58 0.66 0.69
0.32 0.42 0.41 0.36 0.31 0.28 0.28 0.27 0.34 0.45 0.53 0.49 0.87 0.95 0.53 0.17 0.00 0.00 0.03 0.13 0.09 0.33 0.60 0.80 0.41 0.57 0.41 0.23 0.24 0.14 0.10 0.06 0.11 0.58 0.65 0.60 0.61 0.58 0.29 0.17 0.12 0.27 0.37 0.54 0.73
0.48 0.48 0.39 0.32 0.32 0.29 0.29 0.31 0.38 0.53 0.61 0.66 0.96 1.05 0.49 0.06 0.01 0.01 0.05 0.09 0.16 0.24 0.44 0.53 0.75 0.95 0.88 0.47 0.20 0.18 0.20 0.24 0.12 0.18 0.57 0.81 0.74 0.64 0.38 0.24 0.14 0.15 0.24 0.44 0.71
0.60 0.67 0.58 0.57 0.43 0.33 0.32 0.35 0.45 0.54 0.62 0.79 1.30 1.37 0.32 0.01 0.02 0.01 0.03 0.11 0.15 0.38 0.72 0.96 1.01 0.99 1.16 0.85 0.36 0.45 0.37 0.32 0.13 0.08 0.23 0.93 0.93 0.79 0.62 0.50 0.27 0.09 0.09 0.18 0.37
0.51 0.60 0.69 0.76 0.51 0.40 0.37 0.42 0.59 0.86 0.91 1.18 1.50 1.04 0.21 0.06 0.06 0.01 0.03 0.12 0.20 0.44 0.82 1.35 1.54 1.51 1.17 1.39 0.91 0.72 0.47 0.10 0.10 0.11 0.16 0.49 0.76 0.91 0.94 0.78 0.49 0.19 0.07 0.12 0.19
0.64 0.72 0.89 0.94 0.70 0.52 0.62 0.86 1.00 1.43 1.12 1.35 1.28 0.97 0.17 0.04 0.05 0.06 0.08 0.17 0.29 0.66 1.35 1.79 1.95 1.77 1.60 1.61 1.06 0.47 0.38 0.14 0.11 0.16 0.23 0.21 0.37 0.84 1.22 0.96 0.68 0.34 0.12 0.12 0.12
0.84 0.88 0.88 0.87 0.82 0.89 1.26 1.59 1.48 1.55 1.18 0.77 0.70 0.23 0.11 0.08 0.17 0.22 0.16 0.27 0.47 1.23 1.43 2.02 2.69 2.03 1.09 0.63 0.47 0.31 0.26 0.19 0.06 0.17 0.15 0.08 0.09 0.46 1.17 1.16 0.78 0.48 0.18 0.10 0.10
0.80 0.84 0.92 0.91 1.05 1.44 1.99 1.54 0.91 0.80 0.85 0.59 0.39 0.15 0.30 0.34 0.41 0.65 0.33 0.43 0.61 1.12 1.16 2.02 1.91 0.97 0.59 0.65 0.77 0.49 0.32 0.19 0.10 0.20 0.27 0.11 0.11 0.19 0.76 1.08 0.91 0.67 0.20 0.08 0.07
1.19 1.15 1.21 1.36 1.36 1.68 1.54 1.43 1.04 1.04 1.72 0.85 0.49 0.49 0.47 0.75 0.53 1.05 0.53 0.53 0.42 1.09 1.00 1.33 1.03 1.02 1.29 1.39 1.19 0.50 0.31 0.21 0.15 0.32 0.40 0.22 0.28 0.29 0.42 0.77 0.78 0.67 0.33 0.08 0.03
1.43 1.43 1.34 1.57 1.94 1.62 1.80 1.73 1.39 1.94 2.54 1.03 0.94 1.00 0.92 1.30 0.86 0.83 0.65 0.67 0.70 1.23 0.79 1.09 0.84 1.06 1.76 1.72 1.35 0.87 0.33 0.31 0.36 0.83 0.94 0.43 0.44 0.37 0.19 0.36 0.45 0.54 0.41 0.14 0.02
1.13 1.26 1.41 2.03 2.66 2.18 2.05 2.09 2.09 2.53 2.27 1.20 1.19 1.25 1.30 1.36 1.11 0.98 0.82 0.98 1.01 1.34 1.10 1.34 0.90 0.75 1.43 1.22 1.45 1.15 0.68 0.32 0.50 0.90 0.77 0.50 0.55 0.37 0.14 0.16 0.21 0.33 0.44 0.20 0.03
1.05 1.25 1.45 2.35 2.52 1.89 1.86 2.23 3.02 2.80 2.03 1.58 1.56 1.94 1.54 1.40 1.14 1.44 1.09 1.20 1.45 1.56 1.27 0.89 0.80 1.09 0.92 0.99 1.44 1.06 0.76 0.70 1.00 1.44 1.41 0.35 0.37 0.47 0.26 0.11 0.13 0.16 0.52 0.23 0.06
1.04 1.28 1.46 1.66 1.98 1.79 2.23 2.88 2.90 1.83 1.38 1.54 1.51 1.63 1.66 1.43 1.17 1.14 1.28 1.57 2.13 1.80 2.04 1.79 1.91 1.50 1.13 1.58 1.75 1.90 1.55 2.11 2.27 1.77 0.97 0.23 0.23 0.19 0.08 0.08 0.11 0.09 0.47 0.32 0.08
1.28 1.36 1.36 1.11 1.89 2.18 2.60 2.87 1.74 0.88 1.29 1.44 1.32 1.48 1.57 1.26 1.37 0.97 1.33 1.36 1.11 0.74 1.59 1.85 1.95 1.52 1.20 1.54 2.02 1.68 1.41 1.37 1.04 0.66 0.32 0.09 0.19 0.13 0.04 0.01 0.01 0.04 0.34 0.40 0.13
1.83 1.52 1.86 1.42 1.91 2.58 2.58 2.28 1.02 1.19 1.41 1.86 1.75 1.94 1.45 1.03 1.21 1.24 1.27 0.70 0.59 0.44 1.00 0.65 1.19 0.99 0.90 1.06 1.48 1.50 0.94 0.76 0.51 0.31 0.34 0.19 0.10 0.06 0.01 0.01 0.01 0.06 0.39 0.47 0.15
1.58 1.93 2.07 1.33 1.94 3.00 2.89 1.63 1.14 1.34 1.60 1.33 1.38 0.80 0.75 0.80 0.95 0.95 0.86 0.35 0.26 0.13 0.27 0.32 1.02 0.99 1.05 1.34 1.29 1.06 0.49 0.61 1.13 0.71 0.47 0.18 0.08 0.11 0.01 0.01 0.08 0.18 0.45 0.51 0.18
1.41 1.88 1.82 1.60 2.68 3.69 2.65 1.62 1.33 1.05 1.11 0.80 0.24 0.20 0.17 0.34 0.43 0.66 0.54 0.28 0.10 0.07 0.17 0.42 0.86 1.16 1.44 1.45 1.07 0.94 0.85 0.52 0.52 0.36 0.35 0.25 0.22 0.07 0.01 0.01 0.06 0.16 0.41 0.65 0.31
1.38 1.90 1.66 2.21 3.34 2.67 1.73 1.41 1.48 0.94 0.65 0.54 0.25 0.23 0.20 0.19 0.26 0.65 0.68 0.20 0.05 0.03 0.13 0.40 0.86 1.08 0.93 0.33 0.27 0.40 0.34 0.34 0.85 0.46 0.42 0.40 0.26 0.02 0.01 0.02 0.04 0.12 0.29 0.61 0.42
1.45 1.75 2.43 1.67 1.67 1.19 1.11 1.18 1.22 0.70 0.56 0.60 0.31 0.23 0.20 0.14 0.26 0.22 0.60 0.15 0.02 0.02 0.31 0.58 1.04 1.09 0.88 0.64 0.63 0.84 0.42 0.36 0.60 0.99 0.70 0.59 0.25 0.00 0.00 0.00 0.02 0.08 0.22 0.43 0.39
1.57 2.14 2.92 2.57 0.84 0.74 1.21 1.40 1.07 0.59 0.48 0.58 0.35 0.26 0.20 0.09 0.06 0.10 0.71 0.19 0.03 0.07 0.10 0.50 0.99 1.09 0.87 0.47 0.58 0.82 0.45 0.57 1.13 1.11 0.41 0.39 0.09 0.01 0.01 0.02 0.01 0.00 0.04 0.12 0.18
1.37 1.21 0.89 0.81 0.64 0.36 0.79 1.01 0.83 0.82 0.53 0.68 0.55 0.34 0.47 0.24 0.08 0.06 0.50 0.42 0.18 0.15 0.10 0.49 1.09 0.92 0.49 0.28 0.42 0.57 0.56 0.49 0.94 0.52 0.59 0.19 0.07 0.03 0.03 0.02 0.02 0.01 0.01 0.04 0.07
0.87 1.12 0.43 0.15 0.19 0.24 0.62 0.80 0.64 0.61 0.57 0.41 0.37 0.21 0.30 0.26 0.23 0.10 0.12 0.38 0.36 0.10 0.22 0.35 0.72 0.75 0.61 0.24 0.38 0.48 0.55 0.36 0.56 0.27 0.28 0.17 0.13 0.01 0.01 0.01 0.00 0.01 0.04 0.07 0.07
0.70 0.79 0.51 0.26 0.16 0.38 0.36 0.49 0.63 0.60 0.34 0.16 0.23 0.35 0.24 0.08 0.07 0.02 0.01 0.01 0.09 0.19 0.20 0.28 0.51 0.75 0.67 0.48 0.28 0.47 0.58 0.68 0.48 0.20 0.25 0.28 0.15 0.01 0.01 0.04 0.06 0.05 0.06 0.04 0.03

GFSSW_prec_precacc_120.txt.gz
Total_Precipitation_Accumulation
0.16 0.26 0.26 0.20 0.18 0.17 0.16 0.15 0.17 0.20 0.23 0.24 0.31 0.43 0.53 0.45 0.32 0.17 0.10 0.01 0.02 0.19 0.33 0.08 0.05 0.17 0.24 0.15 0.23 0.45 0.70 0.66 0.15 0.07 0.07 0.05 0.02 0.00 0.00 0.00 0.00 0.03 0.04 0.09 0.23
0.24 0.28 0.25 0.23 0.22 0.22 0.20 0.20 0.21 0.19 0.16 0.20 0.31 0.37 0.38 0.27 0.28 0.20 0.02 0.04 0.23 0.49 0.33 0.20 0.17 0.27 0.37 0.18 0.42 0.41 0.27 0.39 0.07 0.04 0.08 0.13 0.15 0.04 0.02 0.02 0.03 0.15 0.24 0.30 0.33
0.27 0.29 0.33 0.36 0.28 0.23 0.26 0.25 0.23 0.25 0.29 0.32 0.32 0.37 0.39 0.25 0.13 0.04 0.13 0.14 0.24 0.51 0.23 0.16 0.20 0.35 0.37 0.33 0.30 0.23 0.14 0.03 0.07 0.13 0.18 0.30 0.25 0.06 0.13 0.13 0.01 0.06 0.30 0.51 0.76
0.31 0.38 0.43 0.39 0.30 0.31 0.34 0.31 0.29 0.36 0.40 0.40 0.44 0.43 0.55 0.38 0.08 0.18 0.30 0.14 0.41 0.94 0.68 0.40 0.35 0.52 0.35 0.26 0.11 0.15 0.05 0.01 0.15 0.44 0.36 0.51 0.31 0.22 0.20 0.12 0.05 0.13 0.28 0.48 0.63
0.35 0.41 0.38 0.33 0.32 0.29 0.30 0.33 0.35 0.39 0.48 0.57 0.65 0.73 0.65 0.35 0.07 0.13 0.14 0.06 0.17 0.61 0.68 0.54 0.40 0.56 0.32 0.11 0.20 0.13 0.05 0.02 0.15 0.78 0.54 0.43 0.54 0.39 0.21 0.08 0.09 0.26 0.58 0.66 0.69
0.32 0.42 0.42 0.38 0.33 0.30 0.30 0.27 0.34 0.46 0.54 0.49 0.87 0.95 0.53 0.17 0.00 0.00 0.03 0.13 0.09 0.33 0.60 0.80 0.41 0.57 0.41 0.23 0.24 0.14 0.10 0.06 0.11 0.58 0.65 0.60 0.61 0.58 0.29 0.17 0.12 0.27 0.37 0.54 0.73
0.48 0.48 0.41 0.42 0.43 0.34 0.31 0.32 0.38 0.53 0.61 0.66 0.96 1.05 0.49 0.06 0.01 0.01 0.05 0.09 0.16 0.24 0.44 0.53 0.75 0.95 0.88 0.47 0.20 0.18 0.20 0.24 0.12 0.18 0.57 0.81 0.74 0.64 0.38 0.24 0.14 0.15 0.24 0.44 0.71
0.60 0.68 0.60 0.62 0.55 0.49 0.38 0.36 0.45 0.55 0.62 0.79 1.30 1.38 0.32 0.01 0.02 0.01 0.03 0.11 0.15 0.38 0.72 0.96 1.01 0.99 1.16 0.85 0.36 0.45 0.38 0.32 0.13 0.08 0.23 0.93 0.93 0.79 0.62 0.50 0.27 0.09 0.09 0.18 0.37
0.51 0.61 0.71 0.80 0.60 0.48 0.43 0.44 0.60 0.86 0.91 1.18 1.50 1.04 0.21 0.06 0.06 0.01 0.03 0.12 0.20 0.44 0.82 1.35 1.54 1.51 1.17 1.40 0.92 0.73 0.48 0.10 0.10 0.11 0.16 0.49 0.77 0.91 0.94 0.78 0.49 0.19 0.07 0.12 0.19
0.64 0.72 0.89 0.98 0.78 0.58 0.67 0.89 1.01 1.43 1.12 1.35 1.28 0.97 0.17 0.04 0.05 0.06 0.08 0.17 0.29 0.66 1.35 1.79 1.95 1.77 1.60 1.63 1.08 0.47 0.39 0.14 0.11 0.16 0.23 0.23 0.38 0.84 1.22 0.97 0.69 0.34 0.12 0.12 0.12
0.85 0.88 0.88 0.88 0.89 0.94 1.30 1.62 1.49 1.56 1.19 0.77 0.70 0.23 0.11 0.08 0.17 0.22 0.16 0.27 0.47 1.23 1.44 2.03 2.70 2.04 1.10 0.63 0.47 0.31 0.27 0.19 0.06 0.17 0.15 0.08 0.09 0.46 1.17 1.16 0.78 0.48 0.18 0.10 0.10
0.80 0.84 0.92 0.97 1.18 1.53 2.02 1.55 0.91 0.80 0.85 0.59 0.39 0.15 0.30 0.34 0.41 0.65 0.33 0.43 0.61 1.12 1.16 2.03 1.91 0.97 0.59 0.65 0.77 0.49 0.32 0.19 0.10 0.20 0.27 0.11 0.11 0.19 0.76 1.08 0.94 0.70 0.21 0.08 0.07
1.20 1.40 1.26 1.39 1.47 1.82 1.62 1.46 1.04 1.04 1.72 0.85 0.49 0.49 0.47 0.75 0.53 1.05 0.53 0.53 0.42 1.09 1.00 1.33 1.03 1.02 1.29 1.39 1.19 0.50 0.31 0.21 0.15 0.32 0.41 0.23 0.29 0.29 0.42 0.77 0.81 0.77 0.35 0.08 0.03
1.44 1.74 1.55 1.62 2.09 1.72 1.87 1.75 1.39 1.94 2.55 1.04 0.94 1.00 0.92 1.30 0.86 0.83 0.65 0.67 0.70 1.23 0.79 1.09 0.84 1.06 1.76 1.72 1.36 0.90 0.34 0.32 0.38 0.90 0.99 0.45 0.51 0.39 0.19 0.36 0.45 0.57 0.43 0.15 0.04
1.13 1.33 1.73 2.24 2.74 2.24 2.06 2.09 2.09 2.53 2.28 1.21 1.19 1.25 1.30 1.36 1.11 0.98 0.82 0.98 1.01 1.34 1.11 1.34 0.90 0.75 1.43 1.22 1.48 1.19 0.69 0.36 0.56 0.97 0.84 0.53 0.73 0.44 0.15 0.17 0.21 0.34 0.44 0.21 0.04
1.06 1.27 1.65 2.48 2.54 1.89 1.86 2.23 3.02 2.81 2.03 1.58 1.56 1.94 1.54 1.40 1.14 1.44 1.09 1.20 1.45 1.56 1.27 0.89 0.80 1.09 0.92 0.99 1.45 1.07 0.78 0.78 1.06 1.48 1.50 0.40 0.50 0.70 0.37 0.17 0.16 0.18 0.55 0.28 0.08
1.05 1.35 1.63 1.69 1.99 1.79 2.23 2.88 2.90 1.83 1.38 1.54 1.51 1.63 1.66 1.43 1.17 1.14 1.28 1.57 2.13 1.81 2.04 1.79 1.91 1.50 1.13 1.59 1.76 1.91 1.66 2.35 2.50 1.83 1.06 0.55 0.48 0.42 0.26 0.34 0.44 0.17 0.48 0.32 0.08
1.29 1.40 1.57 1.16 1.89 2.18 2.60 2.87 1.74 0.88 1.29 1.44 1.32 1.48 1.57 1.26 1.37 0.97 1.33 1.36 1.11 0.74 1.59 1.85 1.98 1.53 1.21 1.55 2.03 1.69 1.55 1.61 1.21 0.75 0.36 0.18 0.32 0.41 0.30 0.19 0.15 0.07 0.37 0.42 0.13
1.85 1.53 1.90 1.44 1.91 2.58 2.58 2.29 1.03 1.19 1.41 1.86 1.75 1.94 1.45 1.03 1.21 1.24 1.27 0.70 0.59 0.44 1.00 0.66 1.19 0.99 0.90 1.06 1.48 1.50 0.98 0.90 0.67 0.36 0.38 0.32 0.27 0.34 0.41 0.47 0.20 0.19 0.43 0.47 0.15
1.68 2.01 2.08 1.36 1.95 3.00 2.89 1.63 1.14 1.34 1.60 1.33 1.38 0.80 0.75 0.80 0.95 0.95 0.86 0.35 0.26 0.14 0.27 0.33 1.03 1.00 1.05 1.34 1.29 1.07 0.49 0.65 1.23 0.85 0.62 0.32 0.21 0.47 0.34 0.31 0.31 0.28 0.48 0.51 0.19
1.50 1.96 1.86 1.61 2.68 3.69 2.66 1.62 1.33 1.05 1.11 0.80 0.24 0.20 0.17 0.34 0.43 0.66 0.54 0.28 0.10 0.07 0.17 0.43 0.89 1.18 1.46 1.48 1.09 0.94 0.86 0.52 0.54 0.38 0.43 0.31 0.45 0.47 0.26 0.25 0.27 0.30 0.50 0.72 0.40
1.43 1.97 1.69 2.21 3.35 2.67 1.73 1.41 1.48 0.94 0.65 0.54 0.25 0.23 0.20 0.19 0.26 0.65 0.68 0.20 0.05 0.03 0.13 0.40 0.87 1.09 0.93 0.33 0.27 0.40 0.35 0.34 0.87 0.48 0.44 0.44 0.48 0.15 0.19 0.28 0.28 0.29 0.45 0.82 0.54
1.48 1.82 2.47 1.67 1.68 1.19 1.11 1.18 1.22 0.70 0.56 0.60 0.31 0.23 0.20 0.14 0.26 0.22 0.60 0.15 0.02 0.02 0.31 0.58 1.05 1.11 0.89 0.64 0.63 0.84 0.42 0.36 0.60 0.99 0.71 0.63 0.40 0.03 0.04 0.07 0.18 0.26 0.46 0.76 0.75
1.59 2.19 2.97 2.58 0.84 0.74 1.21 1.40 1.07 0.59 0.48 0.58 0.35 0.26 0.20 0.09 0.06 0.10 0.71 0.19 0.03 0.07 0.10 0.50 1.00 1.09 0.90 0.53 0.60 0.83 0.45 0.57 1.13 1.11 0.42 0.44 0.12 0.01 0.01 0.02 0.01 0.03 0.19 0.47 0.48
1.37 1.22 0.90 0.82 0.65 0.36 0.79 1.01 0.83 0.82 0.53 0.68 0.55 0.34 0.47 0.24 0.08 0.06 0.50 0.42 0.18 0.15 0.10 0.50 1.09 0.92 0.49 0.29 0.42 0.57 0.56 0.49 0.94 0.52 0.60 0.22 0.08 0.03 0.03 0.02 0.02 0.01 0.03 0.12 0.19
0.87 1.12 0.43 0.16 0.19 0.24 0.62 0.80 0.64 0.61 0.57 0.41 0.37 0.21 0.30 0.26 0.23 0.10 0.12 0.38 0.36 0.10 0.22 0.35 0.72 0.75 0.61 0.24 0.38 0.48 0.55 0.36 0.56 0.29 0.29 0.18 0.14 0.01 0.01 0.01 0.00 0.01 0.04 0.07 0.08
0.70 0.79 0.51 0.26 0.16 0.38 0.36 0.49 0.63 0.60 0.34 0.16 0.23 0.35 0.24 0.08 0.07 0.02 0.01 0.01 0.09 0.19 0.20 0.28 0.51 0.75 0.67 0.48 0.28 0.47 0.58 0.69 0.49 0.21 0.25 0.28 0.15 0.01 0.01 0.04 0.06 0.05 0.06 0.04 0.03

GFSSW_prec_precacc_123.txt.gz
Total_Precipitation_Accumulation
0.16 0.27 0.29 0.22 0.19 0.18 0.16 0.15 0.17 0.20 0.23 0.25 0.31 0.43 0.53 0.45 0.32 0.17 0.10 0.01 0.02 0.19 0.33 0.08 0.05 0.17 0.24 0.15 0.23 0.45 0.70 0.66 0.15 0.07 0.07 0.05 0.02 0.00 0.00 0.00 0.00 0.03 0.04 0.09 0.23
0.25 0.29 0.29 0.31 0.28 0.23 0.20 0.20 0.21 0.19 0.16 0.20 0.31 0.37 0.38 0.27 0.28 0.20 0.02 0.04 0.23 0.49 0.33 0.20 0.17 0.27 0.37 0.18 0.42 0.41 0.27 0.39 0.07 0.04 0.08 0.13 0.15 0.04 0.02 0.02 0.03 0.15 0.24 0.30 0.33
0.28 0.30 0.34 0.39 0.34 0.27 0.26 0.25 0.23 0.25 0.29 0.32 0.32 0.37 0.39 0.25 0.13 0.04 0.13 0.14 0.24 0.51 0.23 0.16 0.20 0.35 0.37 0.33 0.30 0.23 0.14 0.03 0.07 0.13 0.18 0.30 0.25 0.06 0.13 0.13 0.01 0.06 0.30 0.51 0.76
0.32 0.38 0.44 0.40 0.36 0.40 0.39 0.33 0.29 0.36 0.40 0.40 0.44 0.43 0.55 0.38 0.08 0.18 0.30 0.14 0.41 0.94 0.69 0.40 0.35 0.52 0.35 0.26 0.11 0.15 0.05 0.01 0.15 0.44 0.36 0.51 0.31 0.22 0.20 0.12 0.05 0.13 0.28 0.48 0.63
0.36 0.41 0.39 0.34 0.34 0.33 0.35 0.35 0.36 0.40 0.48 0.57 0.65 0.73 0.65 0.35 0.07 0.13 0.14 0.06 0.17 0.61 0.68 0.54 0.40 0.56 0.32 0.11 0.20 0.13 0.05 0.02 0.15 0.78 0.54 0.43 0.54 0.39 0.21 0.08 0.09 0.26 0.58 0.66 0.69
0.33 0.43 0.42 0.38 0.34 0.32 0.32 0.30 0.36 0.46 0.56 0.49 0.87 0.95 0.53 0.17 0.00 0.00 0.03 0.13 0.09 0.33 0.60 0.80 0.41 0.57 0.41 0.23 0.24 0.14 0.10 0.06 0.11 0.58 0.65 0.60 0.61 0.58 0.29 0.17 0.12 0.27 0.37 0.54 0.73
0.49 0.48 0.41 0.43 0.51 0.50 0.36 0.34 0.39 0.54 0.63 0.67 0.96 1.05 0.49 0.06 0.01 0.01 0.05 0.09 0.16 0.24 0.44 0.53 0.75 0.95 0.88 0.47 0.20 0.18 0.20 0.24 0.12 0.18 0.57 0.81 0.74 0.64 0.38 0.24 0.14 0.15 0.24 0.44 0.71
0.61 0.69 0.60 0.62 0.58 0.62 0.53 0.49 0.49 0.58 0.64 0.80 1.30 1.38 0.32 0.01 0.02 0.01 0.03 0.11 0.15 0.38 0.72 0.96 1.01 0.99 1.16 0.85 0.36 0.45 0.38 0.32 0.13 0.08 0.23 0.93 0.93 0.79 0.62 0.50 0.27 0.09 0.09 0.18 0.37
0.53 0.62 0.71 0.80 0.63 0.59 0.54 0.51 0.66 0.90 0.93 1.18 1.51 1.05 0.21 0.06 0.06 0.01 0.03 0.12 0.20 0.44 0.82 1.35 1.54 1.51 1.17 1.40 0.92 0.73 0.48 0.10 0.10 0.11 0.16 0.49 0.77 0.91 0.94 0.78 0.49 0.19 0.07 0.12 0.19
0.66 0.73 0.90 0.98 0.81 0.70 0.73 0.97 1.10 1.49 1.13 1.35 1.28 0.97 0.17 0.04 0.05 0.06 0.08 0.17 0.29 0.66 1.35 1.79 1.95 1.77 1.60 1.63 1.09 0.47 0.39 0.14 0.11 0.16 0.23 0.23 0.38 0.84 1.22 0.97 0.69 0.34 0.12 0.12 0.12
0.86 0.90 0.88 0.88 0.92 1.04 1.37 1.68 1.54 1.58 1.19 0.77 0.70 0.23 0.11 0.08 0.17 0.22 0.16 0.27 0.47 1.23 1.44 2.03 2.70 2.04 1.10 0.63 0.47 0.31 0.27 0.19 0.06 0.17 0.15 0.08 0.09 0.46 1.17 1.16 0.78 0.48 0.18 0.10 0.10
0.83 0.86 0.92 0.99 1.20 1.55 2.03 1.57 0.92 0.80 0.85 0.59 0.39 0.15 0.30 0.34 0.41 0.65 0.33 0.43 0.61 1.12 1.16 2.03 1.92 0.97 0.59 0.65 0.77 0.49 0.32 0.19 0.10 0.20 0.27 0.11 0.11 0.19 0.76 1.08 0.94 0.70 0.22 0.08 0.07
1.24 1.46 1.79 1.43 1.51 1.88 1.66 1.51 1.06 1.04 1.72 0.85 0.49 0.49 0.47 0.75 0.53 1.05 0.53 0.53 0.42 1.09 1.00 1.34 1.03 1.02 1.29 1.39 1.19 0.50 0.31 0.21 0.15 0.32 0.41 0.23 0.29 0.29 0.42 0.77 0.81 0.77 0.36 0.09 0.04
1.50 1.83 2.11 1.68 2.14 1.79 1.98 1.89 1.48 1.94 2.55 1.04 0.94 1.00 0.92 1.30 0.86 0.83 0.65 0.67 0.70 1.23 0.79 1.09 0.84 1.06 1.76 1.72 1.36 0.90 0.34 0.32 0.39 0.94 1.00 0.46 0.53 0.39 0.19 0.36 0.45 0.57 0.44 0.17 0.07
1.18 1.37 1.87 2.42 2.81 2.35 2.12 2.12 2.10 2.53 2.29 1.21 1.19 1.25 1.30 1.36 1.11 0.98 0.82 0.98 1.01 1.34 1.11 1.34 0.90 0.75 1.43 1.22 1.48 1.19 0.69 0.37 0.59 1.03 0.89 0.54 0.78 0.44 0.15 0.17 0.21 0.34 0.44 0.22 0.04
1.09 1.28 1.69 2.66 2.59 1.93 1.87 2.23 3.02 2.81 2.06 1.59 1.56 1.94 1.54 1.40 1.14 1.44 1.09 1.20 1.45 1.56 1.27 0.89 0.80 1.09 0.92 0.99 1.45 1.07 0.78 0.79 1.10 1.55 1.54 0.42 0.56 0.73 0.40 0.18 0.17 0.19 0.56 0.30 0.12
1.08 1.37 1.67 1.76 2.02 1.79 2.23 2.88 2.90 1.86 1.39 1.54 1.51 1.63 1.66 1.43 1.17 1.14 1.28 1.57 2.13 1.81 2.04 1.79 1.91 1.50 1.13 1.59 1.76 1.91 1.73 2.40 2.54 1.85 1.09 0.65 0.59 0.50 0.41 0.42 0.47 0.21 0.54 0.40 0.14
1.32 1.43 1.63 1.21 1.90 2.18 2.60 2.87 1.76 0.89 1.29 1.44 1.32 1.48 1.57 1.26 1.37 0.97 1.33 1.36 1.11 0.74 1.59 1.85 1.98 1.53 1.21 1.55 2.03 1.69 1.67 1.73 1.27 0.84 0.43 0.34 0.49 0.58 0.48 0.39 0.42 0.21 0.48 0.43 0.15
1.86 1.53 1.92 1.48 1.91 2.58 2.58 2.30 1.05 1.19 1.41 1.86 1.75 1.94 1.45 1.03 1.21 1.24 1.27 0.70 0.59 0.44 1.01 0.67 1.20 0.99 0.90 1.06 1.49 1.51 1.08 0.99 0.72 0.40 0.45 0.41 0.33 0.47 0.63 0.76 0.49 0.30 0.44 0.47 0.15
1.68 2.02 2.12 1.39 1.96 3.00 2.89 1.63 1.14 1.34 1.60 1.33 1.38 0.80 0.75 0.80 0.95 0.95 0.86 0.35 0.27 0.14 0.27 0.34 1.04 1.00 1.05 1.34 1.29 1.11 0.58 0.71 1.30 0.94 0.69 0.34 0.33 0.77 0.65 0.73 0.72 0.43 0.53 0.52 0.19
1.51 2.01 1.90 1.61 2.68 3.69 2.66 1.62 1.33 1.05 1.11 0.80 0.24 0.20 0.17 0.34 0.43 0.66 0.54 0.28 0.10 0.07 0.17 0.43 0.91 1.19 1.47 1.49 1.09 0.97 0.92 0.55 0.56 0.40 0.46 0.36 0.70 0.95 0.75 0.68 0.57 0.48 0.58 0.82 0.47
1.45 2.03 1.73 2.21 3.35 2.67 1.73 1.41 1.48 0.94 0.65 0.54 0.25 0.23 0.20 0.19 0.26 0.65 0.68 0.20 0.05 0.03 0.13 0.41 0.87 1.10 0.94 0.33 0.27 0.40 0.35 0.34 0.88 0.49 0.46 0.50 0.70 0.42 0.51 0.65 0.62 0.65 0.92 1.19 0.66
1.49 1.87 2.48 1.67 1.68 1.19 1.11 1.18 1.22 0.70 0.56 0.60 0.31 0.23 0.20 0.14 0.26 0.22 0.60 0.15 0.02 0.02 0.31 0.58 1.05 1.11 0.89 0.65 0.64 0.85 0.42 0.36 0.60 0.99 0.72 0.71 0.64 0.17 0.17 0.24 0.49 0.73 0.83 1.01 1.16
1.59 2.20 2.98 2.58 0.84 0.74 1.21 1.40 1.07 0.59 0.48 0.58 0.35 0.26 0.20 0.09 0.06 0.10 0.71 0.19 0.03 0.07 0.10 0.50 1.00 1.10 0.96 0.61 0.62 0.85 0.46 0.57 1.13 1.11 0.43 0.54 0.17 0.02 0.04 0.09 0.18 0.31 0.58 1.06 1.09
1.37 1.22 0.90 0.82 0.65 0.36 0.79 1.01 0.83 0.82 0.53 0.68 0.55 0.34 0.47 0.24 0.08 0.06 0.50 0.42 0.18 0.15 0.10 0.50 1.09 0.92 0.49 0.29 0.42 0.57 0.57 0.49 0.94 0.52 0.62 0.24 0.08 0.03 0.03 0.03 0.07 0.16 0.40 0.62 0.54
0.87 1.12 0.43 0.16 0.19 0.24 0.62 0.80 0.64 0.61 0.57 0.41 0.37 0.21 0.30 0.26 0.23 0.10 0.12 0.38 0.36 0.10 0.22 0.35 0.72 0.75 0.61 0.24 0.38 0.48 0.55 0.36 0.57 0.29 0.29 0.18 0.14 0.01 0.01 0.01 0.01 0.05 0.15 0.32 0.41
0.70 0.79 0.51 0.26 0.16 0.38 0.36 0.49 0.63 0.60 0.34 0.16 0.23 0.35 0.24 0.08 0.07 0.02 0.01 0.01 0.09 0.19 0.20 0.28 0.51 0.75 0.67 0.48 0.28 0.47 0.58 0.69 0.49 0.21 0.25 0.28 0.15 0.01 0.01 0.04 0.06 0.06 0.07 0.07 0.11

GFSSW_prec_precacc_126.txt.gz
Total_Precipitation_Accumulation
0.16 0.28 0.30 0.26 0.25 0.21 0.16 0.15 0.17 0.20 0.23 0.25 0.31 0.43 0.53 0.45 0.32 0.17 0.10 0.01 0.02 0.19 0.33 0.08 0.05 0.17 0.24 0.15 0.23 0.45 0.70 0.66 0.15 0.07 0.07 0.05 0.02 0.00 0.00 0.00 0.00 0.03 0.04 0.09 0.23
0.26 0.30 0.30 0.32 0.35 0.41 0.30 0.21 0.21 0.19 0.16 0.20 0.31 0.37 0.38 0.27 0.28 0.20 0.02 0.04 0.23 0.49 0.33 0.20 0.17 0.27 0.37 0.18 0.42 0.41 0.27 0.39 0.07 0.04 0.08 0.13 0.15 0.04 0.02 0.02 0.03 0.15 0.24 0.30 0.33
0.29 0.31 0.34 0.39 0.34 0.33 0.39 0.33 0.23 0.25 0.29 0.32 0.32 0.37 0.39 0.25 0.13 0.04 0.13 0.14 0.24 0.51 0.23 0.16 0.20 0.35 0.37 0.33 0.30 0.23 0.14 0.03 0.07 0.13 0.18 0.30 0.25 0.06 0.13 0.13 0.01 0.06 0.30 0.51 0.76
0.33 0.38 0.44 0.41 0.36 0.40 0.44 0.40 0.33 0.38 0.40 0.40 0.44 0.43 0.55 0.38 0.08 0.18 0.30 0.14 0.41 0.94 0.69 0.40 0.35 0.52 0.35 0.26 0.11 0.15 0.05 0.01 0.15 0.44 0.36 0.51 0.31 0.22 0.20 0.12 0.05 0.13 0.28 0.48 0.63
0.37 0.42 0.40 0.34 0.34 0.34 0.40 0.47 0.43 0.41 0.49 0.57 0.65 0.73 0.65 0.35 0.07 0.13 0.14 0.06 0.17 0.61 0.68 0.54 0.40 0.56 0.32 0.11 0.20 0.13 0.05 0.02 0.15 0.78 0.54 0.43 0.54 0.39 0.21 0.08 0.09 0.26 0.58 0.66 0.69
0.33 0.44 0.43 0.38 0.35 0.32 0.34 0.33 0.38 0.48 0.57 0.50 0.87 0.95 0.53 0.17 0.00 0.00 0.03 0.13 0.09 0.33 0.60 0.80 0.41 0.57 0.41 0.23 0.24 0.14 0.10 0.06 0.11 0.58 0.65 0.60 0.61 0.58 0.29 0.17 0.12 0.27 0.37 0.54 0.73
0.49 0.50 0.43 0.43 0.51 0.58 0.46 0.36 0.40 0.55 0.65 0.67 0.96 1.05 0.49 0.06 0.01 0.01 0.05 0.09 0.16 0.24 0.44 0.53 0.75 0.95 0.88 0.47 0.20 0.18 0.20 0.24 0.12 0.18 0.57 0.81 0.74 0.64 0.38 0.24 0.14 0.15 0.24 0.44 0.71
0.62 0.70 0.62 0.62 0.58 0.68 0.69 0.64 0.56 0.60 0.70 0.82 1.31 1.38 0.32 0.01 0.02 0.01 0.03 0.11 0.15 0.38 0.72 0.96 1.01 0.99 1.16 0.85 0.36 0.45 0.38 0.32 0.13 0.08 0.23 0.93 0.93 0.79 0.62 0.50 0.27 0.09 0.09 0.18 0.37
0.54 0.63 0.72 0.81 0.63 0.60 0.63 0.61 0.70 0.97 1.03 1.22 1.51 1.05 0.21 0.06 0.06 0.01 0.03 0.12 0.20 0.44 0.82 1.35 1.54 1.51 1.17 1.40 0.92 0.73 0.48 0.10 0.10 0.11 0.16 0.49 0.77 0.91 0.94 0.78 0.49 0.19 0.07 0.12 0.19
0.66 0.74 0.92 1.01 0.82 0.75 0.82 1.03 1.18 1.57 1.19 1.36 1.28 0.97 0.17 0.04 0.05 0.06 0.08 0.17 0.29 0.66 1.35 1.79 1.95 1.77 1.60 1.63 1.09 0.47 0.39 0.14 0.11 0.16 0.23 0.23 0.38 0.84 1.22 0.97 0.69 0.34 0.12 0.12 0.12
0.86 0.90 0.89 0.89 0.92 1.07 1.48 1.82 1.61 1.61 1.23 0.80 0.70 0.23 0.11 0.08 0.17 0.22 0.16 0.27 0.47 1.23 1.44 2.03 2.70 2.04 1.10 0.63 0.47 0.31 0.27 0.19 0.06 0.17 0.15 0.08 0.09 0.46 1.17 1.16 0.78 0.48 0.18 0.10 0.10
0.85 0.87 0.92 1.00 1.24 1.58 2.12 1.59 0.95 0.80 0.85 0.59 0.39 0.15 0.30 0.34 0.41 0.65 0.33 0.43 0.61 1.12 1.16 2.03 1.92 0.97 0.59 0.65 0.77 0.49 0.32 0.19 0.10 0.20 0.27 0.11 0.11 0.19 0.76 1.08 0.94 0.70 0.22 0.08 0.07
1.26 1.47 1.89 1.51 1.55 1.89 1.67 1.51 1.07 1.04 1.72 0.85 0.49 0.49 0.47 0.75 0.53 1.05 0.53 0.53 0.42 1.09 1.00 1.34 1.03 1.02 1.29 1.39 1.19 0.50 0.31 0.21 0.15 0.32 0.42 0.23 0.29 0.29 0.42 0.77 0.81 0.77 0.36 0.09 0.04
1.51 1.88 2.63 1.88 2.19 1.82 2.00 1.91 1.50 1.95 2.55 1.04 0.94 1.00 0.92 1.30 0.86 0.83 0.65 0.67 0.70 1.23 0.79 1.09 0.84 1.06 1.76 1.72 1.36 0.90 0.34 0.32 0.39 0.96 1.01 0.46 0.54 0.39 0.19 0.36 0.45 0.57 0.44 0.17 0.07
1.18 1.41 1.94 2.53 2.87 2.48 2.26 2.23 2.16 2.56 2.33 1.22 1.19 1.25 1.30 1.36 1.11 0.98 0.82 0.98 1.01 1.34 1.11 1.34 0.90 0.75 1.43 1.22 1.48 1.19 0.69 0.37 0.60 1.06 0.93 0.54 0.79 0.44 0.15 0.17 0.21 0.34 0.44 0.22 0.04
1.10 1.30 1.71 2.78 2.61 2.00 1.94 2.26 3.03 2.82 2.13 1.62 1.56 1.94 1.54 1.40 1.14 1.44 1.09 1.20 1.45 1.56 1.27 0.89 0.80 1.09 0.92 0.99 1.45 1.07 0.78 0.79 1.11 1.59 1.57 0.42 0.57 0.74 0.40 0.19 0.18 0.19 0.56 0.30 0.12
1.10 1.40 1.72 1.88 2.09 1.79 2.23 2.88 2.90 1.91 1.41 1.54 1.51 1.63 1.66 1.43 1.17 1.14 1.28 1.57 2.13 1.81 2.04 1.79 1.91 1.50 1.13 1.59 1.76 1.91 1.75 2.40 2.54 1.85 1.09 0.67 0.69 0.52 0.45 0.46 0.48 0.21 0.55 0.40 0.15
1.35 1.50 1.66 1.28 1.91 2.18 2.60 2.88 1.78 0.90 1.29 1.44 1.32 1.48 1.57 1.26 1.37 0.97 1.33 1.36 1.11 0.74 1.59 1.85 1.98 1.53 1.21 1.55 2.03 1.69 1.69 1.74 1.28 0.88 0.46 0.37 0.56 0.65 0.63 0.50 0.47 0.22 0.49 0.44 0.16
1.86 1.56 1.96 1.52 1.92 2.58 2.58 2.30 1.05 1.19 1.41 1.86 1.75 1.94 1.45 1.03 1.21 1.24 1.27 0.71 0.59 0.44 1.01 0.67 1.20 0.99 0.90 1.06 1.49 1.52 1.11 1.02 0.78 0.45 0.50 0.43 0.34 0.52 0.76 0.86 0.63 0.39 0.52 0.51 0.16
1.68 2.02 2.19 1.40 1.96 3.00 2.89 1.63 1.14 1.34 1.60 1.33 1.38 0.80 0.75 0.80 0.95 0.95 0.86 0.36 0.27 0.14 0.28 0.34 1.06 1.00 1.05 1.35 1.31 1.14 0.59 0.73 1.37 0.99 0.72 0.35 0.38 0.90 0.77 0.88 0.87 0.53 0.59 0.56 0.20
1.51 2.01 1.92 1.61 2.68 3.69 2.66 1.62 1.33 1.05 1.11 0.80 0.24 0.20 0.17 0.34 0.43 0.66 0.54 0.28 0.10 0.07 0.17 0.43 0.92 1.20 1.48 1.50 1.13 0.99 0.93 0.56 0.57 0.42 0.49 0.40 0.79 1.15 0.99 0.97 0.79 0.62 0.63 0.84 0.47
1.45 2.03 1.73 2.21 3.35 2.67 1.73 1.41 1.48 0.94 0.65 0.54 0.25 0.23 0.20 0.19 0.26 0.65 0.68 0.20 0.05 0.03 0.14 0.41 0.88 1.12 0.95 0.33 0.27 0.40 0.37 0.37 0.90 0.50 0.48 0.55 0.80 0.58 0.76 1.03 1.01 0.87 1.06 1.27 0.70
1.49 1.87 2.48 1.67 1.68 1.19 1.11 1.18 1.22 0.70 0.56 0.60 0.31 0.23 0.20 0.14 0.26 0.22 0.60 0.15 0.02 0.02 0.31 0.58 1.05 1.11 0.89 0.65 0.64 0.85 0.42 0.37 0.61 1.00 0.73 0.77 0.80 0.33 0.36 0.49 1.04 1.20 1.15 1.19 1.21
1.59 2.21 2.98 2.58 0.84 0.74 1.21 1.40 1.07 0.59 0.48 0.58 0.35 0.26 0.20 0.09 0.06 0.10 0.71 0.19 0.03 0.07 0.10 0.50 1.00 1.11 0.98 0.65 0.62 0.85 0.46 0.57 1.13 1.12 0.46 0.67 0.28 0.09 0.12 0.24 0.54 0.90 1.14 1.45 1.50
1.37 1.22 0.90 0.82 0.65 0.36 0.79 1.01 0.83 0.82 0.53 0.68 0.55 0.34 0.47 0.24 0.08 0.06 0.50 0.42 0.18 0.15 0.10 0.50 1.10 0.92 0.50 0.29 0.42 0.57 0.57 0.49 0.94 0.52 0.63 0.27 0.11 0.06 0.07 0.17 0.31 0.68 1.05 1.13 1.25
0.87 1.12 0.43 0.16 0.19 0.24 0.62 0.80 0.64 0.61 0.57 0.41 0.37 0.21 0.30 0.26 0.23 0.10 0.12 0.38 0.36 0.10 0.22 0.35 0.72 0.75 0.61 0.24 0.38 0.48 0.55 0.36 0.57 0.29 0.29 0.18 0.14 0.01 0.02 0.06 0.12 0.28 0.54 0.86 1.18
0.70 0.79 0.51 0.26 0.16 0.38 0.36 0.49 0.63 0.60 0.34 0.16 0.23 0.35 0.24 0.08 0.07 0.02 0.01 0.01 0.09 0.19 0.20 0.28 0.51 0.75 0.67 0.48 0.28 0.47 0.58 0.69 0.49 0.21 0.25 0.28 0.15 0.01 0.01 0.04 0.07 0.12 0.24 0.34 0.38

GFSSW_prec_precacc_129.txt.gz
Total_Precipitation_Accumulation
0.16 0.28 0.31 0.26 0.25 0.26 0.27 0.19 0.17 0.20 0.23 0.25 0.31 0.43 0.53 0.45 0.32 0.17 0.10 0.01 0.02 0.19 0.33 0.08 0.05 0.17 0.24 0.15 0.23 0.45 0.70 0.66 0.15 0.07 0.07 0.05 0.02 0.00 0.00 0.00 0.00 0.03 0.04 0.09 0.23
0.27 0.31 0.30 0.32 0.35 0.42 0.45 0.42 0.24 0.19 0.16 0.20 0.31 0.37 0.38 0.27 0.28 0.20 0.02 0.04 0.23 0.49 0.33 0.20 0.17 0.27 0.37 0.18 0.42 0.41 0.27 0.39 0.07 0.04 0.08 0.13 0.15 0.04 0.02 0.02 0.03 0.15 0.24 0.30 0.33
0.31 0.33 0.35 0.39 0.34 0.33 0.39 0.43 0.37 0.27 0.29 0.32 0.32 0.37 0.39 0.25 0.13 0.04 0.13 0.14 0.24 0.51 0.23 0.16 0.20 0.35 0.37 0.33 0.30 0.23 0.14 0.03 0.07 0.13 0.18 0.30 0.25 0.06 0.13 0.13 0.01 0.06 0.30 0.51 0.76
0.34 0.41 0.47 0.41 0.36 0.40 0.44 0.42 0.42 0.41 0.42 0.40 0.44 0.43 0.55 0.38 0.08 0.18 0.30 0.14 0.41 0.94 0.69 0.40 0.35 0.52 0.35 0.26 0.11 0.15 0.05 0.01 0.15 0.44 0.36 0.51 0.31 0.22 0.20 0.12 0.05 0.13 0.28 0.48 0.63
0.38 0.43 0.42 0.36 0.34 0.34 0.40 0.47 0.50 0.45 0.49 0.57 0.65 0.73 0.65 0.35 0.07 0.13 0.14 0.06 0.17 0.61 0.68 0.54 0.40 0.56 0.32 0.11 0.20 0.13 0.05 0.02 0.15 0.78 0.54 0.43 0.54 0.39 0.21 0.08 0.09 0.26 0.58 0.66 0.69
0.34 0.45 0.44 0.39 0.35 0.32 0.34 0.34 0.44 0.57 0.62 0.51 0.87 0.95 0.53 0.17 0.00 0.00 0.03 0.13 0.09 0.33 0.60 0.80 0.41 0.57 0.41 0.23 0.24 0.14 0.10 0.06 0.11 0.58 0.65 0.60 0.61 0.58 0.29 0.17 0.12 0.27 0.37 0.54 0.73
0.50 0.51 0.44 0.44 0.51 0.58 0.49 0.45 0.42 0.56 0.70 0.69 0.96 1.05 0.49 0.06 0.01 0.01 0.05 0.09 0.16 0.24 0.44 0.53 0.75 0.95 0.88 0.47 0.20 0.18 0.20 0.24 0.12 0.18 0.57 0.81 0.74 0.64 0.38 0.24 0.14 0.15 0.24 0.44 0.71
0.63 0.72 0.63 0.64 0.58 0.68 0.75 0.83 0.66 0.61 0.74 0.87 1.32 1.38 0.32 0.01 0.02 0.01 0.03 0.11 0.15 0.38 0.72 0.96 1.01 0.99 1.16 0.85 0.36 0.45 0.38 0.32 0.13 0.08 0.23 0.93 0.93 0.79 0.62 0.50 0.27 0.09 0.09 0.18 0.37
0.55 0.64 0.73 0.83 0.65 0.60 0.66 0.69 0.81 1.07 1.19 1.31 1.52 1.05 0.21 0.06 0.06 0.01 0.03 0.12 0.20 0.44 0.82 1.35 1.54 1.51 1.17 1.40 0.92 0.73 0.48 0.10 0.10 0.11 0.16 0.49 0.77 0.91 0.94 0.78 0.49 0.19 0.07 0.12 0.19
0.67 0.75 0.93 1.03 0.87 0.77 0.88 1.08 1.33 1.64 1.23 1.37 1.29 0.98 0.17 0.04 0.05 0.06 0.08 0.17 0.29 0.66 1.35 1.79 1.95 1.77 1.60 1.63 1.09 0.47 0.39 0.14 0.11 0.16 0.23 0.23 0.38 0.84 1.22 0.97 0.69 0.34 0.12 0.12 0.12
0.89 0.93 0.91 0.91 0.96 1.09 1.57 1.90 1.66 1.64 1.25 0.82 0.71 0.23 0.11 0.08 0.17 0.22 0.16 0.27 0.47 1.23 1.44 2.03 2.70 2.04 1.10 0.63 0.47 0.31 0.27 0.19 0.06 0.17 0.15 0.08 0.09 0.46 1.17 1.16 0.78 0.48 0.18 0.10 0.10
0.88 0.89 0.93 1.00 1.25 1.63 2.21 1.65 0.98 0.80 0.86 0.62 0.40 0.15 0.30 0.34 0.41 0.65 0.33 0.43 0.61 1.12 1.16 2.03 1.92 0.97 0.59 0.65 0.77 0.49 0.32 0.19 0.10 0.20 0.27 0.11 0.11 0.19 0.76 1.08 0.94 0.70 0.22 0.08 0.07
1.28 1.48 1.91 1.56 1.57 1.94 1.72 1.62 1.09 1.04 1.72 0.86 0.49 0.49 0.47 0.75 0.53 1.05 0.53 0.53 0.42 1.09 1.00 1.34 1.03 1.02 1.29 1.39 1.19 0.50 0.31 0.21 0.15 0.32 0.42 0.23 0.29 0.29 0.42 0.77 0.81 0.77 0.36 0.09 0.04
1.53 1.92 2.89 1.99 2.20 1.82 2.02 1.99 1.50 1.95 2.56 1.04 0.94 1.00 0.92 1.30 0.86 0.83 0.65 0.67 0.70 1.23 0.79 1.09 0.84 1.06 1.76 1.72 1.36 0.90 0.34 0.32 0.39 0.98 1.02 0.46 0.55 0.39 0.19 0.36 0.45 0.57 0.44 0.17 0.07
1.21 1.48 2.04 2.56 2.89 2.50 2.26 2.24 2.16 2.59 2.37 1.22 1.19 1.25 1.30 1.36 1.11 0.98 0.82 0.98 1.01 1.34 1.11 1.34 0.90 0.75 1.43 1.22 1.48 1.19 0.69 0.37 0.61 1.09 0.96 0.54 0.80 0.44 0.15 0.17 0.21 0.34 0.44 0.22 0.04
1.11 1.32 1.76 2.79 2.64 2.07 1.98 2.29 3.05 2.91 2.21 1.69 1.58 1.95 1.54 1.40 1.14 1.44 1.09 1.20 1.45 1.56 1.27 0.89 0.80 1.09 0.92 0.99 1.45 1.07 0.79 0.79 1.12 1.61 1.58 0.42 0.58 0.74 0.40 0.19 0.18 0.19 0.56 0.30 0.12
1.11 1.40 1.75 1.90 2.11 1.82 2.24 2.89 2.94 1.98 1.47 1.56 1.51 1.63 1.66 1.43 1.17 1.14 1.28 1.57 2.13 1.81 2.04 1.79 1.91 1.50 1.13 1.59 1.76 1.92 1.77 2.41 2.54 1.85 1.09 0.67 0.72 0.52 0.45 0.46 0.50 0.24 0.55 0.40 0.15
1.37 1.51 1.68 1.28 1.91 2.18 2.60 2.88 1.79 0.92 1.29 1.44 1.32 1.48 1.57 1.26 1.37 0.97 1.33 1.36 1.11 0.74 1.59 1.85 1.98 1.53 1.21 1.55 2.03 1.71 1.72 1.75 1.28 0.88 0.46 0.37 0.56 0.65 0.64 0.52 0.49 0.25 0.51 0.44 0.16
1.86 1.56 1.96 1.52 1.92 2.58 2.58 2.30 1.05 1.19 1.41 1.86 1.75 1.94 1.45 1.03 1.21 1.24 1.27 0.71 0.59 0.44 1.02 0.68 1.20 0.99 0.90 1.07 1.52 1.54 1.14 1.04 0.80 0.46 0.52 0.43 0.34 0.52 0.76 0.86 0.64 0.42 0.54 0.53 0.16
1.68 2.02 2.19 1.40 1.96 3.00 2.89 1.63 1.14 1.34 1.60 1.33 1.38 0.80 0.75 0.80 0.95 0.95 0.86 0.36 0.27 0.14 0.28 0.34 1.07 1.00 1.06 1.37 1.35 1.18 0.61 0.75 1.40 1.00 0.73 0.35 0.38 0.95 0.82 0.93 0.90 0.56 0.62 0.57 0.20
1.51 2.01 1.92 1.61 2.68 3.69 2.66 1.62 1.33 1.05 1.11 0.80 0.24 0.20 0.17 0.34 0.43 0.66 0.54 0.28 0.10 0.07 0.17 0.44 0.95 1.21 1.49 1.53 1.15 1.00 0.94 0.56 0.58 0.42 0.52 0.42 0.81 1.24 1.14 1.12 0.94 0.68 0.67 0.88 0.47
1.45 2.03 1.73 2.21 3.35 2.67 1.73 1.41 1.48 0.94 0.65 0.54 0.25 0.23 0.20 0.19 0.26 0.65 0.68 0.20 0.05 0.03 0.14 0.41 0.89 1.13 0.96 0.33 0.27 0.41 0.38 0.37 0.90 0.50 0.48 0.57 0.83 0.65 0.94 1.25 1.23 0.95 1.11 1.34 0.72
1.49 1.87 2.48 1.67 1.68 1.19 1.11 1.18 1.22 0.70 0.56 0.60 0.31 0.23 0.20 0.14 0.26 0.22 0.60 0.15 0.02 0.02 0.31 0.58 1.06 1.11 0.89 0.65 0.64 0.85 0.43 0.37 0.61 1.00 0.73 0.79 0.85 0.40 0.48 0.69 1.32 1.35 1.33 1.30 1.24
1.59 2.21 2.98 2.58 0.84 0.74 1.21 1.40 1.07 0.59 0.48 0.58 0.35 0.26 0.20 0.09 0.06 0.10 0.71 0.19 0.03 0.07 0.10 0.50 1.00 1.11 0.99 0.66 0.63 0.85 0.46 0.57 1.13 1.12 0.47 0.76 0.37 0.16 0.22 0.45 0.95 1.18 1.32 1.53 1.53
1.37 1.22 0.90 0.82 0.65 0.36 0.79 1.01 0.83 0.82 0.53 0.68 0.55 0.34 0.47 0.24 0.08 0.06 0.50 0.42 0.18 0.15 0.10 0.50 1.10 0.92 0.50 0.29 0.42 0.57 0.57 0.49 0.94 0.52 0.66 0.34 0.16 0.12 0.20 0.45 0.75 1.16 1.41 1.43 1.69
0.87 1.12 0.43 0.16 0.19 0.24 0.62 0.80 0.64 0.61 0.57 0.41 0.37 0.21 0.30 0.26 0.23 0.10 0.12 0.38 0.36 0.10 0.22 0.35 0.72 0.75 0.61 0.24 0.38 0.48 0.55 0.36 0.57 0.29 0.29 0.18 0.15 0.03 0.11 0.26 0.47 0.84 1.05 1.44 1.80
0.70 0.79 0.51 0.26 0.16 0.38 0.36 0.49 0.63 0.60 0.34 0.16 0.23 0.35 0.24 0.08 0.07 0.02 0.01 0.01 0.09 0.19 0.20 0.28 0.51 0.75 0.67 0.48 0.28 0.47 0.58 0.69 0.49 0.21 0.25 0.28 0.15 0.02 0.04 0.16 0.28 0.46 0.64 0.72 0.73

GFSSW_prec_precacc_132.txt.gz
Total_Precipitation_Accumulation
0.19 0.29 0.31 0.26 0.25 0.26 0.28 0.28 0.31 0.21 0.23 0.25 0.32 0.44 0.53 0.45 0.32 0.17 0.10 0.01 0.02 0.19 0.33 0.08 0.05 0.17 0.24 0.15 0.23 0.45 0.70 0.66 0.15 0.07 0.07 0.05 0.02 0.00 0.00 0.00 0.00 0.03 0.04 0.09 0.23
0.28 0.33 0.32 0.32 0.35 0.42 0.45 0.46 0.37 0.23 0.16 0.21 0.31 0.37 0.38 0.27 0.28 0.20 0.02 0.04 0.23 0.49 0.33 0.20 0.17 0.27 0.37 0.18 0.42 0.41 0.27 0.39 0.07 0.04 0.08 0.13 0.15 0.04 0.02 0.02 0.03 0.15 0.24 0.30 0.33
0.32 0.34 0.38 0.41 0.34 0.33 0.39 0.44 0.47 0.38 0.31 0.33 0.33 0.37 0.39 0.25 0.13 0.04 0.13 0.14 0.24 0.51 0.23 0.16 0.20 0.35 0.37 0.33 0.30 0.23 0.14 0.03 0.07 0.13 0.18 0.30 0.25 0.06 0.13 0.13 0.01 0.06 0.30 0.51 0.76
0.36 0.41 0.47 0.44 0.38 0.40 0.44 0.42 0.44 0.52 0.49 0.42 0.44 0.43 0.55 0.38 0.08 0.18 0.30 0.14 0.41 0.94 0.69 0.40 0.35 0.52 0.35 0.26 0.11 0.15 0.05 0.01 0.15 0.44 0.36 0.51 0.31 0.22 0.20 0.12 0.05 0.13 0.28 0.48 0.63
0.40 0.44 0.43 0.37 0.37 0.34 0.40 0.48 0.51 0.53 0.57 0.62 0.66 0.73 0.65 0.35 0.07 0.13 0.14 0.06 0.17 0.61 0.68 0.54 0.40 0.56 0.32 0.11 0.20 0.13 0.05 0.02 0.15 0.78 0.54 0.43 0.54 0.39 0.21 0.08 0.09 0.26 0.58 0.66 0.69
0.34 0.45 0.44 0.39 0.35 0.32 0.34 0.34 0.44 0.61 0.64 0.53 0.87 0.95 0.53 0.17 0.00 0.00 0.03 0.13 0.09 0.33 0.60 0.80 0.41 0.57 0.41 0.23 0.24 0.14 0.10 0.06 0.11 0.58 0.65 0.60 0.61 0.58 0.29 0.17 0.12 0.27 0.37 0.54 0.73
0.50 0.53 0.47 0.45 0.53 0.58 0.49 0.47 0.44 0.61 0.77 0.81 0.97 1.05 0.49 0.06 0.01 0.01 0.05 0.09 0.16 0.24 0.44 0.53 0.75 0.95 0.88 0.47 0.20 0.18 0.20 0.24 0.12 0.18 0.57 0.81 0.74 0.64 0.38 0.24 0.14 0.15 0.24 0.44 0.71
0.64 0.75 0.66 0.64 0.60 0.68 0.75 0.97 0.80 0.68 0.87 0.98 1.33 1.38 0.32 0.01 0.02 0.01 0.03 0.11 0.15 0.38 0.72 0.96 1.01 0.99 1.16 0.85 0.36 0.45 0.38 0.32 0.13 0.08 0.23 0.93 0.93 0.79 0.62 0.50 0.27 0.09 0.09 0.18 0.37
0.57 0.66 0.75 0.84 0.65 0.60 0.67 0.81 0.92 1.16 1.34 1.36 1.52 1.05 0.21 0.06 0.06 0.01 0.03 0.12 0.20 0.44 0.82 1.35 1.54 1.51 1.17 1.40 0.92 0.73 0.48 0.10 0.10 0.11 0.16 0.49 0.77 0.91 0.94 0.78 0.49 0.19 0.07 0.12 0.19
0.70 0.76 0.93 1.03 0.88 0.79 0.93 1.15 1.46 1.80 1.52 1.38 1.29 0.98 0.17 0.04 0.05 0.06 0.08 0.17 0.29 0.66 1.35 1.79 1.95 1.77 1.60 1.63 1.09 0.47 0.39 0.14 0.11 0.16 0.23 0.23 0.38 0.84 1.22 0.97 0.69 0.34 0.12 0.12 0.12
0.92 0.94 0.92 0.92 0.98 1.17 1.61 1.92 1.84 1.75 1.35 0.86 0.72 0.23 0.11 0.08 0.17 0.22 0.16 0.27 0.47 1.23 1.44 2.03 2.70 2.04 1.10 0.63 0.47 0.31 0.27 0.19 0.06 0.17 0.15 0.08 0.09 0.46 1.17 1.16 0.78 0.48 0.18 0.10 0.10
0.90 0.90 0.93 1.01 1.29 1.72 2.28 1.67 1.05 0.90 0.91 0.63 0.40 0.15 0.30 0.34 0.41 0.65 0.33 0.43 0.61 1.12 1.16 2.03 1.92 0.97 0.59 0.65 0.77 0.49 0.32 0.19 0.10 0.20 0.27 0.11 0.11 0.19 0.76 1.08 0.94 0.70 0.22 0.08 0.07
1.29 1.48 1.91 1.59 1.63 1.98 1.76 1.70 1.10 1.04 1.74 0.88 0.50 0.49 0.47 0.75 0.53 1.05 0.53 0.53 0.42 1.09 1.00 1.34 1.03 1.02 1.29 1.39 1.19 0.50 0.31 0.21 0.15 0.32 0.42 0.23 0.29 0.29 0.42 0.77 0.81 0.77 0.36 0.09 0.04
1.53 1.92 2.92 2.03 2.24 1.83 2.02 2.05 1.51 1.95 2.57 1.06 0.94 1.00 0.92 1.30 0.86 0.83 0.65 0.67 0.70 1.23 0.79 1.09 0.84 1.06 1.76 1.72 1.36 0.90 0.34 0.32 0.39 0.99 1.02 0.46 0.55 0.39 0.19 0.36 0.45 0.57 0.44 0.17 0.07
1.22 1.49 2.05 2.56 2.90 2.50 2.27 2.29 2.16 2.59 2.38 1.24 1.19 1.25 1.30 1.36 1.11 0.98 0.82 0.98 1.01 1.34 1.11 1.34 0.90 0.75 1.43 1.22 1.48 1.19 0.69 0.37 0.61 1.11 0.99 0.54 0.81 0.44 0.15 0.17 0.21 0.34 0.44 0.22 0.04
1.13 1.33 1.76 2.79 2.64 2.07 1.98 2.29 3.05 2.94 2.22 1.71 1.59 1.96 1.54 1.40 1.14 1.44 1.09 1.20 1.45 1.56 1.27 0.89 0.80 1.09 0.92 0.99 1.45 1.07 0.79 0.80 1.13 1.63 1.60 0.42 0.58 0.74 0.40 0.19 0.18 0.19 0.56 0.30 0.12
1.12 1.40 1.75 1.90 2.12 1.82 2.24 2.89 2.96 2.02 1.53 1.60 1.55 1.64 1.66 1.43 1.17 1.14 1.28 1.57 2.13 1.81 2.04 1.79 1.91 1.50 1.13 1.59 1.76 1.93 1.80 2.41 2.55 1.86 1.09 0.67 0.72 0.52 0.45 0.46 0.50 0.24 0.55 0.40 0.15
1.37 1.51 1.68 1.29 1.91 2.18 2.60 2.88 1.80 0.95 1.30 1.45 1.32 1.48 1.57 1.26 1.37 0.97 1.33 1.36 1.11 0.74 1.59 1.85 1.98 1.53 1.21 1.56 2.04 1.72 1.73 1.76 1.29 0.88 0.46 0.37 0.57 0.65 0.64 0.52 0.49 0.25 0.51 0.44 0.16
1.86 1.56 1.96 1.52 1.92 2.58 2.58 2.30 1.05 1.19 1.41 1.86 1.75 1.94 1.45 1.03 1.21 1.24 1.27 0.71 0.59 0.44 1.02 0.68 1.20 0.99 0.90 1.08 1.59 1.56 1.16 1.05 0.82 0.47 0.53 0.43 0.34 0.52 0.76 0.86 0.64 0.42 0.55 0.53 0.16
1.68 2.02 2.19 1.40 1.96 3.00 2.89 1.63 1.14 1.34 1.60 1.33 1.38 0.80 0.75 0.80 0.95 0.95 0.86 0.36 0.27 0.14 0.28 0.35 1.08 1.03 1.07 1.40 1.39 1.21 0.63 0.78 1.44 1.01 0.74 0.35 0.38 0.96 0.83 0.96 0.91 0.57 0.64 0.57 0.20
1.51 2.01 1.92 1.61 2.68 3.69 2.66 1.62 1.33 1.05 1.11 0.80 0.24 0.20 0.17 0.34 0.43 0.66 0.54 0.28 0.10 0.07 0.17 0.46 0.98 1.24 1.51 1.57 1.18 1.01 0.95 0.57 0.58 0.43 0.52 0.42 0.81 1.25 1.18 1.21 1.03 0.76 0.76 0.91 0.48
1.45 2.03 1.73 2.21 3.35 2.67 1.73 1.41 1.48 0.94 0.65 0.54 0.25 0.23 0.20 0.19 0.26 0.65 0.68 0.20 0.05 0.03 0.14 0.43 0.93 1.14 0.98 0.34 0.27 0.41 0.38 0.37 0.90 0.50 0.48 0.58 0.84 0.65 0.99 1.38 1.32 1.03 1.20 1.43 0.73
1.49 1.87 2.48 1.67 1.68 1.19 1.11 1.18 1.22 0.70 0.56 0.60 0.31 0.23 0.20 0.14 0.26 0.22 0.60 0.15 0.02 0.02 0.31 0.58 1.06 1.11 0.89 0.65 0.64 0.85 0.43 0.37 0.61 1.00 0.74 0.82 0.88 0.41 0.50 0.78 1.49 1.46 1.39 1.34 1.25
1.59 2.21 2.98 2.58 0.84 0.74 1.21 1.40 1.07 0.59 0.48 0.58 0.35 0.26 0.20 0.09 0.06 0.10 0.71 0.19 0.03 0.07 0.10 0.50 1.00 1.11 0.99 0.66 0.63 0.85 0.46 0.57 1.13 1.13 0.48 0.81 0.41 0.17 0.24 0.58 1.19 1.31 1.41 1.55 1.54
1.37 1.22 0.90 0.82 0.65 0.36 0.79 1.01 0.83 0.82 0.53 0.68 0.55 0.34 0.47 0.24 0.08 0.06 0.50 0.42 0.18 0.15 0.10 0.50 1.10 0.93 0.50 0.29 0.42 0.57 0.57 0.49 0.94 0.52 0.66 0.35 0.19 0.13 0.25 0.65 1.07 1.39 1.59 1.60 1.91
0.87 1.12 0.43 0.16 0.19 0.24 0.62 0.80 0.64 0.61 0.57 0.41 0.37 0.21 0.30 0.26 0.23 0.10 0.12 0.38 0.36 0.10 0.22 0.35 0.72 0.75 0.61 0.24 0.38 0.48 0.55 0.36 0.57 0.29 0.29 0.18 0.15 0.04 0.15 0.36 0.72 1.17 1.41 1.88 2.30
0.70 0.79 0.51 0.26 0.16 0.38 0.36 0.49 0.63 0.60 0.34 0.16 0.23 0.35 0.24 0.08 0.07 0.02 0.01 0.01 0.09 0.19 0.20 0.28 0.51 0.75 0.67 0.48 0.28 0.47 0.58 0.69 0.49 0.21 0.25 0.28 0.15 0.02 0.06 0.24 0.45 0.76 0.96 1.02 1.01